# Wetter Temperatur Luftdruck Luftfeuchtigkeit Sichtweite Windgeschwindigkeit Windrichtung Zeit
1 Clouds 16 1021 88 10000 3.6 210 20:39 17.10.2019
2 Clouds 15 1021 88 10000 3.6 210 20:19 17.10.2019
3 Clouds 15 1021 82 10000 3.1 200 19:59 17.10.2019
4 Clouds 15 1021 82 10000 2.1 190 19:39 17.10.2019
5 Clouds 15 1021 82 10000 2.1 190 19:19 17.10.2019
6 Clouds 15 1020 82 10000 3.1 210 18:58 17.10.2019
7 Clouds 15 1020 88 10000 2.6 190 18:38 17.10.2019
8 Clouds 15 1020 88 10000 2.6 190 18:19 17.10.2019
9 Clouds 16 1019 68 10000 3.6 180 17:42 17.10.2019
10 Clouds 16 1019 68 10000 3.6 180 17:23 17.10.2019
11 Clouds 17 1019 68 10000 3.6 170 16:57 17.10.2019
12 Clouds 17 1018 73 10000 4.1 160 16:38 17.10.2019
13 Clouds 16 1018 73 10000 4.1 160 16:18 17.10.2019
14 Clouds 16 1019 73 10000 5.1 160 15:55 17.10.2019
15 Clouds 16 1010 82 10000 5.1 140 15:37 17.10.2019
16 Clouds 20 1010 82 10000 5.1 140 15:19 17.10.2019
17 Rain 19 1019 82 10000 6.2 180 14:43 17.10.2019
18 Rain 19 1019 82 10000 6.2 180 14:24 17.10.2019
19 Rain 19 1019 82 10000 6.2 180 14:24 17.10.2019
20 Rain 19 1019 82 10000 6.2 180 14:24 17.10.2019
21 Drizzle 19 1019 82 10000 6.2 190 13:57 17.10.2019
22 Clouds 17 1020 73 10000 7.2 190 13:39 17.10.2019
23 Clouds 19 1020 73 10000 7.2 190 13:19 17.10.2019
24 Clouds 20 1020 73 10000 1.5 170 12:41 17.10.2019
25 Clouds 20 1020 73 10000 1.5 170 12:21 17.10.2019
26 Clouds 19 1021 68 10000 2.1 120 11:59 17.10.2019
27 Clouds 19 1022 82 10000 3.1 250 11:41 17.10.2019
28 Clouds 19 1022 82 10000 3.1 250 11:41 17.10.2019
29 Clouds 19 1022 82 10000 3.1 250 11:41 17.10.2019
30 Clouds 19 1022 82 10000 3.1 250 11:41 17.10.2019
31 Clouds 19 1022 82 10000 3.1 250 11:19 17.10.2019
32 Clouds 19 1022 82 10000 3.1 250 10:56 17.10.2019
33 Clouds 19 1022 82 10000 3.1 250 10:56 17.10.2019
34 Clouds 20 1022 88 10000 4.1 160 10:38 17.10.2019
35 Clouds 19 1022 88 10000 4.1 160 10:18 17.10.2019
36 Clouds 18 1023 88 10000 1 0 09:54 17.10.2019
37 Clouds 19 1023 93 10000 1 0 09:36 17.10.2019
38 Clouds 18 1023 93 10000 1 0 09:18 17.10.2019
39 Clouds 18 1023 93 10000 1 0 09:18 17.10.2019
40 Clouds 17 1023 93 4000 1.5 20 08:42 17.10.2019
41 Clouds 17 1023 93 4000 1.5 20 08:24 17.10.2019
42 Rain 16 1023 93 4000 2.1 360 07:56 17.10.2019
43 Rain 16 1023 93 3000 4.1 10 07:38 17.10.2019
44 Rain 15 1023 93 3000 4.1 10 07:18 17.10.2019
45 Rain 15 1023 93 3000 4.1 10 07:18 17.10.2019
46 Clouds 17 1022 93 10000 2.1 200 06:40 17.10.2019
47 Clouds 14 1021 100 10000 2.1 200 06:21 17.10.2019
48 Clouds 13 1021 100 10000 2.1 200 05:57 17.10.2019
49 Clouds 14 1021 93 10000 2.6 210 05:32 17.10.2019
50 Clouds 14 1021 93 10000 2.1 210 04:56 17.10.2019
51 Clouds 15 1020 88 10000 2.041 114 03:55 17.10.2019
52 Clouds 15 1020 88 10000 3.1 180 02:50 17.10.2019
53 Clouds 15 1020 88 10000 3.6 200 01:39 17.10.2019
54 Clouds 16 1021 88 10000 2.1 20 00:40 17.10.2019
55 Clouds 15 1021 88 10000 2.1 20 00:19 17.10.2019
56 Clouds 16 1021 88 10000 2.6 70 23:42 16.10.2019
57 Clouds 16 1021 88 10000 2.6 70 23:21 16.10.2019
58 Clouds 16 1021 88 10000 2.6 70 23:21 16.10.2019
59 Clouds 16 1021 82 10000 3.1 80 22:56 16.10.2019
60 Clouds 16 1021 82 10000 3.1 80 22:56 16.10.2019
61 Thunderstorm 17 1021 77 10000 4.6 90 22:37 16.10.2019
62 Thunderstorm 18 1021 77 10000 4.6 80 22:19 16.10.2019
63 Thunderstorm 18 1021 77 10000 4.6 80 21:58 16.10.2019
64 Clouds 18 1020 68 10000 5.1 80 21:38 16.10.2019
65 Clouds 18 1020 68 10000 5.1 80 21:19 16.10.2019
66 Clouds 19 1021 68 10000 3.1 90 20:58 16.10.2019
67 Clouds 19 1020 60 10000 6.2 80 20:40 16.10.2019
68 Clouds 19 1020 60 10000 6.2 80 20:21 16.10.2019
69 Clouds 19 1020 60 10000 4.1 80 19:59 16.10.2019
70 Clouds 19 1018 56 10000 4.1 80 19:39 16.10.2019
71 Clouds 19 1018 56 10000 4.1 80 19:39 16.10.2019
72 Clouds 19 1018 56 10000 4.1 80 19:21 16.10.2019
73 Clouds 20 1019 56 10000 5.7 90 18:55 16.10.2019
74 Clouds 20 1018 53 10000 7.7 90 18:36 16.10.2019
75 Clouds 20 1018 53 10000 7.7 90 18:18 16.10.2019
76 Clouds 21 1018 49 10000 6.2 90 17:54 16.10.2019
77 Clouds 21 1018 49 10000 6.2 90 17:54 16.10.2019
78 Clouds 21 1017 47 10000 4.1 80 17:36 16.10.2019
79 Clouds 22 1017 44 10000 5.1 70 17:18 16.10.2019
80 Clouds 23 1016 41 10000 4.1 60 16:43 16.10.2019
81 Clouds 23 1016 41 10000 4.1 60 16:21 16.10.2019
82 Clouds 23 1017 41 10000 7.2 60 15:58 16.10.2019
83 Clouds 22 1017 41 10000 7.2 80 15:39 16.10.2019
84 Clouds 24 1017 39 10000 10.3 90 15:19 16.10.2019
85 Clouds 24 1017 39 10000 10.3 90 14:58 16.10.2019
86 Clouds 24 1017 39 10000 10.3 90 14:39 16.10.2019
87 Clouds 24 1017 39 10000 10.3 90 14:19 16.10.2019
88 Clouds 24 1018 44 10000 5.1 70 13:57 16.10.2019
89 Clouds 24 1018 41 10000 2.6 50 13:38 16.10.2019
90 Clouds 24 1018 41 10000 2.6 50 13:20 16.10.2019
91 Clouds 24 1019 44 10000 5.1 80 12:42 16.10.2019
92 Clouds 24 1019 44 10000 5.1 80 12:19 16.10.2019
93 Clouds 23 1020 47 10000 5.1 90 11:45 16.10.2019
94 Clouds 23 1021 50 10000 3.1 70 11:19 16.10.2019
95 Clouds 23 1021 50 10000 3.1 90 10:55 16.10.2019
96 Clouds 23 1021 56 10000 2.6 40 10:36 16.10.2019
97 Clouds 21 1022 56 10000 2.1 80 10:18 16.10.2019
98 Clouds 22 1022 56 10000 4.1 90 09:40 16.10.2019
99 Clouds 20 1022 56 10000 4.1 90 09:21 16.10.2019
100 Clouds 19 1022 68 10000 4.1 110 08:46 16.10.2019
101 Clouds 19 1022 68 10000 4.1 110 08:26 16.10.2019
102 Clouds 18 1023 82 10000 2.1 60 07:58 16.10.2019
103 Clouds 18 1021 77 10000 2.1 70 07:40 16.10.2019
104 Clouds 17 1021 77 10000 2.1 70 07:21 16.10.2019
105 Clouds 16 1020 88 10000 3.1 30 06:46 16.10.2019
106 Clouds 17 1021 93 10000 2.6 10 06:27 16.10.2019
107 Clouds 14 1020 93 10000 2.1 30 04:24 16.10.2019
108 Clouds 16 1020 93 10000 1.5 350 02:50 16.10.2019
109 Clouds 16 1020 93 10000 1 350 01:20 16.10.2019
110 Clouds 16 1020 93 10000 1 350 01:20 16.10.2019
111 Clouds 16 1020 93 10000 1 350 00:58 16.10.2019
112 Clouds 16 1020 82 10000 0.868 2 00:39 16.10.2019
113 Clouds 15 1021 88 10000 1 0 23:58 15.10.2019
114 Clouds 15 1021 88 10000 1.5 20 23:38 15.10.2019
115 Clouds 17 1021 88 10000 1.5 20 23:19 15.10.2019
116 Clouds 17 1021 82 10000 3.1 50 22:55 15.10.2019
117 Clear 17 1020 77 10000 3.1 60 22:37 15.10.2019
118 Clear 17 1020 77 10000 3.1 60 22:18 15.10.2019
119 Clear 17 1020 77 10000 3.1 60 22:18 15.10.2019
120 Clouds 18 1021 72 10000 4.6 60 21:54 15.10.2019
121 Clouds 18 1020 72 10000 3.1 50 21:36 15.10.2019
122 Clouds 18 1020 72 10000 3.1 50 21:18 15.10.2019
123 Clouds 18 1021 72 10000 3.6 60 20:54 15.10.2019
124 Clouds 18 1021 72 10000 3.6 60 20:54 15.10.2019
125 Clouds 18 1021 72 10000 3.6 60 20:54 15.10.2019
126 Clouds 18 1019 68 10000 3.1 30 20:36 15.10.2019
127 Clouds 18 1019 68 10000 3.1 30 20:18 15.10.2019
128 Clouds 19 1019 64 10000 3.1 70 19:41 15.10.2019
129 Clouds 19 1019 64 10000 3.1 70 19:20 15.10.2019
130 Clouds 19 1019 64 10000 3.1 70 19:20 15.10.2019
131 Clouds 19 1019 64 10000 5.7 90 18:57 15.10.2019
132 Clouds 20 1018 60 10000 3.6 100 18:39 15.10.2019
133 Clouds 20 1018 60 10000 3.6 100 18:20 15.10.2019
134 Clouds 21 1018 60 10000 6.2 110 17:43 15.10.2019
135 Clouds 21 1018 60 10000 6.2 110 17:21 15.10.2019
136 Clouds 22 1018 50 10000 4.1 90 16:59 15.10.2019
137 Clouds 22 1018 57 10000 4.1 180 16:41 15.10.2019
138 Clouds 22 1018 53 10000 3.6 70 16:21 15.10.2019
139 Clouds 22 1018 53 10000 3.6 70 15:56 15.10.2019
140 Clouds 22 1018 64 10000 2.6 170 15:38 15.10.2019
141 Clouds 22 1018 64 10000 2.6 170 15:19 15.10.2019
142 Clouds 22 1019 57 10000 2.1 360 14:55 15.10.2019
143 Drizzle 22 1018 56 10000 3.6 20 14:36 15.10.2019
144 Clouds 22 1019 53 10000 1.5 0 14:18 15.10.2019
145 Clouds 22 1019 56 10000 3.6 40 13:43 15.10.2019
146 Clouds 23 1019 56 10000 3.6 40 13:20 15.10.2019
147 Clouds 22 1020 60 10000 3.6 70 12:56 15.10.2019
148 Clouds 23 1020 56 10000 5.1 60 12:37 15.10.2019
149 Clouds 22 1021 60 10000 3.1 110 12:18 15.10.2019
150 Clouds 21 1021 60 10000 3.6 100 11:42 15.10.2019
151 Clouds 22 1021 60 10000 3.6 100 11:20 15.10.2019
152 Clouds 22 1021 60 10000 3.6 100 11:20 15.10.2019
153 Clouds 21 1023 60 10000 3.6 140 10:55 15.10.2019
154 Clouds 20 1023 64 10000 3.1 150 10:37 15.10.2019
155 Clouds 20 1023 68 10000 3.6 180 10:18 15.10.2019
156 Clouds 20 1022 77 10000 4.1 170 09:40 15.10.2019
157 Clouds 20 1022 77 10000 4.1 170 09:40 15.10.2019
158 Clouds 19 1023 73 10000 4.1 180 09:21 15.10.2019
159 Clouds 19 1023 73 10000 4.1 180 08:58 15.10.2019
160 Clouds 18 1022 77 10000 3.1 170 08:40 15.10.2019
161 Clouds 17 1022 93 10000 2.6 170 08:20 15.10.2019
162 Clouds 17 1022 93 10000 2.6 170 08:19 15.10.2019
163 Clouds 17 1022 93 10000 2.6 170 08:19 15.10.2019
164 Clouds 18 1022 93 10000 2.6 170 07:43 15.10.2019
165 Clouds 17 1022 93 10000 2.6 170 07:22 15.10.2019
166 Clouds 16 1022 88 10000 2.6 170 06:56 15.10.2019
167 Clouds 16 1021 93 10000 3.1 150 06:37 15.10.2019
168 Clouds 15 1021 93 10000 1 0 05:56 15.10.2019
169 Clouds 14 1021 93 10000 1 0 05:36 15.10.2019
170 Clouds 14 1021 100 10000 1.5 79.661 04:48 15.10.2019
171 Clouds 15 1021 93 10000 1 0 04:18 15.10.2019
172 Clouds 15 1021 93 10000 3.6 110 03:35 15.10.2019
173 Clouds 15 1021 93 10000 3.6 110 03:35 15.10.2019
174 Clouds 16 1021 93 10000 3.1 60 01:57 15.10.2019
175 Clouds 16 1021 93 10000 4.1 50 01:39 15.10.2019
176 Clouds 15 1022 93 10000 4.6 70 00:59 15.10.2019
177 Clouds 15 1022 93 10000 2.6 50 00:25 15.10.2019
178 Clouds 15 1022 93 10000 2.6 30 23:59 14.10.2019
179 Clouds 16 1023 93 10000 3.1 30 23:37 14.10.2019
180 Clouds 16 1023 93 10000 1.5 10 23:18 14.10.2019
181 Clouds 15 1022 93 10000 1.5 350 22:39 14.10.2019
182 Clouds 16 1022 93 10000 1.5 350 22:21 14.10.2019
183 Clear 16 1022 93 10000 2.1 40 21:58 14.10.2019
184 Clouds 16 1021 88 10000 2.46 76.162 21:39 14.10.2019
185 Clouds 16 1021 88 10000 4.69 80.349 21:21 14.10.2019
186 Clouds 16 1021 88 10000 4.69 80.349 21:21 14.10.2019
187 Clear 16 1022 93 10000 2.6 40 20:58 14.10.2019
188 Clouds 16 1020 82 10000 3.1 60 20:38 14.10.2019
189 Clouds 16 1020 82 10000 3.1 60 20:38 14.10.2019
190 Clouds 16 1020 82 10000 3.1 60 20:19 14.10.2019
191 -273 0 0 0 0 0 19:55 14.10.2019
192 Clouds 17 1021 88 10000 3.1 80 19:54 14.10.2019
193 Clouds 17 1020 77 10000 3.1 60 19:36 14.10.2019
194 Clouds 17 1020 77 10000 3.1 60 19:18 14.10.2019
195 Clouds 18 1020 77 10000 4.6 80 18:54 14.10.2019
196 Clouds 18 1019 68 10000 3.1 90 18:36 14.10.2019
197 Clouds 19 1020 72 10000 5.1 80 18:18 14.10.2019
198 Clouds 19 1019 68 10000 4.1 120 17:41 14.10.2019
199 Clouds 19 1019 68 10000 4.1 120 17:22 14.10.2019
200 Clouds 20 1018 64 10000 4.1 120 16:46 14.10.2019
201 Clouds 20 1018 64 10000 4.1 120 16:23 14.10.2019
202 Clouds 20 1019 64 10000 5.1 120 15:59 14.10.2019
203 Clouds 21 1017 68 10000 5.1 60 15:40 14.10.2019
204 Clouds 21 1017 68 10000 5.1 60 15:40 14.10.2019
205 Rain 21 1019 64 10000 3.6 130 15:21 14.10.2019
206 Clouds 20 1020 64 10000 4.6 110 14:44 14.10.2019
207 Clouds 22 1020 64 10000 4.6 110 14:25 14.10.2019
208 Clouds 22 1020 60 10000 3.6 100 13:57 14.10.2019
209 Clouds 21 1020 60 10000 7.7 90 13:39 14.10.2019
210 Clouds 23 1020 60 10000 7.7 90 13:20 14.10.2019
211 Clouds 21 1022 68 10000 3.6 110 12:42 14.10.2019
212 Clouds 20 1022 68 10000 3.6 110 12:21 14.10.2019
213 Clouds 21 1022 68 10000 5.1 70 11:55 14.10.2019
214 Clouds 21 1022 68 10000 5.1 70 11:54 14.10.2019
215 Clouds 20 1022 68 10000 5.1 70 11:36 14.10.2019
216 Clouds 19 1023 68 10000 4.1 120 11:18 14.10.2019
217 Clouds 20 1024 72 10000 3.1 100 10:43 14.10.2019
218 Clouds 19 1024 72 10000 3.1 100 10:21 14.10.2019
219 -273 0 0 0 0 0 09:59 14.10.2019
220 Clouds 19 1024 72 10000 3.6 140 09:38 14.10.2019
221 Clouds 17 1024 72 10000 3.6 140 09:19 14.10.2019
222 Clouds 16 1023 88 10000 5.1 120 08:47 14.10.2019
223 Clouds 16 1023 88 10000 5.1 120 08:23 14.10.2019
224 Clouds 16 1022 93 10000 4.1 120 07:44 14.10.2019
225 Clouds 18 1022 93 10000 4.1 120 07:21 14.10.2019
226 Clouds 16 1022 88 10000 3.1 140 06:55 14.10.2019
227 Clouds 15 1022 88 10000 2.6 150 06:27 14.10.2019
228 Clouds 15 1021 93 10000 2.6 0 05:52 14.10.2019
229 Clouds 14 1021 93 10000 3.6 150 04:51 14.10.2019
230 Rain 17 1020 100 10000 3.1 140 03:48 14.10.2019
231 Rain 15 1019 93 9000 1.07 91.452 03:22 14.10.2019
232 Clouds 14 1021 93 10000 1 10 01:46 14.10.2019
233 Clouds 14 1021 93 10000 1.5 40 01:18 14.10.2019
234 Clouds 15 1021 93 10000 2.1 30 00:36 14.10.2019
235 Clouds 15 1022 93 10000 1.5 20 00:18 14.10.2019
236 Clouds 15 1021 93 10000 1.51 80.012 23:40 13.10.2019
237 Clouds 15 1021 93 10000 1.51 80.012 23:19 13.10.2019
238 Clouds 16 1022 93 10000 0.5 300 22:54 13.10.2019
239 Clouds 16 1021 88 10000 1.51 80.012 22:36 13.10.2019
240 Rain 16 1022 93 10000 1.5 120 22:18 13.10.2019
241 Rain 16 1022 93 10000 1.5 120 22:18 13.10.2019
242 Rain 16 1022 93 10000 1.5 120 21:55 13.10.2019
243 Rain 16 1021 88 10000 4.1 90 21:36 13.10.2019
244 Rain 16 1022 93 10000 3.6 80 21:18 13.10.2019
245 Rain 16 1022 93 10000 3.6 80 21:18 13.10.2019
246 Rain 16 1022 93 10000 3.6 80 20:55 13.10.2019
247 Rain 16 1022 93 10000 3.6 80 20:55 13.10.2019
248 Clouds 16 1020 88 10000 4.4 84.938 20:36 13.10.2019
249 Clouds 16 1021 93 10000 2.1 70 20:18 13.10.2019
250 Clouds 16 1019 88 10000 4.4 84.938 19:40 13.10.2019
251 Clouds 15 1019 88 10000 4.4 84.938 19:22 13.10.2019
252 Clouds 16 1019 82 10000 4.1 70 18:59 13.10.2019
253 Clouds 16 1019 82 10000 4.1 70 18:38 13.10.2019
254 Clouds 16 1019 82 10000 4.1 70 18:20 13.10.2019
255 Clouds 17 1019 82 10000 4.1 90 17:59 13.10.2019
256 Clouds 17 1018 88 10000 3.6 80 17:40 13.10.2019
257 Clouds 17 1018 88 10000 3.6 80 17:22 13.10.2019
258 Clouds 17 1019 82 10000 6.2 110 16:43 13.10.2019
259 Clouds 19 1019 82 10000 5.1 120 16:19 13.10.2019
260 Clouds 19 1019 82 10000 5.1 120 15:57 13.10.2019
261 Rain 20 1017 73 10000 8.7 120 15:39 13.10.2019
262 Rain 20 1017 73 10000 8.7 120 15:20 13.10.2019
263 Rain 20 1018 73 10000 3.6 170 14:57 13.10.2019
264 Clouds 20 1018 60 10000 3.6 120 14:39 13.10.2019
265 Clouds 21 1018 60 10000 3.6 120 14:20 13.10.2019
266 Clouds 18 1019 73 10000 4.1 130 13:55 13.10.2019
267 Clouds 23 1019 69 10000 4.6 110 13:37 13.10.2019
268 Clouds 23 1019 69 10000 4.6 110 13:37 13.10.2019
269 Clouds 21 1019 69 10000 4.6 110 13:18 13.10.2019
270 Rain 21 1020 68 10000 5.7 110 12:55 13.10.2019
271 Rain 20 1020 68 10000 5.7 110 12:36 13.10.2019
272 Rain 20 1020 68 10000 5.7 110 12:36 13.10.2019
273 Clouds 20 1020 68 10000 3.6 80 12:18 13.10.2019
274 Clouds 20 1020 68 10000 3.6 80 11:54 13.10.2019
275 Rain 19 1021 73 10000 4.1 100 11:36 13.10.2019
276 Clouds 21 1021 73 10000 2.6 70 11:18 13.10.2019
277 Clouds 21 1022 64 10000 3.1 100 10:40 13.10.2019
278 Clouds 19 1022 64 10000 3.1 100 10:22 13.10.2019
279 Clouds 19 1022 64 10000 3.1 100 10:22 13.10.2019
280 Clouds 19 1022 64 10000 3.1 100 10:22 13.10.2019
281 Clouds 19 1022 82 10000 4.1 160 09:40 13.10.2019
282 Rain 17 1022 82 10000 4.1 160 09:21 13.10.2019
283 Rain 17 1022 82 10000 4.1 160 09:21 13.10.2019
284 Rain 17 1022 82 10000 3.6 150 08:57 13.10.2019
285 Rain 17 1021 93 10000 3.1 150 08:37 13.10.2019
286 Clouds 16 1022 88 10000 3.1 180 08:18 13.10.2019
287 Clouds 18 1021 93 10000 5.1 150 07:45 13.10.2019
288 Clouds 16 1021 93 10000 1.5 60 06:58 13.10.2019
289 Clouds 17 1020 100 10000 3.31 132.38 06:31 13.10.2019
290 Clouds 15 1021 93 10000 2.1 140 05:34 13.10.2019
291 Clouds 15 1021 93 10000 2.1 140 05:34 13.10.2019
292 Clouds 15 1020 93 10000 2.6 140 04:46 13.10.2019
293 Rain 15 1019 93 6000 2.1 130 03:40 13.10.2019
294 Clouds 15 1019 93 10000 3.1 170 02:39 13.10.2019
295 Rain 14 1020 93 7000 2.6 150 01:53 13.10.2019
296 Rain 14 1020 93 7000 4.1 160 01:26 13.10.2019
297 Clouds 15 1021 93 10000 2.6 180 00:46 13.10.2019
298 Clouds 15 1021 93 10000 2.6 180 00:21 13.10.2019
299 Rain 15 1021 100 10000 4.1 180 23:55 12.10.2019
300 Rain 15 1021 100 10000 4.1 180 23:36 12.10.2019
301 Rain 15 1021 100 10000 4.1 180 23:18 12.10.2019
302 Clouds 15 1021 88 10000 3.1 50 22:56 12.10.2019
303 Clouds 16 1021 88 10000 3.1 40 22:37 12.10.2019
304 Clouds 16 1021 88 10000 3.1 40 22:19 12.10.2019
305 Clouds 16 1020 93 10000 4.1 60 21:42 12.10.2019
306 Clouds 16 1020 93 10000 4.1 60 21:24 12.10.2019
307 Rain 17 1021 82 10000 4.6 80 20:58 12.10.2019
308 Rain 17 1021 82 10000 4.6 80 20:58 12.10.2019
309 Clouds 16 1021 82 10000 5.1 70 20:39 12.10.2019
310 Clouds 17 1021 82 10000 5.1 70 20:21 12.10.2019
311 Clouds 16 1020 82 10000 4.1 50 19:37 12.10.2019
312 Clouds 18 1020 82 10000 4.6 60 19:19 12.10.2019
313 -273 0 0 0 0 0 18:56 12.10.2019
314 Clouds 18 1018 82 10000 3.1 120 18:37 12.10.2019
315 Clouds 19 1019 77 10000 5.1 130 18:19 12.10.2019
316 Rain 17 1018 77 10000 5.1 120 17:42 12.10.2019
317 Rain 19 1018 77 10000 5.1 120 17:19 12.10.2019
318 Clouds 20 1018 68 10000 4.1 60 16:54 12.10.2019
319 Clouds 19 1018 68 10000 6.2 30 16:36 12.10.2019
320 Clouds 21 1018 64 10000 4.6 50 16:18 12.10.2019
321 Clouds 21 1018 60 10000 6.2 30 15:43 12.10.2019
322 Clouds 21 1018 60 10000 6.2 30 15:23 12.10.2019
323 Clouds 20 1018 53 10000 7.2 110 14:43 12.10.2019
324 Clouds 21 1018 53 10000 7.2 110 14:22 12.10.2019
325 Clouds 21 1018 57 10000 6.2 80 13:58 12.10.2019
326 Clouds 21 1019 57 10000 7.7 80 13:40 12.10.2019
327 Clouds 20 1019 57 10000 7.7 80 13:21 12.10.2019
328 Clouds 19 1021 60 10000 6.7 80 12:39 12.10.2019
329 Clouds 22 1021 60 10000 6.7 80 12:21 12.10.2019
330 Clouds 22 1021 60 10000 6.7 80 11:58 12.10.2019
331 Clouds 19 1021 64 10000 6.2 80 11:39 12.10.2019
332 Clouds 20 1021 64 10000 6.2 80 11:19 12.10.2019
333 Clouds 21 1022 68 10000 6.7 60 10:43 12.10.2019
334 Clouds 19 1022 68 10000 6.7 60 10:23 12.10.2019
335 -273 0 0 0 0 0 09:58 12.10.2019
336 Clouds 19 1021 77 10000 4.6 70 09:39 12.10.2019
337 Clouds 16 1022 77 10000 4.1 70 09:21 12.10.2019
338 Clouds 16 1022 77 10000 4.1 70 08:57 12.10.2019
339 Clouds 16 1022 77 10000 4.1 70 08:57 12.10.2019
340 Clouds 16 1022 77 10000 4.1 70 08:57 12.10.2019
341 Clouds 16 1021 88 10000 4.6 140 08:38 12.10.2019
342 Clouds 16 1021 88 10000 4.6 140 08:19 12.10.2019
343 Clouds 15 1020 88 10000 3.6 140 07:34 12.10.2019
344 Clouds 16 1020 100 10000 3.1 80 06:51 12.10.2019
345 Clouds 14 1020 100 10000 3.1 50 05:47 12.10.2019
346 Clouds 14 1020 100 10000 2.6 60 05:23 12.10.2019
347 Clouds 12 1011 95 0 1.34 117 04:24 12.10.2019
348 Clouds 12 1010 94 0 1.79 90 03:31 12.10.2019
349 Drizzle 15 1020 93 10000 4.6 100 01:45 12.10.2019
350 Drizzle 14 1020 93 10000 4.6 100 01:21 12.10.2019
351 Clouds 15 1020 93 10000 5.1 80 00:42 12.10.2019
352 Rain 16 1019 93 10000 3.1 70 23:59 11.10.2019
353 Rain 15 1020 93 10000 4.6 70 23:40 11.10.2019
354 Rain 16 1020 93 10000 4.6 70 23:20 11.10.2019
355 Rain 16 1020 93 10000 4.1 80 22:41 11.10.2019
356 Rain 16 1020 93 10000 4.1 80 22:21 11.10.2019
357 Rain 16 1021 93 4000 5.7 100 21:57 11.10.2019
358 Rain 15 1021 93 6000 5.1 100 21:39 11.10.2019
359 Rain 15 1021 93 6000 5.1 100 21:20 11.10.2019
360 Rain 16 1020 93 10000 5.7 110 20:44 11.10.2019
361 Rain 16 1020 93 10000 5.7 110 20:26 11.10.2019
362 Clouds 16 1020 88 10000 4.1 70 19:58 11.10.2019
363 Clouds 16 1019 88 10000 4.1 70 19:39 11.10.2019
364 Clouds 18 1019 88 10000 4.1 70 19:39 11.10.2019
365 Clouds 18 1019 88 10000 4.1 70 19:18 11.10.2019
366 Rain 18 1019 82 10000 4.1 70 18:59 11.10.2019
367 Rain 18 1017 77 10000 3.1 60 18:38 11.10.2019
368 Clouds 18 1018 82 10000 4.6 30 18:19 11.10.2019
369 Clouds 18 1018 82 10000 4.6 30 18:19 11.10.2019
370 Clouds 18 1018 82 10000 4.6 30 17:58 11.10.2019
371 Clouds 19 1018 77 10000 4.6 40 17:38 11.10.2019
372 Clouds 19 1018 77 10000 4.6 40 17:19 11.10.2019
373 Rain 18 1018 64 10000 7.7 70 16:58 11.10.2019
374 Clouds 19 1017 53 10000 7.2 80 16:39 11.10.2019
375 Clouds 20 1017 53 10000 6.2 100 16:19 11.10.2019
376 Clouds 21 1017 64 10000 3.1 120 15:41 11.10.2019
377 Clouds 21 1018 60 10000 7.2 110 15:21 11.10.2019
378 Clouds 22 1018 60 10000 7.2 110 14:58 11.10.2019
379 Clouds 22 1018 60 10000 7.2 110 14:58 11.10.2019
380 Rain 21 1018 60 10000 6.2 90 14:39 11.10.2019
381 Rain 21 1018 68 10000 7.2 100 14:19 11.10.2019
382 Clouds 20 1019 82 10000 8.7 120 13:45 11.10.2019
383 Clouds 21 1019 82 10000 8.7 120 13:25 11.10.2019
384 Rain 21 1019 60 10000 6.7 80 12:57 11.10.2019
385 Clouds 21 1020 64 10000 5.1 70 12:38 11.10.2019
386 Clouds 20 1021 68 10000 5.1 60 12:20 11.10.2019
387 Clouds 20 1021 68 10000 5.1 60 11:58 11.10.2019
388 Clouds 20 1021 68 10000 8.2 70 11:38 11.10.2019
389 Clouds 20 1021 68 10000 8.2 70 11:20 11.10.2019
390 Clouds 20 1022 68 10000 5.7 80 10:55 11.10.2019
391 Clouds 21 1021 72 10000 4.1 70 10:36 11.10.2019
392 Clouds 19 1023 72 10000 6.2 70 10:18 11.10.2019
393 Clouds 20 1023 72 10000 6.7 80 09:41 11.10.2019
394 Clouds 17 1023 77 10000 4.6 70 09:21 11.10.2019
395 Clouds 16 1023 77 10000 4.6 70 08:56 11.10.2019
396 Clouds 16 1023 88 10000 4.6 80 08:38 11.10.2019
397 Clouds 16 1023 88 10000 4.6 80 08:20 11.10.2019
398 Clouds 17 1022 93 10000 4.1 80 07:52 11.10.2019
399 Clouds 17 1021 93 10000 4.1 70 07:33 11.10.2019
400 Clouds 16 1020 100 10000 5.1 70 06:50 11.10.2019
401 Clouds 15 1020 100 10000 5.1 70 06:25 11.10.2019
402 Clouds 14 1021 93 10000 4.1 60 05:47 11.10.2019
403 Clouds 14 1021 93 10000 2.6 60 05:29 11.10.2019
404 Rain 13 1011 94 0 1.79 185 04:50 11.10.2019
405 Rain 13 1010 94 0 0.45 238 03:21 11.10.2019
406 Rain 13 1011 93 0 1.34 146 01:18 11.10.2019
407 Rain 13 1010 93 0 1.34 123 01:18 11.10.2019
408 Clouds 14 1011 93 0 1.79 115 00:31 11.10.2019
409 Clouds 13 1011 92 0 0.89 123 23:58 10.10.2019
410 Clouds 14 1011 93 0 1.34 109 23:40 10.10.2019
411 Clouds 14 1011 93 0 4.3 78.672 23:19 10.10.2019
412 Clouds 14 1012 92 0 0.89 180 22:55 10.10.2019
413 Clouds 14 1012 92 0 0.45 97 22:36 10.10.2019
414 Rain 16 1021 93 10000 4.1 130 22:18 10.10.2019
415 Rain 16 1021 93 10000 4.1 130 21:42 10.10.2019
416 Rain 17 1021 93 10000 4.1 130 21:22 10.10.2019
417 Drizzle 17 1021 82 10000 3.1 40 20:58 10.10.2019
418 Clouds 18 1019 82 10000 4.1 60 20:39 10.10.2019
419 Clouds 17 1020 77 10000 3.6 60 20:20 10.10.2019
420 Clouds 17 1020 77 10000 3.6 60 19:57 10.10.2019
421 Clouds 17 1020 77 10000 3.6 60 19:57 10.10.2019
422 Clouds 17 1019 82 10000 5.1 70 19:39 10.10.2019
423 Clouds 17 1019 72 10000 4.1 80 19:19 10.10.2019
424 Clouds 17 1019 72 10000 4.6 70 18:42 10.10.2019
425 Clouds 19 1019 72 10000 4.6 70 18:21 10.10.2019
426 Clouds 19 1018 68 10000 5.7 70 17:59 10.10.2019
427 Clouds 19 1018 73 10000 5.1 60 17:40 10.10.2019
428 Clouds 19 1018 73 10000 5.1 60 17:18 10.10.2019
429 Clouds 20 1018 60 10000 6.2 60 16:56 10.10.2019
430 Clouds 20 1018 60 10000 6.2 60 16:56 10.10.2019
431 Clouds 20 1018 60 10000 6.2 60 16:37 10.10.2019
432 Clouds 20 1018 60 10000 6.2 60 16:18 10.10.2019
433 Clouds 21 1017 60 10000 6.2 70 15:40 10.10.2019
434 Clouds 22 1017 60 10000 6.2 70 15:22 10.10.2019
435 Clouds 22 1017 60 10000 6.2 70 15:22 10.10.2019
436 Clouds 20 1018 53 10000 6.7 90 14:57 10.10.2019
437 Clouds 20 1018 64 10000 7.7 100 14:37 10.10.2019
438 Clouds 21 1018 56 10000 5.1 80 14:19 10.10.2019
439 Clouds 21 1018 56 10000 5.1 80 13:57 10.10.2019
440 Clouds 23 1019 64 10000 6.2 80 13:39 10.10.2019
441 Clouds 22 1020 60 10000 5.7 90 13:18 10.10.2019
442 Clouds 20 1021 68 10000 5.1 100 12:42 10.10.2019
443 Clouds 20 1021 77 10000 6.2 70 12:21 10.10.2019
444 Clouds 20 1021 77 10000 6.2 70 11:58 10.10.2019
445 Clouds 20 1021 77 10000 6.2 70 11:40 10.10.2019
446 Clouds 20 1022 77 10000 3.1 70 11:19 10.10.2019
447 Clouds 20 1022 83 10000 5.1 60 10:47 10.10.2019
448 Clouds 20 1022 83 10000 5.1 60 10:28 10.10.2019
449 Clouds 19 1023 82 10000 2.1 40 09:59 10.10.2019
450 Clouds 18 1023 88 10000 2.6 20 09:41 10.10.2019
451 Clouds 17 1023 88 10000 2.6 20 09:23 10.10.2019
452 Clouds 17 1023 88 10000 3.1 20 08:59 10.10.2019
453 Clouds 16 1022 93 10000 2.6 340 08:39 10.10.2019
454 Rain 16 1023 93 10000 2.1 10 08:19 10.10.2019
455 Rain 16 1023 93 5000 2.1 30 07:47 10.10.2019
456 Rain 16 1023 93 5000 2.1 30 07:25 10.10.2019
457 Clouds 15 1022 93 10000 2.6 20 06:55 10.10.2019
458 Clouds 14 1022 93 10000 2.6 30 06:36 10.10.2019
459 Clouds 14 1021 100 10000 2.6 20 05:39 10.10.2019
460 Rain 15 1021 100 10000 2.6 20 05:18 10.10.2019
461 Rain 14 1019 87 10000 1.77 91.976 04:34 10.10.2019
462 Rain 12 1009 90 0 3.58 82 02:29 10.10.2019
463 Clouds 14 1021 100 10000 4.1 70 01:37 10.10.2019
464 Clouds 14 1021 100 10000 4.1 70 01:18 10.10.2019
465 Rain 16 1021 100 10000 6.2 80 00:29 10.10.2019
466 Clouds 17 1021 88 10000 3.6 130 23:42 09.10.2019
467 Clouds 17 1021 88 10000 3.6 130 23:24 09.10.2019
468 Clouds 17 1022 88 10000 1.5 200 22:59 09.10.2019
469 Clouds 16 1022 77 10000 3.1 160 22:41 09.10.2019
470 Clouds 17 1022 77 10000 3.1 160 22:22 09.10.2019
471 Thunderstorm 17 1022 77 10000 4.6 150 22:22 09.10.2019
472 Thunderstorm 17 1022 77 10000 4.6 150 21:56 09.10.2019
473 Clouds 18 1020 82 10000 7.2 140 21:38 09.10.2019
474 Clouds 18 1020 82 10000 7.2 140 21:38 09.10.2019
475 Clouds 18 1021 77 10000 5.7 150 21:18 09.10.2019
476 Clouds 18 1021 77 10000 5.7 150 20:54 09.10.2019
477 Clouds 19 1019 68 10000 6.2 150 20:36 09.10.2019
478 Clouds 19 1019 68 10000 6.2 150 20:18 09.10.2019
479 Clouds 18 1019 56 10000 5.7 110 19:43 09.10.2019
480 Clouds 20 1019 56 10000 5.7 110 19:22 09.10.2019
481 Clouds 21 1017 53 10000 8.7 90 18:39 09.10.2019
482 Clouds 21 1017 53 10000 8.7 90 18:21 09.10.2019
483 Clouds 22 1018 50 10000 6.7 90 17:58 09.10.2019
484 Clouds 22 1016 47 10000 8.2 80 17:40 09.10.2019
485 Clouds 22 1016 47 10000 8.2 80 17:22 09.10.2019
486 Clouds 23 1017 44 10000 6.7 80 16:57 09.10.2019
487 Clouds 24 1015 39 10000 4.1 80 16:39 09.10.2019
488 Clouds 24 1015 39 10000 4.1 80 16:39 09.10.2019
489 Clouds 24 1015 39 10000 4.1 80 16:20 09.10.2019
490 Clouds 24 1016 39 10000 4.6 60 15:56 09.10.2019
491 Clouds 25 1016 39 10000 3.6 30 15:37 09.10.2019
492 Clouds 25 1016 39 10000 5.1 120 15:19 09.10.2019
493 Clouds 25 1016 39 10000 5.1 120 14:46 09.10.2019
494 Clouds 24 1016 39 10000 4.1 40 14:20 09.10.2019
495 Clouds 24 1018 41 10000 4.1 70 14:00 09.10.2019
496 Clouds 24 1018 41 10000 4.1 70 13:38 09.10.2019
497 Clouds 23 1018 41 10000 4.1 70 13:38 09.10.2019
498 Clouds 25 1018 41 10000 4.1 70 13:19 09.10.2019
499 Clouds 26 1019 44 10000 3.6 100 12:55 09.10.2019
500 Clouds 25 1020 50 10000 3.1 90 12:37 09.10.2019
501 Clouds 23 1020 50 10000 3.1 90 12:18 09.10.2019
502 Clouds 21 1021 53 10000 2.1 70 11:40 09.10.2019
503 Clouds 22 1021 53 10000 2.1 70 11:21 09.10.2019
504 Clouds 21 1022 53 10000 3.1 60 10:59 09.10.2019
505 Clouds 23 1021 60 10000 4.1 100 10:40 09.10.2019
506 Clouds 23 1021 60 10000 4.1 100 10:19 09.10.2019
507 Clouds 22 1022 60 10000 2.1 0 09:56 09.10.2019
508 Clouds 20 1023 68 10000 2.1 140 09:38 09.10.2019
509 Clouds 19 1023 68 10000 2.1 140 09:18 09.10.2019
510 Clouds 17 1023 64 10000 2.1 110 08:39 09.10.2019
511 Clouds 16 1022 77 10000 2.1 160 08:20 09.10.2019
512 Clouds 19 1022 82 10000 3.1 180 07:47 09.10.2019
513 Clouds 18 1022 82 10000 3.6 170 07:25 09.10.2019
514 Clouds 18 1022 82 10000 3.6 170 06:58 09.10.2019
515 Clouds 17 1021 93 10000 3.1 180 06:40 09.10.2019
516 Clouds 14 1021 82 10000 3.1 190 05:53 09.10.2019
517 Clouds 14 1021 88 10000 2.6 220 04:56 09.10.2019
518 Clouds 15 1020 88 10000 2.1 170 03:48 09.10.2019
519 Clouds 15 1019 88 10000 4.6 140 02:34 09.10.2019
520 Clouds 15 1019 88 10000 2.6 110 01:39 09.10.2019
521 Clouds 15 1019 88 10000 2.6 110 01:39 09.10.2019
522 Clouds 16 1020 88 10000 3.6 90 01:18 09.10.2019
523 Clouds 15 1020 88 10000 3.6 90 00:55 09.10.2019
524 Clouds 16 1021 77 10000 4.6 80 00:36 09.10.2019
525 Clouds 17 1021 77 10000 4.6 80 00:18 09.10.2019
526 Clouds 17 1021 68 10000 4.6 90 23:38 08.10.2019
527 Clouds 18 1021 68 10000 4.6 90 23:18 08.10.2019
528 Clouds 18 1021 68 10000 4.1 90 22:55 08.10.2019
529 Clouds 17 1021 68 10000 5.7 90 22:36 08.10.2019
530 Clouds 17 1021 68 10000 5.7 90 22:18 08.10.2019
531 Clouds 17 1021 64 10000 5.7 90 21:55 08.10.2019
532 Clouds 17 1021 64 10000 5.7 90 21:55 08.10.2019
533 Clouds 19 1021 56 10000 5.7 90 21:36 08.10.2019
534 Clouds 19 1021 53 10000 5.7 90 21:18 08.10.2019
535 Clouds 19 1021 53 10000 5.7 90 20:55 08.10.2019
536 Clouds 19 1020 53 10000 5.1 90 20:37 08.10.2019
537 Clouds 20 1020 49 10000 5.1 90 20:18 08.10.2019
538 Clouds 20 1020 49 10000 5.1 90 19:54 08.10.2019
539 Clouds 20 1018 52 10000 9.3 90 19:36 08.10.2019
540 Clouds 20 1018 52 10000 9.3 90 19:36 08.10.2019
541 Clouds 20 1018 52 10000 9.3 90 19:18 08.10.2019
542 Clouds 21 1018 46 10000 6.7 90 18:41 08.10.2019
543 Clouds 21 1018 41 10000 7.2 90 18:23 08.10.2019
544 Clouds 21 1018 41 10000 7.2 90 17:57 08.10.2019
545 Clouds 21 1018 41 10000 7.2 90 17:57 08.10.2019
546 Clouds 21 1018 41 10000 7.2 90 17:57 08.10.2019
547 Clouds 20 1018 38 10000 6.2 80 17:39 08.10.2019
548 Clouds 23 1017 38 10000 6.2 90 17:19 08.10.2019
549 Clouds 23 1017 38 10000 6.2 90 16:56 08.10.2019
550 Clouds 24 1017 36 10000 6.7 80 16:37 08.10.2019
551 Clouds 24 1017 32 10000 6.2 90 16:18 08.10.2019
552 Clouds 24 1017 31 10000 5.1 110 15:38 08.10.2019
553 Clouds 27 1017 30 10000 5.7 100 15:20 08.10.2019
554 Clouds 24 1017 30 10000 5.7 100 14:56 08.10.2019
555 Clouds 27 1017 28 10000 7.7 110 14:37 08.10.2019
556 Clouds 24 1017 28 10000 7.7 110 14:19 08.10.2019
557 Clouds 26 1018 34 10000 4.6 0 13:55 08.10.2019
558 Clouds 25 1019 30 10000 5.7 70 13:37 08.10.2019
559 Clouds 25 1019 30 10000 5.7 70 13:18 08.10.2019
560 Clouds 25 1019 30 10000 5.7 70 13:18 08.10.2019
561 Clouds 25 1019 41 10000 5.1 100 12:41 08.10.2019
562 Clouds 23 1019 41 10000 5.1 100 12:20 08.10.2019
563 Clouds 23 1019 41 10000 5.1 100 12:20 08.10.2019
564 Clouds 22 1020 40 10000 6.7 70 11:58 08.10.2019
565 Clouds 22 1020 40 10000 6.7 70 11:39 08.10.2019
566 Clouds 22 1020 40 10000 6.7 70 11:21 08.10.2019
567 Clouds 22 1022 46 10000 2.1 0 10:42 08.10.2019
568 Clouds 21 1022 46 10000 2.1 0 10:23 08.10.2019
569 Clouds 19 1013 55 0 2.24 182 09:59 08.10.2019
570 Clouds 19 1013 56 0 1.34 154 09:40 08.10.2019
571 Clouds 19 1023 59 10000 2.9 93.821 09:22 08.10.2019
572 Clouds 18 1023 59 10000 2.9 93.821 08:45 08.10.2019
573 Clouds 18 1023 59 10000 3.34 98.85 08:25 08.10.2019
574 Clouds 17 1023 72 10000 1 0 07:57 08.10.2019
575 Clouds 16 1021 77 10000 3.34 98.85 07:38 08.10.2019
576 Clear 15 1022 87 10000 1 0 07:19 08.10.2019
577 Clear 14 1021 93 10000 1 0 06:45 08.10.2019
578 Clear 13 1021 93 10000 1 0 06:21 08.10.2019
579 Clear 13 1021 87 10000 1 30 05:43 08.10.2019
580 Clear 12 1021 87 10000 1 30 05:43 08.10.2019
581 Clear 13 1020 87 10000 2.1 10 05:19 08.10.2019
582 Clear 13 1020 82 10000 1 360 03:31 08.10.2019
583 Clear 13 1020 82 10000 1.5 20 02:42 08.10.2019
584 Clear 13 1020 82 10000 2.1 20 01:58 08.10.2019
585 Clear 13 1020 82 10000 2.1 20 01:40 08.10.2019
586 Clear 14 1021 77 10000 3.1 20 00:56 08.10.2019
587 Clear 14 1021 77 10000 3.1 20 00:25 08.10.2019
588 Clear 14 1021 77 10000 2.6 10 23:56 07.10.2019
589 Clear 14 1021 77 10000 2.6 10 23:37 07.10.2019
590 Clear 15 1021 77 10000 3.1 10 23:19 07.10.2019
591 Clear 15 1021 77 10000 3.6 30 22:54 07.10.2019
592 Clear 15 1021 77 10000 3.6 30 22:36 07.10.2019
593 Clear 15 1021 72 10000 3.1 60 22:18 07.10.2019
594 Clear 15 1021 72 10000 3.1 60 21:54 07.10.2019
595 Clear 15 1021 72 10000 3.1 60 21:36 07.10.2019
596 Clear 16 1021 63 10000 3.1 60 21:18 07.10.2019
597 Clear 15 1021 72 10000 3.1 60 21:18 07.10.2019
598 Clear 15 1021 63 10000 3.1 60 20:54 07.10.2019
599 Clear 18 1021 59 10000 3.6 70 20:36 07.10.2019
600 Clear 18 1021 59 10000 3.6 70 20:18 07.10.2019
601 Clouds 18 1019 45 10000 6.56 84.902 19:41 07.10.2019
602 Clouds 18 1019 45 10000 6.56 84.902 19:21 07.10.2019
603 Clouds 19 1019 46 10000 5.1 100 18:59 07.10.2019
604 Clouds 19 1019 46 10000 5.1 100 18:59 07.10.2019
605 Clouds 18 1019 38 10000 4.6 90 18:40 07.10.2019
606 Clouds 20 1019 38 10000 4.6 90 18:19 07.10.2019
607 Clouds 20 1019 38 10000 4.1 120 17:56 07.10.2019
608 Clouds 20 1018 38 10000 5.1 120 17:38 07.10.2019
609 Clouds 21 1018 36 10000 4.6 120 17:18 07.10.2019
610 Clouds 22 1018 36 10000 4.6 110 16:44 07.10.2019
611 Clouds 22 1018 36 10000 4.6 110 16:25 07.10.2019
612 Clouds 22 1018 31 10000 4.1 110 15:57 07.10.2019
613 Clouds 21 1018 31 10000 4.1 110 15:38 07.10.2019
614 Clouds 23 1018 36 10000 4.1 120 15:20 07.10.2019
615 Clouds 23 1018 38 10000 6.42 116.154 14:41 07.10.2019
616 Clouds 23 1018 38 10000 6.42 116.154 14:22 07.10.2019
617 Clouds 24 1019 40 10000 6.42 116.154 13:45 07.10.2019
618 -273 0 0 0 0 0 13:21 07.10.2019
619 Clouds 23 1020 43 10000 2.1 0 12:57 07.10.2019
620 Clouds 23 1020 43 10000 2.1 0 12:57 07.10.2019
621 Clouds 24 1020 40 10000 2.6 100 12:39 07.10.2019
622 Clouds 22 1020 40 10000 2.6 100 12:20 07.10.2019
623 Clouds 21 1021 49 10000 2.6 0 11:59 07.10.2019
624 Clouds 21 1022 53 10000 1.5 0 11:39 07.10.2019
625 Clouds 21 1022 53 10000 2.1 0 11:20 07.10.2019
626 Clouds 21 1023 60 10000 2.6 100 10:43 07.10.2019
627 Clouds 20 1023 60 10000 2.6 100 10:23 07.10.2019
628 Clouds 20 1023 60 10000 2.6 90 09:58 07.10.2019
629 Clouds 20 1023 68 10000 4.78 121.054 09:38 07.10.2019
630 Clouds 19 1023 68 10000 2.51 122.741 09:20 07.10.2019
631 Clouds 17 1023 77 10000 1.5 0 08:43 07.10.2019
632 Clouds 16 1023 82 10000 2.6 40 08:20 07.10.2019
633 Clouds 16 1023 82 10000 2.6 40 07:55 07.10.2019
634 Clouds 15 1022 87 10000 3.1 70 07:28 07.10.2019
635 Clouds 16 1022 87 10000 2.6 40 06:58 07.10.2019
636 Clouds 15 1022 93 10000 3.1 40 06:39 07.10.2019
637 Clouds 14 1022 93 10000 3.1 40 06:20 07.10.2019
638 Clouds 14 1021 93 10000 2.1 30 05:27 07.10.2019
639 Clouds 13 1021 93 10000 2.6 30 04:54 07.10.2019
640 Clouds 13 1020 93 10000 2.1 40 03:48 07.10.2019
641 Clouds 13 1020 93 10000 2.1 30 03:30 07.10.2019
642 Clouds 13 1020 93 10000 2.1 30 03:30 07.10.2019
643 Clouds 13 1020 93 10000 1.5 70 02:39 07.10.2019
644 Clouds 13 1020 93 10000 1.5 70 02:19 07.10.2019
645 Clouds 14 1020 93 10000 2.6 90 01:24 07.10.2019
646 Clouds 14 1021 100 10000 2.6 90 00:53 07.10.2019
647 Clouds 15 1021 93 10000 3.1 110 00:26 07.10.2019
648 Clouds 15 1021 93 10000 3.1 90 23:59 06.10.2019
649 Clouds 15 1021 88 10000 2.35 89.512 23:40 06.10.2019
650 Clouds 15 1021 88 10000 2.35 89.512 23:20 06.10.2019
651 Clouds 15 1022 93 10000 2.1 40 22:57 06.10.2019
652 Clouds 15 1021 88 10000 2.35 89.512 22:39 06.10.2019
653 Clouds 15 1021 88 10000 2.35 89.512 22:20 06.10.2019
654 Clouds 15 1021 88 10000 2.35 89.512 22:20 06.10.2019
655 Clouds 14 1022 93 10000 1.5 360 21:55 06.10.2019
656 Clouds 15 1021 88 10000 0.5 0 21:37 06.10.2019
657 Clouds 15 1021 88 10000 0.5 0 21:18 06.10.2019
658 Clouds 15 1021 88 10000 0.5 0 21:18 06.10.2019
659 Clouds 15 1021 88 10000 1.5 270 20:55 06.10.2019
660 Clouds 15 1021 88 10000 1 0 20:36 06.10.2019
661 Rain 15 1021 88 10000 1 0 20:18 06.10.2019
662 Rain 15 1021 93 8000 2.1 160 19:55 06.10.2019
663 Rain 16 1020 88 10000 6.2 90 19:36 06.10.2019
664 Rain 16 1020 88 10000 6.2 90 19:36 06.10.2019
665 Rain 16 1020 88 10000 6.2 90 19:18 06.10.2019
666 Rain 16 1021 88 10000 4.1 110 18:55 06.10.2019
667 Rain 16 1019 93 10000 3.1 90 18:37 06.10.2019
668 Rain 17 1020 88 10000 5.1 140 18:18 06.10.2019
669 Rain 17 1020 88 10000 5.1 140 18:18 06.10.2019
670 Rain 16 1019 88 10000 5.1 120 17:43 06.10.2019
671 Rain 16 1019 88 10000 5.1 120 17:20 06.10.2019
672 Rain 18 1019 64 10000 6.2 140 16:56 06.10.2019
673 Rain 18 1019 64 10000 6.2 140 16:56 06.10.2019
674 Clouds 19 1018 64 10000 5.7 100 16:37 06.10.2019
675 Clouds 19 1018 68 10000 5.1 130 16:19 06.10.2019
676 Clouds 18 1018 68 10000 6.7 120 15:43 06.10.2019
677 Rain 22 1018 64 10000 10.3 120 15:22 06.10.2019
678 Rain 22 1018 64 10000 10.3 120 14:57 06.10.2019
679 Clouds 21 1019 60 10000 6.2 70 14:39 06.10.2019
680 Clouds 20 1019 60 10000 6.2 70 14:20 06.10.2019
681 -273 0 0 0 0 0 13:54 06.10.2019
682 Clouds 21 1020 77 10000 4.6 80 13:36 06.10.2019
683 Clouds 20 1020 72 10000 5.1 130 13:18 06.10.2019
684 Clouds 20 1020 72 10000 5.1 130 12:54 06.10.2019
685 Clouds 20 1020 72 10000 5.1 130 12:54 06.10.2019
686 Rain 20 1021 72 10000 5.7 120 12:36 06.10.2019
687 Clouds 18 1021 77 10000 4.6 110 12:18 06.10.2019
688 Rain 18 1022 88 10000 2.1 60 11:41 06.10.2019
689 Rain 18 1022 88 10000 2.1 60 11:23 06.10.2019
690 Rain 18 1023 93 9000 2.6 50 10:56 06.10.2019
691 Rain 18 1022 88 10000 5.1 70 10:37 06.10.2019
692 Rain 17 1023 88 9000 5.1 70 10:19 06.10.2019
693 Rain 18 1023 88 9000 4.6 50 09:41 06.10.2019
694 Rain 18 1023 88 9000 4.6 50 09:41 06.10.2019
695 Rain 16 1023 88 9000 4.6 50 09:19 06.10.2019
696 Drizzle 16 1023 82 10000 3.1 60 09:19 06.10.2019
697 Clouds 15 1022 88 10000 2.6 60 08:49 06.10.2019
698 Clouds 17 1022 88 10000 2.6 60 08:24 06.10.2019
699 Clouds 16 1023 88 10000 2.6 40 07:58 06.10.2019
700 Clouds 16 1022 93 10000 2.6 130 07:40 06.10.2019
701 Clouds 16 1021 93 10000 4.1 130 06:53 06.10.2019
702 Clouds 14 1021 93 10000 3.6 90 05:41 06.10.2019
703 Clouds 14 1021 93 10000 2.1 80 04:40 06.10.2019
704 Clouds 15 1021 88 10000 1.5 90 02:56 06.10.2019
705 Clouds 15 1020 93 10000 0.3 60.208 02:32 06.10.2019
706 Clouds 14 1021 88 10000 2.1 130 01:49 06.10.2019
707 Clouds 15 1021 88 10000 3.6 140 01:30 06.10.2019
708 Clouds 15 1021 88 10000 3.6 140 01:30 06.10.2019
709 Clouds 14 1021 93 10000 3.6 140 00:59 06.10.2019
710 Clouds 15 1021 88 10000 2.6 0 00:36 06.10.2019
711 Clouds 16 1021 88 10000 2.6 0 00:18 06.10.2019
712 Clouds 16 1021 93 10000 4.1 140 23:41 05.10.2019
713 Clouds 16 1021 93 10000 4.1 140 23:19 05.10.2019
714 Clouds 16 1022 88 10000 4.1 0 22:55 05.10.2019
715 Clouds 16 1021 93 10000 4.6 150 22:36 05.10.2019
716 Clouds 17 1022 77 10000 4.1 150 22:18 05.10.2019
717 Clouds 17 1021 82 10000 7.2 140 21:41 05.10.2019
718 Clouds 17 1021 82 10000 7.2 140 21:41 05.10.2019
719 Clouds 17 1021 82 10000 7.2 140 21:22 05.10.2019
720 Clouds 17 1021 77 10000 3.1 160 20:57 05.10.2019
721 Clouds 17 1021 88 10000 3.6 160 20:39 05.10.2019
722 Clouds 18 1021 77 10000 3.6 150 20:19 05.10.2019
723 Clouds 18 1019 77 10000 8.2 150 19:55 05.10.2019
724 Clouds 18 1019 77 10000 8.2 150 19:36 05.10.2019
725 Clouds 19 1020 60 10000 6.2 100 19:18 05.10.2019
726 Clouds 19 1020 60 10000 6.2 100 18:54 05.10.2019
727 Clouds 19 1020 60 10000 6.2 100 18:54 05.10.2019
728 Clouds 19 1019 68 10000 6.7 150 18:36 05.10.2019
729 Clouds 20 1019 53 10000 6.2 90 18:18 05.10.2019
730 Clouds 21 1018 49 10000 5.7 70 17:40 05.10.2019
731 Clouds 21 1018 49 10000 5.7 70 17:21 05.10.2019
732 Clouds 22 1018 44 10000 6.2 90 16:55 05.10.2019
733 Clouds 21 1018 47 10000 5.7 90 16:36 05.10.2019
734 Clouds 23 1018 47 10000 5.7 90 16:18 05.10.2019
735 Clouds 25 1018 47 10000 6.2 100 15:55 05.10.2019
736 Clouds 25 1018 47 10000 6.2 100 15:55 05.10.2019
737 Clouds 23 1018 44 10000 3.6 60 15:36 05.10.2019
738 Clouds 23 1018 47 10000 4.6 70 15:18 05.10.2019
739 Clouds 21 1019 50 10000 6.2 90 14:41 05.10.2019
740 Clouds 23 1019 47 10000 5.1 60 14:20 05.10.2019
741 Clouds 21 1020 53 10000 5.7 60 13:43 05.10.2019
742 Clouds 21 1020 53 10000 6.2 70 13:25 05.10.2019
743 Clouds 21 1020 53 10000 6.2 70 12:58 05.10.2019
744 Clouds 20 1020 82 10000 5.35 158.37 12:40 05.10.2019
745 Clouds 20 1020 82 10000 6.39 135.406 12:18 05.10.2019
746 Clouds 21 1021 60 10000 3.1 90 11:39 05.10.2019
747 Clouds 21 1021 60 10000 3.1 90 11:20 05.10.2019
748 Clouds 20 1022 60 10000 2.6 60 10:55 05.10.2019
749 Rain 18 1013 70 0 4.92 112 10:37 05.10.2019
750 Clouds 19 1022 72 10000 2.6 80 10:18 05.10.2019
751 Clouds 20 1022 72 10000 2.6 80 09:40 05.10.2019
752 Clouds 19 1022 72 10000 2.6 80 09:22 05.10.2019
753 Clouds 17 1023 68 10000 2.6 80 08:42 05.10.2019
754 Clouds 17 1023 68 10000 2.6 80 08:23 05.10.2019
755 Clouds 18 1023 82 10000 1.5 70 07:59 05.10.2019
756 Clouds 17 1022 82 10000 2.1 20 07:39 05.10.2019
757 Clouds 16 1022 88 10000 1.5 30 07:20 05.10.2019
758 Clouds 17 1022 88 10000 1.5 30 06:50 05.10.2019
759 Clouds 15 1021 93 10000 2.1 30 06:18 05.10.2019
760 Clouds 15 1020 88 10000 1.57 79.148 04:44 05.10.2019
761 Clouds 16 1019 88 10000 1.57 79.148 03:30 05.10.2019
762 Clouds 15 1020 88 10000 2.1 90 01:59 05.10.2019
763 Clouds 15 1020 88 10000 2.6 80 01:24 05.10.2019
764 Clouds 16 1021 77 10000 4.6 70 00:46 05.10.2019
765 Clouds 14 1021 87 10000 2.1 70 00:46 05.10.2019
766 Clouds 15 1021 77 10000 4.6 70 00:27 05.10.2019
767 Clouds 15 1022 82 10000 3.6 60 23:46 04.10.2019
768 Clouds 16 1022 82 10000 3.6 60 23:28 04.10.2019
769 Clouds 16 1022 82 10000 4.1 70 22:59 04.10.2019
770 Clouds 16 1023 77 10000 9.3 70 22:41 04.10.2019
771 Clouds 16 1023 77 10000 9.3 70 22:23 04.10.2019
772 Clouds 15 1022 77 10000 4.6 80 21:58 04.10.2019
773 Clouds 15 1022 77 10000 3.1 20 21:39 04.10.2019
774 Clouds 17 1022 77 10000 3.1 20 21:21 04.10.2019
775 Clouds 17 1022 77 10000 3.6 40 20:57 04.10.2019
776 Clouds 17 1020 72 10000 4.1 40 20:39 04.10.2019
777 Clouds 17 1020 72 10000 4.1 40 20:21 04.10.2019
778 Clouds 17 1021 68 10000 5.1 70 19:54 04.10.2019
779 Clouds 17 1019 77 10000 4.1 30 19:36 04.10.2019
780 Clouds 19 1019 60 10000 5.1 60 19:18 04.10.2019
781 Clouds 18 1019 60 10000 5.1 60 18:39 04.10.2019
782 Clouds 21 1019 60 10000 5.1 60 18:19 04.10.2019
783 Clouds 22 1020 56 10000 5.1 70 17:57 04.10.2019
784 Clouds 22 1019 53 10000 5.1 80 17:38 04.10.2019
785 Clouds 22 1019 53 10000 5.1 80 17:20 04.10.2019
786 Clouds 19 1019 53 10000 5.7 70 16:55 04.10.2019
787 Clouds 19 1018 53 10000 4.1 70 16:36 04.10.2019
788 Clouds 20 1019 53 10000 6.2 90 16:18 04.10.2019
789 Clouds 20 1019 53 10000 6.2 90 15:55 04.10.2019
790 Clouds 20 1018 49 10000 7.7 90 15:36 04.10.2019
791 Clouds 23 1019 46 10000 6.7 90 15:18 04.10.2019
792 Clouds 23 1019 49 10000 3.1 90 14:42 04.10.2019
793 Clouds 23 1019 46 10000 3.6 100 14:22 04.10.2019
794 Clouds 23 1019 46 10000 3.6 100 13:59 04.10.2019
795 Clouds 23 1020 49 10000 3.6 100 13:40 04.10.2019
796 Clouds 21 1020 49 10000 3.6 100 13:19 04.10.2019
797 Clouds 23 1021 46 10000 3.6 70 12:45 04.10.2019
798 Clouds 23 1021 46 10000 3.6 70 12:27 04.10.2019
799 Clouds 22 1022 49 10000 3.6 60 11:55 04.10.2019
800 Clouds 21 1022 53 10000 4.1 60 11:37 04.10.2019
801 Clouds 20 1022 56 10000 4.1 70 11:18 04.10.2019
802 Clouds 21 1023 60 10000 3.1 130 10:39 04.10.2019
803 Clouds 21 1023 60 10000 3.1 130 10:20 04.10.2019
804 Clouds 21 1023 60 10000 3.1 130 10:20 04.10.2019
805 Clouds 22 1023 56 10000 5.1 90 09:44 04.10.2019
806 Clouds 19 1023 56 10000 5.1 90 09:26 04.10.2019
807 Clouds 19 1023 56 10000 5.1 90 09:26 04.10.2019
808 Clouds 18 1023 60 10000 2.6 80 08:55 04.10.2019
809 Clouds 17 1023 68 10000 4.1 70 08:37 04.10.2019
810 Clouds 17 1023 68 10000 4.1 70 08:37 04.10.2019
811 Clouds 17 1023 68 10000 4.1 70 08:18 04.10.2019
812 Clouds 16 1022 82 10000 3.6 30 07:42 04.10.2019
813 Clouds 16 1022 82 10000 3.6 30 07:20 04.10.2019
814 Clouds 16 1021 87 10000 3.1 30 06:41 04.10.2019
815 Clouds 15 1021 87 10000 3.1 30 06:23 04.10.2019
816 Clouds 14 1021 82 10000 1.26 77.18 05:23 04.10.2019
817 Clouds 14 1022 82 10000 3.6 80 04:54 04.10.2019
818 Clouds 15 1020 77 10000 5.1 90 03:43 04.10.2019
819 Clouds 15 1021 82 10000 3.6 80 02:53 04.10.2019
820 Clouds 15 1021 82 10000 5.7 80 01:55 04.10.2019
821 Clouds 15 1021 82 10000 4.6 80 01:29 04.10.2019
822 Clouds 14 1021 82 10000 4.6 70 00:56 04.10.2019
823 Clouds 16 1021 77 10000 2.6 80 23:55 03.10.2019
824 Clouds 16 1021 82 10000 2.31 98.927 23:36 03.10.2019
825 Clouds 16 1021 82 10000 2.31 98.927 23:18 03.10.2019
826 Clouds 16 1021 82 10000 2.31 98.927 23:18 03.10.2019
827 Clouds 16 1022 77 10000 2.1 110 22:55 03.10.2019
828 Clouds 16 1021 82 10000 2.6 100 22:36 03.10.2019
829 Clouds 16 1022 82 10000 3.6 150 22:18 03.10.2019
830 Clouds 16 1022 82 10000 3.6 150 21:54 03.10.2019
831 Clouds 16 1021 82 10000 4.1 130 21:36 03.10.2019
832 Clouds 17 1022 77 10000 5.1 140 21:18 03.10.2019
833 Clouds 18 1020 72 10000 7.2 130 20:41 03.10.2019
834 Clouds 18 1020 72 10000 7.2 130 20:23 03.10.2019
835 Clear 19 1021 68 10000 7.2 130 19:59 03.10.2019
836 Clouds 19 1020 52 10000 6.2 120 19:41 03.10.2019
837 Clouds 19 1020 52 10000 6.2 120 19:22 03.10.2019
838 Clouds 21 1020 46 10000 6.7 110 18:58 03.10.2019
839 Clouds 20 1020 44 10000 7.2 90 18:38 03.10.2019
840 Clouds 20 1020 44 10000 7.2 90 18:38 03.10.2019
841 Clouds 21 1020 41 10000 7.2 100 18:19 03.10.2019
842 Clouds 21 1020 41 10000 7.2 100 17:55 03.10.2019
843 Clouds 21 1020 41 10000 7.2 100 17:55 03.10.2019
844 Clouds 22 1019 36 10000 3.6 90 17:37 03.10.2019
845 Clouds 23 1020 36 10000 7.2 100 17:18 03.10.2019
846 Clouds 24 1019 31 10000 6.2 90 16:41 03.10.2019
847 Clouds 23 1019 31 10000 6.2 90 16:23 03.10.2019
848 Clouds 24 1020 31 10000 6.2 110 15:55 03.10.2019
849 Clouds 27 1019 31 10000 7.7 120 15:37 03.10.2019
850 Clouds 27 1019 31 10000 7.7 120 15:18 03.10.2019
851 Clouds 26 1019 31 10000 5.7 90 14:43 03.10.2019
852 Clouds 24 1019 31 10000 5.7 90 14:24 03.10.2019
853 Clouds 24 1020 32 10000 6.7 70 13:57 03.10.2019
854 Clouds 27 1021 32 10000 5.7 80 13:39 03.10.2019
855 Clouds 23 1021 31 10000 6.7 80 13:19 03.10.2019
856 Clouds 25 1021 31 10000 6.7 80 12:55 03.10.2019
857 Clouds 25 1021 31 10000 6.7 80 12:55 03.10.2019
858 Clouds 25 1021 31 10000 6.7 80 12:55 03.10.2019
859 Clouds 26 1021 47 10000 8.2 90 12:36 03.10.2019
860 Clouds 23 1021 47 10000 8.2 90 12:18 03.10.2019
861 Clouds 22 1022 49 10000 4.6 60 11:41 03.10.2019
862 Clouds 22 1022 49 10000 4.6 60 11:22 03.10.2019
863 Clouds 23 1023 47 10000 5.1 70 10:58 03.10.2019
864 Clouds 23 1023 47 10000 5.1 70 10:58 03.10.2019
865 Clouds 22 1023 64 10000 5.1 80 10:40 03.10.2019
866 Clouds 22 1023 64 10000 5.1 80 10:18 03.10.2019
867 Clouds 22 1023 53 10000 4.6 70 09:57 03.10.2019
868 Clouds 21 1023 64 10000 3.6 70 09:39 03.10.2019
869 Clouds 19 1023 64 10000 3.6 70 09:20 03.10.2019
870 Clouds 18 1024 73 10000 3.1 90 08:44 03.10.2019
871 Clouds 17 1024 73 10000 3.1 90 08:26 03.10.2019
872 Clouds 19 1024 82 10000 4.1 70 07:57 03.10.2019
873 Clouds 17 1023 88 10000 44.2 80 07:38 03.10.2019
874 Clouds 16 1023 88 10000 44.2 80 07:19 03.10.2019
875 Clouds 16 1021 93 10000 3.1 90 06:46 03.10.2019
876 Clouds 16 1022 93 10000 3.6 80 06:20 03.10.2019
877 Clouds 16 1021 93 10000 4.1 80 05:43 03.10.2019
878 Clouds 16 1021 93 10000 3.1 50 04:51 03.10.2019
879 Clouds 16 1021 93 10000 4.1 80 04:25 03.10.2019
880 Clouds 16 1020 93 10000 5.1 70 03:23 03.10.2019
881 Clouds 15 1021 88 10000 4.1 70 02:38 03.10.2019
882 Clouds 15 1021 88 10000 4.1 80 01:51 03.10.2019
883 Clouds 15 1021 88 10000 4.1 80 01:32 03.10.2019
884 Clouds 16 1022 88 10000 4.1 70 00:47 03.10.2019
885 Clouds 17 1021 88 10000 2.6 70 00:19 03.10.2019
886 Clouds 17 1021 88 10000 2.6 70 23:43 02.10.2019
887 Clouds 17 1021 88 10000 2.6 70 23:21 02.10.2019
888 Clouds 16 1022 82 10000 3.1 80 22:44 02.10.2019
889 Clouds 17 1022 82 10000 3.1 80 22:22 02.10.2019
890 Clouds 17 1022 82 10000 4.1 80 21:57 02.10.2019
891 Clouds 17 1022 82 10000 4.1 80 21:38 02.10.2019
892 Clear 17 1020 72 10000 4.1 80 21:20 02.10.2019
893 Clear 17 1020 72 10000 4.1 80 20:57 02.10.2019
894 Clear 17 1020 72 10000 4.6 90 20:38 02.10.2019
895 Clear 17 1020 72 10000 4.6 90 20:20 02.10.2019
896 Clear 17 1020 72 10000 4.6 90 20:20 02.10.2019
897 Clouds 18 1020 64 10000 4.6 90 19:55 02.10.2019
898 Clouds 18 1020 64 10000 6.2 90 19:55 02.10.2019
899 Clouds 18 1020 64 10000 4.6 90 19:55 02.10.2019
900 Clouds 18 1020 64 10000 6.2 90 19:36 02.10.2019
901 Clouds 18 1020 64 10000 6.2 90 19:36 02.10.2019
902 Clouds 19 1019 60 10000 6.2 90 19:18 02.10.2019
903 Clouds 18 1019 60 10000 6.2 90 18:56 02.10.2019
904 Clouds 19 1019 56 10000 7.7 90 18:37 02.10.2019
905 Clouds 19 1019 56 10000 7.7 90 18:19 02.10.2019
906 Clouds 20 1019 50 10000 7.7 90 17:42 02.10.2019
907 Clouds 20 1019 50 10000 7.7 90 17:21 02.10.2019
908 Clouds 18 1008 68 0 2.68 76 16:59 02.10.2019
909 Clouds 19 1008 67 0 2.68 108 16:41 02.10.2019
910 Clouds 24 1017 44 10000 9.3 70 16:21 02.10.2019
911 Clouds 24 1017 44 10000 9.3 70 15:57 02.10.2019
912 Clouds 22 1019 47 10000 7.7 90 15:38 02.10.2019
913 Clouds 26 1019 47 10000 7.7 90 15:18 02.10.2019
914 Clouds 24 1019 42 10000 6.7 80 14:55 02.10.2019
915 Clouds 24 1018 44 10000 7.7 100 14:37 02.10.2019
916 Clouds 24 1018 44 10000 7.7 100 14:37 02.10.2019
917 Clouds 24 1018 44 10000 7.7 100 14:18 02.10.2019
918 Clouds 24 1020 50 10000 4.6 70 13:42 02.10.2019
919 Clouds 24 1020 50 10000 4.6 70 13:23 02.10.2019
920 Clouds 24 1020 50 10000 4.6 70 12:56 02.10.2019
921 Clouds 23 1020 50 10000 2.6 90 12:37 02.10.2019
922 Clouds 23 1020 50 10000 2.6 90 12:37 02.10.2019
923 Clouds 23 1020 50 10000 2.6 90 12:18 02.10.2019
924 Clouds 22 1022 53 10000 1.5 110 11:43 02.10.2019
925 Clouds 22 1022 53 10000 1.5 110 11:22 02.10.2019
926 Clouds 22 1022 56 10000 3.6 70 10:42 02.10.2019
927 Clouds 22 1023 60 10000 2.6 80 10:20 02.10.2019
928 Clouds 20 1023 64 10000 3.6 70 09:57 02.10.2019
929 Clouds 21 1023 68 10000 3.1 60 09:36 02.10.2019
930 Clouds 21 1023 68 10000 3.1 60 09:18 02.10.2019
931 Clouds 18 1023 77 10000 0.98 84.33 08:42 02.10.2019
932 Clouds 18 1023 77 10000 0.98 84.33 08:22 02.10.2019
933 Clouds 17 1023 82 10000 2.1 50 07:56 02.10.2019
934 Clouds 16 1023 82 10000 2.1 50 07:37 02.10.2019
935 Clouds 16 1023 82 10000 2.1 50 07:19 02.10.2019
936 Clouds 16 1023 82 10000 2.1 50 07:19 02.10.2019
937 Clouds 15 1022 87 10000 3.1 50 06:31 02.10.2019
938 Clouds 14 1020 87 10000 1.34 76.192 05:52 02.10.2019
939 Clouds 14 1020 87 10000 1.34 76.192 05:23 02.10.2019
940 Clouds 15 1021 87 10000 2.1 50 04:43 02.10.2019
941 Clouds 14 1021 87 10000 2.6 80 03:51 02.10.2019
942 Clouds 15 1020 82 10000 1.5 30 02:39 02.10.2019
943 Clouds 15 1020 82 10000 1.5 30 02:21 02.10.2019
944 Clouds 14 1020 82 10000 3.1 50 01:21 02.10.2019
945 Clouds 15 1020 82 10000 2.6 60 00:43 02.10.2019
946 Clouds 16 1021 82 10000 2.1 220 00:23 02.10.2019
947 Clouds 16 1022 82 10000 1.5 210 23:42 01.10.2019
948 Clouds 16 1022 82 10000 1.5 210 23:24 01.10.2019
949 Clouds 16 1022 82 10000 1.5 210 22:58 01.10.2019
950 Clouds 15 1022 82 10000 1.5 210 22:39 01.10.2019
951 Clouds 15 1022 82 10000 1.5 210 22:18 01.10.2019
952 Clouds 15 1022 82 10000 2.6 210 21:55 01.10.2019
953 Clouds 15 1021 82 10000 2.6 210 21:36 01.10.2019
954 Clouds 16 1021 82 10000 2.6 210 21:18 01.10.2019
955 Clouds 16 1021 82 10000 2.6 210 20:54 01.10.2019
956 Clouds 16 1021 82 10000 5.1 210 20:36 01.10.2019
957 Clouds 16 1021 82 10000 5.1 210 20:18 01.10.2019
958 Clouds 16 1020 88 10000 6.2 210 19:43 01.10.2019
959 Clouds 16 1020 88 10000 6.2 210 19:24 01.10.2019
960 Clouds 16 1020 88 10000 9.3 180 18:58 01.10.2019
961 Clouds 18 1020 82 10000 9.3 170 18:39 01.10.2019
962 Clouds 18 1020 82 10000 9.3 170 18:20 01.10.2019
963 Rain 19 1019 72 10000 12.9 150 17:55 01.10.2019
964 Rain 19 1019 72 10000 12.9 150 17:54 01.10.2019
965 Rain 25 1016 34 10000 10.3 140 17:36 01.10.2019
966 Rain 25 1016 34 10000 10.3 140 17:18 01.10.2019
967 Rain 26 1016 34 10000 10.3 140 16:42 01.10.2019
968 Rain 26 1016 34 10000 10.3 140 16:22 01.10.2019
969 Rain 26 1016 32 10000 5.1 110 15:59 01.10.2019
970 Clouds 25 1016 32 10000 3.1 90 15:40 01.10.2019
971 Clouds 27 1016 32 10000 3.1 90 15:21 01.10.2019
972 Clouds 26 1016 32 10000 4.1 110 14:41 01.10.2019
973 Clouds 26 1016 32 10000 4.1 110 14:20 01.10.2019
974 Clouds 26 1016 32 10000 4.1 110 14:20 01.10.2019
975 Clouds 26 1017 30 10000 4.1 30 13:57 01.10.2019
976 Clouds 26 1018 34 10000 2.1 100 13:38 01.10.2019
977 Clouds 26 1018 34 10000 2.1 100 13:19 01.10.2019
978 Clouds 25 1018 34 10000 2.1 100 12:56 01.10.2019
979 Clouds 25 1019 39 10000 3.6 110 12:38 01.10.2019
980 Clouds 25 1019 39 10000 3.6 110 12:18 01.10.2019
981 Clouds 25 1019 42 10000 2.6 120 11:57 01.10.2019
982 Clouds 25 1019 42 10000 2.6 120 11:57 01.10.2019
983 Clouds 24 1020 47 10000 2.6 50 11:37 01.10.2019
984 Clouds 24 1020 47 10000 2.6 50 11:18 01.10.2019
985 Clouds 24 1021 47 10000 1.5 90 10:48 01.10.2019
986 Clouds 23 1021 53 10000 5.1 50 10:28 01.10.2019
987 Clouds 22 1022 57 10000 2.6 340 09:47 01.10.2019
988 Clouds 21 1021 60 10000 2.9 98.178 09:27 01.10.2019
989 Clouds 20 1022 73 10000 1 230 08:46 01.10.2019
990 Clouds 20 1022 68 10000 2.6 130 08:28 01.10.2019
991 Clouds 19 1022 68 10000 2.6 130 07:59 01.10.2019
992 Clouds 19 1022 68 10000 2.6 130 07:41 01.10.2019
993 Rain 18 1022 72 10000 2.6 170 07:20 01.10.2019
994 Rain 17 1022 82 10000 1.5 0 06:43 01.10.2019
995 Rain 17 1020 88 10000 2.6 110 06:18 01.10.2019
996 Clouds 17 1021 88 10000 3.1 90 05:45 01.10.2019
997 Clouds 17 1020 88 10000 3.6 60 04:46 01.10.2019
998 Clouds 17 1020 88 10000 3.1 50 03:58 01.10.2019
999 Clouds 16 1020 88 10000 4.1 50 02:24 01.10.2019
1000 Clouds 16 1020 82 10000 2.1 20 01:57 01.10.2019
1001 Clouds 18 1020 77 10000 3.6 40 00:53 01.10.2019
1002 Clouds 17 1019 68 10000 4.1 30 00:26 01.10.2019
1003 Clouds 18 1020 77 10000 3.6 30 23:55 30.09.2019
1004 Clouds 18 1020 68 10000 3.1 40 23:37 30.09.2019
1005 Clouds 18 1020 68 10000 3.1 40 23:18 30.09.2019
1006 Clouds 17 1021 72 10000 1.5 20 22:42 30.09.2019
1007 Clouds 18 1021 64 10000 3.1 70 22:23 30.09.2019
1008 Clouds 18 1021 56 10000 3.6 90 21:56 30.09.2019
1009 Clouds 19 1020 56 10000 3.1 120 21:37 30.09.2019
1010 Clouds 19 1020 56 10000 3.1 120 21:19 30.09.2019
1011 Clouds 19 1020 46 10000 4.6 120 20:55 30.09.2019
1012 Clouds 19 1020 46 10000 4.6 120 20:55 30.09.2019
1013 Clouds 20 1019 46 10000 4.6 100 20:36 30.09.2019
1014 Clouds 21 1019 46 10000 4.6 100 20:18 30.09.2019
1015 Clouds 21 1018 43 10000 5.1 100 19:54 30.09.2019
1016 Clouds 22 1018 38 0 5.1 90 19:36 30.09.2019
1017 Clouds 22 1018 38 0 5.1 90 19:18 30.09.2019
1018 Clouds 23 1018 33 10000 5.1 90 18:41 30.09.2019
1019 Clouds 23 1018 33 10000 5.1 90 18:21 30.09.2019
1020 Clouds 24 1018 34 10000 6.7 100 17:57 30.09.2019
1021 Clouds 23 1017 31 10000 7.7 90 17:39 30.09.2019
1022 Clouds 25 1017 31 10000 7.7 90 17:20 30.09.2019
1023 Clouds 26 1017 26 10000 6.2 90 16:55 30.09.2019
1024 Clouds 26 1016 26 10000 5.1 100 16:36 30.09.2019
1025 Clouds 26 1016 26 10000 5.1 100 16:18 30.09.2019
1026 Clouds 26 1017 26 10000 6.2 100 15:54 30.09.2019
1027 Clouds 26 1017 28 10000 4.1 90 15:36 30.09.2019
1028 Clouds 26 1017 28 10000 4.1 90 15:18 30.09.2019
1029 Clouds 26 1018 28 10000 3.1 80 14:54 30.09.2019
1030 Clouds 26 1018 28 10000 3.1 80 14:36 30.09.2019
1031 Clouds 26 1018 28 10000 3.1 80 14:18 30.09.2019
1032 Clouds 26 1018 28 10000 3.1 80 13:43 30.09.2019
1033 Clouds 26 1019 37 10000 3.1 0 13:22 30.09.2019
1034 Clouds 27 1019 37 10000 3.1 0 12:58 30.09.2019
1035 Clouds 25 1020 34 10000 4.1 0 12:40 30.09.2019
1036 Clouds 25 1020 34 10000 4.1 0 12:20 30.09.2019
1037 Clouds 24 1021 39 10000 3.6 40 11:43 30.09.2019
1038 Clouds 24 1021 44 10000 2.6 130 11:22 30.09.2019
1039 Clouds 23 1022 47 10000 2.6 0 10:59 30.09.2019
1040 Clouds 23 1022 47 10000 2.6 0 10:39 30.09.2019
1041 Clouds 23 1022 56 10000 2.6 270 10:19 30.09.2019
1042 Clouds 22 1022 53 10000 1.5 0 09:58 30.09.2019
1043 Clouds 22 1022 60 10000 4.14 126.288 09:39 30.09.2019
1044 Clouds 22 1022 60 10000 4.14 126.288 09:39 30.09.2019
1045 Clouds 21 1022 60 10000 1.07 135.568 09:19 30.09.2019
1046 Clouds 20 1023 64 10000 1 0 08:46 30.09.2019
1047 Clouds 20 1021 68 10000 1.02 104.023 08:28 30.09.2019
1048 Clouds 18 1021 82 10000 2.1 120 07:44 30.09.2019
1049 Clouds 17 1021 82 10000 2.1 120 07:26 30.09.2019
1050 Clouds 17 1022 82 10000 1 0 06:50 30.09.2019
1051 Clouds 16 1022 82 10000 1 0 06:50 30.09.2019
1052 Clouds 15 1020 88 10000 2.1 140 06:32 30.09.2019
1053 Clouds 16 1021 88 10000 1.5 60 05:47 30.09.2019
1054 Clouds 16 1021 88 10000 3.6 80 03:45 30.09.2019
1055 Clouds 14 1020 93 10000 3.1 50 02:46 30.09.2019
1056 Clouds 17 1021 77 10000 3.1 40 01:37 30.09.2019
1057 Clouds 17 1021 77 10000 3.1 40 00:42 30.09.2019
1058 Clouds 17 1021 82 10000 2.6 30 00:21 30.09.2019
1059 Clear 17 1021 82 10000 3.1 30 23:47 29.09.2019
1060 Clear 17 1021 77 10000 3.6 30 23:23 29.09.2019
1061 Clear 17 1021 77 10000 4.1 50 22:59 29.09.2019
1062 Clear 17 1021 77 10000 4.1 50 22:40 29.09.2019
1063 Clear 17 1021 72 10000 3.6 40 22:22 29.09.2019
1064 Clear 18 1021 68 10000 2.6 50 21:57 29.09.2019
1065 Clouds 18 1020 56 10000 3.1 80 21:37 29.09.2019
1066 Clouds 18 1020 56 10000 3.1 80 21:19 29.09.2019
1067 Clear 19 1020 56 10000 4.6 100 20:45 29.09.2019
1068 Clear 20 1020 52 10000 3.6 110 20:20 29.09.2019
1069 Clear 20 1019 49 10000 5.1 100 19:59 29.09.2019
1070 Clouds 20 1018 46 10000 6.2 80 19:38 29.09.2019
1071 Clouds 20 1018 46 10000 6.2 80 19:19 29.09.2019
1072 Clouds 21 1018 40 10000 6.7 90 18:56 29.09.2019
1073 Clouds 20 1018 40 10000 6.7 90 18:38 29.09.2019
1074 Clouds 24 1018 40 10000 6.7 90 18:19 29.09.2019
1075 Clouds 22 1018 33 10000 7.2 90 17:58 29.09.2019
1076 Clouds 22 1018 33 10000 7.2 90 17:40 29.09.2019
1077 Clouds 24 1017 31 10000 7.7 90 17:20 29.09.2019
1078 Clouds 25 1017 30 10000 6.7 80 16:59 29.09.2019
1079 Clouds 25 1017 30 10000 6.7 80 16:40 29.09.2019
1080 Clouds 26 1017 28 10000 7.7 70 16:19 29.09.2019
1081 Clouds 26 1017 28 10000 7.7 70 15:57 29.09.2019
1082 Clouds 26 1017 28 10000 5.1 90 15:36 29.09.2019
1083 Clouds 26 1017 28 10000 5.1 90 15:18 29.09.2019
1084 Clouds 25 1017 32 10000 5.1 60 14:55 29.09.2019
1085 Clouds 26 1018 32 10000 5.1 100 14:36 29.09.2019
1086 Clouds 26 1018 32 10000 5.1 100 14:18 29.09.2019
1087 Clouds 26 1018 32 10000 5.1 100 14:18 29.09.2019
1088 Clouds 27 1018 34 10000 6.7 60 13:42 29.09.2019
1089 Clouds 26 1019 39 10000 2.6 0 13:19 29.09.2019
1090 Clouds 26 1019 39 10000 2.6 0 12:58 29.09.2019
1091 Clouds 26 1020 41 10000 3.1 110 12:40 29.09.2019
1092 Clouds 24 1020 41 10000 3.1 110 12:21 29.09.2019
1093 Clouds 24 1021 44 10000 2.6 60 11:58 29.09.2019
1094 Clouds 24 1021 44 10000 2.6 60 11:40 29.09.2019
1095 Clouds 23 1021 47 10000 4.1 120 11:19 29.09.2019
1096 Clouds 23 1022 53 10000 3.6 80 10:57 29.09.2019
1097 Clouds 23 1022 53 10000 3.6 80 10:57 29.09.2019
1098 Clouds 23 1022 53 10000 2.6 100 10:37 29.09.2019
1099 Clouds 23 1022 53 10000 2.6 100 10:19 29.09.2019
1100 Clouds 22 1023 60 10000 1 0 09:55 29.09.2019
1101 Clouds 22 1022 56 10000 3.1 50 09:37 29.09.2019
1102 Clouds 21 1022 56 10000 3.1 50 09:18 29.09.2019
1103 Clouds 19 1023 60 10000 2.1 60 08:42 29.09.2019
1104 Clouds 18 1023 72 10000 2.6 50 08:21 29.09.2019
1105 Clouds 18 1022 68 10000 2.6 40 07:43 29.09.2019
1106 Clouds 17 1022 82 10000 2.1 20 07:25 29.09.2019
1107 Clouds 16 1022 87 10000 2.6 20 06:46 29.09.2019
1108 Clouds 14 1021 93 10000 1.5 20 05:47 29.09.2019
1109 Clear 14 1021 93 10000 2.6 330 04:41 29.09.2019
1110 Clear 14 1021 93 10000 2.1 360 04:23 29.09.2019
1111 Clear 14 1020 87 10000 3.6 30 02:55 29.09.2019
1112 Clear 14 1020 82 10000 3.1 50 02:19 29.09.2019
1113 Clear 14 1020 82 10000 3.1 50 02:19 29.09.2019
1114 Clear 14 1020 77 10000 3.6 50 01:40 29.09.2019
1115 Clear 14 1020 72 10000 3.6 40 00:55 29.09.2019
1116 Clear 15 1021 72 10000 4.6 60 00:36 29.09.2019
1117 Clear 15 1021 72 10000 4.6 60 00:18 29.09.2019
1118 Clear 15 1021 63 10000 5.1 40 23:37 28.09.2019
1119 Clear 16 1021 63 10000 5.1 40 23:19 28.09.2019
1120 Clear 16 1021 59 10000 4.1 40 22:40 28.09.2019
1121 Clear 17 1021 63 10000 3.6 50 22:21 28.09.2019
1122 Clear 17 1021 63 10000 3.6 40 21:58 28.09.2019
1123 Clouds 19 1021 56 10000 3.6 60 21:40 28.09.2019
1124 Clouds 19 1021 56 10000 3.6 60 21:21 28.09.2019
1125 Clouds 20 1021 49 10000 3.1 70 20:57 28.09.2019
1126 Clouds 19 1020 46 10000 4.6 100 20:38 28.09.2019
1127 Clouds 21 1020 46 10000 4.6 100 20:19 28.09.2019
1128 Clouds 22 1018 49 10000 4.6 80 19:56 28.09.2019
1129 Clouds 21 1018 49 10000 4.6 80 19:38 28.09.2019
1130 Clouds 21 1018 49 10000 4.6 80 19:20 28.09.2019
1131 Clouds 21 1019 41 10000 6.7 100 18:55 28.09.2019
1132 Clouds 23 1019 38 10000 6.7 80 18:37 28.09.2019
1133 Clouds 23 1019 38 10000 6.7 80 18:18 28.09.2019
1134 Clouds 23 1018 33 10000 6.2 80 17:55 28.09.2019
1135 Clouds 23 1018 33 10000 6.2 80 17:55 28.09.2019
1136 Clouds 22 1018 36 10000 5.7 80 17:37 28.09.2019
1137 Clouds 24 1018 36 10000 5.7 80 17:18 28.09.2019
1138 Clouds 23 1018 32 10000 4.6 70 16:41 28.09.2019
1139 Clouds 24 1018 32 10000 4.6 70 16:23 28.09.2019
1140 Clouds 23 1018 32 10000 5.7 60 15:41 28.09.2019
1141 Clouds 25 1018 32 10000 6.2 70 15:23 28.09.2019
1142 Clouds 25 1018 34 10000 6.7 70 14:57 28.09.2019
1143 Clouds 25 1018 34 10000 6.7 70 14:38 28.09.2019
1144 Clouds 25 1019 37 10000 3.1 60 14:20 28.09.2019
1145 Clouds 24 1019 36 10000 5.1 50 13:57 28.09.2019
1146 Clouds 25 1020 41 10000 2.6 0 13:38 28.09.2019
1147 Clouds 25 1020 41 10000 2.6 0 13:19 28.09.2019
1148 Clouds 24 1020 41 10000 2.6 0 12:44 28.09.2019
1149 Clouds 24 1021 39 10000 3.6 50 12:20 28.09.2019
1150 Clouds 23 1022 44 10000 2.6 0 11:56 28.09.2019
1151 Clouds 23 1022 47 10000 3.1 20 11:37 28.09.2019
1152 Clouds 23 1022 47 10000 3.1 20 11:18 28.09.2019
1153 Clouds 22 1023 50 10000 2.6 0 10:43 28.09.2019
1154 Clouds 21 1023 53 10000 2.6 80 10:20 28.09.2019
1155 Clouds 21 1023 60 10000 2.1 90 09:57 28.09.2019
1156 Clouds 21 1023 60 10000 3 123.939 09:39 28.09.2019
1157 Clouds 21 1023 60 10000 1.15 194.364 09:18 28.09.2019
1158 Clouds 19 1024 72 10000 2.1 10 08:46 28.09.2019
1159 Clouds 18 1024 72 10000 2.1 10 08:28 28.09.2019
1160 Clouds 18 1024 77 10000 2.6 340 07:45 28.09.2019
1161 Clouds 17 1023 82 10000 0.96 176.943 07:23 28.09.2019
1162 Clouds 16 1024 82 10000 2.6 20 06:56 28.09.2019
1163 Clouds 15 1022 87 10000 0.96 176.943 06:32 28.09.2019
1164 Clouds 14 1023 87 10000 3.1 60 05:57 28.09.2019
1165 Clouds 15 1021 87 10000 1.45 55.938 05:24 28.09.2019
1166 Clouds 15 1022 87 10000 2.6 40 04:41 28.09.2019
1167 Clouds 15 1021 93 10000 2.1 30 03:59 28.09.2019
1168 Clouds 15 1022 87 10000 2.6 50 03:25 28.09.2019
1169 Clouds 15 1022 87 10000 1.5 30 02:57 28.09.2019
1170 Clouds 14 1023 87 10000 2.6 60 02:35 28.09.2019
1171 Clouds 14 1023 87 10000 2.1 40 01:51 28.09.2019
1172 Clouds 14 1023 87 10000 2.1 40 01:27 28.09.2019
1173 Clouds 15 1023 82 10000 2.6 50 00:58 28.09.2019
1174 Clouds 15 1023 82 10000 2.6 50 00:38 28.09.2019
1175 Clouds 15 1023 82 10000 2.6 50 00:18 28.09.2019
1176 Clouds 17 1023 77 10000 3.1 70 23:38 27.09.2019
1177 Clouds 17 1023 77 10000 3.1 70 23:38 27.09.2019
1178 Clouds 17 1023 77 10000 3.1 70 23:19 27.09.2019
1179 Clouds 16 1024 77 10000 3.6 70 22:47 27.09.2019
1180 Clouds 16 1024 77 10000 4.6 70 22:20 27.09.2019
1181 Clouds 16 1024 77 10000 4.6 70 22:20 27.09.2019
1182 Clouds 16 1023 77 10000 4.1 70 21:58 27.09.2019
1183 Clouds 16 1023 77 10000 4.1 70 21:39 27.09.2019
1184 Clouds 16 1023 77 10000 4.1 70 21:20 27.09.2019
1185 Clouds 16 1023 68 10000 4.6 80 20:58 27.09.2019
1186 Clouds 16 1023 68 10000 4.6 80 20:58 27.09.2019
1187 Clouds 17 1022 64 10000 4.1 80 20:40 27.09.2019
1188 Clouds 17 1022 64 10000 4.1 80 20:19 27.09.2019
1189 Clouds 17 1022 64 10000 4.6 90 19:57 27.09.2019
1190 Clouds 17 1022 64 10000 6.2 80 19:38 27.09.2019
1191 Clouds 17 1022 64 10000 6.2 80 19:38 27.09.2019
1192 Clouds 17 1022 64 10000 6.2 80 19:19 27.09.2019
1193 Clouds 17 1021 56 10000 6.7 90 18:41 27.09.2019
1194 Clouds 17 1021 56 10000 6.7 90 18:23 27.09.2019
1195 Clouds 18 1020 49 10000 6.7 90 17:56 27.09.2019
1196 Clouds 18 1020 49 10000 6.7 90 17:56 27.09.2019
1197 Clouds 19 1020 49 10000 7.7 90 17:37 27.09.2019
1198 Clouds 19 1020 49 10000 7.7 90 17:19 27.09.2019
1199 Clouds 19 1020 47 10000 3.6 90 16:57 27.09.2019
1200 Clouds 21 1020 50 10000 5.1 100 16:37 27.09.2019
1201 Clouds 21 1020 50 10000 5.1 100 16:18 27.09.2019
1202 Clouds 21 1020 50 10000 5.1 100 16:18 27.09.2019
1203 Clouds 21 1020 50 10000 5.1 100 16:18 27.09.2019
1204 Clouds 22 1020 53 10000 4.6 90 15:45 27.09.2019
1205 Clouds 22 1020 53 10000 4.6 90 15:21 27.09.2019
1206 Clouds 21 1021 50 10000 2.6 0 14:58 27.09.2019
1207 Clouds 21 1020 56 10000 3.86 127.102 14:40 27.09.2019
1208 Clouds 21 1020 56 10000 3.86 127.102 14:21 27.09.2019
1209 Clouds 20 1022 56 10000 2.1 30 13:57 27.09.2019
1210 Clouds 19 1012 69 0 1.79 133 13:39 27.09.2019
1211 Clouds 20 1023 64 10000 2.1 90 13:21 27.09.2019
1212 Clouds 21 1023 64 10000 2.1 90 12:54 27.09.2019
1213 Clouds 19 1023 64 10000 2.1 90 12:23 27.09.2019
1214 Clouds 18 1024 64 10000 2.1 100 11:58 27.09.2019
1215 Clouds 18 1023 72 10000 4.6 80 11:38 27.09.2019
1216 Clouds 18 1023 72 10000 4.6 80 11:19 27.09.2019
1217 Clouds 18 1023 72 10000 4.6 80 11:19 27.09.2019
1218 Clouds 18 1025 68 10000 1.5 360 10:43 27.09.2019
1219 Clouds 18 1024 82 10000 2.6 40 10:22 27.09.2019
1220 Drizzle 17 1025 77 10000 1 0 09:58 27.09.2019
1221 Drizzle 17 1025 77 10000 1 0 09:40 27.09.2019
1222 Drizzle 16 1025 87 10000 1.59 139.442 09:19 27.09.2019
1223 Clouds 16 1026 82 10000 3.6 30 08:42 27.09.2019
1224 Clouds 15 1025 93 10000 4.1 30 08:21 27.09.2019
1225 Clouds 17 1025 88 10000 1.5 40 07:57 27.09.2019
1226 Clouds 17 1024 88 10000 1.5 10 07:39 27.09.2019
1227 Clouds 15 1024 88 10000 1.5 10 07:19 27.09.2019
1228 Clouds 14 1024 93 10000 2.1 10 06:40 27.09.2019
1229 Clouds 14 1024 93 10000 2.1 10 06:21 27.09.2019
1230 Clouds 14 1024 93 10000 2.6 20 05:47 27.09.2019
1231 Clouds 14 1023 93 10000 2.6 120 05:29 27.09.2019
1232 Clouds 14 1023 88 10000 3.6 150 03:40 27.09.2019
1233 Clouds 14 1023 87 10000 2.6 330 01:56 27.09.2019
1234 Clouds 14 1023 93 10000 2.6 300 01:32 27.09.2019
1235 Clouds 14 1023 82 10000 1.5 350 00:44 27.09.2019
1236 Clouds 16 1023 77 10000 3.6 180 23:58 26.09.2019
1237 Clouds 15 1023 72 10000 4.6 150 23:40 26.09.2019
1238 Clouds 16 1023 72 10000 4.6 150 23:22 26.09.2019
1239 Clouds 16 1024 72 10000 4.1 150 22:58 26.09.2019
1240 Clouds 16 1024 72 10000 4.1 150 22:40 26.09.2019
1241 Clouds 16 1022 82 10000 4.1 150 22:19 26.09.2019
1242 Clouds 17 1023 72 10000 4.1 170 21:59 26.09.2019
1243 Clouds 17 1023 72 10000 4.1 170 21:59 26.09.2019
1244 Clouds 17 1023 72 10000 4.1 170 21:38 26.09.2019
1245 Rain 17 1023 72 10000 4.6 160 21:20 26.09.2019
1246 Rain 18 1022 60 10000 5.1 150 20:59 26.09.2019
1247 Clouds 17 1022 68 10000 4.1 0 20:40 26.09.2019
1248 Clouds 17 1022 68 10000 4.1 0 20:40 26.09.2019
1249 Clouds 18 1022 68 10000 4.1 0 20:22 26.09.2019
1250 Clouds 18 1022 68 10000 4.1 0 20:22 26.09.2019
1251 Clouds 18 1021 68 10000 4.6 120 19:59 26.09.2019
1252 Clouds 18 1020 77 10000 4.1 120 19:40 26.09.2019
1253 Clouds 18 1020 77 10000 4.1 120 19:18 26.09.2019
1254 Rain 19 1021 64 10000 5.7 140 18:58 26.09.2019
1255 Rain 19 1019 72 10000 4.1 90 18:37 26.09.2019
1256 Clouds 20 1020 60 10000 5.1 130 18:19 26.09.2019
1257 Clouds 20 1019 64 10000 4.1 130 17:38 26.09.2019
1258 Clouds 20 1019 64 10000 4.1 130 17:38 26.09.2019
1259 Clouds 20 1019 64 10000 4.1 130 17:19 26.09.2019
1260 Thunderstorm 21 1019 64 10000 3.1 0 16:59 26.09.2019
1261 Thunderstorm 21 1019 64 10000 3.1 0 16:39 26.09.2019
1262 Clouds 22 1018 56 10000 5.1 120 16:20 26.09.2019
1263 Clouds 21 1019 57 10000 3.1 150 16:20 26.09.2019
1264 Clouds 21 1019 57 10000 3.1 150 15:57 26.09.2019
1265 Clouds 21 1019 53 10000 2.6 170 15:37 26.09.2019
1266 Clouds 21 1019 53 10000 2.6 170 15:18 26.09.2019
1267 Clouds 21 1019 57 10000 2.1 170 14:55 26.09.2019
1268 Clouds 21 1020 73 10000 1 0 14:37 26.09.2019
1269 Clouds 22 1020 73 10000 1 0 14:18 26.09.2019
1270 Clouds 21 1021 56 10000 1 0 13:40 26.09.2019
1271 Clouds 21 1021 56 10000 1 0 13:20 26.09.2019
1272 Clouds 21 1021 56 10000 1 0 12:56 26.09.2019
1273 Clouds 21 1021 60 10000 4.1 80 12:38 26.09.2019
1274 Clouds 21 1021 60 10000 4.1 80 12:19 26.09.2019
1275 Clouds 20 1023 64 10000 3.1 30 11:42 26.09.2019
1276 Clouds 19 1023 64 10000 3.1 30 11:21 26.09.2019
1277 Clouds 19 1023 64 10000 1.5 50 10:56 26.09.2019
1278 Clouds 18 1024 68 10000 2.1 0 10:38 26.09.2019
1279 Clouds 19 1024 68 10000 4.1 20 10:19 26.09.2019
1280 Clouds 18 1024 68 10000 4.1 20 09:43 26.09.2019
1281 Clouds 18 1023 77 10000 5.7 140 09:25 26.09.2019
1282 Clouds 18 1024 68 10000 4.6 160 08:56 26.09.2019
1283 Clouds 17 1024 77 10000 5.1 60 08:38 26.09.2019
1284 Clouds 18 1024 77 10000 5.1 60 08:19 26.09.2019
1285 Clouds 17 1023 77 10000 4.6 120 07:41 26.09.2019
1286 Clouds 17 1023 77 10000 4.6 120 07:20 26.09.2019
1287 Clouds 16 1023 82 10000 3.6 160 06:43 26.09.2019
1288 Clouds 16 1022 88 10000 2.58 91.132 06:25 26.09.2019
1289 Clouds 16 1022 88 10000 2.58 91.132 06:25 26.09.2019
1290 Clouds 15 1022 82 10000 4.6 160 05:44 26.09.2019
1291 Clouds 15 1022 82 10000 4.6 160 05:24 26.09.2019
1292 Clouds 16 1022 77 10000 4.6 160 02:51 26.09.2019
1293 Clouds 16 1022 77 10000 4.6 170 01:53 26.09.2019
1294 Clouds 16 1022 77 10000 4.6 170 01:53 26.09.2019
1295 Clouds 16 1022 77 10000 4.6 170 01:53 26.09.2019
1296 Clouds 16 1022 77 10000 4.6 170 01:28 26.09.2019
1297 Clouds 16 1022 72 10000 3.6 160 00:55 26.09.2019
1298 Clouds 16 1022 72 10000 3.6 160 00:37 26.09.2019
1299 Clouds 17 1022 72 10000 1 230 23:57 25.09.2019
1300 Clouds 16 1022 72 10000 1 230 23:38 25.09.2019
1301 Clouds 16 1022 72 10000 1 230 23:18 25.09.2019
1302 Clouds 16 1022 72 10000 1 0 22:41 25.09.2019
1303 Clouds 17 1022 68 10000 1 0 22:20 25.09.2019
1304 Clouds 17 1022 68 10000 2.1 90 21:57 25.09.2019
1305 Clouds 18 1022 64 10000 3.1 130 21:39 25.09.2019
1306 Clouds 18 1022 64 10000 3.1 130 21:19 25.09.2019
1307 Clouds 18 1021 60 10000 5.1 100 20:58 25.09.2019
1308 Clouds 19 1021 53 10000 4.6 100 20:40 25.09.2019
1309 Clouds 20 1021 53 10000 4.6 100 20:21 25.09.2019
1310 Clouds 21 1020 44 10000 5.1 100 19:54 25.09.2019
1311 Clouds 21 1019 46 10000 5.1 90 19:36 25.09.2019
1312 Clouds 21 1019 46 10000 5.1 90 19:18 25.09.2019
1313 Clouds 21 1020 41 10000 5.7 100 18:55 25.09.2019
1314 Clouds 22 1018 47 10000 5.7 80 18:37 25.09.2019
1315 Clouds 22 1019 41 10000 6.2 100 18:18 25.09.2019
1316 Clouds 22 1018 41 10000 5.1 100 17:38 25.09.2019
1317 Clouds 22 1018 41 10000 5.1 100 17:19 25.09.2019
1318 Clouds 23 1019 39 10000 3.6 80 16:55 25.09.2019
1319 Clouds 23 1018 47 10000 5.1 90 16:36 25.09.2019
1320 Clouds 23 1018 47 10000 5.1 90 16:18 25.09.2019
1321 Clouds 23 1018 44 10000 5.1 60 15:41 25.09.2019
1322 Clouds 26 1018 39 10000 3.1 140 15:23 25.09.2019
1323 Clouds 25 1019 39 10000 4.6 90 14:57 25.09.2019
1324 Clouds 25 1019 39 10000 4.6 90 14:39 25.09.2019
1325 Clouds 25 1019 44 10000 3.6 30 14:21 25.09.2019
1326 Clouds 25 1019 47 10000 4.1 70 13:42 25.09.2019
1327 Clouds 23 1020 47 10000 3.6 110 13:24 25.09.2019
1328 Clouds 22 1020 47 10000 3.6 110 12:59 25.09.2019
1329 Clouds 22 1022 47 10000 3.1 0 12:39 25.09.2019
1330 Clouds 22 1022 47 10000 3.1 0 12:21 25.09.2019
1331 Clouds 22 1022 50 10000 3.1 0 11:57 25.09.2019
1332 Clouds 21 1023 56 10000 3.1 60 11:38 25.09.2019
1333 Clouds 20 1023 56 10000 3.1 60 11:19 25.09.2019
1334 Clouds 20 1023 56 10000 3.1 60 10:43 25.09.2019
1335 Clouds 20 1023 60 10000 2.6 40 10:25 25.09.2019
1336 Clouds 20 1023 60 10000 2.6 40 10:25 25.09.2019
1337 Clouds 19 1023 64 10000 2.6 70 09:57 25.09.2019
1338 Clouds 18 1023 68 10000 3.1 90 09:37 25.09.2019
1339 Clouds 18 1023 68 10000 3.1 90 09:19 25.09.2019
1340 Clouds 18 1024 68 10000 1 0 08:44 25.09.2019
1341 Clouds 17 1024 72 10000 2.6 180 08:21 25.09.2019
1342 Clouds 16 1024 77 10000 2.1 210 07:57 25.09.2019
1343 Clouds 18 1023 82 10000 3.1 190 07:38 25.09.2019
1344 Clouds 16 1023 82 10000 3.1 190 07:20 25.09.2019
1345 Clouds 15 1023 82 10000 3.1 240 06:43 25.09.2019
1346 Clouds 15 1022 82 10000 2.6 220 06:22 25.09.2019
1347 Clouds 15 1021 87 10000 1.61 85.831 05:31 25.09.2019
1348 Clouds 14 1021 82 10000 1 0 04:55 25.09.2019
1349 Clouds 14 1021 82 10000 2.28 91.484 02:19 25.09.2019
1350 Clouds 15 1021 82 10000 3.1 50 00:46 25.09.2019
1351 Clouds 17 1021 77 10000 3.1 50 00:26 25.09.2019
1352 Clouds 17 1021 72 10000 2.1 50 23:58 24.09.2019
1353 Clouds 17 1020 68 10000 3.22 84.151 23:39 24.09.2019
1354 Clouds 17 1020 68 10000 3.22 84.151 23:20 24.09.2019
1355 Clouds 17 1021 68 10000 4.1 60 22:39 24.09.2019
1356 Clouds 17 1021 68 10000 4.1 60 22:21 24.09.2019
1357 Clouds 17 1022 68 10000 4.1 70 21:58 24.09.2019
1358 Clouds 18 1021 68 10000 3.6 70 21:37 24.09.2019
1359 Clouds 18 1021 64 10000 4.6 80 21:19 24.09.2019
1360 Clouds 18 1021 64 10000 4.6 80 20:58 24.09.2019
1361 Clouds 18 1021 64 10000 4.6 80 20:40 24.09.2019
1362 Clouds 18 1021 60 10000 5.1 80 20:22 24.09.2019
1363 Clouds 19 1021 60 10000 5.1 80 19:57 24.09.2019
1364 Clouds 19 1021 60 10000 5.1 80 19:57 24.09.2019
1365 Clouds 19 1020 60 10000 4.6 80 19:39 24.09.2019
1366 Clouds 19 1020 60 10000 4.6 80 19:18 24.09.2019
1367 Clouds 19 1020 60 10000 6.2 90 18:55 24.09.2019
1368 Clouds 19 1019 60 10000 5.7 50 18:36 24.09.2019
1369 Clouds 19 1019 60 10000 5.7 50 18:18 24.09.2019
1370 Clouds 20 1020 56 10000 5.7 80 17:54 24.09.2019
1371 Clouds 20 1019 56 10000 3.6 80 17:36 24.09.2019
1372 Clouds 22 1019 56 10000 3.6 80 17:18 24.09.2019
1373 Clouds 21 1019 53 10000 5.7 80 16:41 24.09.2019
1374 Clouds 21 1019 50 10000 4.6 50 16:20 24.09.2019
1375 Clouds 21 1019 50 10000 5.1 60 15:57 24.09.2019
1376 Clouds 21 1019 50 10000 5.7 60 15:37 24.09.2019
1377 Clouds 24 1019 50 10000 5.7 60 15:19 24.09.2019
1378 Clouds 24 1019 50 10000 6.2 80 14:37 24.09.2019
1379 Clouds 24 1019 50 10000 6.2 80 14:18 24.09.2019
1380 Clouds 24 1020 47 10000 3.1 0 13:41 24.09.2019
1381 Clouds 22 1021 56 10000 2.1 150 13:21 24.09.2019
1382 Clouds 22 1021 56 10000 2.1 0 12:42 24.09.2019
1383 Clouds 22 1022 56 10000 2.1 160 12:21 24.09.2019
1384 Clouds 21 1022 60 10000 2.1 150 11:58 24.09.2019
1385 Clouds 21 1022 64 10000 3.43 138.682 11:40 24.09.2019
1386 Clouds 21 1022 64 10000 3.43 138.682 11:21 24.09.2019
1387 Clouds 19 1023 72 10000 3.43 138.682 10:40 24.09.2019
1388 Clouds 19 1023 72 10000 3.43 138.682 10:22 24.09.2019
1389 Clouds 18 1024 72 10000 1 0 09:58 24.09.2019
1390 Clouds 18 1024 72 10000 1 0 09:58 24.09.2019
1391 Clouds 18 1024 77 10000 3.43 138.682 09:40 24.09.2019
1392 Clouds 17 1024 77 10000 2.14 154.797 09:19 24.09.2019
1393 Clouds 18 1024 82 10000 2.14 154.797 08:55 24.09.2019
1394 Clouds 18 1024 68 10000 1.5 40 08:37 24.09.2019
1395 Clouds 17 1024 77 10000 1.5 360 08:19 24.09.2019
1396 Clouds 17 1024 77 10000 1.5 360 07:42 24.09.2019
1397 Clouds 16 1023 82 10000 2.6 170 07:24 24.09.2019
1398 Clouds 14 1023 82 10000 2.21 162.042 06:48 24.09.2019
1399 Clouds 15 1023 82 10000 2.21 162.042 06:28 24.09.2019
1400 Clouds 14 1022 87 10000 1 40 05:51 24.09.2019
1401 Clouds 13 1022 93 10000 0.5 0 05:18 24.09.2019
1402 Clouds 14 1022 82 10000 2.1 80 03:43 24.09.2019
1403 Clouds 14 1021 82 10000 2.6 50 02:46 24.09.2019
1404 Clouds 14 1022 82 10000 2.1 60 01:50 24.09.2019
1405 Clear 15 1022 77 10000 3.1 20 00:43 24.09.2019
1406 Clear 15 1022 82 10000 3.6 360 00:23 24.09.2019
1407 Clear 15 1023 72 10000 2.6 340 23:56 23.09.2019
1408 Clear 15 1023 77 10000 2.1 20 23:37 23.09.2019
1409 Clear 16 1023 77 10000 2.1 20 23:19 23.09.2019
1410 Clear 16 1023 72 10000 2.1 30 22:39 23.09.2019
1411 Clear 17 1023 72 10000 1.5 20 22:20 23.09.2019
1412 Clouds 17 1023 68 10000 1.5 30 21:57 23.09.2019
1413 Clouds 17 1022 60 10000 2.1 90 21:38 23.09.2019
1414 Clouds 18 1022 60 10000 2.1 90 21:19 23.09.2019
1415 Clouds 19 1022 52 10000 2.6 100 20:41 23.09.2019
1416 Clouds 20 1022 49 10000 2.6 110 20:20 23.09.2019
1417 Clouds 20 1022 49 10000 2.6 110 20:20 23.09.2019
1418 Clouds 20 1022 46 10000 5.1 90 19:59 23.09.2019
1419 Clouds 20 1020 53 10000 6.2 100 19:39 23.09.2019
1420 Clouds 20 1020 53 10000 6.2 100 19:21 23.09.2019
1421 Clouds 21 1021 46 10000 6.7 100 18:55 23.09.2019
1422 Clouds 21 1021 46 10000 6.7 100 18:55 23.09.2019
1423 Clouds 21 1020 44 10000 6.7 80 18:36 23.09.2019
1424 Clouds 21 1020 44 10000 6.7 80 18:36 23.09.2019
1425 Clouds 21 1020 44 10000 6.7 80 18:18 23.09.2019
1426 Clouds 21 1020 44 10000 6.7 90 17:55 23.09.2019
1427 -273 0 0 0 0 0 17:55 23.09.2019
1428 Clouds 21 1020 44 10000 6.7 90 17:55 23.09.2019
1429 Clouds 23 1020 41 10000 6.2 90 17:36 23.09.2019
1430 Clouds 23 1020 41 10000 6.2 90 17:36 23.09.2019
1431 Clouds 22 1020 41 10000 6.2 90 17:18 23.09.2019
1432 Clouds 23 1020 44 10000 5.1 90 16:39 23.09.2019
1433 Clouds 24 1019 44 10000 6.7 80 16:21 23.09.2019
1434 Clouds 25 1019 36 10000 7.2 80 15:59 23.09.2019
1435 Clouds 25 1019 36 10000 6.2 120 15:40 23.09.2019
1436 Clouds 25 1019 36 10000 6.2 120 15:19 23.09.2019
1437 Clouds 24 1020 36 10000 3.6 110 14:58 23.09.2019
1438 Clouds 24 1020 36 10000 4.1 130 14:37 23.09.2019
1439 Clouds 25 1020 36 10000 4.1 130 14:19 23.09.2019
1440 Clouds 22 1020 39 10000 2.6 160 13:42 23.09.2019
1441 Clouds 23 1021 44 10000 2.6 0 13:19 23.09.2019
1442 Clouds 23 1021 44 10000 2.6 0 12:59 23.09.2019
1443 Clouds 24 1022 44 10000 3.1 0 12:40 23.09.2019
1444 Clouds 22 1022 44 10000 3.1 0 12:21 23.09.2019
1445 Clouds 22 1023 56 10000 2.6 0 11:55 23.09.2019
1446 Clouds 21 1023 56 10000 2.1 0 11:36 23.09.2019
1447 Clouds 20 1024 56 10000 1.5 0 11:18 23.09.2019
1448 Clouds 21 1024 60 10000 1.5 0 10:42 23.09.2019
1449 Clouds 19 1024 60 10000 1.5 0 10:20 23.09.2019
1450 Clouds 18 1025 68 10000 1 0 09:43 23.09.2019
1451 Clouds 17 1024 68 10000 1.55 98.229 09:25 23.09.2019
1452 Clouds 17 1025 77 10000 1.55 98.229 08:58 23.09.2019
1453 Clouds 17 1026 72 10000 1.5 0 08:39 23.09.2019
1454 Clouds 17 1026 72 10000 1.5 0 08:18 23.09.2019
1455 Clouds 15 1025 82 10000 2.1 230 07:34 23.09.2019
1456 Clouds 14 1024 87 10000 2.1 10 06:58 23.09.2019
1457 Clouds 14 1024 87 10000 1.5 360 06:20 23.09.2019
1458 Clouds 14 1022 87 10000 4.1 40 05:38 23.09.2019
1459 Clouds 13 1022 87 10000 3.6 30 04:58 23.09.2019
1460 Clouds 13 1022 87 10000 3.6 30 04:37 23.09.2019
1461 Clear 14 1022 82 10000 1.23 85.791 01:26 23.09.2019
1462 Clear 14 1023 77 10000 3.1 270 00:39 23.09.2019
1463 Clear 15 1023 77 10000 3.1 270 00:19 23.09.2019
1464 Clear 14 1023 77 10000 3.1 270 23:42 22.09.2019
1465 Clear 15 1023 72 10000 1.5 300 23:22 22.09.2019
1466 Clouds 16 1023 63 10000 1.5 300 22:56 22.09.2019
1467 Clouds 16 1023 63 10000 1.5 0 22:37 22.09.2019
1468 Clouds 16 1023 63 10000 1.5 0 22:19 22.09.2019
1469 Clouds 17 1022 60 10000 1.5 60 21:43 22.09.2019
1470 Clouds 17 1023 60 10000 2.1 170 21:43 22.09.2019
1471 Clouds 17 1022 60 10000 1.5 60 21:21 22.09.2019
1472 -273 0 0 0 0 0 20:46 22.09.2019
1473 Clouds 17 1022 52 10000 6.2 120 20:28 22.09.2019
1474 Clouds 18 1022 49 10000 7.2 100 19:59 22.09.2019
1475 Clouds 18 1021 43 10000 8.2 90 19:41 22.09.2019
1476 Clouds 18 1021 43 10000 8.2 90 19:22 22.09.2019
1477 Clouds 19 1021 38 10000 7.2 90 18:58 22.09.2019
1478 Clouds 18 1020 38 10000 7.2 90 18:38 22.09.2019
1479 Clouds 18 1020 38 10000 7.2 90 18:38 22.09.2019
1480 Clouds 19 1020 38 10000 7.2 90 18:18 22.09.2019
1481 Clouds 19 1020 38 10000 7.7 90 17:56 22.09.2019
1482 Clouds 19 1020 38 10000 8.2 100 17:37 22.09.2019
1483 Clouds 20 1020 38 10000 8.2 100 17:18 22.09.2019
1484 Clouds 22 1019 34 10000 6.2 80 16:42 22.09.2019
1485 Clouds 21 1019 34 10000 6.2 80 16:23 22.09.2019
1486 Clouds 22 1019 34 10000 5.1 100 15:47 22.09.2019
1487 Clouds 23 1019 36 10000 2.6 150 15:28 22.09.2019
1488 Clouds 23 1019 36 10000 4.1 120 14:59 22.09.2019
1489 Clouds 24 1019 34 10000 4.6 110 14:40 22.09.2019
1490 Clouds 24 1019 34 10000 4.6 110 14:22 22.09.2019
1491 Clouds 23 1020 36 10000 4.1 130 13:55 22.09.2019
1492 Clouds 23 1020 36 10000 3.1 180 13:36 22.09.2019
1493 Clouds 23 1020 36 10000 3.1 180 13:18 22.09.2019
1494 Clouds 23 1021 39 10000 3.1 180 12:42 22.09.2019
1495 Clouds 22 1022 41 10000 3.6 150 12:22 22.09.2019
1496 Clouds 22 1022 41 10000 2.6 150 11:56 22.09.2019
1497 Clouds 21 1023 46 10000 3.1 160 11:38 22.09.2019
1498 Clouds 21 1023 46 10000 3.1 160 11:19 22.09.2019
1499 Clouds 21 1024 49 10000 3.6 120 10:44 22.09.2019
1500 Clouds 20 1024 49 10000 3.1 160 10:20 22.09.2019
1501 Clouds 22 1024 49 10000 3.6 0 09:57 22.09.2019
1502 Clouds 21 1025 56 10000 2.1 0 09:38 22.09.2019
1503 Clouds 19 1025 56 10000 2.1 0 09:19 22.09.2019
1504 Clouds 17 1025 72 10000 2.1 0 08:44 22.09.2019
1505 Clouds 16 1025 72 10000 2.1 0 08:23 22.09.2019
1506 Clouds 16 1025 77 10000 2.6 200 07:53 22.09.2019
1507 Clouds 15 1023 82 10000 2.37 152.308 07:34 22.09.2019
1508 Clouds 14 1024 82 10000 2.6 230 06:59 22.09.2019
1509 Clouds 14 1023 87 10000 2.1 180 06:38 22.09.2019
1510 Clouds 11 1021 87 10000 1.94 74.913 05:23 22.09.2019
1511 Clear 13 1022 87 10000 1.5 240 02:59 22.09.2019
1512 Clear 14 1022 87 10000 1.83 88.152 02:36 22.09.2019
1513 Clear 14 1021 82 10000 1 20 02:18 22.09.2019
1514 Clear 15 1021 77 10000 3.1 40 00:57 22.09.2019
1515 Clear 16 1022 72 10000 3.6 40 00:33 22.09.2019
1516 Clouds 16 1022 67 10000 2.6 40 23:57 21.09.2019
1517 Clouds 15 1022 63 10000 3.6 40 23:39 21.09.2019
1518 Clouds 15 1022 59 10000 3.1 40 22:59 21.09.2019
1519 Clouds 15 1022 72 10000 2.6 40 22:38 21.09.2019
1520 Clouds 15 1022 72 10000 2.6 40 22:20 21.09.2019
1521 Clouds 15 1022 72 10000 2.6 40 22:20 21.09.2019
1522 Clouds 16 1022 55 10000 3.6 80 21:42 21.09.2019
1523 Clouds 18 1022 55 10000 4.1 80 21:20 21.09.2019
1524 Clouds 18 1022 52 10000 4.1 80 20:58 21.09.2019
1525 Clouds 18 1022 52 10000 4.1 80 20:58 21.09.2019
1526 Clouds 18 1021 52 10000 9.61 75.278 20:38 21.09.2019
1527 Clouds 18 1021 52 10000 9.61 75.278 20:38 21.09.2019
1528 Clouds 19 1021 52 10000 9.61 75.278 20:19 21.09.2019
1529 Clouds 19 1021 52 10000 9.61 75.278 20:19 21.09.2019
1530 Clouds 20 1021 46 10000 5.1 110 19:46 21.09.2019
1531 Clouds 20 1021 43 10000 6.7 90 19:23 21.09.2019
1532 Clouds 21 1021 40 10000 7.7 90 18:55 21.09.2019
1533 Clouds 21 1020 40 10000 5.7 70 18:36 21.09.2019
1534 Clouds 21 1020 40 10000 5.7 70 18:18 21.09.2019
1535 Clouds 22 1018 33 10000 4.6 110 17:39 21.09.2019
1536 Clouds 23 1019 31 10000 6.2 110 17:19 21.09.2019
1537 Clouds 24 1018 31 10000 3.6 130 16:43 21.09.2019
1538 Clouds 24 1018 31 10000 3.6 130 16:24 21.09.2019
1539 Clouds 24 1018 34 10000 4.1 140 15:48 21.09.2019
1540 Clouds 25 1018 32 10000 5.1 150 15:25 21.09.2019
1541 Clouds 24 1019 32 10000 4.6 160 14:51 21.09.2019
1542 Clouds 24 1019 36 10000 8.2 170 14:32 21.09.2019
1543 Clouds 24 1020 34 10000 4.1 180 13:58 21.09.2019
1544 Clouds 22 1021 38 10000 3.6 140 13:40 21.09.2019
1545 Clouds 22 1021 38 10000 3.6 140 13:40 21.09.2019
1546 Clouds 23 1021 38 10000 3.6 140 13:22 21.09.2019
1547 Clouds 23 1021 38 10000 3.6 140 12:57 21.09.2019
1548 Clouds 23 1021 41 10000 5.1 120 12:38 21.09.2019
1549 Clouds 23 1021 41 10000 5.1 120 12:20 21.09.2019
1550 Clouds 22 1022 49 10000 3.59 162.61 11:47 21.09.2019
1551 Clouds 22 1022 49 10000 3.59 162.61 11:24 21.09.2019
1552 Clouds 24 1023 39 10000 4.6 140 10:55 21.09.2019
1553 Clouds 21 1023 49 10000 3.6 130 10:37 21.09.2019
1554 Clouds 20 1023 49 10000 3.6 130 10:18 21.09.2019
1555 Clouds 21 1023 64 10000 3.6 90 09:40 21.09.2019
1556 Clouds 19 1023 64 10000 3.6 90 09:21 21.09.2019
1557 Clouds 18 1024 64 10000 2.1 0 08:59 21.09.2019
1558 Clouds 17 1024 68 10000 2.1 190 08:40 21.09.2019
1559 Clouds 16 1024 72 10000 2.1 190 07:43 21.09.2019
1560 Clouds 16 1022 77 10000 2.1 150 07:25 21.09.2019
1561 Clouds 16 1022 77 10000 2.1 150 07:25 21.09.2019
1562 Clouds 14 1023 77 10000 3.1 200 06:59 21.09.2019
1563 Clouds 15 1022 82 10000 2.6 180 06:34 21.09.2019
1564 Clouds 14 1022 82 10000 2.6 200 05:51 21.09.2019
1565 Clouds 13 1022 82 10000 1 0 04:38 21.09.2019
1566 Clouds 14 1021 82 10000 1.5 210 03:25 21.09.2019
1567 Clouds 14 1021 82 10000 2.1 30 02:22 21.09.2019
1568 Clouds 14 1021 82 10000 2.1 30 01:46 21.09.2019
1569 Clear 14 1021 77 10000 2.1 20 00:58 21.09.2019
1570 Clear 14 1021 77 10000 2.1 20 00:22 21.09.2019
1571 Clear 14 1021 72 10000 3.1 60 23:48 20.09.2019
1572 Clouds 15 1021 72 10000 3.6 50 23:29 20.09.2019
1573 Clouds 15 1022 59 10000 3.6 70 22:44 20.09.2019
1574 Clouds 17 1022 56 10000 4.6 80 22:25 20.09.2019
1575 Clouds 17 1022 56 10000 4.1 70 21:57 20.09.2019
1576 Clouds 17 1022 56 10000 4.1 70 21:39 20.09.2019
1577 Clouds 18 1022 56 10000 3.6 80 21:21 20.09.2019
1578 Clouds 18 1021 56 10000 2.6 80 20:59 20.09.2019
1579 Clouds 18 1021 56 10000 2.6 80 20:39 20.09.2019
1580 Clouds 19 1021 52 10000 6.2 90 20:19 20.09.2019
1581 Clouds 18 1021 46 10000 5.1 90 19:55 20.09.2019
1582 Clouds 20 1021 46 10000 5.7 100 19:36 20.09.2019
1583 Clouds 20 1021 46 10000 5.7 100 19:18 20.09.2019
1584 Clouds 20 1020 46 10000 8.2 80 18:38 20.09.2019
1585 Clouds 23 1020 46 10000 8.2 80 18:20 20.09.2019
1586 Clouds 21 1020 38 10000 6.2 90 17:47 20.09.2019
1587 Clouds 22 1019 38 10000 4.6 130 17:27 20.09.2019
1588 Clouds 22 1019 38 10000 4.6 130 17:27 20.09.2019
1589 Clouds 22 1020 36 10000 3.1 110 16:59 20.09.2019
1590 Clouds 22 1019 38 10000 3.1 130 16:37 20.09.2019
1591 Clouds 22 1019 38 10000 3.1 130 16:19 20.09.2019
1592 Clouds 23 1020 34 10000 4.6 180 15:41 20.09.2019
1593 Clouds 25 1020 34 10000 4.6 180 15:23 20.09.2019
1594 Clouds 26 1019 41 10000 6.2 140 14:55 20.09.2019
1595 Clouds 24 1020 38 10000 4.1 120 14:36 20.09.2019
1596 Clouds 26 1019 41 10000 6.2 140 14:36 20.09.2019
1597 Clouds 23 1020 38 10000 4.1 120 14:18 20.09.2019
1598 Clouds 23 1020 38 10000 4.1 120 14:18 20.09.2019
1599 Clouds 24 1019 46 10000 5.7 120 13:41 20.09.2019
1600 Clouds 24 1021 38 10000 4.1 170 13:22 20.09.2019
1601 Clouds 24 1021 38 10000 4.1 170 12:41 20.09.2019
1602 Clouds 22 1021 46 10000 5.1 120 12:22 20.09.2019
1603 Clouds 22 1022 41 10000 4.1 0 11:52 20.09.2019
1604 Clouds 22 1022 40 10000 5.1 130 11:27 20.09.2019
1605 Clouds 17 1023 87 10000 7.7 170 10:59 20.09.2019
1606 Clouds 17 1023 87 10000 7.7 170 10:41 20.09.2019
1607 Clouds 17 1023 87 10000 7.7 170 10:22 20.09.2019
1608 Clouds 17 1023 87 10000 7.7 170 10:22 20.09.2019
1609 Clouds 20 1024 48 10000 7.2 170 09:38 20.09.2019
1610 Clouds 18 1024 48 10000 7.2 170 09:19 20.09.2019
1611 Clouds 17 1025 52 10000 4.6 160 08:48 20.09.2019
1612 Clouds 16 1025 59 10000 4.1 170 08:29 20.09.2019
1613 Clouds 15 1025 59 10000 4.1 170 07:59 20.09.2019
1614 Clouds 16 1024 72 10000 2.24 137.926 07:41 20.09.2019
1615 Clouds 14 1024 72 10000 2.24 137.926 07:23 20.09.2019
1616 Clouds 14 1024 77 10000 2.1 260 06:43 20.09.2019
1617 Clouds 14 1024 77 10000 2.1 260 06:43 20.09.2019
1618 Mist 13 1023 87 10000 1.79 68.383 06:19 20.09.2019
1619 Clouds 11 1023 81 10000 2.6 260 04:58 20.09.2019
1620 Clouds 13 1022 82 10000 3.1 240 03:29 20.09.2019
1621 Clouds 13 1022 82 10000 3.1 240 03:29 20.09.2019
1622 Clear 13 1022 76 10000 1.5 240 02:39 20.09.2019
1623 Clear 12 1022 76 10000 2.6 340 01:43 20.09.2019
1624 Clear 13 1022 71 10000 2.6 250 00:43 20.09.2019
1625 Clear 14 1023 63 10000 1.5 240 23:56 19.09.2019
1626 Clear 15 1023 59 10000 2.1 260 23:38 19.09.2019
1627 Clear 15 1023 59 10000 2.1 260 23:18 19.09.2019
1628 Clear 16 1023 63 10000 1 0 22:40 19.09.2019
1629 Clear 16 1023 63 10000 1 0 22:22 19.09.2019
1630 Clear 17 1023 55 10000 2.56 99.872 21:57 19.09.2019
1631 Clear 16 1023 52 10000 4.1 90 21:39 19.09.2019
1632 Clear 16 1023 52 10000 4.1 90 21:19 19.09.2019
1633 Clear 16 1023 52 10000 5.1 90 20:57 19.09.2019
1634 Clear 16 1023 52 10000 5.1 90 20:57 19.09.2019
1635 Clear 16 1023 52 10000 5.1 90 20:39 19.09.2019
1636 Clear 18 1023 49 10000 4.6 80 20:19 19.09.2019
1637 Clear 18 1022 49 10000 4.6 80 19:54 19.09.2019
1638 Clear 19 1021 46 10000 6.2 80 19:36 19.09.2019
1639 Clear 19 1021 46 10000 6.2 80 19:36 19.09.2019
1640 Clear 19 1021 46 10000 6.2 80 19:18 19.09.2019
1641 Clouds 20 1020 35 10000 7.2 80 18:41 19.09.2019
1642 Clouds 20 1020 35 10000 7.2 80 18:22 19.09.2019
1643 Clouds 22 1019 31 10000 7.7 70 17:44 19.09.2019
1644 Clouds 23 1019 31 10000 7.7 70 17:25 19.09.2019
1645 Clouds 24 1020 27 10000 7.2 90 16:59 19.09.2019
1646 Clouds 24 1020 27 10000 7.2 90 16:40 19.09.2019
1647 Clouds 24 1019 29 10000 4.1 60 16:20 19.09.2019
1648 Clouds 24 1019 29 10000 4.1 180 15:41 19.09.2019
1649 Clouds 24 1019 29 10000 4.1 180 15:22 19.09.2019
1650 Clouds 25 1020 28 10000 3.6 90 14:58 19.09.2019
1651 Clouds 24 1019 34 10000 6.2 110 14:39 19.09.2019
1652 Clouds 24 1019 34 10000 6.2 110 14:39 19.09.2019
1653 Clouds 24 1019 34 10000 6.2 110 14:20 19.09.2019
1654 Clouds 25 1020 31 10000 4.1 140 13:57 19.09.2019
1655 Clouds 24 1020 33 10000 5.1 100 13:37 19.09.2019
1656 Clouds 24 1020 33 10000 5.1 100 13:18 19.09.2019
1657 Clouds 23 1021 36 10000 4.6 110 12:37 19.09.2019
1658 Clouds 23 1021 36 10000 4.6 110 12:18 19.09.2019
1659 Clouds 21 1023 33 10000 3.6 140 11:41 19.09.2019
1660 Clouds 21 1023 33 10000 3.6 140 11:22 19.09.2019
1661 Clear 21 1023 37 10000 7.2 150 10:59 19.09.2019
1662 Clear 21 1023 37 10000 7.2 150 10:39 19.09.2019
1663 Clear 21 1023 37 10000 7.2 150 10:21 19.09.2019
1664 Clear 21 1023 37 10000 7.2 150 10:21 19.09.2019
1665 Clear 19 1024 37 10000 6.2 160 09:57 19.09.2019
1666 Clear 19 1024 45 10000 4.6 160 09:39 19.09.2019
1667 Clear 18 1024 45 10000 4.6 160 09:19 19.09.2019
1668 Clear 17 1025 48 10000 3.6 160 08:50 19.09.2019
1669 Clear 17 1025 48 10000 3.6 160 08:23 19.09.2019
1670 Clouds 16 1025 63 10000 1 0 07:44 19.09.2019
1671 Clouds 15 1025 63 10000 1 0 07:22 19.09.2019
1672 Clouds 14 1025 67 10000 1 0 06:57 19.09.2019
1673 Clouds 14 1024 76 10000 0.5 0 06:37 19.09.2019
1674 Clouds 13 1024 76 10000 0.5 0 06:19 19.09.2019
1675 Clouds 13 1023 76 10000 1 0 05:42 19.09.2019
1676 Clouds 12 1023 76 10000 1.5 360 04:19 19.09.2019
1677 Clouds 12 1023 71 10000 2.6 360 03:20 19.09.2019
1678 Clear 13 1022 67 10000 1.5 350 01:40 19.09.2019
1679 Clear 13 1022 67 10000 1 270 01:19 19.09.2019
1680 Clear 13 1022 77 10000 3.1 270 00:42 19.09.2019
1681 Clear 14 1023 67 10000 1.5 240 00:18 19.09.2019
1682 Clear 15 1023 59 10000 2.1 170 23:37 18.09.2019
1683 Clear 15 1023 59 10000 2.1 170 23:19 18.09.2019
1684 Clear 16 1023 63 10000 1.5 0 22:39 18.09.2019
1685 Clouds 16 1023 59 10000 1.5 360 22:19 18.09.2019
1686 Clouds 16 1023 59 10000 1.5 360 21:57 18.09.2019
1687 Clouds 16 1023 59 10000 1.5 360 21:39 18.09.2019
1688 Clouds 17 1022 52 10000 1.5 130 21:18 18.09.2019
1689 Clouds 18 1022 49 10000 4.1 100 20:57 18.09.2019
1690 Clouds 19 1022 43 10000 4.6 90 20:39 18.09.2019
1691 Clouds 20 1022 43 10000 4.6 90 20:20 18.09.2019
1692 Clouds 20 1021 43 10000 4.1 110 19:56 18.09.2019
1693 Clouds 19 1021 40 10000 6.2 100 19:37 18.09.2019
1694 Clouds 19 1021 40 10000 6.2 100 19:18 18.09.2019
1695 Clouds 20 1021 38 10000 6.2 100 19:18 18.09.2019
1696 Clouds 19 1021 40 10000 6.2 100 19:18 18.09.2019
1697 Clouds 20 1021 38 10000 6.2 100 18:55 18.09.2019
1698 Clouds 22 1020 38 10000 6.7 100 18:36 18.09.2019
1699 Clouds 22 1020 38 10000 6.7 100 18:18 18.09.2019
1700 Clouds 23 1020 36 10000 7.7 90 17:54 18.09.2019
1701 Clouds 22 1020 31 10000 4.1 110 17:36 18.09.2019
1702 Clouds 22 1020 31 10000 4.1 110 17:18 18.09.2019
1703 Clouds 24 1019 30 10000 2.6 70 16:43 18.09.2019
1704 Clouds 23 1019 30 10000 2.6 70 16:22 18.09.2019
1705 Clouds 23 1019 32 10000 4.6 100 15:59 18.09.2019
1706 Clouds 23 1019 32 10000 3.1 0 15:40 18.09.2019
1707 Clouds 25 1019 32 10000 3.1 0 15:20 18.09.2019
1708 Clouds 23 1020 34 10000 3.6 0 14:58 18.09.2019
1709 Clouds 23 1020 34 10000 3.6 0 14:40 18.09.2019
1710 Clouds 24 1020 36 10000 2.6 0 14:40 18.09.2019
1711 Clouds 23 1020 36 10000 2.6 0 14:22 18.09.2019
1712 Clouds 24 1020 36 10000 1 0 13:58 18.09.2019
1713 Clouds 24 1021 36 10000 2.6 0 13:38 18.09.2019
1714 Clouds 23 1021 39 10000 4.1 140 13:18 18.09.2019
1715 Clouds 23 1022 44 10000 2.1 0 12:45 18.09.2019
1716 Clouds 22 1022 44 10000 2.1 0 12:27 18.09.2019
1717 Clouds 21 1023 47 10000 1.5 0 11:41 18.09.2019
1718 Clouds 21 1023 47 10000 1.5 0 11:41 18.09.2019
1719 Clouds 21 1023 47 10000 1.5 0 11:20 18.09.2019
1720 Clouds 22 1024 47 10000 2.6 200 10:58 18.09.2019
1721 Clouds 22 1023 56 10000 3.1 90 10:40 18.09.2019
1722 Clouds 22 1023 56 10000 3.1 90 10:20 18.09.2019
1723 Clouds 22 1024 49 10000 2.6 0 09:58 18.09.2019
1724 Clouds 21 1024 56 10000 2.1 0 09:37 18.09.2019
1725 Clouds 21 1024 56 10000 2.1 0 09:37 18.09.2019
1726 Clouds 18 1024 56 10000 2.1 0 09:19 18.09.2019
1727 Clouds 17 1024 60 10000 2.1 0 08:41 18.09.2019
1728 Clouds 17 1024 63 10000 2.6 160 08:41 18.09.2019
1729 Clouds 17 1024 63 10000 2.6 160 08:23 18.09.2019
1730 Clouds 17 1024 68 10000 1.5 170 07:52 18.09.2019
1731 Clouds 16 1024 72 10000 1.93 140.867 07:33 18.09.2019
1732 Clouds 15 1024 72 10000 1.5 240 06:55 18.09.2019
1733 Clouds 15 1022 77 10000 1.93 140.867 06:35 18.09.2019
1734 Clouds 13 1022 77 10000 1 240 05:41 18.09.2019
1735 Clouds 13 1021 82 10000 1 0 04:42 18.09.2019
1736 Clear 13 1021 82 10000 1.5 340 02:41 18.09.2019
1737 Clouds 15 1021 72 10000 2.6 60 02:18 18.09.2019
1738 Clouds 14 1021 72 10000 2.6 60 01:20 18.09.2019
1739 Clouds 15 1022 68 10000 2.6 50 00:47 18.09.2019
1740 Clouds 15 1022 68 10000 2.6 50 00:19 18.09.2019
1741 Clouds 15 1022 68 10000 1.5 10 23:44 17.09.2019
1742 Clouds 15 1022 68 10000 1 0 23:22 17.09.2019
1743 Clouds 15 1022 63 10000 1.5 100 22:42 17.09.2019
1744 Clouds 15 1022 63 10000 1.5 100 22:42 17.09.2019
1745 Clouds 15 1022 63 10000 3.1 60 22:24 17.09.2019
1746 Clear 15 1022 63 10000 3.1 50 21:55 17.09.2019
1747 Clear 16 1022 63 10000 2.1 30 21:37 17.09.2019
1748 Clear 16 1022 63 10000 2.1 30 21:18 17.09.2019
1749 Clear 16 1021 55 10000 2.1 60 20:57 17.09.2019
1750 Clear 18 1021 52 10000 3.1 80 20:39 17.09.2019
1751 Clear 18 1021 52 10000 3.1 80 20:21 17.09.2019
1752 Clear 18 1021 52 10000 4.1 90 19:58 17.09.2019
1753 Clouds 19 1020 52 10000 4.1 110 19:39 17.09.2019
1754 Clouds 19 1020 52 10000 4.1 110 19:19 17.09.2019
1755 Clouds 20 1020 40 10000 5.7 120 18:56 17.09.2019
1756 Clouds 20 1019 46 10000 3.6 120 18:37 17.09.2019
1757 Clouds 22 1019 33 10000 5.1 140 18:19 17.09.2019
1758 Clouds 23 1018 33 10000 6.2 140 17:44 17.09.2019
1759 Clouds 23 1018 33 10000 6.2 140 17:19 17.09.2019
1760 Clouds 24 1019 31 10000 6.7 150 16:56 17.09.2019
1761 Clouds 24 1018 27 10000 7.7 110 16:37 17.09.2019
1762 Clouds 25 1019 28 10000 4.6 130 16:19 17.09.2019
1763 Clouds 25 1018 29 10000 9.3 150 15:39 17.09.2019
1764 Clouds 24 1018 29 10000 9.3 150 15:20 17.09.2019
1765 Clouds 25 1019 24 10000 4.1 130 14:56 17.09.2019
1766 Clouds 25 1019 24 10000 4.1 130 14:56 17.09.2019
1767 Clouds 25 1019 24 10000 4.1 130 14:56 17.09.2019
1768 Clouds 25 1019 26 10000 4.6 170 14:38 17.09.2019
1769 Clouds 25 1019 26 10000 4.6 170 14:19 17.09.2019
1770 Clouds 24 1020 28 10000 4.6 190 13:54 17.09.2019
1771 Clouds 26 1020 33 10000 5.1 170 13:36 17.09.2019
1772 Clouds 26 1020 33 10000 5.1 170 13:18 17.09.2019
1773 Clouds 25 1021 30 10000 6.2 170 12:41 17.09.2019
1774 Clouds 23 1021 38 10000 4.1 100 12:19 17.09.2019
1775 Clouds 23 1022 33 10000 5.1 160 11:44 17.09.2019
1776 Clouds 22 1023 41 10000 7.7 130 11:25 17.09.2019
1777 Clouds 21 1024 38 10000 5.1 120 10:57 17.09.2019
1778 Clouds 21 1024 56 10000 5.1 130 10:39 17.09.2019
1779 Clouds 21 1024 56 10000 5.1 130 10:20 17.09.2019
1780 Clouds 20 1025 46 10000 6.2 160 09:43 17.09.2019
1781 Clouds 19 1025 59 10000 5.1 110 09:23 17.09.2019
1782 Clouds 18 1025 63 10000 4.1 150 08:57 17.09.2019
1783 Clouds 17 1024 72 10000 5.1 110 08:38 17.09.2019
1784 Clouds 17 1024 72 10000 5.1 110 08:19 17.09.2019
1785 Clouds 16 1024 82 10000 2.38 138.034 07:42 17.09.2019
1786 Clouds 16 1024 82 10000 2.38 138.034 07:24 17.09.2019
1787 Clear 14 1024 87 10000 1 210 06:52 17.09.2019
1788 Clear 14 1024 87 10000 1 230 06:29 17.09.2019
1789 Clouds 13 1023 87 10000 0.5 260 05:51 17.09.2019
1790 Clouds 12 1023 87 10000 1.5 250 04:46 17.09.2019
1791 Clouds 11 1022 87 10000 3.1 230 03:40 17.09.2019
1792 Clouds 11 1022 87 10000 2.6 240 02:39 17.09.2019
1793 Clouds 12 1022 82 10000 2.6 240 02:39 17.09.2019
1794 Clouds 13 1022 77 10000 2.1 270 01:49 17.09.2019
1795 Clouds 13 1022 72 10000 1 0 00:46 17.09.2019
1796 Clear 15 1023 72 10000 1 0 23:41 16.09.2019
1797 Clouds 15 1022 72 10000 3.6 60 23:20 16.09.2019
1798 Clear 15 1023 67 10000 1 0 22:58 16.09.2019
1799 Clear 14 1023 67 10000 1 0 22:40 16.09.2019
1800 Clear 17 1023 59 10000 2.6 140 22:21 16.09.2019
1801 Clear 17 1023 59 10000 2.6 140 22:21 16.09.2019
1802 Clear 17 1023 59 10000 2.6 140 21:56 16.09.2019
1803 Clear 16 1022 55 10000 2.6 130 21:38 16.09.2019
1804 Clear 17 1022 55 10000 2.6 130 21:19 16.09.2019
1805 Clear 17 1022 55 10000 2.6 110 20:42 16.09.2019
1806 Clouds 18 1022 60 10000 4.1 120 20:23 16.09.2019
1807 Clear 19 1021 46 10000 3.6 110 19:58 16.09.2019
1808 Clouds 19 1021 56 10000 5.7 90 19:39 16.09.2019
1809 Clouds 19 1021 56 10000 5.7 90 19:20 16.09.2019
1810 Clouds 20 1021 43 10000 6.2 120 18:56 16.09.2019
1811 Clouds 21 1021 40 10000 5.1 100 18:37 16.09.2019
1812 Clouds 21 1020 38 10000 7.7 80 18:18 16.09.2019
1813 Clouds 20 1020 38 10000 7.7 90 17:42 16.09.2019
1814 Clouds 22 1020 38 10000 7.7 90 17:24 16.09.2019
1815 -273 0 0 0 0 0 16:57 16.09.2019
1816 Clouds 23 1019 32 10000 6.2 90 16:38 16.09.2019
1817 Clouds 23 1019 32 10000 6.2 90 16:20 16.09.2019
1818 Clouds 22 1019 31 10000 4.6 100 15:56 16.09.2019
1819 Clouds 23 1019 32 10000 3.1 100 15:37 16.09.2019
1820 Clouds 23 1019 32 10000 3.1 100 15:18 16.09.2019
1821 Clouds 23 1020 34 10000 4.6 100 14:44 16.09.2019
1822 Clouds 23 1020 32 10000 4.6 0 14:23 16.09.2019
1823 Clouds 25 1021 36 10000 4.1 100 13:59 16.09.2019
1824 Clouds 25 1021 36 10000 4.1 60 13:39 16.09.2019
1825 Clouds 25 1021 36 10000 4.1 60 13:39 16.09.2019
1826 Clouds 25 1021 36 10000 4.1 60 13:21 16.09.2019
1827 Clouds 25 1021 36 10000 4.1 60 12:45 16.09.2019
1828 Clouds 25 1022 36 10000 3.6 60 12:27 16.09.2019
1829 Clouds 22 1023 41 10000 3.1 100 11:56 16.09.2019
1830 -273 0 0 0 0 0 11:56 16.09.2019
1831 Clouds 22 1023 41 10000 3.1 100 11:56 16.09.2019
1832 Clouds 22 1023 41 10000 3.1 100 11:37 16.09.2019
1833 Clouds 22 1023 41 10000 3.1 100 11:19 16.09.2019
1834 Clouds 21 1023 60 10000 4.6 150 10:39 16.09.2019
1835 Clouds 21 1023 60 10000 4.6 150 10:20 16.09.2019
1836 Clouds 21 1024 56 10000 3.1 120 09:58 16.09.2019
1837 Clouds 20 1024 64 10000 2.1 0 09:39 16.09.2019
1838 Clouds 19 1024 64 10000 2.1 0 09:19 16.09.2019
1839 Clouds 18 1023 64 10000 1.41 152.035 08:46 16.09.2019
1840 Clouds 18 1023 64 10000 1.41 152.035 08:26 16.09.2019
1841 Clouds 17 1024 77 10000 1.5 130 07:56 16.09.2019
1842 Clouds 17 1023 72 10000 1.41 152.035 07:38 16.09.2019
1843 Clouds 17 1023 72 10000 1.41 152.035 07:20 16.09.2019
1844 Clouds 16 1022 87 10000 1.41 152.035 06:46 16.09.2019
1845 Clouds 16 1022 87 10000 1.41 152.035 06:27 16.09.2019
1846 Clouds 13 1022 87 10000 1.21 89.763 05:51 16.09.2019
1847 Clouds 13 1022 87 10000 1.21 89.763 05:29 16.09.2019
1848 Clouds 14 1022 87 10000 1.21 89.763 04:49 16.09.2019
1849 Clear 14 1021 82 10000 2.6 60 02:58 16.09.2019
1850 Clear 15 1022 67 10000 3.6 30 00:44 16.09.2019
1851 Clear 14 1022 67 10000 3.6 30 00:26 16.09.2019
1852 Clear 15 1022 67 10000 4.6 50 23:44 15.09.2019
1853 Clear 17 1022 63 10000 4.6 50 23:21 15.09.2019
1854 Clouds 17 1023 63 10000 4.1 50 22:59 15.09.2019
1855 Clouds 16 1023 59 10000 3.6 60 22:37 15.09.2019
1856 Clouds 16 1023 59 10000 3.6 60 22:18 15.09.2019
1857 Clear 16 1023 59 10000 4.1 70 21:56 15.09.2019
1858 Clear 17 1022 56 10000 5.7 90 21:37 15.09.2019
1859 Clear 17 1022 56 10000 5.7 90 21:18 15.09.2019
1860 Clear 17 1022 56 10000 5.1 80 20:44 15.09.2019
1861 Clear 17 1022 56 10000 5.1 80 20:44 15.09.2019
1862 Clear 17 1022 56 10000 5.1 80 20:44 15.09.2019
1863 Clear 19 1022 56 10000 4.6 80 20:26 15.09.2019
1864 Clouds 19 1022 52 10000 5.1 100 19:47 15.09.2019
1865 Clouds 19 1021 52 10000 5.7 100 19:27 15.09.2019
1866 Clouds 21 1021 46 10000 7.7 90 18:56 15.09.2019
1867 Clouds 21 1020 46 10000 6.7 90 18:38 15.09.2019
1868 Clouds 21 1020 46 10000 6.7 90 18:20 15.09.2019
1869 Clouds 22 1020 44 10000 8.2 90 17:43 15.09.2019
1870 Clouds 23 1020 38 10000 7.7 90 17:22 15.09.2019
1871 Clouds 24 1019 34 10000 4.6 60 16:58 15.09.2019
1872 Clouds 24 1019 34 10000 4.6 60 16:40 15.09.2019
1873 Clouds 25 1019 32 10000 7.7 80 16:21 15.09.2019
1874 Clouds 25 1019 30 10000 4.1 80 15:56 15.09.2019
1875 Clouds 25 1019 32 10000 3.1 50 15:37 15.09.2019
1876 Clouds 25 1019 32 10000 3.1 50 15:18 15.09.2019
1877 Clouds 24 1020 34 10000 4.6 90 14:43 15.09.2019
1878 Clouds 25 1020 34 10000 4.6 90 14:23 15.09.2019
1879 Clouds 25 1020 34 10000 2.1 0 13:55 15.09.2019
1880 Clouds 25 1022 36 10000 2.6 0 13:37 15.09.2019
1881 Clouds 25 1022 36 10000 2.6 0 13:19 15.09.2019
1882 Clouds 24 1021 44 10000 4.1 90 12:42 15.09.2019
1883 Clouds 24 1021 44 10000 4.1 90 12:23 15.09.2019
1884 Clouds 24 1023 41 10000 3.1 0 11:56 15.09.2019
1885 Clouds 22 1023 50 10000 2.1 0 11:38 15.09.2019
1886 Clouds 22 1023 50 10000 2.1 0 11:19 15.09.2019
1887 Clouds 22 1023 56 10000 3.1 90 10:42 15.09.2019
1888 Clouds 22 1023 56 10000 3.1 90 10:22 15.09.2019
1889 Clouds 21 1025 60 10000 1 0 09:57 15.09.2019
1890 Clouds 21 1024 68 10000 4.1 20 09:37 15.09.2019
1891 Clouds 20 1024 68 10000 4.1 20 09:18 15.09.2019
1892 Clouds 18 1025 72 10000 1 0 08:44 15.09.2019
1893 Clouds 18 1025 72 10000 1 0 08:25 15.09.2019
1894 Clouds 17 1024 77 10000 1 0 07:48 15.09.2019
1895 Clouds 17 1023 88 10000 0.67 129.554 07:25 15.09.2019
1896 Clouds 16 1023 93 10000 0.67 129.554 06:39 15.09.2019
1897 Clouds 16 1022 77 10000 5.1 60 03:25 15.09.2019
1898 Clouds 14 1022 82 10000 4.6 20 02:32 15.09.2019
1899 Clouds 15 1021 77 10000 4.1 20 01:39 15.09.2019
1900 Clouds 15 1021 77 10000 4.1 20 01:39 15.09.2019
1901 Clouds 15 1021 77 10000 4.1 20 01:19 15.09.2019
1902 Clouds 15 1022 72 10000 4.1 30 00:41 15.09.2019
1903 Clouds 16 1022 72 10000 4.1 30 00:21 15.09.2019
1904 Clouds 16 1022 68 10000 4.1 40 23:58 14.09.2019
1905 Clear 16 1022 72 10000 4.6 50 23:39 14.09.2019
1906 Clear 16 1022 72 10000 4.6 50 23:21 14.09.2019
1907 Clouds 16 1023 68 10000 5.1 60 22:59 14.09.2019
1908 Clouds 16 1023 63 10000 6.7 70 22:40 14.09.2019
1909 Clouds 16 1023 63 10000 6.7 70 22:40 14.09.2019
1910 Clouds 18 1023 63 10000 6.7 70 22:19 14.09.2019
1911 Clouds 18 1023 63 10000 6.7 70 22:19 14.09.2019
1912 Clouds 18 1023 60 10000 5.1 70 21:55 14.09.2019
1913 Clouds 17 1023 60 10000 5.7 70 21:36 14.09.2019
1914 Clouds 19 1023 60 10000 5.7 70 21:18 14.09.2019
1915 Clear 19 1022 60 10000 5.1 70 20:40 14.09.2019
1916 Clear 20 1022 60 10000 5.1 80 20:22 14.09.2019
1917 Clouds 20 1020 53 10000 7.7 100 19:57 14.09.2019
1918 Clouds 20 1020 53 10000 7.7 100 19:37 14.09.2019
1919 Clouds 20 1020 53 10000 7.7 100 19:19 14.09.2019
1920 Clouds 20 1021 43 10000 6.7 90 18:41 14.09.2019
1921 Clouds 22 1021 43 10000 6.7 90 18:21 14.09.2019
1922 Clouds 23 1019 36 10000 5.7 90 17:58 14.09.2019
1923 Clouds 23 1019 36 10000 5.7 90 17:39 14.09.2019
1924 Clouds 24 1019 36 10000 5.7 90 17:21 14.09.2019
1925 Clouds 24 1020 34 10000 7.7 90 16:43 14.09.2019
1926 Clouds 25 1019 32 10000 4.1 80 16:21 14.09.2019
1927 Clouds 24 1019 34 10000 3.6 70 15:55 14.09.2019
1928 Clouds 25 1019 32 10000 5.1 100 15:36 14.09.2019
1929 Clouds 25 1019 32 10000 5.1 100 15:18 14.09.2019
1930 Clouds 26 1019 39 10000 4.1 90 14:42 14.09.2019
1931 Clouds 26 1019 39 10000 4.1 90 14:19 14.09.2019
1932 Clouds 26 1019 39 10000 4.1 90 14:19 14.09.2019
1933 Clouds 25 1021 36 10000 2.1 0 13:47 14.09.2019
1934 Clouds 24 1021 36 10000 2.1 0 13:22 14.09.2019
1935 Clouds 25 1021 36 10000 2.1 0 12:48 14.09.2019
1936 Clouds 24 1022 44 10000 3.6 0 12:26 14.09.2019
1937 Clouds 24 1023 44 10000 3.1 0 11:43 14.09.2019
1938 Clouds 22 1023 47 10000 3.1 0 11:22 14.09.2019
1939 Clouds 22 1024 50 10000 1.5 0 10:59 14.09.2019
1940 Clouds 22 1024 56 10000 3.59 119.511 10:37 14.09.2019
1941 Clouds 22 1024 56 10000 3.59 119.511 10:18 14.09.2019
1942 Clouds 20 1025 64 10000 1.5 0 09:56 14.09.2019
1943 Clouds 20 1025 68 10000 1.5 0 09:38 14.09.2019
1944 Clouds 19 1025 68 10000 1.5 0 09:18 14.09.2019
1945 Clouds 19 1025 77 10000 2.6 50 08:44 14.09.2019
1946 Clouds 19 1025 77 10000 2.6 50 08:44 14.09.2019
1947 Clouds 19 1025 77 10000 2.6 50 08:23 14.09.2019
1948 Clouds 19 1025 77 10000 2.6 50 08:23 14.09.2019
1949 Clouds 18 1024 77 10000 3.1 70 07:45 14.09.2019
1950 Clouds 18 1024 77 10000 3.1 70 07:45 14.09.2019
1951 Clouds 18 1024 77 10000 3.1 70 07:45 14.09.2019
1952 Clouds 16 1024 88 10000 3.1 60 07:27 14.09.2019
1953 Clouds 14 1023 93 10000 1.5 50 06:40 14.09.2019
1954 Clouds 15 1023 93 10000 1.5 50 06:18 14.09.2019
1955 -273 0 0 0 0 0 04:55 14.09.2019
1956 Clouds 14 1022 87 10000 3.1 50 03:43 14.09.2019
1957 Clouds 14 1022 87 10000 4.1 40 02:52 14.09.2019
1958 Clear 14 1023 82 10000 3.1 20 01:50 14.09.2019
1959 Clear 14 1023 82 10000 3.1 10 01:22 14.09.2019
1960 Clear 14 1023 82 10000 3.6 20 00:57 14.09.2019
1961 Clear 15 1023 77 10000 3.6 30 00:37 14.09.2019
1962 Clear 15 1023 77 10000 3.6 30 00:19 14.09.2019
1963 Clear 15 1023 77 10000 4.1 30 23:38 13.09.2019
1964 Clear 15 1023 77 10000 4.1 30 23:19 13.09.2019
1965 Clear 15 1023 77 10000 4.1 30 23:19 13.09.2019
1966 Clear 16 1024 72 10000 4.6 60 22:56 13.09.2019
1967 Clear 16 1024 72 10000 4.6 60 22:38 13.09.2019
1968 Clear 16 1024 72 10000 4.6 60 22:19 13.09.2019
1969 Clear 16 1024 68 10000 5.1 70 21:41 13.09.2019
1970 Clear 16 1023 68 10000 4.6 80 21:20 13.09.2019
1971 Clear 16 1023 63 10000 3.6 80 20:59 13.09.2019
1972 Clear 17 1023 60 10000 5.7 80 20:40 13.09.2019
1973 Clear 17 1023 60 10000 5.7 80 20:21 13.09.2019
1974 Clouds 18 1022 56 10000 6.2 100 19:56 13.09.2019
1975 Clouds 18 1022 56 10000 6.7 90 19:37 13.09.2019
1976 Clouds 19 1021 53 10000 7.2 90 19:19 13.09.2019
1977 Clouds 19 1021 53 10000 7.2 90 18:55 13.09.2019
1978 Clouds 19 1021 46 10000 6.7 90 18:36 13.09.2019
1979 Clouds 19 1021 46 10000 6.7 90 18:18 13.09.2019
1980 Clouds 21 1020 36 10000 7.2 80 17:38 13.09.2019
1981 Clouds 22 1020 36 10000 7.2 80 17:19 13.09.2019
1982 Clouds 22 1020 36 10000 7.2 80 16:42 13.09.2019
1983 Clouds 23 1020 34 10000 7.2 90 16:21 13.09.2019
1984 Clouds 23 1020 32 10000 7.7 90 15:57 13.09.2019
1985 Clouds 24 1020 32 10000 3.6 130 15:39 13.09.2019
1986 Clouds 24 1020 32 10000 3.6 130 15:20 13.09.2019
1987 Clouds 24 1020 32 10000 3.6 130 15:20 13.09.2019
1988 Clouds 24 1020 32 10000 5.7 140 14:43 13.09.2019
1989 Clouds 24 1020 32 10000 5.7 140 14:22 13.09.2019
1990 Clouds 25 1021 26 10000 2.6 110 13:56 13.09.2019
1991 Clouds 25 1022 34 10000 1.5 60 13:37 13.09.2019
1992 Clouds 24 1022 34 10000 1.5 60 13:18 13.09.2019
1993 Clouds 24 1022 34 10000 3.1 130 12:41 13.09.2019
1994 Clouds 24 1022 34 10000 3.1 130 12:23 13.09.2019
1995 Clouds 23 1023 38 10000 2.6 100 11:55 13.09.2019
1996 Clouds 23 1024 38 10000 2.6 110 11:19 13.09.2019
1997 Clouds 22 1025 49 10000 3.1 120 10:40 13.09.2019
1998 Clouds 22 1025 49 10000 3.1 120 10:20 13.09.2019
1999 Clouds 21 1025 60 10000 1.5 110 09:46 13.09.2019
2000 Clouds 19 1025 60 10000 1.5 110 09:25 13.09.2019
2001 Clouds 18 1025 72 10000 1.5 30 08:59 13.09.2019
2002 Clouds 18 1025 72 10000 1.5 30 08:40 13.09.2019
2003 Clouds 17 1024 87 10000 2.01 111.416 08:21 13.09.2019
2004 Clouds 16 1025 87 10000 1.5 290 07:52 13.09.2019
2005 Clouds 16 1024 82 8000 2.01 111.416 07:34 13.09.2019
2006 Clouds 15 1024 93 10000 1.5 30 06:48 13.09.2019
2007 Clouds 13 1023 100 10000 2.6 50 05:50 13.09.2019
2008 Clouds 13 1023 100 10000 2.6 50 05:18 13.09.2019
2009 Clouds 14 1014 66 0 1.72 64.345 03:40 13.09.2019
2010 Clear 14 1023 87 10000 1.5 350 02:48 13.09.2019
2011 Clear 14 1023 87 10000 1.5 350 02:18 13.09.2019
2012 Clear 14 1023 87 10000 1.5 360 01:35 13.09.2019
2013 Clear 14 1024 82 10000 2.1 350 00:58 13.09.2019
2014 Clear 14 1024 82 10000 1 300 00:31 13.09.2019
2015 Clear 15 1024 67 10000 1 330 23:42 12.09.2019
2016 Clear 15 1024 67 10000 1 330 23:22 12.09.2019
2017 Clear 14 1024 72 10000 1 0 22:44 12.09.2019
2018 Clear 15 1024 67 10000 2.1 50 22:25 12.09.2019
2019 Clear 16 1024 59 10000 3.6 100 21:58 12.09.2019
2020 Clear 16 1024 59 10000 3.6 90 21:39 12.09.2019
2021 Clear 16 1024 59 10000 3.6 90 21:39 12.09.2019
2022 Clear 16 1024 59 10000 3.6 90 21:20 12.09.2019
2023 Clear 16 1024 59 10000 3.6 90 21:20 12.09.2019
2024 Clear 17 1023 52 10000 3.6 90 20:58 12.09.2019
2025 Clear 19 1023 56 10000 4.1 90 20:40 12.09.2019
2026 Clear 19 1023 56 10000 4.1 90 20:21 12.09.2019
2027 Clear 19 1023 49 10000 4.1 90 19:56 12.09.2019
2028 Clear 19 1021 56 10000 4.1 60 19:37 12.09.2019
2029 Clear 19 1021 56 10000 4.1 60 19:19 12.09.2019
2030 Clouds 19 1022 43 10000 6.2 90 18:38 12.09.2019
2031 Clouds 21 1022 43 10000 6.2 90 18:20 12.09.2019
2032 Clouds 22 1022 41 10000 6.7 90 17:59 12.09.2019
2033 Clouds 22 1021 44 10000 4.6 120 17:39 12.09.2019
2034 Clouds 22 1021 44 10000 4.6 120 17:19 12.09.2019
2035 Clouds 23 1021 36 10000 6.2 110 16:42 12.09.2019
2036 Clouds 24 1020 38 10000 5.1 100 16:22 12.09.2019
2037 Clouds 24 1021 36 10000 4.6 110 15:59 12.09.2019
2038 Clouds 24 1021 36 10000 2.6 60 15:39 12.09.2019
2039 Clouds 24 1021 36 10000 2.6 60 15:21 12.09.2019
2040 Clouds 24 1022 34 10000 4.6 80 14:45 12.09.2019
2041 Clouds 24 1022 34 10000 4.6 80 14:21 12.09.2019
2042 Clouds 24 1022 36 10000 3.1 70 13:54 12.09.2019
2043 Clouds 24 1023 36 10000 2.6 0 13:36 12.09.2019
2044 Clouds 23 1023 36 10000 2.6 0 13:18 12.09.2019
2045 Clouds 24 1023 36 10000 2.6 0 13:18 12.09.2019
2046 Clouds 24 1023 44 10000 4.1 50 12:41 12.09.2019
2047 Clouds 23 1023 44 10000 4.1 50 12:18 12.09.2019
2048 Clouds 22 1024 47 10000 3.1 0 11:55 12.09.2019
2049 Clouds 22 1025 49 10000 3.6 160 11:36 12.09.2019
2050 Clouds 21 1025 49 10000 3.6 110 11:18 12.09.2019
2051 Clouds 22 1025 49 10000 3.6 110 10:43 12.09.2019
2052 Clouds 21 1025 56 10000 5.1 140 10:24 12.09.2019
2053 Clouds 20 1026 64 10000 2.6 150 09:44 12.09.2019
2054 Clouds 19 1026 64 10000 2.6 150 09:21 12.09.2019
2055 Clouds 19 1026 68 10000 3.1 140 08:58 12.09.2019
2056 Clouds 19 1026 68 10000 3.1 140 08:39 12.09.2019
2057 Clouds 17 1026 77 10000 1.5 0 08:21 12.09.2019
2058 Clear 15 1025 88 10000 1.5 200 07:39 12.09.2019
2059 Clear 14 1024 93 10000 1.5 220 07:19 12.09.2019
2060 Clear 13 1024 93 10000 1.5 220 06:50 12.09.2019
2061 Clear 13 1024 93 10000 1.5 220 06:50 12.09.2019
2062 Clear 12 1024 93 10000 1 0 06:19 12.09.2019
2063 Clouds 12 1024 93 10000 1.19 61.301 05:48 12.09.2019
2064 Clouds 13 1023 93 10000 1.5 220 05:29 12.09.2019
2065 Clouds 13 1022 87 10000 1 0 04:35 12.09.2019
2066 Clouds 13 1023 87 10000 1 0 02:24 12.09.2019
2067 Clouds 14 1023 82 10000 1.94 80.212 01:30 12.09.2019
2068 Clouds 14 1024 82 10000 2.6 40 00:59 12.09.2019
2069 Clouds 14 1024 82 10000 2.6 40 00:41 12.09.2019
2070 Clouds 15 1024 82 10000 2.6 40 00:23 12.09.2019
2071 Clouds 15 1024 82 10000 3.1 30 23:41 11.09.2019
2072 Clouds 15 1024 82 10000 3.1 30 23:41 11.09.2019
2073 Clouds 16 1023 77 10000 2 69.323 23:21 11.09.2019
2074 Clear 16 1024 77 10000 3.1 20 22:56 11.09.2019
2075 Clouds 16 1023 77 10000 2 69.323 22:37 11.09.2019
2076 Clear 16 1024 72 10000 4.1 40 22:18 11.09.2019
2077 Clouds 16 1024 63 10000 4.1 90 21:42 11.09.2019
2078 Clouds 17 1024 63 10000 4.1 90 21:24 11.09.2019
2079 Clouds 17 1023 82 10000 3.1 80 20:57 11.09.2019
2080 Clouds 17 1023 82 10000 3.1 80 20:39 11.09.2019
2081 Clouds 17 1023 82 10000 3.1 80 20:19 11.09.2019
2082 Clouds 18 1023 60 10000 4.1 90 19:58 11.09.2019
2083 Clouds 18 1022 72 10000 4.1 110 19:39 11.09.2019
2084 Clouds 18 1022 72 10000 4.1 110 19:39 11.09.2019
2085 Clouds 18 1022 72 10000 4.1 110 19:21 11.09.2019
2086 Clouds 19 1021 68 10000 3.6 70 18:56 11.09.2019
2087 Clouds 20 1021 68 10000 3.6 70 18:38 11.09.2019
2088 Clouds 19 1021 53 10000 7.7 90 18:19 11.09.2019
2089 Clouds 19 1021 68 10000 3.6 70 18:19 11.09.2019
2090 Clouds 19 1021 53 10000 7.7 90 17:55 11.09.2019
2091 Clouds 22 1021 47 10000 7.7 90 17:37 11.09.2019
2092 Clouds 22 1021 47 10000 7.7 90 17:18 11.09.2019
2093 Clouds 24 1020 41 10000 6.7 100 16:42 11.09.2019
2094 Clouds 24 1020 41 10000 6.7 100 16:23 11.09.2019
2095 Clouds 24 1020 41 10000 6.7 100 16:23 11.09.2019
2096 Clouds 23 1020 41 10000 3.6 140 15:54 11.09.2019
2097 Clouds 24 1020 41 10000 3.6 140 15:36 11.09.2019
2098 Clouds 24 1020 44 10000 2.6 0 15:18 11.09.2019
2099 Clouds 24 1020 44 10000 2.6 0 14:41 11.09.2019
2100 Clouds 24 1021 44 10000 3.1 130 14:21 11.09.2019
2101 Clouds 23 1021 47 10000 3.6 160 13:59 11.09.2019
2102 Clouds 23 1022 50 10000 2.6 180 13:37 11.09.2019
2103 Clouds 23 1022 50 10000 2.6 180 13:37 11.09.2019
2104 Clouds 22 1022 50 10000 2.6 180 13:19 11.09.2019
2105 Clouds 21 1023 60 10000 2.6 150 12:44 11.09.2019
2106 Clouds 21 1023 60 10000 2.6 150 12:23 11.09.2019
2107 Clouds 21 1023 72 10000 4.1 160 11:59 11.09.2019
2108 Clouds 21 1024 60 10000 1.5 0 11:39 11.09.2019
2109 Clouds 20 1024 60 10000 1.5 0 11:21 11.09.2019
2110 Clouds 20 1024 64 10000 2.1 200 10:55 11.09.2019
2111 Clouds 20 1024 77 10000 4.1 120 10:37 11.09.2019
2112 Clouds 19 1025 68 10000 2.6 130 10:19 11.09.2019
2113 Clouds 19 1024 72 10000 4.6 120 09:38 11.09.2019
2114 Clouds 18 1024 72 10000 4.6 120 09:19 11.09.2019
2115 Clouds 18 1026 72 10000 2.1 130 08:42 11.09.2019
2116 Clouds 16 1025 72 10000 2.6 0 08:22 11.09.2019
2117 Clouds 16 1023 93 10000 1.95 118.929 07:59 11.09.2019
2118 Clouds 15 1023 93 10000 1.95 118.929 07:39 11.09.2019
2119 Clouds 15 1023 93 10000 1.95 118.929 07:21 11.09.2019
2120 Clouds 15 1024 88 10000 2.1 180 06:44 11.09.2019
2121 Clouds 14 1024 93 10000 2.1 200 06:21 11.09.2019
2122 Clouds 14 1023 93 10000 1.53 90.864 05:35 11.09.2019
2123 Clouds 14 1022 93 10000 1 0 04:59 11.09.2019
2124 Clouds 14 1022 93 10000 1 0 04:21 11.09.2019
2125 Clouds 14 1022 93 10000 1.5 200 03:29 11.09.2019
2126 Clouds 14 1023 87 10000 1 0 02:32 11.09.2019
2127 Clouds 15 1023 87 10000 2.6 230 01:33 11.09.2019
2128 Clouds 15 1023 87 10000 2.6 240 00:40 11.09.2019
2129 Clouds 15 1023 87 10000 2.6 240 00:20 11.09.2019
2130 Clouds 15 1023 87 10000 1 0 23:40 10.09.2019
2131 Clouds 15 1023 87 10000 1 0 23:22 10.09.2019
2132 Clouds 15 1024 82 10000 1.5 190 22:57 10.09.2019
2133 Clouds 17 1024 82 10000 2.1 160 22:38 10.09.2019
2134 Clouds 17 1024 82 10000 2.1 160 22:19 10.09.2019
2135 Clouds 17 1024 77 10000 3.6 150 21:55 10.09.2019
2136 Clouds 17 1024 77 10000 1.5 120 21:37 10.09.2019
2137 Clouds 17 1024 77 10000 1.5 120 21:18 10.09.2019
2138 Clouds 17 1023 77 10000 3.6 90 20:56 10.09.2019
2139 Clouds 18 1023 77 10000 5.1 80 20:38 10.09.2019
2140 Clouds 18 1023 77 10000 5.1 80 20:19 10.09.2019
2141 Clouds 18 1023 77 10000 4.6 90 19:55 10.09.2019
2142 Clouds 18 1021 68 10000 3.6 120 19:36 10.09.2019
2143 Clouds 18 1021 68 10000 3.6 120 19:18 10.09.2019
2144 Clouds 18 1021 68 10000 3.6 120 19:18 10.09.2019
2145 Clouds 19 1021 64 10000 6.7 90 18:45 10.09.2019
2146 Clouds 19 1020 64 10000 5.7 60 18:23 10.09.2019
2147 Rain 20 1021 60 10000 6.2 80 17:59 10.09.2019
2148 Clouds 19 1021 60 10000 6.7 90 17:41 10.09.2019
2149 Clouds 20 1021 60 10000 6.7 90 17:20 10.09.2019
2150 Clouds 21 1019 53 10000 4.6 90 16:57 10.09.2019
2151 Clouds 20 1020 57 10000 5.7 80 16:38 10.09.2019
2152 Clouds 22 1020 57 10000 5.7 80 16:19 10.09.2019
2153 Clouds 22 1020 53 10000 4.6 120 15:44 10.09.2019
2154 Clouds 23 1020 53 10000 4.6 80 15:23 10.09.2019
2155 Clouds 23 1020 47 10000 5.7 160 14:59 10.09.2019
2156 Clouds 23 1020 47 10000 5.7 160 14:59 10.09.2019
2157 -273 0 0 0 0 0 14:40 10.09.2019
2158 Clouds 22 1021 53 10000 4.6 150 14:21 10.09.2019
2159 Clouds 23 1021 50 10000 4.1 140 13:48 10.09.2019
2160 Clouds 22 1022 57 10000 3.1 170 13:24 10.09.2019
2161 Clouds 21 1022 57 10000 3.1 170 12:56 10.09.2019
2162 Clouds 21 1022 64 10000 5.1 140 12:37 10.09.2019
2163 Clouds 21 1022 64 10000 5.1 140 12:19 10.09.2019
2164 Clouds 19 1023 68 10000 6.2 150 11:42 10.09.2019
2165 Clouds 19 1023 68 10000 6.2 150 11:22 10.09.2019
2166 Clouds 20 1024 68 10000 4.1 150 10:59 10.09.2019
2167 Clouds 21 1024 72 10000 4.6 120 10:38 10.09.2019
2168 Clouds 21 1024 72 10000 4.6 120 10:18 10.09.2019
2169 Clouds 18 1024 82 10000 3.64 115.798 09:46 10.09.2019
2170 Clouds 17 1025 82 10000 2.6 80 09:20 10.09.2019
2171 Clouds 17 1025 82 10000 2.6 80 08:57 10.09.2019
2172 Clouds 16 1024 82 10000 1.78 92.418 08:38 10.09.2019
2173 Clouds 16 1024 82 10000 1.78 92.418 08:20 10.09.2019
2174 Clouds 15 1023 87 10000 2.6 30 07:44 10.09.2019
2175 Clouds 15 1023 87 10000 2.6 30 07:25 10.09.2019
2176 Rain 14 1024 93 10000 3.1 30 06:46 10.09.2019
2177 Rain 13 1024 93 10000 3.1 30 06:28 10.09.2019
2178 Clouds 13 1023 93 10000 1.5 40 04:38 10.09.2019
2179 Clouds 14 1022 93 10000 2.1 340 02:44 10.09.2019
2180 Clouds 14 1022 93 10000 2.1 340 02:22 10.09.2019
2181 Clouds 14 1023 87 10000 2.6 320 01:52 10.09.2019
2182 Clouds 14 1023 87 10000 2.6 320 01:52 10.09.2019
2183 Clouds 14 1023 87 10000 2.6 320 01:52 10.09.2019
2184 Clouds 14 1023 87 10000 2.6 320 01:52 10.09.2019
2185 Clouds 14 1023 87 10000 2.6 320 01:52 10.09.2019
2186 Clouds 14 1023 87 10000 1.5 320 01:23 10.09.2019
2187 Clouds 14 1023 87 10000 2.1 320 00:44 10.09.2019
2188 Clear 14 1024 87 10000 2.6 250 00:23 10.09.2019
2189 Clear 15 1024 72 10000 2.1 190 23:41 09.09.2019
2190 Clear 15 1024 72 10000 2.1 190 23:19 09.09.2019
2191 Clear 15 1024 72 10000 3.1 160 22:55 09.09.2019
2192 Clear 16 1023 77 10000 4.91 88.017 22:37 09.09.2019
2193 Clear 16 1023 77 10000 4.91 88.017 22:19 09.09.2019
2194 Clear 16 1024 68 10000 2.6 140 21:56 09.09.2019
2195 Clear 16 1024 63 10000 3.6 120 21:37 09.09.2019
2196 Clear 16 1024 63 10000 3.6 120 21:37 09.09.2019
2197 Clear 16 1024 63 10000 3.6 120 21:19 09.09.2019
2198 Clouds 17 1024 52 10000 4.6 100 20:55 09.09.2019
2199 Clouds 19 1023 52 10000 4.6 110 20:37 09.09.2019
2200 Clouds 19 1023 49 10000 4.6 110 20:18 09.09.2019
2201 Clouds 19 1023 49 10000 4.6 110 19:56 09.09.2019
2202 Clouds 19 1021 49 10000 4.6 90 19:38 09.09.2019
2203 Clouds 19 1022 43 10000 4.6 100 19:19 09.09.2019
2204 Clouds 19 1022 43 10000 4.6 100 19:19 09.09.2019
2205 Clouds 19 1022 43 10000 4.6 100 18:56 09.09.2019
2206 Clouds 19 1021 49 10000 6.4 87.967 18:37 09.09.2019
2207 Clouds 20 1022 43 10000 4.1 90 18:19 09.09.2019
2208 Clouds 20 1022 43 10000 4.1 90 17:56 09.09.2019
2209 Clouds 21 1020 43 10000 4.87 89.577 17:38 09.09.2019
2210 Clouds 22 1021 38 10000 3.1 70 17:20 09.09.2019
2211 Clouds 22 1021 38 10000 3.1 70 17:20 09.09.2019
2212 Clouds 22 1021 38 10000 3.1 70 16:55 09.09.2019
2213 Clouds 22 1021 41 10000 3.1 110 16:36 09.09.2019
2214 Clouds 22 1021 36 10000 3.1 150 16:18 09.09.2019
2215 Clouds 22 1021 44 10000 6.2 140 15:42 09.09.2019
2216 Clouds 22 1021 44 10000 6.2 140 15:24 09.09.2019
2217 Clouds 22 1021 38 10000 4.1 130 14:58 09.09.2019
2218 Clouds 21 1022 38 10000 3.6 170 14:40 09.09.2019
2219 Clouds 21 1022 38 10000 3.6 170 14:40 09.09.2019
2220 -273 0 0 0 0 0 14:40 09.09.2019
2221 Clouds 22 1022 38 10000 3.6 170 14:21 09.09.2019
2222 Clouds 21 1022 41 10000 3.1 120 13:55 09.09.2019
2223 Clouds 21 1022 49 10000 2.6 140 13:37 09.09.2019
2224 Clouds 21 1023 41 10000 2.6 0 13:18 09.09.2019
2225 Clouds 21 1023 41 10000 2.6 0 12:54 09.09.2019
2226 Clouds 21 1023 49 10000 5.64 99.157 12:36 09.09.2019
2227 Clouds 20 1023 49 10000 3.36 119.43 12:18 09.09.2019
2228 Clouds 19 1024 60 10000 4.1 200 11:43 09.09.2019
2229 Clouds 19 1026 60 10000 2.6 170 11:20 09.09.2019
2230 Clouds 20 1026 60 10000 3.1 130 10:42 09.09.2019
2231 Clouds 18 1026 60 10000 3.1 130 10:24 09.09.2019
2232 Clouds 17 1027 59 10000 3.1 150 09:59 09.09.2019
2233 Clouds 17 1027 59 10000 3.1 150 09:59 09.09.2019
2234 Clouds 18 1026 63 10000 3.36 119.43 09:40 09.09.2019
2235 Haze 16 1027 68 10000 1.5 220 09:22 09.09.2019
2236 Haze 16 1027 68 10000 1.5 220 08:55 09.09.2019
2237 Clouds 15 1026 77 10000 1.5 280 08:37 09.09.2019
2238 Clouds 15 1026 82 10000 1 280 08:18 09.09.2019
2239 Clouds 16 1026 77 10000 2.1 280 07:40 09.09.2019
2240 Clouds 14 1026 77 10000 2.1 280 07:20 09.09.2019
2241 Clouds 13 1026 82 10000 2.1 280 06:50 09.09.2019
2242 Clouds 13 1025 82 10000 2.1 260 05:56 09.09.2019
2243 Clouds 13 1023 82 10000 2.1 200 03:21 09.09.2019
2244 Clouds 13 1024 77 10000 3.6 180 02:41 09.09.2019
2245 Clouds 13 1024 82 10000 3.1 190 01:24 09.09.2019
2246 Clouds 14 1024 72 10000 3.1 200 00:24 09.09.2019
2247 Clouds 14 1024 72 10000 3.1 90 23:55 08.09.2019
2248 Clouds 15 1024 68 10000 2.1 90 23:37 08.09.2019
2249 Clouds 15 1024 68 10000 2.1 90 23:19 08.09.2019
2250 Clouds 15 1025 63 10000 3.1 150 22:40 08.09.2019
2251 Clouds 15 1025 63 10000 3.1 150 22:22 08.09.2019
2252 Clouds 15 1025 59 10000 3.6 150 21:58 08.09.2019
2253 Clouds 15 1024 59 10000 3.1 140 21:40 08.09.2019
2254 Clouds 16 1024 59 10000 3.1 140 21:22 08.09.2019
2255 Clouds 16 1024 59 10000 3.6 140 20:54 08.09.2019
2256 Clouds 17 1024 59 10000 3.6 140 20:36 08.09.2019
2257 Clouds 17 1024 59 10000 3.1 140 20:18 08.09.2019
2258 Clouds 17 1024 59 10000 3.6 140 20:18 08.09.2019
2259 Clouds 17 1024 59 10000 3.6 140 20:18 08.09.2019
2260 Clouds 16 1024 59 10000 4.1 140 19:39 08.09.2019
2261 Clouds 17 1024 59 10000 4.1 140 19:21 08.09.2019
2262 Clouds 16 1024 60 10000 2.6 130 18:58 08.09.2019
2263 Clouds 16 1023 60 10000 2.6 140 18:39 08.09.2019
2264 Clouds 17 1023 60 10000 1.5 110 18:19 08.09.2019
2265 Clouds 17 1023 60 10000 1.5 110 17:58 08.09.2019
2266 Clouds 16 1023 60 10000 2.1 110 17:37 08.09.2019
2267 Clouds 16 1023 60 10000 2.1 110 17:18 08.09.2019
2268 Clouds 16 1023 56 10000 2.6 150 16:56 08.09.2019
2269 Clouds 17 1022 56 10000 3.1 130 16:37 08.09.2019
2270 Clouds 17 1022 56 10000 3.1 130 16:19 08.09.2019
2271 Clouds 17 1022 60 10000 3.6 120 15:42 08.09.2019
2272 Clouds 17 1022 60 10000 3.6 120 15:22 08.09.2019
2273 Clouds 17 1023 60 10000 2.6 120 14:59 08.09.2019
2274 Clouds 17 1023 60 10000 2.1 90 14:39 08.09.2019
2275 Clouds 17 1023 60 10000 2.1 90 14:39 08.09.2019
2276 Clouds 17 1023 60 10000 2.1 90 14:21 08.09.2019
2277 Clouds 17 1023 60 10000 1.5 90 13:57 08.09.2019
2278 Clouds 17 1024 68 10000 2.6 100 13:39 08.09.2019
2279 Clouds 17 1024 68 10000 2.6 100 13:21 08.09.2019
2280 Clouds 19 1024 68 10000 1.5 110 12:55 08.09.2019
2281 Clouds 16 1025 68 10000 1 0 12:37 08.09.2019
2282 Clouds 17 1025 68 10000 2.1 90 12:18 08.09.2019
2283 Clouds 17 1025 68 10000 2.1 90 11:56 08.09.2019
2284 Clouds 16 1025 77 10000 2.97 171.597 11:37 08.09.2019
2285 Clouds 16 1025 77 10000 2.97 171.597 11:18 08.09.2019
2286 Clouds 16 1027 87 10000 1.5 360 10:42 08.09.2019
2287 Clouds 15 1027 87 10000 1.5 360 10:23 08.09.2019
2288 Drizzle 15 1027 87 10000 2.1 60 09:56 08.09.2019
2289 Clouds 15 1026 87 10000 5.1 120 09:37 08.09.2019
2290 Clouds 14 1026 87 10000 5.1 120 09:19 08.09.2019
2291 Clouds 14 1026 82 10000 2.1 70 08:39 08.09.2019
2292 Clouds 14 1026 82 10000 2.1 70 08:19 08.09.2019
2293 Clouds 14 1025 87 10000 2.6 120 07:43 08.09.2019
2294 Clouds 14 1025 87 10000 2.6 120 07:22 08.09.2019
2295 Clouds 14 1026 87 10000 2.1 50 06:57 08.09.2019
2296 Clouds 14 1024 87 10000 1.56 149.024 06:38 08.09.2019
2297 Clouds 13 1024 87 10000 1.5 180 05:40 08.09.2019
2298 Clouds 13 1024 87 10000 1.5 180 05:21 08.09.2019
2299 Clouds 13 1023 87 10000 1.5 340 03:23 08.09.2019
2300 Clouds 13 1023 87 10000 1.5 340 02:48 08.09.2019
2301 Clouds 13 1023 87 10000 2.6 240 01:54 08.09.2019
2302 Clouds 14 1023 77 10000 1.5 250 01:29 08.09.2019
2303 Clouds 13 1024 87 10000 1.5 240 00:49 08.09.2019
2304 Clouds 13 1024 87 10000 1.5 240 00:30 08.09.2019
2305 Clouds 14 1024 77 10000 2.1 250 23:57 07.09.2019
2306 Clouds 14 1024 77 10000 2.6 230 23:37 07.09.2019
2307 Clouds 14 1024 77 10000 2.6 230 23:18 07.09.2019
2308 Clouds 15 1024 72 10000 2.1 190 22:43 07.09.2019
2309 -273 0 0 0 0 0 22:25 07.09.2019
2310 Clouds 16 1024 63 10000 3.1 160 21:56 07.09.2019
2311 Clouds 17 1024 63 10000 3.6 140 21:38 07.09.2019
2312 Clouds 16 1024 63 10000 4.1 150 21:20 07.09.2019
2313 Clouds 16 1023 63 10000 1.5 0 20:40 07.09.2019
2314 Clouds 17 1023 63 10000 1.5 0 20:21 07.09.2019
2315 Clear 17 1023 59 10000 1.5 130 19:57 07.09.2019
2316 Clouds 17 1022 63 10000 2.1 130 19:38 07.09.2019
2317 Clouds 17 1022 63 10000 2.1 130 19:19 07.09.2019
2318 Clouds 18 1023 60 10000 2.1 130 18:58 07.09.2019
2319 Clouds 18 1023 60 10000 2.1 130 18:58 07.09.2019
2320 Clouds 18 1022 56 10000 4.1 120 18:39 07.09.2019
2321 -273 0 0 0 0 0 18:20 07.09.2019
2322 Clouds 19 1022 49 10000 3.6 130 17:59 07.09.2019
2323 Clouds 19 1021 52 10000 3.6 130 17:39 07.09.2019
2324 Clouds 19 1021 52 10000 3.6 130 17:18 07.09.2019
2325 Clouds 19 1022 49 10000 3.6 130 16:56 07.09.2019
2326 Clouds 19 1021 53 10000 4.6 120 16:38 07.09.2019
2327 Clouds 19 1021 53 10000 4.6 120 16:18 07.09.2019
2328 Clouds 19 1021 60 10000 5.1 110 15:44 07.09.2019
2329 Clouds 19 1021 60 10000 5.1 110 15:25 07.09.2019
2330 Clouds 19 1023 60 10000 4.6 170 14:56 07.09.2019
2331 Clouds 19 1023 64 10000 3.6 160 14:36 07.09.2019
2332 Clouds 19 1023 64 10000 3.6 160 14:18 07.09.2019
2333 Clouds 21 1023 60 10000 3.6 160 13:56 07.09.2019
2334 Clouds 21 1023 60 10000 3.6 160 13:56 07.09.2019
2335 Clouds 21 1023 64 10000 4.6 120 13:37 07.09.2019
2336 Clouds 20 1024 64 10000 3.1 180 13:19 07.09.2019
2337 Clouds 20 1024 72 10000 3.1 220 12:43 07.09.2019
2338 Clouds 19 1025 68 10000 4.1 180 12:24 07.09.2019
2339 Clouds 17 1025 82 10000 3.6 160 11:41 07.09.2019
2340 Clouds 17 1025 82 10000 3.6 160 11:22 07.09.2019
2341 Clouds 16 1026 82 10000 3.6 200 10:58 07.09.2019
2342 Clouds 16 1025 88 8000 3.1 160 10:37 07.09.2019
2343 Clouds 16 1026 88 10000 4.1 180 10:19 07.09.2019
2344 Clouds 15 1026 93 6000 2.6 170 09:43 07.09.2019
2345 Clouds 16 1026 93 6000 2.6 170 09:23 07.09.2019
2346 Rain 15 1027 93 5000 2.1 190 08:57 07.09.2019
2347 Fog 15 1025 93 2000 1.92 176.265 08:36 07.09.2019
2348 Fog 15 1025 93 2000 1.92 176.265 08:18 07.09.2019
2349 Fog 15 1025 93 2000 1.92 176.265 07:43 07.09.2019
2350 Fog 15 1024 93 2000 2.6 160 07:22 07.09.2019
2351 Fog 14 1024 93 2000 2.6 160 06:43 07.09.2019
2352 Clouds 15 1023 87 10000 2.31 110.045 05:41 07.09.2019
2353 Clouds 15 1023 87 10000 2.31 110.045 05:41 07.09.2019
2354 Clouds 15 1024 88 10000 2.1 210 04:33 07.09.2019
2355 Clouds 15 1023 88 10000 1 260 03:44 07.09.2019
2356 Clouds 15 1023 82 10000 1.5 180 02:31 07.09.2019
2357 Clouds 15 1023 82 10000 1.57 80.058 01:33 07.09.2019
2358 Clouds 14 1024 82 10000 1.5 60 00:55 07.09.2019
2359 Clouds 16 1024 82 10000 3.1 110 00:36 07.09.2019
2360 Clouds 16 1024 77 10000 4.1 120 00:18 07.09.2019
2361 Clouds 16 1024 77 10000 3.6 130 23:38 06.09.2019
2362 Clouds 16 1024 77 10000 3.6 130 23:38 06.09.2019
2363 Clouds 15 1024 77 10000 3.6 130 23:38 06.09.2019
2364 Clouds 16 1024 77 10000 3.6 130 23:20 06.09.2019
2365 Clouds 16 1024 77 10000 2.6 160 22:57 06.09.2019
2366 Clouds 15 1024 82 10000 3.6 190 22:37 06.09.2019
2367 Clouds 15 1024 82 10000 3.6 190 22:19 06.09.2019
2368 Clouds 14 1024 82 10000 3.6 190 21:56 06.09.2019
2369 Clouds 16 1024 82 10000 2.6 200 21:38 06.09.2019
2370 Clouds 18 1024 77 10000 3.1 200 21:19 06.09.2019
2371 Clouds 18 1024 77 10000 3.1 200 20:54 06.09.2019
2372 Clouds 17 1022 88 10000 2.49 96.376 20:36 06.09.2019
2373 Rain 16 1024 93 10000 2.6 90 20:18 06.09.2019
2374 Clouds 16 1022 56 10000 5.1 90 19:41 06.09.2019
2375 Clouds 18 1022 53 10000 4.1 90 19:23 06.09.2019
2376 Clouds 18 1022 53 10000 4.1 90 18:58 06.09.2019
2377 Clouds 16 1022 53 10000 4.1 80 18:39 06.09.2019
2378 Clouds 23 1022 53 10000 4.1 80 18:21 06.09.2019
2379 Clouds 25 1021 47 10000 6.2 80 17:40 06.09.2019
2380 Clouds 24 1021 47 10000 6.2 80 17:21 06.09.2019
2381 Clouds 24 1021 47 10000 6.7 90 16:58 06.09.2019
2382 Clouds 20 1020 53 10000 5.1 80 16:38 06.09.2019
2383 Clouds 18 1020 44 10000 5.1 100 16:18 06.09.2019
2384 Clouds 18 1020 44 10000 4.6 120 15:41 06.09.2019
2385 Clouds 21 1020 44 10000 4.6 120 15:41 06.09.2019
2386 Clouds 25 1020 44 10000 4.6 120 15:22 06.09.2019
2387 Clouds 26 1021 50 10000 5.1 180 14:48 06.09.2019
2388 Clouds 23 1021 50 10000 5.1 180 14:20 06.09.2019
2389 Clouds 23 1022 47 10000 4.1 150 13:44 06.09.2019
2390 Clouds 23 1023 47 10000 3.6 160 13:24 06.09.2019
2391 Clouds 23 1023 47 10000 3.6 160 12:59 06.09.2019
2392 Clouds 22 1023 50 10000 3.6 170 12:37 06.09.2019
2393 Clouds 22 1024 53 10000 2.6 140 12:18 06.09.2019
2394 Clouds 22 1024 56 10000 1.5 170 11:41 06.09.2019
2395 Clouds 22 1024 56 10000 1.5 170 11:23 06.09.2019
2396 Clouds 20 1025 60 10000 3.6 60 10:57 06.09.2019
2397 Clouds 19 1026 60 10000 1.5 150 10:39 06.09.2019
2398 Clouds 19 1026 60 10000 1.5 150 10:19 06.09.2019
2399 Clouds 20 1026 68 10000 1 0 09:40 06.09.2019
2400 Clouds 17 1026 68 10000 1 0 09:21 06.09.2019
2401 Clouds 17 1026 72 10000 2.6 0 08:57 06.09.2019
2402 Clouds 17 1025 77 10000 2.6 130 08:38 06.09.2019
2403 Clouds 17 1025 77 10000 2.6 130 08:20 06.09.2019
2404 Clouds 16 1025 82 10000 2.6 190 07:45 06.09.2019
2405 Clouds 15 1025 82 10000 2.6 190 07:26 06.09.2019
2406 Clouds 16 1025 87 10000 2.1 210 06:56 06.09.2019
2407 Clouds 15 1025 87 10000 2.1 210 06:56 06.09.2019
2408 Clouds 14 1023 87 10000 1.61 72.737 05:58 06.09.2019
2409 Clouds 14 1024 87 10000 1.61 72.737 05:29 06.09.2019
2410 Clouds 14 1022 82 10000 1.61 72.737 04:42 06.09.2019
2411 Clouds 14 1022 82 10000 1.61 72.737 03:45 06.09.2019
2412 Clouds 14 1022 82 10000 1.61 72.737 03:45 06.09.2019
2413 Clouds 13 1022 87 10000 3.01 81.197 01:51 06.09.2019
2414 Clouds 15 1023 77 10000 1 0 00:38 06.09.2019
2415 Clouds 15 1023 72 10000 2.6 60 23:44 05.09.2019
2416 Clouds 17 1023 72 10000 2.6 60 23:25 05.09.2019
2417 Clouds 17 1023 68 10000 2.6 80 22:55 05.09.2019
2418 Clouds 17 1023 68 10000 2.6 80 22:55 05.09.2019
2419 Clouds 17 1023 68 10000 1.76 73.625 22:37 05.09.2019
2420 Clouds 17 1023 68 10000 1.76 73.625 22:19 05.09.2019
2421 Clouds 18 1023 60 10000 3.1 70 21:56 05.09.2019
2422 Clouds 18 1022 64 10000 3.1 60 21:37 05.09.2019
2423 Clouds 18 1022 64 10000 3.1 60 21:19 05.09.2019
2424 -273 0 0 0 0 0 20:55 05.09.2019
2425 Clouds 18 1021 64 10000 2.1 40 20:36 05.09.2019
2426 Clouds 18 1021 64 10000 2.1 40 20:18 05.09.2019
2427 Clouds 18 1021 68 10000 2.6 40 19:42 05.09.2019
2428 Clouds 18 1021 68 10000 2.6 40 19:23 05.09.2019
2429 Clouds 19 1021 56 10000 4.1 80 18:57 05.09.2019
2430 Clouds 19 1020 60 10000 3.1 30 18:39 05.09.2019
2431 Clouds 19 1021 56 10000 5.1 80 18:19 05.09.2019
2432 Clouds 19 1020 56 10000 2.6 120 17:42 05.09.2019
2433 Clouds 19 1020 56 10000 2.6 120 17:23 05.09.2019
2434 Clouds 20 1020 49 10000 2.1 70 16:58 05.09.2019
2435 Clouds 20 1020 49 10000 2.1 70 16:58 05.09.2019
2436 Clouds 20 1020 49 10000 2.1 70 16:40 05.09.2019
2437 Clouds 20 1020 49 10000 2.1 70 16:20 05.09.2019
2438 Clouds 20 1020 53 10000 3.1 70 15:57 05.09.2019
2439 Clouds 20 1021 56 10000 6.7 100 15:38 05.09.2019
2440 Clouds 19 1021 60 10000 2.6 100 15:18 05.09.2019
2441 Clouds 20 1021 60 10000 2.6 100 14:43 05.09.2019
2442 Clouds 19 1021 60 10000 2.6 100 14:21 05.09.2019
2443 Clouds 19 1021 64 10000 3.6 70 13:44 05.09.2019
2444 Clouds 19 1021 64 10000 3.6 70 13:44 05.09.2019
2445 Clouds 19 1021 64 10000 3.6 70 13:23 05.09.2019
2446 Clouds 20 1022 60 10000 3.6 60 12:59 05.09.2019
2447 Clouds 20 1022 60 10000 3.1 110 12:41 05.09.2019
2448 Clouds 19 1023 68 10000 3.6 120 12:22 05.09.2019
2449 Clouds 19 1024 60 10000 2.1 90 11:44 05.09.2019
2450 Clouds 18 1024 60 10000 2.1 90 11:20 05.09.2019
2451 Clouds 18 1024 64 10000 2.1 110 10:57 05.09.2019
2452 Clouds 18 1023 68 10000 5.1 90 10:36 05.09.2019
2453 Clouds 17 1023 68 10000 5.1 90 10:18 05.09.2019
2454 Clouds 17 1024 68 10000 3.67 115.957 09:40 05.09.2019
2455 Clouds 17 1024 68 10000 1.5 114.52 09:20 05.09.2019
2456 Clouds 16 1025 72 10000 2.1 170 08:55 05.09.2019
2457 Clouds 16 1025 72 10000 2.1 170 08:55 05.09.2019
2458 Clouds 16 1024 82 10000 1.5 114.52 08:37 05.09.2019
2459 Clouds 16 1024 82 10000 1.5 114.52 08:19 05.09.2019
2460 Clouds 14 1023 87 10000 2.6 170 07:42 05.09.2019
2461 Clouds 14 1024 87 10000 2.1 240 07:23 05.09.2019
2462 Clouds 14 1023 87 10000 1.5 114.52 06:46 05.09.2019
2463 Clouds 13 1023 87 10000 1.9 83.906 06:25 05.09.2019
2464 Clouds 13 1022 93 10000 1.9 83.906 05:43 05.09.2019
2465 Clouds 13 1022 93 10000 1.9 83.906 05:25 05.09.2019
2466 Clouds 13 1022 93 10000 3.1 240 04:30 05.09.2019
2467 Clouds 14 1022 87 10000 1.5 320 03:47 05.09.2019
2468 Clouds 14 1022 87 10000 1 0 02:58 05.09.2019
2469 Clouds 14 1022 82 10000 0.5 0 02:29 05.09.2019
2470 Clouds 14 1022 82 10000 1.5 50 01:57 05.09.2019
2471 Clouds 15 1022 77 10000 1.5 360 00:58 05.09.2019
2472 Clouds 16 1022 68 10000 2.1 360 00:39 05.09.2019
2473 Clouds 16 1022 68 10000 2.1 360 00:19 05.09.2019
2474 Clouds 17 1022 68 10000 2.9 84.836 23:40 04.09.2019
2475 Clouds 17 1022 68 10000 2.9 84.836 23:22 04.09.2019
2476 Clouds 17 1023 60 10000 2.6 160 22:49 04.09.2019
2477 Clouds 18 1023 60 10000 2.1 160 22:21 04.09.2019
2478 Clouds 18 1023 60 10000 2.6 140 21:57 04.09.2019
2479 Clouds 19 1022 56 10000 3.6 140 21:38 04.09.2019
2480 Clouds 19 1022 56 10000 3.6 140 21:19 04.09.2019
2481 Clouds 18 1022 56 10000 3.1 0 20:55 04.09.2019
2482 Clouds 18 1022 56 10000 3.1 0 20:55 04.09.2019
2483 Clouds 18 1021 64 10000 3.1 140 20:36 04.09.2019
2484 Clouds 18 1021 64 10000 3.1 140 20:18 04.09.2019
2485 Clouds 19 1021 64 10000 3.72 82.122 19:40 04.09.2019
2486 Clouds 19 1021 64 10000 3.72 82.122 19:40 04.09.2019
2487 Clouds 19 1021 56 10000 3.1 110 19:21 04.09.2019
2488 Clouds 19 1021 56 10000 3.1 110 18:55 04.09.2019
2489 Clouds 19 1020 56 10000 5.1 120 18:36 04.09.2019
2490 Clouds 20 1021 56 10000 4.1 140 18:18 04.09.2019
2491 Clouds 20 1020 53 10000 2.6 130 17:41 04.09.2019
2492 Clouds 20 1020 53 10000 2.6 130 17:22 04.09.2019
2493 Clouds 20 1021 49 10000 3.1 80 16:56 04.09.2019
2494 Clouds 20 1021 53 10000 2.6 120 16:38 04.09.2019
2495 Clouds 20 1020 53 10000 4.1 140 16:19 04.09.2019
2496 Clouds 19 1020 53 10000 2.6 140 15:40 04.09.2019
2497 Clouds 19 1020 53 10000 2.6 140 15:22 04.09.2019
2498 Clouds 19 1020 53 10000 2.6 140 15:22 04.09.2019
2499 Clouds 20 1021 53 10000 3.1 150 14:58 04.09.2019
2500 Clouds 18 1012 75 0 1.34 123 14:38 04.09.2019
2501 Clouds 19 1012 70 0 1.34 224 14:20 04.09.2019
2502 Clouds 19 1012 68 0 2.82 123.222 13:58 04.09.2019
2503 Clouds 18 1013 69 0 0.45 228 13:39 04.09.2019
2504 Clouds 19 1013 69 0 0.45 233 13:21 04.09.2019
2505 Clouds 18 1013 72 0 3.3 125.429 12:44 04.09.2019
2506 Clouds 18 1014 74 0 0.89 228 12:26 04.09.2019
2507 Clouds 17 1015 76 0 0.89 237 11:58 04.09.2019
2508 Clouds 17 1015 76 0 3.02 151.789 11:38 04.09.2019
2509 Clouds 17 1015 77 0 0.89 237 11:20 04.09.2019
2510 Clouds 23 1016 52 0 3.02 151.789 10:56 04.09.2019
2511 Clouds 23 1016 52 0 3.02 151.789 10:56 04.09.2019
2512 Clouds 23 1016 52 0 3.02 151.789 10:36 04.09.2019
2513 Clouds 23 1016 52 0 3.02 151.789 10:18 04.09.2019
2514 Clouds 16 1024 82 10000 2.6 130 09:44 04.09.2019
2515 Clouds 24 1016 52 0 2.94 146.283 09:44 04.09.2019
2516 Clouds 16 1024 82 10000 2.6 130 09:20 04.09.2019
2517 Clouds 15 1025 87 10000 1.5 150 08:42 04.09.2019
2518 Clouds 14 1025 87 10000 1.5 150 08:24 04.09.2019
2519 Clouds 14 1025 87 10000 2.1 200 07:58 04.09.2019
2520 Clouds 14 1025 87 10000 1 0 07:36 04.09.2019
2521 Clouds 14 1024 87 10000 2.1 180 06:53 04.09.2019
2522 Clouds 14 1024 87 10000 2.1 180 06:33 04.09.2019
2523 Clouds 13 1023 93 10000 1.5 200 04:55 04.09.2019
2524 Clouds 13 1023 93 10000 2.1 200 04:22 04.09.2019
2525 Clouds 13 1022 87 10000 2.1 220 02:50 04.09.2019
2526 Clouds 15 1023 72 10000 3.1 160 01:20 04.09.2019
2527 Clouds 15 1023 72 10000 3.6 170 00:41 04.09.2019
2528 Clouds 15 1023 72 10000 3.6 170 00:23 04.09.2019
2529 Clouds 15 1023 72 10000 3.6 170 23:51 03.09.2019
2530 Clouds 15 1023 72 10000 2.6 160 23:27 03.09.2019
2531 Clouds 16 1024 68 10000 1 0 22:43 03.09.2019
2532 Clouds 16 1024 68 10000 1 0 22:24 03.09.2019
2533 Clouds 16 1023 63 10000 1 0 21:59 03.09.2019
2534 Clouds 17 1023 60 10000 2.1 150 21:38 03.09.2019
2535 Clouds 17 1023 60 10000 2.1 150 21:38 03.09.2019
2536 Clouds 17 1023 60 10000 2.1 150 21:20 03.09.2019
2537 Clouds 16 1023 60 10000 2.1 150 20:57 03.09.2019
2538 Clouds 18 1022 60 10000 2.1 140 20:38 03.09.2019
2539 Clouds 18 1022 60 10000 2.1 140 20:20 03.09.2019
2540 Clouds 17 1022 60 10000 2.1 140 19:55 03.09.2019
2541 Clouds 17 1022 56 10000 4.1 120 19:36 03.09.2019
2542 Clouds 19 1022 56 10000 4.1 120 19:18 03.09.2019
2543 Clouds 19 1022 56 10000 4.1 120 19:18 03.09.2019
2544 Clouds 18 1021 56 10000 4.1 130 18:41 03.09.2019
2545 Clouds 18 1021 56 10000 5.7 130 18:23 03.09.2019
2546 Clouds 18 1021 56 10000 5.7 130 17:56 03.09.2019
2547 Clouds 19 1021 53 10000 4.6 150 17:38 03.09.2019
2548 Clouds 19 1021 53 10000 4.6 150 17:19 03.09.2019
2549 Clouds 21 1021 47 10000 5.1 150 16:43 03.09.2019
2550 Clouds 21 1021 47 10000 5.1 150 16:43 03.09.2019
2551 Clouds 21 1021 47 10000 5.1 150 16:23 03.09.2019
2552 Clouds 21 1021 47 10000 3.6 160 15:57 03.09.2019
2553 Clouds 21 1021 47 10000 5.7 180 15:38 03.09.2019
2554 Clouds 21 1021 47 10000 5.7 180 15:20 03.09.2019
2555 Clouds 21 1021 47 10000 3.6 160 14:56 03.09.2019
2556 Clouds 21 1022 53 10000 4.6 160 14:37 03.09.2019
2557 Clouds 21 1022 53 10000 1.5 170 14:18 03.09.2019
2558 Clouds 22 1022 53 10000 1.5 170 13:55 03.09.2019
2559 Clouds 21 1023 53 10000 2.1 140 13:37 03.09.2019
2560 Clouds 22 1023 53 10000 2.1 140 13:18 03.09.2019
2561 Clouds 21 1023 56 10000 3.6 130 12:48 03.09.2019
2562 Clouds 20 1024 56 10000 3.1 0 12:29 03.09.2019
2563 Clouds 18 1025 68 10000 3.6 170 11:44 03.09.2019
2564 Clouds 18 1025 68 10000 3.6 170 11:25 03.09.2019
2565 Clouds 18 1025 68 10000 2.6 190 10:59 03.09.2019
2566 Clouds 18 1026 72 10000 3.1 170 10:40 03.09.2019
2567 Clouds 17 1026 72 10000 3.1 170 10:22 03.09.2019
2568 Clouds 17 1026 72 10000 3.6 180 09:53 03.09.2019
2569 Clouds 17 1024 77 10000 4.6 170 09:33 03.09.2019
2570 Clouds 17 1025 72 10000 2.1 190 08:58 03.09.2019
2571 Clouds 17 1024 82 10000 1.99 121.572 08:38 03.09.2019
2572 Clouds 17 1023 87 10000 2.6 120 08:19 03.09.2019
2573 Clouds 17 1023 87 10000 2.6 120 07:43 03.09.2019
2574 Clouds 15 1023 87 10000 2.6 120 07:24 03.09.2019
2575 Clouds 15 1024 82 10000 3.1 180 06:54 03.09.2019
2576 Clouds 16 1023 87 10000 2.1 160 06:36 03.09.2019
2577 Clouds 14 1023 87 10000 3.6 190 03:44 03.09.2019
2578 Clouds 15 1022 82 10000 3.6 200 02:49 03.09.2019
2579 Clouds 15 1022 82 10000 3.6 190 02:30 03.09.2019
2580 Clouds 15 1022 82 10000 3.1 190 01:59 03.09.2019
2581 Clouds 15 1022 82 10000 3.1 180 01:41 03.09.2019
2582 Clouds 14 1022 82 10000 3.1 180 01:22 03.09.2019
2583 Clouds 16 1023 77 10000 4.6 180 00:28 03.09.2019
2584 Clouds 16 1023 77 10000 4.6 170 23:56 02.09.2019
2585 Clouds 16 1023 82 10000 4.1 200 23:36 02.09.2019
2586 Clouds 16 1023 82 10000 4.1 200 23:18 02.09.2019
2587 -273 0 0 0 0 0 22:55 02.09.2019
2588 -273 0 0 0 0 0 22:55 02.09.2019
2589 Clouds 16 1023 77 10000 3.1 180 22:36 02.09.2019
2590 Clouds 16 1023 77 10000 3.1 180 22:18 02.09.2019
2591 Clouds 16 1023 77 10000 3.6 170 21:55 02.09.2019
2592 Clouds 17 1022 88 10000 2.6 150 21:36 02.09.2019
2593 Clouds 17 1022 88 10000 2.6 150 21:18 02.09.2019
2594 Clouds 17 1022 88 10000 4.6 150 20:41 02.09.2019
2595 Clouds 17 1022 88 10000 4.6 150 20:22 02.09.2019
2596 Clouds 17 1022 88 10000 4.6 150 20:22 02.09.2019
2597 Clouds 17 1022 82 10000 4.1 90 19:57 02.09.2019
2598 Clouds 18 1021 72 10000 2.6 80 19:39 02.09.2019
2599 Clouds 18 1021 72 10000 2.6 80 19:39 02.09.2019
2600 Clouds 18 1021 72 10000 2.6 80 19:21 02.09.2019
2601 Clouds 18 1021 72 10000 4.1 100 18:42 02.09.2019
2602 Clouds 19 1022 68 10000 6.2 90 18:23 02.09.2019
2603 Clouds 19 1022 68 10000 6.2 90 17:59 02.09.2019
2604 Clouds 18 1020 68 10000 5.1 130 17:40 02.09.2019
2605 Clouds 18 1020 68 10000 5.1 130 17:21 02.09.2019
2606 Clouds 21 1021 68 10000 6.2 80 16:59 02.09.2019
2607 Clouds 22 1021 60 10000 5.1 70 16:38 02.09.2019
2608 Clouds 22 1020 57 10000 5.7 50 16:20 02.09.2019
2609 Clouds 23 1020 57 10000 5.7 50 15:45 02.09.2019
2610 Clouds 22 1020 53 10000 7.7 70 15:27 02.09.2019
2611 Clouds 23 1020 53 10000 5.7 50 14:57 02.09.2019
2612 Clouds 22 1021 57 10000 5.7 50 14:39 02.09.2019
2613 Clouds 22 1021 57 10000 5.7 50 14:21 02.09.2019
2614 Clouds 22 1021 60 10000 4.6 60 13:56 02.09.2019
2615 Clouds 22 1021 68 10000 4.1 90 13:36 02.09.2019
2616 Clouds 22 1022 60 10000 5.1 40 13:18 02.09.2019
2617 Clouds 22 1021 64 10000 4.6 60 12:45 02.09.2019
2618 Clouds 21 1023 64 10000 3.1 50 12:25 02.09.2019
2619 Clouds 21 1023 64 10000 3.1 50 11:58 02.09.2019
2620 Clouds 21 1023 73 10000 3.6 110 11:38 02.09.2019
2621 Clouds 21 1023 73 10000 3.6 110 11:20 02.09.2019
2622 Clouds 19 1024 77 10000 3.6 50 10:57 02.09.2019
2623 Clouds 19 1023 88 10000 2.6 90 10:38 02.09.2019
2624 Clouds 19 1023 88 10000 2.6 90 10:19 02.09.2019
2625 Clouds 17 1023 100 7000 3.6 120 09:45 02.09.2019
2626 Clouds 17 1023 100 7000 3.6 120 09:22 02.09.2019
2627 Clouds 17 1023 100 7000 3.6 120 09:22 02.09.2019
2628 Fog 16 1023 100 200 2.6 180 08:45 02.09.2019
2629 Fog 16 1022 93 1000 3.6 160 08:24 02.09.2019
2630 Fog 15 1022 93 1000 3.6 160 07:59 02.09.2019
2631 Fog 15 1022 93 100 2.6 170 07:40 02.09.2019
2632 Fog 14 1022 93 100 2.6 170 07:21 02.09.2019
2633 Mist 15 1022 93 2000 1.5 230 06:44 02.09.2019
2634 Mist 14 1022 93 2000 1.5 230 06:25 02.09.2019
2635 Fog 12 1021 93 100 2.1 240 05:47 02.09.2019
2636 Fog 12 1021 93 100 2.1 240 05:18 02.09.2019
2637 Clear 14 1021 100 10000 2.1 210 02:59 02.09.2019
2638 Clear 13 1021 93 10000 2.09 58.044 01:45 02.09.2019
2639 Clear 14 1021 93 10000 1 0 00:47 02.09.2019
2640 Clear 15 1021 93 10000 1 0 00:28 02.09.2019
2641 Clouds 16 1022 88 10000 1.8 95.062 23:43 01.09.2019
2642 Clouds 16 1022 88 10000 1.8 95.062 23:22 01.09.2019
2643 Clouds 16 1022 93 10000 3.6 350 22:58 01.09.2019
2644 Clouds 15 1022 93 10000 1.5 360 22:39 01.09.2019
2645 Clouds 16 1022 93 10000 1.5 360 22:39 01.09.2019
2646 Clouds 16 1022 93 10000 1.5 360 22:19 01.09.2019
2647 Clouds 16 1022 93 10000 2.1 80 21:57 01.09.2019
2648 Clouds 17 1022 82 10000 2.6 80 21:37 01.09.2019
2649 Rain 17 1022 82 10000 2.6 80 21:19 01.09.2019
2650 Clouds 16 1020 88 10000 1.5 50 20:56 01.09.2019
2651 Rain 17 1020 88 10000 1.5 50 20:36 01.09.2019
2652 Rain 17 1021 88 10000 3.6 10 20:18 01.09.2019
2653 Rain 17 1021 88 10000 3.6 10 19:56 01.09.2019
2654 Rain 18 1020 82 10000 4.1 20 19:37 01.09.2019
2655 Rain 19 1020 68 10000 4.1 70 19:18 01.09.2019
2656 Rain 16 1012 81 0 1.79 129 18:41 01.09.2019
2657 Rain 19 1019 60 10000 2.6 70 18:23 01.09.2019
2658 Clouds 18 1019 60 10000 4.1 110 17:55 01.09.2019
2659 Clouds 21 1019 60 10000 4.1 110 17:37 01.09.2019
2660 Clouds 21 1019 56 10000 6.7 110 17:18 01.09.2019
2661 Rain 18 1018 49 10000 7.2 60 16:39 01.09.2019
2662 Rain 25 1018 49 10000 7.2 60 16:18 01.09.2019
2663 Rain 27 1018 39 10000 2.6 110 15:47 01.09.2019
2664 Rain 26 1018 39 10000 2.6 110 15:29 01.09.2019
2665 Clouds 26 1018 57 10000 3.6 160 14:56 01.09.2019
2666 Clouds 26 1018 44 10000 3.1 190 14:37 01.09.2019
2667 Clouds 26 1018 44 10000 3.1 190 14:19 01.09.2019
2668 Clear 30 1009 31 0 2.77 200.319 13:42 01.09.2019
2669 Clear 30 1010 32 0 2.37 188.428 13:24 01.09.2019
2670 Clear 21 1011 66 0 2.37 188.428 12:56 01.09.2019
2671 Clear 21 1011 65 0 0.45 171 12:37 01.09.2019
2672 Clear 21 1011 68 0 3.09 207.419 12:19 01.09.2019
2673 Clear 21 1012 75 0 0.89 154 11:40 01.09.2019
2674 Clear 21 1013 74 0 1.79 154 11:20 01.09.2019
2675 Clear 19 1013 77 0 0.89 152 10:57 01.09.2019
2676 Clear 19 1013 77 0 0.89 152 10:57 01.09.2019
2677 Clouds 18 1022 88 10000 3.09 207.419 10:38 01.09.2019
2678 Clouds 18 1022 88 10000 3.09 207.419 10:20 01.09.2019
2679 Clouds 18 1022 88 10000 3.03 200.636 09:42 01.09.2019
2680 Clouds 18 1022 88 10000 1.09 157.935 09:23 01.09.2019
2681 Clouds 17 1022 93 10000 1.09 157.935 08:43 01.09.2019
2682 Clouds 17 1022 93 10000 1.09 157.935 08:22 01.09.2019
2683 Clouds 16 1021 93 10000 1.09 157.935 07:49 01.09.2019
2684 Clouds 16 1021 93 10000 1.09 157.935 07:31 01.09.2019
2685 Clouds 17 1020 93 10000 1.09 157.935 06:42 01.09.2019
2686 Clouds 15 1020 93 10000 1.15 110.451 06:19 01.09.2019
2687 Clouds 14 1020 93 10000 1.15 110.451 05:38 01.09.2019
2688 Clouds 14 1020 93 10000 1.5 110 04:27 01.09.2019
2689 Clouds 15 1020 93 10000 1.15 110.451 03:39 01.09.2019
2690 Clouds 14 1020 93 10000 1 230 02:57 01.09.2019
2691 Clouds 13 1020 93 10000 1.5 250 02:26 01.09.2019
2692 Clouds 14 1020 93 10000 1.5 250 01:50 01.09.2019
2693 Clouds 14 1020 93 10000 2.1 240 01:22 01.09.2019
2694 Clouds 15 1021 93 10000 1.5 240 00:45 01.09.2019
2695 Clouds 16 1021 93 10000 1.5 240 00:21 01.09.2019
2696 Clouds 16 1021 93 10000 2.1 240 23:48 31.08.2019
2697 Rain 16 1022 93 10000 1 230 23:22 31.08.2019
2698 Rain 16 1022 93 10000 1.5 240 22:57 31.08.2019
2699 Rain 15 1022 93 10000 2.1 240 22:39 31.08.2019
2700 Rain 15 1022 93 10000 2.1 240 22:21 31.08.2019
2701 Rain 15 1022 93 10000 3.1 250 21:55 31.08.2019
2702 Rain 16 1022 93 10000 3.6 260 21:37 31.08.2019
2703 Rain 16 1022 93 10000 3.6 260 21:19 31.08.2019
2704 Rain 15 1021 93 10000 5.7 290 20:43 31.08.2019
2705 Rain 15 1021 93 10000 5.7 290 20:24 31.08.2019
2706 Clouds 17 1020 77 10000 2.6 260 19:47 31.08.2019
2707 Rain 18 1020 77 10000 2.6 260 19:24 31.08.2019
2708 Rain 18 1020 68 10000 2.6 170 18:59 31.08.2019
2709 Rain 18 1018 77 10000 8.2 240 18:39 31.08.2019
2710 Clouds 20 1018 56 10000 7.7 90 18:19 31.08.2019
2711 Clouds 20 1018 56 10000 7.7 90 17:55 31.08.2019
2712 Clouds 21 1017 60 10000 3.6 340 17:37 31.08.2019
2713 Clouds 20 1017 60 10000 3.6 340 17:18 31.08.2019
2714 Clouds 21 1017 53 10000 5.7 40 16:55 31.08.2019
2715 Clouds 21 1016 50 10000 6.7 30 16:37 31.08.2019
2716 Clouds 21 1016 50 10000 6.7 30 16:18 31.08.2019
2717 Clouds 20 1017 47 10000 1.5 40 15:42 31.08.2019
2718 Clouds 26 1017 47 10000 4.1 90 15:19 31.08.2019
2719 Clouds 26 1017 47 10000 4.1 90 14:55 31.08.2019
2720 Clouds 26 1017 47 10000 2.6 60 14:36 31.08.2019
2721 Clouds 24 1018 53 10000 2.1 90 14:18 31.08.2019
2722 Clouds 24 1018 57 10000 4.1 140 13:40 31.08.2019
2723 Clouds 24 1018 57 10000 4.1 140 13:21 31.08.2019
2724 Clouds 22 1019 53 10000 1.5 110 12:58 31.08.2019
2725 Clouds 22 1020 56 10000 3.29 122.786 12:38 31.08.2019
2726 Clouds 21 1021 64 10000 3.1 170 12:19 31.08.2019
2727 Clouds 20 1020 64 10000 2.1 180 11:46 31.08.2019
2728 Clouds 20 1020 64 10000 2.1 180 11:46 31.08.2019
2729 Clouds 20 1020 64 10000 2.1 180 11:28 31.08.2019
2730 Clouds 20 1022 68 10000 2.1 130 10:58 31.08.2019
2731 Clouds 19 1021 77 10000 0.46 39.694 10:40 31.08.2019
2732 Clouds 18 1021 77 10000 0.46 39.694 10:19 31.08.2019
2733 Clouds 17 1022 82 10000 2.1 60 09:54 31.08.2019
2734 Clouds 17 1021 88 10000 1.67 22.924 09:36 31.08.2019
2735 Clouds 17 1021 88 10000 0.91 113.083 09:18 31.08.2019
2736 Clouds 16 1021 88 10000 0.91 113.083 08:41 31.08.2019
2737 Clouds 16 1021 88 10000 0.91 113.083 08:41 31.08.2019
2738 Clouds 16 1021 88 10000 0.91 113.083 08:22 31.08.2019
2739 Clouds 16 1021 88 10000 0.91 113.083 07:40 31.08.2019
2740 Clouds 16 1021 88 10000 0.91 113.083 07:20 31.08.2019
2741 Clouds 15 1020 93 10000 0.91 113.083 06:28 31.08.2019
2742 Clouds 15 1021 93 10000 1.5 10 05:55 31.08.2019
2743 Clouds 15 1020 93 10000 2.1 20 05:30 31.08.2019
2744 Clouds 15 1020 93 10000 1.5 360 04:30 31.08.2019
2745 Clouds 15 1020 93 10000 2.6 20 03:44 31.08.2019
2746 Clouds 14 1020 87 10000 2.1 30 02:29 31.08.2019
2747 Clouds 13 1011 89 0 1.79 76 01:52 31.08.2019
2748 Clouds 15 1021 82 10000 2.6 360 01:31 31.08.2019
2749 Clouds 15 1021 82 10000 2.6 360 00:49 31.08.2019
2750 Clouds 15 1021 82 10000 2.6 360 00:28 31.08.2019
2751 Clouds 15 1021 82 10000 1.5 360 23:51 30.08.2019
2752 Clouds 16 1021 77 10000 2.6 360 23:21 30.08.2019
2753 Clouds 16 1021 77 10000 1.5 90 22:59 30.08.2019
2754 Clouds 16 1021 77 10000 2.55 90.54 22:40 30.08.2019
2755 Clouds 16 1021 77 10000 2.55 90.54 22:40 30.08.2019
2756 Clouds 16 1021 77 10000 2.55 90.54 22:40 30.08.2019
2757 Clouds 16 1021 77 10000 2.55 90.54 22:40 30.08.2019
2758 Clouds 16 1021 77 10000 2.55 90.54 22:21 30.08.2019
2759 Clouds 17 1022 77 10000 2.6 60 21:57 30.08.2019
2760 Clouds 16 1022 77 10000 2.6 60 21:57 30.08.2019
2761 Clouds 17 1021 77 10000 3.1 60 21:37 30.08.2019
2762 Clouds 17 1021 77 10000 3.1 60 21:19 30.08.2019
2763 Clouds 17 1021 77 10000 3.1 60 21:19 30.08.2019
2764 Clouds 16 1021 82 10000 3.6 70 20:58 30.08.2019
2765 Clouds 16 1021 82 0 4.1 80 20:39 30.08.2019
2766 Clouds 17 1021 82 0 4.1 80 20:20 30.08.2019
2767 Clouds 17 1021 72 10000 5.7 70 19:56 30.08.2019
2768 Clouds 18 1019 68 10000 6.2 80 19:38 30.08.2019
2769 Clouds 18 1019 68 10000 5.7 70 19:19 30.08.2019
2770 Clouds 19 1019 64 10000 3.6 70 18:46 30.08.2019
2771 Clouds 18 1019 64 10000 3.6 70 18:25 30.08.2019
2772 Clouds 19 1019 60 10000 6.7 80 17:58 30.08.2019
2773 Clouds 19 1018 64 10000 7.7 100 17:40 30.08.2019
2774 Clouds 19 1018 64 10000 7.7 100 17:19 30.08.2019
2775 Clouds 20 1019 56 10000 7.7 100 16:57 30.08.2019
2776 Clouds 21 1018 56 10000 10.3 90 16:39 30.08.2019
2777 Clouds 21 1019 53 10000 5.7 80 16:21 30.08.2019
2778 Clouds 21 1018 60 10000 4.6 60 15:43 30.08.2019
2779 Clouds 24 1018 60 10000 4.6 60 15:22 30.08.2019
2780 Clouds 22 1019 53 10000 4.1 60 14:45 30.08.2019
2781 Clouds 22 1019 53 10000 4.1 60 14:26 30.08.2019
2782 Clouds 22 1020 60 10000 3.6 70 13:57 30.08.2019
2783 Clouds 22 1020 60 10000 5.1 70 13:39 30.08.2019
2784 Clouds 22 1020 60 10000 5.1 70 13:39 30.08.2019
2785 Clouds 22 1020 60 10000 5.1 70 13:39 30.08.2019
2786 Clouds 22 1020 60 10000 5.1 70 13:21 30.08.2019
2787 Clouds 21 1021 68 10000 4.1 40 12:45 30.08.2019
2788 Clouds 21 1021 68 10000 4.1 40 12:26 30.08.2019
2789 Clouds 20 1023 72 10000 3.1 30 11:58 30.08.2019
2790 Clouds 20 1022 72 10000 3.28 160.847 11:39 30.08.2019
2791 Clouds 19 1022 72 10000 3.28 160.847 11:21 30.08.2019
2792 Clouds 19 1022 72 10000 3.28 160.847 11:21 30.08.2019
2793 Clouds 18 1023 77 10000 2.6 60 10:39 30.08.2019
2794 Clouds 17 1024 88 10000 2.1 20 10:20 30.08.2019
2795 Clouds 17 1024 88 10000 2.1 20 09:56 30.08.2019
2796 Clouds 17 1024 82 10000 2.6 110 09:36 30.08.2019
2797 Clouds 17 1024 82 10000 2.6 110 09:36 30.08.2019
2798 Clouds 16 1024 82 10000 2.6 110 09:18 30.08.2019
2799 Clouds 16 1024 88 10000 3.1 150 08:44 30.08.2019
2800 Clouds 16 1024 88 10000 3.1 150 08:24 30.08.2019
2801 Clouds 16 1024 88 10000 3.1 150 07:56 30.08.2019
2802 Clouds 15 1024 93 10000 1.5 120 07:37 30.08.2019
2803 Clouds 15 1024 93 10000 1.5 120 07:18 30.08.2019
2804 Drizzle 16 1023 93 10000 2.1 80 06:40 30.08.2019
2805 Drizzle 15 1023 93 10000 2.1 80 06:21 30.08.2019
2806 Drizzle 15 1022 93 10000 2.6 70 05:32 30.08.2019
2807 Clouds 14 1021 93 10000 1.13 104.912 03:57 30.08.2019
2808 Clouds 14 1022 93 10000 1.13 104.912 03:37 30.08.2019
2809 Clouds 14 1022 93 10000 1.13 104.912 03:37 30.08.2019
2810 Clouds 15 1022 82 10000 1.5 160 02:44 30.08.2019
2811 Clouds 15 1022 88 10000 1 0 02:19 30.08.2019
2812 Clouds 15 1022 88 10000 1.5 40 00:57 30.08.2019
2813 Clouds 15 1023 82 10000 2.34 89.044 00:23 30.08.2019
2814 Clouds 15 1023 82 10000 1.5 30 23:49 29.08.2019
2815 Clouds 15 1023 77 10000 2.1 20 23:23 29.08.2019
2816 Clouds 16 1023 77 10000 2.1 70 23:23 29.08.2019
2817 Clouds 15 1023 77 10000 2.1 70 22:59 29.08.2019
2818 Clouds 15 1023 77 10000 3.1 90 22:41 29.08.2019
2819 Clouds 15 1023 77 10000 3.1 90 22:22 29.08.2019
2820 Clouds 16 1023 77 10000 2.6 40 21:42 29.08.2019
2821 Clouds 17 1023 77 10000 2.6 40 21:22 29.08.2019
2822 Clouds 17 1023 77 10000 2.6 40 21:22 29.08.2019
2823 Clouds 17 1022 77 10000 3.1 40 20:59 29.08.2019
2824 Clouds 17 1021 88 10000 4.38 84.944 20:41 29.08.2019
2825 Rain 18 1022 77 10000 3.6 30 20:20 29.08.2019
2826 Rain 17 1022 77 10000 3.6 30 19:57 29.08.2019
2827 Clouds 16 1022 77 10000 4.1 40 19:39 29.08.2019
2828 Clouds 17 1021 72 10000 4.1 50 19:21 29.08.2019
2829 Clouds 18 1021 68 10000 3.1 10 18:41 29.08.2019
2830 Rain 18 1021 68 10000 2.1 360 18:20 29.08.2019
2831 Rain 18 1021 68 10000 2.1 360 17:56 29.08.2019
2832 Clouds 19 1020 64 10000 2.6 20 17:38 29.08.2019
2833 Clouds 21 1019 60 10000 6.7 90 17:19 29.08.2019
2834 Thunderstorm 21 1019 60 10000 6.7 90 16:55 29.08.2019
2835 Thunderstorm 21 1019 60 10000 6.7 90 16:36 29.08.2019
2836 Clouds 21 1020 50 10000 4.6 80 16:18 29.08.2019
2837 Clouds 20 1020 50 10000 4.6 80 15:38 29.08.2019
2838 Clouds 25 1020 50 10000 2.6 120 15:20 29.08.2019
2839 Clouds 25 1020 50 10000 2.6 120 14:50 29.08.2019
2840 Clouds 22 1021 53 10000 2.1 200 14:23 29.08.2019
2841 Clouds 22 1021 53 10000 2.1 200 13:59 29.08.2019
2842 Clouds 21 1022 57 10000 2.1 130 13:39 29.08.2019
2843 Clouds 21 1022 57 10000 2.1 130 13:20 29.08.2019
2844 Clouds 21 1022 60 10000 1.5 140 12:59 29.08.2019
2845 Clouds 22 1023 56 10000 1.5 30 12:39 29.08.2019
2846 Clouds 22 1023 56 10000 1.5 30 12:21 29.08.2019
2847 Clouds 21 1023 64 10000 2.6 80 11:58 29.08.2019
2848 Clouds 20 1024 68 10000 2.1 60 11:38 29.08.2019
2849 Clouds 20 1024 68 10000 2.1 60 11:19 29.08.2019
2850 Clouds 19 1025 77 10000 1.5 70 10:44 29.08.2019
2851 Clouds 18 1025 77 10000 1.5 70 10:25 29.08.2019
2852 Clouds 17 1025 82 10000 1 0 09:54 29.08.2019
2853 Clouds 17 1025 77 10000 1 0 09:36 29.08.2019
2854 Clouds 17 1025 77 10000 1 0 09:18 29.08.2019
2855 Clouds 16 1025 82 10000 2.1 200 08:40 29.08.2019
2856 Clouds 16 1025 82 10000 2.1 200 08:22 29.08.2019
2857 Clouds 16 1024 87 10000 1.96 180.879 07:51 29.08.2019
2858 Clouds 14 1024 93 10000 1.96 180.879 07:29 29.08.2019
2859 Clouds 14 1024 87 10000 1.5 240 06:53 29.08.2019
2860 Clouds 12 1023 93 10000 2.1 240 06:33 29.08.2019
2861 Clouds 13 1023 87 10000 2.1 90 05:48 29.08.2019
2862 Clouds 13 1022 87 10000 2.1 70 04:51 29.08.2019
2863 Clouds 13 1022 87 10000 2.1 70 04:30 29.08.2019
2864 Clouds 13 1022 87 10000 1.5 20 03:35 29.08.2019
2865 Clouds 13 1023 87 10000 2.1 10 01:53 29.08.2019
2866 Clouds 13 1023 87 10000 2.1 10 01:34 29.08.2019
2867 Clouds 13 1023 87 10000 2.1 10 01:34 29.08.2019
2868 Clouds 14 1023 87 10000 2.6 20 00:46 29.08.2019
2869 Clouds 14 1023 87 10000 2.6 20 00:21 29.08.2019
2870 Clouds 14 1023 87 10000 2.6 50 23:56 28.08.2019
2871 Clouds 15 1024 82 10000 3.1 40 23:38 28.08.2019
2872 Clouds 14 1024 82 10000 3.1 40 23:19 28.08.2019
2873 Clouds 15 1024 93 10000 2.1 40 22:39 28.08.2019
2874 Clouds 14 1024 93 10000 2.1 40 22:19 28.08.2019
2875 Clouds 14 1024 93 10000 1 280 21:59 28.08.2019
2876 Clouds 14 1024 93 10000 2.1 240 21:41 28.08.2019
2877 Clouds 14 1024 93 10000 2.1 240 21:21 28.08.2019
2878 Clouds 14 1023 88 10000 1 0 20:56 28.08.2019
2879 Clouds 14 1023 88 10000 1.5 330 20:38 28.08.2019
2880 Clouds 14 1023 88 10000 1.5 330 20:19 28.08.2019
2881 Clouds 14 1022 93 10000 1.5 100 19:42 28.08.2019
2882 Clouds 14 1022 93 10000 1.5 100 19:21 28.08.2019
2883 Rain 14 1022 93 10000 2.1 100 18:57 28.08.2019
2884 Rain 14 1022 93 5000 2.1 40 18:37 28.08.2019
2885 Thunderstorm 17 1021 93 5000 4.1 60 18:18 28.08.2019
2886 Rain 21 1021 82 5000 1.5 340 17:38 28.08.2019
2887 Rain 22 1020 64 10000 4.6 280 17:19 28.08.2019
2888 Rain 19 1019 53 6000 5.1 300 16:44 28.08.2019
2889 Rain 19 1019 53 6000 5.1 300 16:23 28.08.2019
2890 Clouds 21 1019 41 10000 6.7 80 15:59 28.08.2019
2891 Clouds 21 1019 41 10000 4.1 110 15:38 28.08.2019
2892 Clouds 27 1019 36 10000 5.7 120 15:19 28.08.2019
2893 Clouds 27 1019 36 10000 5.7 120 14:57 28.08.2019
2894 Clouds 27 1019 36 10000 5.7 120 14:38 28.08.2019
2895 Clouds 27 1019 36 10000 5.7 120 14:20 28.08.2019
2896 Clouds 26 1020 42 10000 5.1 150 13:58 28.08.2019
2897 Clouds 23 1020 42 10000 5.1 150 13:38 28.08.2019
2898 Clouds 24 1020 42 10000 5.1 150 13:19 28.08.2019
2899 Clouds 23 1021 47 10000 5.1 150 12:42 28.08.2019
2900 Clouds 23 1021 47 10000 5.1 150 12:23 28.08.2019
2901 Clouds 23 1023 50 10000 2.6 0 11:55 28.08.2019
2902 Clouds 23 1023 50 10000 5.1 190 11:37 28.08.2019
2903 Clouds 21 1024 60 10000 2.1 160 11:18 28.08.2019
2904 Clouds 21 1024 56 10000 2.6 50 10:41 28.08.2019
2905 Clouds 21 1024 56 10000 2.6 50 10:22 28.08.2019
2906 Clouds 20 1025 68 10000 1 0 09:59 28.08.2019
2907 Clouds 20 1024 64 10000 3.33 195.661 09:41 28.08.2019
2908 Clouds 18 1024 64 10000 1.12 193.002 09:19 28.08.2019
2909 Clouds 16 1024 68 10000 1.12 193.002 08:39 28.08.2019
2910 Clouds 16 1024 68 10000 1.12 193.002 08:21 28.08.2019
2911 Clouds 15 1023 87 10000 1.12 193.002 07:45 28.08.2019
2912 Clouds 15 1023 87 10000 1.12 193.002 07:25 28.08.2019
2913 Clear 13 1024 82 10000 1 0 06:59 28.08.2019
2914 Clouds 13 1023 93 10000 1.12 193.002 06:40 28.08.2019
2915 Clear 13 1023 93 10000 1.55 83.37 05:44 28.08.2019
2916 Clear 13 1022 87 10000 1.55 83.37 03:32 28.08.2019
2917 Clear 14 1023 82 10000 2.1 20 01:53 28.08.2019
2918 Clear 15 1023 72 10000 1 0 01:30 28.08.2019
2919 Clear 15 1023 82 10000 1.5 90 00:42 28.08.2019
2920 Clear 15 1023 82 10000 1.5 90 00:18 28.08.2019
2921 Clouds 15 1024 72 10000 2.1 60 23:40 27.08.2019
2922 Clouds 15 1024 72 10000 2.1 60 23:40 27.08.2019
2923 Clouds 16 1024 72 10000 2.1 60 23:21 27.08.2019
2924 Clouds 16 1023 77 10000 3.6 50 22:57 27.08.2019
2925 Clouds 17 1024 77 10000 4.6 70 22:38 27.08.2019
2926 Clouds 17 1024 77 10000 4.6 70 22:20 27.08.2019
2927 Clouds 17 1024 82 10000 2.1 40 21:55 27.08.2019
2928 Clouds 17 1024 82 10000 2.1 40 21:55 27.08.2019
2929 Clouds 17 1023 77 10000 2.69 97.792 21:37 27.08.2019
2930 Clouds 17 1023 77 10000 4.42 71.475 21:18 27.08.2019
2931 Rain 18 1023 82 10000 2.1 170 20:42 27.08.2019
2932 Rain 18 1023 82 10000 2.1 170 20:21 27.08.2019
2933 Rain 18 1023 72 10000 3.1 180 19:58 27.08.2019
2934 Rain 18 1022 64 10000 4.42 71.475 19:40 27.08.2019
2935 Rain 18 1022 64 10000 4.42 71.475 19:22 27.08.2019
2936 Rain 19 1022 56 10000 3.1 100 18:54 27.08.2019
2937 Clouds 20 1021 53 10000 2.6 30 18:36 27.08.2019
2938 Clouds 24 1021 49 10000 5.7 80 18:18 27.08.2019
2939 Clouds 24 1021 44 10000 5.7 70 17:42 27.08.2019
2940 Clouds 24 1021 44 10000 5.7 70 17:22 27.08.2019
2941 Clouds 21 1021 41 10000 5.7 80 16:48 27.08.2019
2942 Clouds 25 1020 38 10000 4.6 90 16:28 27.08.2019
2943 Clouds 25 1020 38 10000 4.6 90 16:28 27.08.2019
2944 Clouds 22 1020 39 10000 6.2 80 15:58 27.08.2019
2945 Clouds 22 1020 34 10000 10.8 90 15:40 27.08.2019
2946 Clouds 25 1020 34 10000 10.8 90 15:21 27.08.2019
2947 Clouds 26 1021 39 10000 2.1 190 14:58 27.08.2019
2948 Clouds 23 1020 36 10000 4.1 50 14:40 27.08.2019
2949 Clouds 23 1020 36 10000 4.1 50 14:20 27.08.2019
2950 Clouds 23 1022 41 10000 4.6 80 13:42 27.08.2019
2951 Clouds 23 1022 41 10000 4.6 80 13:23 27.08.2019
2952 Clouds 23 1022 41 10000 4.1 180 12:55 27.08.2019
2953 Clouds 23 1022 41 10000 3.6 80 12:36 27.08.2019
2954 Clouds 22 1023 41 10000 2.6 110 12:18 27.08.2019
2955 Clouds 22 1023 49 10000 3.64 159.729 11:43 27.08.2019
2956 Clouds 21 1023 49 10000 3.64 159.729 11:23 27.08.2019
2957 Clouds 21 1024 53 10000 2.6 190 10:42 27.08.2019
2958 Clouds 21 1024 53 10000 2.6 190 10:42 27.08.2019
2959 Clouds 21 1024 53 10000 2.6 190 10:20 27.08.2019
2960 Clouds 20 1025 60 10000 3.6 40 09:58 27.08.2019
2961 Clouds 20 1025 60 10000 3.6 40 09:38 27.08.2019
2962 Clouds 19 1025 60 10000 3.6 40 09:20 27.08.2019
2963 Clouds 17 1025 72 10000 1.89 173.881 08:46 27.08.2019
2964 Clouds 17 1025 72 10000 1.89 173.881 08:27 27.08.2019
2965 Clouds 16 1025 82 10000 1.89 173.881 07:59 27.08.2019
2966 Clouds 16 1025 82 10000 1.89 173.881 07:38 27.08.2019
2967 Clouds 15 1025 82 10000 1.89 173.881 07:19 27.08.2019
2968 Clouds 15 1025 87 10000 1.5 360 06:50 27.08.2019
2969 Clouds 13 1024 93 10000 0.98 101.069 06:22 27.08.2019
2970 Clouds 14 1023 87 10000 0.98 101.069 05:30 27.08.2019
2971 Clouds 14 1023 82 10000 0.98 101.069 04:33 27.08.2019
2972 Clouds 13 1023 87 10000 0.98 101.069 03:33 27.08.2019
2973 Clouds 14 1023 87 10000 1.85 69.364 02:23 27.08.2019
2974 Clouds 14 1023 82 10000 2.04 79.27 01:35 27.08.2019
2975 Clear 14 1024 82 10000 1 0 00:54 27.08.2019
2976 Clouds 14 1024 77 10000 2.32 70.767 00:29 27.08.2019
2977 Clear 15 1025 77 10000 1 0 23:59 26.08.2019
2978 Clear 14 1025 72 10000 2.32 70.767 23:37 26.08.2019
2979 Clear 14 1025 72 10000 2.32 70.767 23:19 26.08.2019
2980 Clear 15 1024 67 10000 2.32 70.767 22:39 26.08.2019
2981 Clear 15 1024 67 10000 2.32 70.767 22:19 26.08.2019
2982 Clear 16 1025 63 10000 1 0 21:57 26.08.2019
2983 Clouds 16 1024 67 10000 2.07 64.192 21:37 26.08.2019
2984 Clear 16 1025 59 10000 1 20 21:19 26.08.2019
2985 Clear 16 1025 59 10000 1 20 20:54 26.08.2019
2986 Clouds 16 1023 63 10000 7.11 92.089 20:36 26.08.2019
2987 Clear 18 1024 52 10000 3.1 120 20:18 26.08.2019
2988 Clouds 18 1023 46 10000 4.1 90 19:42 26.08.2019
2989 Clouds 19 1023 46 10000 4.1 100 19:19 26.08.2019
2990 Clouds 19 1023 46 10000 4.1 100 19:19 26.08.2019
2991 Clouds 19 1023 46 10000 4.1 100 19:19 26.08.2019
2992 Clouds 19 1023 46 10000 4.1 100 18:58 26.08.2019
2993 Clouds 20 1021 40 10000 6.2 90 18:38 26.08.2019
2994 Clouds 20 1023 40 10000 6.7 100 18:19 26.08.2019
2995 Clouds 21 1021 38 10000 5.1 100 17:44 26.08.2019
2996 Clouds 22 1022 36 10000 6.7 100 17:20 26.08.2019
2997 Clouds 22 1022 36 10000 6.7 100 16:57 26.08.2019
2998 Clouds 22 1021 31 10000 6.7 90 16:39 26.08.2019
2999 Clouds 23 1022 31 10000 6.2 80 16:18 26.08.2019
3000 Clouds 23 1021 31 10000 5.1 110 15:55 26.08.2019
3001 Clouds 23 1021 31 10000 5.1 110 15:37 26.08.2019
3002 Clouds 23 1022 31 10000 5.7 90 15:18 26.08.2019
3003 Clouds 23 1021 31 10000 5.1 90 14:43 26.08.2019
3004 Clouds 23 1021 31 10000 5.1 90 14:23 26.08.2019
3005 Clouds 22 1022 38 10000 7.2 140 13:56 26.08.2019
3006 Clouds 24 1022 38 10000 7.2 140 13:36 26.08.2019
3007 Clouds 23 1024 38 10000 3.6 120 13:18 26.08.2019
3008 Clouds 24 1023 38 10000 5.7 140 12:42 26.08.2019
3009 Clouds 22 1025 43 10000 3.1 140 12:21 26.08.2019
3010 Clouds 21 1024 40 10000 5.1 90 11:43 26.08.2019
3011 Clouds 21 1026 43 10000 3.1 110 11:25 26.08.2019
3012 Clouds 21 1026 43 10000 3.1 110 11:25 26.08.2019
3013 Clouds 20 1026 43 10000 3.1 110 10:58 26.08.2019
3014 Clouds 20 1026 43 10000 3.1 110 10:58 26.08.2019
3015 Clouds 22 1027 49 10000 2.6 120 10:40 26.08.2019
3016 Clouds 19 1027 60 10000 2.1 0 10:19 26.08.2019
3017 Clouds 20 1026 63 10000 2.6 80 09:45 26.08.2019
3018 Clouds 18 1026 63 10000 2.6 80 09:25 26.08.2019
3019 Clouds 16 1027 59 10000 4.6 160 08:59 26.08.2019
3020 Clouds 16 1026 72 10000 4.6 150 08:40 26.08.2019
3021 Clouds 16 1027 68 10000 4.1 140 08:21 26.08.2019
3022 Clouds 17 1026 77 10000 2.6 100 07:45 26.08.2019
3023 Clouds 15 1026 82 10000 3.6 170 07:25 26.08.2019
3024 Clouds 15 1025 93 10000 2.85 105.733 06:58 26.08.2019
3025 Clouds 15 1025 93 10000 2.85 105.733 06:39 26.08.2019
3026 Clouds 14 1024 87 10000 2.38 113.916 06:19 26.08.2019
3027 Clouds 14 1024 87 10000 2.38 113.916 05:48 26.08.2019
3028 Clouds 13 1024 87 10000 1.5 270 04:22 26.08.2019
3029 Clouds 14 1023 77 10000 2.1 310 02:42 26.08.2019
3030 Clouds 14 1024 67 10000 1.5 200 01:25 26.08.2019
3031 Clouds 15 1024 67 10000 2.1 200 00:45 26.08.2019
3032 Clouds 14 1024 67 10000 2.1 200 00:27 26.08.2019
3033 Clouds 16 1024 63 10000 4.1 170 23:55 25.08.2019
3034 Clouds 17 1024 63 10000 4.1 170 23:36 25.08.2019
3035 Clouds 17 1025 63 10000 3.1 140 23:18 25.08.2019
3036 Clouds 17 1024 68 10000 2.07 85.648 22:41 25.08.2019
3037 Clouds 17 1025 63 10000 3.6 0 22:21 25.08.2019
3038 Clouds 17 1025 63 10000 3.6 0 21:59 25.08.2019
3039 Clouds 17 1024 63 10000 3.6 150 21:41 25.08.2019
3040 Clouds 17 1024 63 10000 3.6 150 21:41 25.08.2019
3041 Clouds 17 1024 56 10000 3.6 150 21:19 25.08.2019
3042 Clouds 17 1024 56 10000 3.6 150 20:57 25.08.2019
3043 Clouds 18 1024 56 10000 5.7 140 20:39 25.08.2019
3044 Clouds 19 1023 49 10000 5.7 110 20:19 25.08.2019
3045 Clouds 19 1022 49 10000 6.2 120 19:55 25.08.2019
3046 Clouds 19 1022 49 10000 6.2 120 19:36 25.08.2019
3047 Clouds 20 1021 46 10000 5.7 90 19:18 25.08.2019
3048 -273 0 0 0 0 0 18:55 25.08.2019
3049 Clouds 19 1021 46 10000 5.7 90 18:37 25.08.2019
3050 Clouds 20 1022 40 10000 6.2 100 18:18 25.08.2019
3051 Clouds 21 1021 46 10000 5.7 90 17:40 25.08.2019
3052 Clouds 22 1022 38 10000 5.7 100 17:21 25.08.2019
3053 Clouds 22 1021 38 10000 4.6 100 16:41 25.08.2019
3054 Clouds 21 1021 38 10000 4.6 100 16:23 25.08.2019
3055 Clouds 22 1021 38 10000 5.1 110 15:57 25.08.2019
3056 Clouds 23 1021 33 10000 5.7 80 15:38 25.08.2019
3057 Clouds 23 1022 36 10000 2.6 40 15:20 25.08.2019
3058 Clouds 22 1022 36 10000 2.6 40 14:40 25.08.2019
3059 Clouds 23 1022 36 10000 2.6 40 14:22 25.08.2019
3060 Clouds 22 1022 36 10000 6.2 130 13:46 25.08.2019
3061 Clouds 22 1023 36 10000 3.1 0 13:22 25.08.2019
3062 Clouds 24 1023 36 10000 3.1 0 12:56 25.08.2019
3063 Clouds 22 1023 40 10000 4.6 120 12:38 25.08.2019
3064 Clouds 21 1024 49 10000 4.6 100 12:20 25.08.2019
3065 Clouds 20 1024 49 10000 4.6 100 11:56 25.08.2019
3066 Clouds 20 1024 49 10000 4.6 100 11:36 25.08.2019
3067 Clouds 20 1025 49 10000 4.6 130 11:18 25.08.2019
3068 Clouds 21 1025 49 10000 4.6 130 10:55 25.08.2019
3069 Clouds 21 1025 56 10000 4.1 160 10:36 25.08.2019
3070 Clouds 20 1026 56 10000 4.1 170 10:18 25.08.2019
3071 Clouds 19 1027 63 10000 4.1 180 09:42 25.08.2019
3072 Clouds 16 1027 72 10000 3.1 220 09:23 25.08.2019
3073 Clouds 15 1027 82 10000 1.5 220 08:44 25.08.2019
3074 Clouds 14 1026 87 10000 2.6 210 08:23 25.08.2019
3075 Clouds 15 1026 87 10000 2.6 210 07:46 25.08.2019
3076 Clouds 13 1026 87 10000 2.1 210 07:23 25.08.2019
3077 Clouds 13 1025 93 10000 2.1 210 06:31 25.08.2019
3078 Clouds 13 1025 93 10000 3.6 170 05:27 25.08.2019
3079 Clouds 14 1024 93 10000 5.1 160 03:43 25.08.2019
3080 Drizzle 14 1024 93 10000 4.6 170 02:42 25.08.2019
3081 Clouds 14 1024 87 10000 3.1 180 01:45 25.08.2019
3082 Clouds 14 1025 87 10000 2.1 190 00:42 25.08.2019
3083 Clouds 14 1026 87 10000 2.1 190 00:22 25.08.2019
3084 Clouds 14 1026 87 10000 2.6 180 23:54 24.08.2019
3085 Clouds 14 1026 87 10000 2.6 180 23:24 24.08.2019
3086 Clouds 14 1026 87 10000 3.1 170 22:59 24.08.2019
3087 Clouds 15 1026 82 10000 4.6 150 22:40 24.08.2019
3088 Clouds 15 1026 82 10000 5.7 160 22:19 24.08.2019
3089 Clouds 15 1026 82 10000 5.7 160 22:19 24.08.2019
3090 Clouds 15 1026 82 10000 5.7 160 21:58 24.08.2019
3091 Clouds 15 1026 82 10000 3.1 140 21:39 24.08.2019
3092 Clouds 16 1025 77 10000 2.6 120 21:21 24.08.2019
3093 Clouds 16 1025 77 10000 2.6 120 21:21 24.08.2019
3094 Clouds 16 1025 77 10000 2.6 120 20:57 24.08.2019
3095 Clouds 16 1024 88 10000 3.72 86.641 20:38 24.08.2019
3096 Clouds 16 1024 82 10000 3.6 70 20:19 24.08.2019
3097 Clouds 16 1024 82 10000 3.6 70 19:57 24.08.2019
3098 Clouds 17 1023 88 10000 3.72 86.641 19:38 24.08.2019
3099 Clouds 17 1024 82 10000 2.1 80 19:20 24.08.2019
3100 Clouds 16 1023 82 10000 2.6 160 18:46 24.08.2019
3101 Rain 18 1023 82 10000 2.6 160 18:24 24.08.2019
3102 Rain 18 1023 68 10000 4.6 140 17:46 24.08.2019
3103 Clouds 19 1023 64 10000 3.6 40 17:27 24.08.2019
3104 Clouds 19 1023 64 10000 3.6 40 16:56 24.08.2019
3105 Clouds 18 1023 64 10000 3.1 360 16:37 24.08.2019
3106 Clouds 18 1023 68 10000 4.6 40 16:19 24.08.2019
3107 Clouds 18 1023 72 10000 2.6 60 15:44 24.08.2019
3108 Clouds 19 1023 72 10000 2.6 60 15:25 24.08.2019
3109 Clouds 19 1023 72 10000 1.5 90 14:57 24.08.2019
3110 Rain 20 1023 77 10000 5.37 112.686 14:39 24.08.2019
3111 Rain 19 1024 60 10000 1 0 14:18 24.08.2019
3112 Rain 19 1023 88 10000 5.37 112.686 13:43 24.08.2019
3113 Clouds 22 1024 53 10000 1.5 150 13:23 24.08.2019
3114 Clouds 22 1024 53 10000 1.5 150 13:23 24.08.2019
3115 Clouds 22 1025 53 10000 2.1 90 12:59 24.08.2019
3116 Clouds 22 1025 53 10000 2.1 90 12:40 24.08.2019
3117 Clouds 19 1026 56 10000 1.5 20 12:22 24.08.2019
3118 Clouds 19 1026 56 10000 1.5 20 11:52 24.08.2019
3119 Clouds 19 1026 60 10000 2.1 90 11:32 24.08.2019
3120 Clouds 20 1027 64 10000 3.1 90 10:59 24.08.2019
3121 Clouds 19 1027 64 10000 4.1 90 10:40 24.08.2019
3122 Clouds 18 1027 68 10000 4.1 100 10:21 24.08.2019
3123 Clouds 19 1026 72 10000 5 112.766 09:42 24.08.2019
3124 Clouds 17 1027 72 10000 1.5 50 09:19 24.08.2019
3125 Clouds 17 1026 82 10000 2.37 109.642 08:43 24.08.2019
3126 Clouds 17 1026 82 10000 2.37 109.642 08:25 24.08.2019
3127 Clouds 16 1027 82 10000 2.6 20 07:53 24.08.2019
3128 Clouds 16 1025 93 10000 2.37 109.642 07:30 24.08.2019
3129 Clouds 14 1025 87 10000 2.37 109.642 06:52 24.08.2019
3130 Clouds 14 1025 87 10000 1 0 06:21 24.08.2019
3131 Clouds 14 1025 87 10000 2.1 90 05:36 24.08.2019
3132 Clouds 13 1024 87 10000 2.6 30 03:48 24.08.2019
3133 Clouds 15 1024 87 10000 2.6 30 03:28 24.08.2019
3134 Clouds 13 1024 87 10000 3.1 20 02:19 24.08.2019
3135 Clouds 15 1025 82 10000 3.1 350 01:29 24.08.2019
3136 Clouds 15 1024 72 10000 2.86 68.493 00:48 24.08.2019
3137 Clouds 16 1025 72 10000 1.5 280 00:24 24.08.2019
3138 Clouds 16 1025 67 10000 3.25 85.997 23:45 23.08.2019
3139 Clouds 16 1025 72 10000 2.1 160 23:21 23.08.2019
3140 Clouds 16 1025 72 10000 2.1 160 22:46 23.08.2019
3141 Clouds 17 1024 59 10000 2.6 150 22:27 23.08.2019
3142 Clouds 17 1024 59 10000 2.6 150 21:56 23.08.2019
3143 Clouds 17 1024 59 10000 2.6 150 21:37 23.08.2019
3144 Clouds 18 1024 49 10000 3.6 90 21:19 23.08.2019
3145 Clouds 18 1024 49 10000 5.1 100 20:53 23.08.2019
3146 Clouds 19 1024 49 10000 5.1 100 20:35 23.08.2019
3147 Clouds 20 1023 43 10000 5.7 90 19:54 23.08.2019
3148 Clouds 20 1022 43 10000 5.1 90 19:36 23.08.2019
3149 Clouds 20 1023 43 10000 6.2 90 19:18 23.08.2019
3150 Clouds 20 1023 43 10000 6.2 90 19:18 23.08.2019
3151 Clouds 21 1021 43 10000 6.2 90 18:42 23.08.2019
3152 Clouds 22 1022 38 10000 6.7 90 18:24 23.08.2019
3153 Clouds 22 1021 36 10000 3.1 110 17:46 23.08.2019
3154 Clouds 23 1021 36 10000 3.1 90 17:28 23.08.2019
3155 Clouds 23 1021 36 10000 3.1 90 16:59 23.08.2019
3156 Clouds 23 1021 33 10000 3.1 70 16:40 23.08.2019
3157 Clouds 24 1021 36 10000 3.1 70 16:22 23.08.2019
3158 Clouds 23 1021 38 10000 5.1 60 15:41 23.08.2019
3159 Clouds 23 1022 38 10000 3.1 50 15:22 23.08.2019
3160 Clouds 23 1022 38 10000 3.1 50 14:58 23.08.2019
3161 Clouds 23 1021 38 10000 4.41 147.74 14:39 23.08.2019
3162 Clouds 23 1023 41 10000 3.1 80 14:20 23.08.2019
3163 Clouds 22 1023 41 10000 3.1 80 13:54 23.08.2019
3164 Clouds 22 1023 41 10000 3.1 80 13:36 23.08.2019
3165 Clouds 22 1023 41 10000 3.1 80 13:36 23.08.2019
3166 Clouds 22 1024 36 10000 2.1 0 13:18 23.08.2019
3167 Clouds 23 1024 49 10000 4.34 152.42 12:42 23.08.2019
3168 Clouds 20 1025 53 10000 2.1 0 12:22 23.08.2019
3169 Clouds 20 1025 53 10000 2.1 0 11:59 23.08.2019
3170 Clouds 20 1025 60 10000 3.17 186.171 11:40 23.08.2019
3171 Clouds 19 1025 63 10000 3.17 186.171 11:20 23.08.2019
3172 Clouds 20 1025 63 10000 3.17 186.171 10:57 23.08.2019
3173 Clouds 20 1025 63 10000 3.17 186.171 10:39 23.08.2019
3174 Clouds 18 1026 60 10000 2.6 150 10:20 23.08.2019
3175 Clouds 19 1026 68 10000 3.44 197.502 09:44 23.08.2019
3176 Clouds 17 1026 68 10000 1.78 170.994 09:25 23.08.2019
3177 Clouds 17 1027 68 10000 2.1 130 08:56 23.08.2019
3178 Clouds 17 1026 72 10000 5.1 130 08:37 23.08.2019
3179 Clouds 17 1026 72 10000 5.1 130 08:37 23.08.2019
3180 Clouds 16 1026 72 10000 4.1 160 08:18 23.08.2019
3181 Clouds 15 1025 82 10000 4.1 180 07:41 23.08.2019
3182 Clouds 15 1025 82 10000 2.6 180 07:23 23.08.2019
3183 Clouds 14 1024 82 10000 3.6 180 06:43 23.08.2019
3184 Clouds 14 1025 77 10000 3.6 190 06:23 23.08.2019
3185 Clouds 14 1024 82 10000 1.71 61.398 05:46 23.08.2019
3186 Clouds 14 1024 82 10000 1.71 61.398 05:26 23.08.2019
3187 Clouds 13 1024 87 10000 2.1 230 04:19 23.08.2019
3188 Clouds 13 1024 77 10000 1.5 240 02:41 23.08.2019
3189 Clouds 13 1024 82 10000 2.1 260 02:21 23.08.2019
3190 Clouds 15 1024 77 10000 2.1 240 01:37 23.08.2019
3191 Clouds 15 1023 67 10000 1.87 78.234 00:44 23.08.2019
3192 Clouds 16 1024 67 10000 3.1 210 00:18 23.08.2019
3193 Clouds 16 1023 63 10000 1.92 84.581 23:43 22.08.2019
3194 Clouds 17 1024 59 10000 3.6 140 23:23 22.08.2019
3195 Clouds 16 1024 59 10000 3.6 140 22:55 22.08.2019
3196 Clouds 16 1023 63 10000 1.92 84.581 22:37 22.08.2019
3197 Clouds 17 1024 59 10000 4.6 150 22:19 22.08.2019
3198 Clouds 17 1024 59 10000 4.6 150 22:19 22.08.2019
3199 Clouds 17 1023 59 10000 4.1 150 21:42 22.08.2019
3200 Clouds 18 1023 56 10000 3.6 140 21:23 22.08.2019
3201 Clouds 18 1023 56 10000 3.6 140 20:59 22.08.2019
3202 Clouds 18 1022 56 10000 4.1 120 20:41 22.08.2019
3203 Clouds 19 1023 49 10000 5.1 140 20:20 22.08.2019
3204 Clouds 19 1023 49 10000 5.1 140 19:59 22.08.2019
3205 Clouds 19 1022 52 10000 3.6 150 19:40 22.08.2019
3206 Clouds 19 1022 49 10000 6.2 130 19:21 22.08.2019
3207 Clouds 19 1022 49 10000 6.2 130 18:59 22.08.2019
3208 Clouds 19 1021 52 10000 5.1 120 18:40 22.08.2019
3209 Clouds 20 1021 46 10000 5.7 110 18:20 22.08.2019
3210 Clouds 20 1021 46 10000 5.7 110 17:58 22.08.2019
3211 Clouds 21 1020 46 10000 9.8 150 17:57 22.08.2019
3212 Clouds 21 1020 46 10000 9.8 150 17:39 22.08.2019
3213 Clouds 22 1021 44 10000 6.7 90 17:19 22.08.2019
3214 Clouds 22 1020 41 10000 6.7 80 16:56 22.08.2019
3215 Clouds 22 1020 41 10000 6.7 80 16:37 22.08.2019
3216 Clouds 22 1020 41 10000 5.1 90 16:19 22.08.2019
3217 Clouds 22 1020 41 10000 5.1 90 16:19 22.08.2019
3218 Clouds 22 1020 41 10000 5.1 90 16:19 22.08.2019
3219 Clouds 23 1020 41 10000 5.7 60 15:42 22.08.2019
3220 Clouds 23 1020 41 10000 5.7 60 15:42 22.08.2019
3221 Clouds 23 1020 41 10000 5.7 60 15:42 22.08.2019
3222 Clouds 23 1020 41 10000 5.7 60 15:42 22.08.2019
3223 Clouds 23 1021 38 10000 3.6 90 15:24 22.08.2019
3224 Clouds 23 1020 41 10000 5.7 60 15:24 22.08.2019
3225 Clouds 22 1021 38 10000 3.6 90 14:59 22.08.2019
3226 Clouds 23 1020 41 10000 2.6 60 14:41 22.08.2019
3227 Clouds 23 1021 41 10000 3.6 90 14:22 22.08.2019
3228 Clouds 23 1021 41 10000 3.6 90 13:58 22.08.2019
3229 Clouds 22 1021 44 10000 4.1 20 13:40 22.08.2019
3230 Clouds 22 1022 44 10000 2.6 0 13:20 22.08.2019
3231 Clouds 22 1022 44 10000 2.6 0 12:56 22.08.2019
3232 Clouds 21 1023 43 10000 3.99 158.191 12:38 22.08.2019
3233 Clouds 21 1023 49 10000 2.1 120 12:19 22.08.2019
3234 Clouds 20 1023 49 10000 3.49 190.434 11:42 22.08.2019
3235 Clouds 20 1025 49 10000 3.1 0 11:20 22.08.2019
3236 Clouds 20 1024 60 10000 3.49 190.434 10:58 22.08.2019
3237 Clouds 19 1024 60 10000 3.49 190.434 10:40 22.08.2019
3238 Clouds 18 1025 60 10000 2.6 130 10:22 22.08.2019
3239 Clouds 18 1025 60 10000 2.6 130 09:57 22.08.2019
3240 Clouds 17 1025 68 10000 3.1 90 09:39 22.08.2019
3241 Clouds 17 1025 68 10000 3.1 90 09:39 22.08.2019
3242 Clouds 17 1026 68 10000 1.5 130 09:20 22.08.2019
3243 Clouds 16 1025 72 10000 1.87 186.821 08:54 22.08.2019
3244 Clouds 16 1025 72 10000 1.87 186.821 08:36 22.08.2019
3245 Clouds 15 1026 82 10000 2.1 220 08:18 22.08.2019
3246 Clouds 15 1024 87 10000 1.87 186.821 07:39 22.08.2019
3247 Clouds 13 1025 87 10000 1 0 07:19 22.08.2019
3248 Clouds 14 1024 87 10000 2.1 200 06:47 22.08.2019
3249 Clouds 13 1024 87 10000 2.1 220 06:22 22.08.2019
3250 Clouds 13 1023 87 10000 1.23 74.182 05:36 22.08.2019
3251 Clouds 14 1024 77 10000 2.6 200 04:20 22.08.2019
3252 Clouds 15 1023 82 10000 2.4 89.212 02:38 22.08.2019
3253 Clouds 14 1024 77 10000 1.5 220 01:45 22.08.2019
3254 Clouds 15 1024 77 10000 1.5 260 01:21 22.08.2019
3255 Clouds 15 1023 72 10000 3.13 93.567 00:41 22.08.2019
3256 Clouds 15 1024 72 10000 1.5 0 00:22 22.08.2019
3257 Clouds 15 1024 72 10000 2.42 93.198 23:48 21.08.2019
3258 Clouds 15 1024 72 10000 2.42 93.198 23:29 21.08.2019
3259 Clouds 16 1024 63 10000 1.5 140 22:59 21.08.2019
3260 Clouds 16 1023 67 10000 2.42 93.198 22:40 21.08.2019
3261 Clouds 17 1024 68 10000 2.1 160 22:21 21.08.2019
3262 Clouds 17 1024 68 10000 2.1 160 21:58 21.08.2019
3263 Clouds 17 1023 59 10000 2.1 150 21:38 21.08.2019
3264 Clouds 18 1024 56 10000 5.1 130 21:19 21.08.2019
3265 Clouds 18 1024 56 10000 5.1 130 20:57 21.08.2019
3266 Clouds 18 1024 56 10000 5.1 130 20:57 21.08.2019
3267 Clouds 18 1022 56 10000 5.1 120 20:38 21.08.2019
3268 Clouds 19 1023 49 10000 6.2 140 20:20 21.08.2019
3269 Clouds 19 1021 49 10000 5.7 120 19:44 21.08.2019
3270 Clouds 19 1021 49 10000 5.7 120 19:44 21.08.2019
3271 Clouds 20 1022 46 10000 5.1 130 19:25 21.08.2019
3272 Clouds 20 1021 46 10000 5.1 130 18:59 21.08.2019
3273 Clouds 20 1021 46 10000 5.1 130 18:40 21.08.2019
3274 Clouds 21 1021 43 10000 5.1 90 18:22 21.08.2019
3275 Clouds 20 1021 43 10000 5.1 90 17:45 21.08.2019
3276 Clouds 21 1021 41 10000 4.1 130 17:25 21.08.2019
3277 Clouds 21 1021 43 10000 4.6 120 16:59 21.08.2019
3278 Clouds 21 1021 43 10000 4.6 120 16:40 21.08.2019
3279 Clouds 20 1021 41 10000 4.6 120 16:21 21.08.2019
3280 Clouds 20 1021 41 10000 4.6 120 15:58 21.08.2019
3281 Clouds 21 1021 60 10000 5.1 90 15:39 21.08.2019
3282 Clouds 22 1022 44 10000 3.1 130 15:20 21.08.2019
3283 Clouds 22 1022 44 10000 3.1 130 14:57 21.08.2019
3284 Clouds 21 1023 46 10000 3.1 110 14:38 21.08.2019
3285 Clouds 21 1023 46 10000 3.1 110 14:19 21.08.2019
3286 Clouds 21 1023 46 10000 3.1 110 14:19 21.08.2019
3287 Clouds 21 1023 46 10000 2.1 0 13:44 21.08.2019
3288 Clouds 21 1024 46 10000 2.6 0 13:21 21.08.2019
3289 Clouds 21 1024 46 10000 2.6 0 12:59 21.08.2019
3290 Clouds 20 1024 49 10000 2.6 80 12:59 21.08.2019
3291 Clouds 21 1024 49 10000 2.6 80 12:40 21.08.2019
3292 Clouds 20 1025 49 10000 1.5 0 12:21 21.08.2019
3293 Clouds 19 1025 49 10000 1.5 0 11:57 21.08.2019
3294 Clouds 19 1025 56 10000 3.6 100 11:39 21.08.2019
3295 Clouds 19 1026 56 10000 2.1 0 11:21 21.08.2019
3296 Clouds 18 1026 56 10000 2.1 0 10:56 21.08.2019
3297 Clouds 18 1025 60 10000 2.6 130 10:37 21.08.2019
3298 Clouds 17 1027 68 10000 1.5 0 10:19 21.08.2019
3299 Clouds 17 1026 68 10000 3.63 186.183 09:43 21.08.2019
3300 Clouds 16 1027 63 10000 2.1 150 09:23 21.08.2019
3301 Clouds 16 1027 63 10000 2.1 150 08:59 21.08.2019
3302 Clouds 15 1026 77 10000 1.9 123.69 08:41 21.08.2019
3303 Clouds 15 1026 77 10000 1 0 08:21 21.08.2019
3304 Clouds 14 1025 82 10000 1.9 123.69 07:40 21.08.2019
3305 Clouds 14 1026 82 10000 1 0 07:21 21.08.2019
3306 Clouds 13 1025 87 10000 1.9 123.69 06:49 21.08.2019
3307 Clouds 13 1025 82 10000 2.1 210 06:22 21.08.2019
3308 Clouds 13 1025 82 10000 2.1 220 05:42 21.08.2019
3309 Clouds 13 1025 82 10000 2.1 220 05:23 21.08.2019
3310 Clouds 13 1024 82 10000 1 0 03:39 21.08.2019
3311 Clouds 12 1024 82 10000 2.6 250 01:50 21.08.2019
3312 Clouds 13 1024 72 10000 1.5 260 00:46 21.08.2019
3313 Clouds 14 1024 67 10000 2.1 0 00:24 21.08.2019
3314 Clouds 14 1024 67 10000 2.1 0 23:59 20.08.2019
3315 Clouds 14 1024 72 10000 1.5 0 23:41 20.08.2019
3316 Clouds 15 1024 63 10000 4.1 0 23:19 20.08.2019
3317 Clouds 14 1024 63 10000 4.1 0 22:56 20.08.2019
3318 Clouds 15 1024 59 10000 2.6 200 22:37 20.08.2019
3319 Clouds 16 1023 55 10000 6.2 140 22:19 20.08.2019
3320 Clouds 16 1023 55 10000 6.2 140 21:57 20.08.2019
3321 Clouds 17 1024 52 10000 4.6 140 21:37 20.08.2019
3322 Clouds 17 1023 52 10000 5.1 130 21:19 20.08.2019
3323 Clouds 17 1023 49 10000 3.6 130 20:43 20.08.2019
3324 Clouds 18 1022 49 10000 4.1 120 20:24 20.08.2019
3325 Clouds 18 1022 49 10000 4.1 120 20:24 20.08.2019
3326 Clouds 18 1022 49 10000 4.1 120 19:59 20.08.2019
3327 Clouds 18 1021 52 10000 5.1 120 19:39 20.08.2019
3328 Clouds 19 1022 46 10000 4.6 120 19:20 20.08.2019
3329 Clouds 19 1022 46 10000 4.6 120 18:55 20.08.2019
3330 Clouds 19 1021 49 10000 5.1 130 18:37 20.08.2019
3331 Clouds 15 1015 77 0 2.68 107 18:18 20.08.2019
3332 Clouds 19 1021 43 10000 4.6 140 17:54 20.08.2019
3333 Clouds 20 1021 43 10000 4.6 140 17:36 20.08.2019
3334 Clouds 20 1021 43 10000 4.6 140 17:18 20.08.2019
3335 Clouds 21 1020 43 10000 5.1 90 16:41 20.08.2019
3336 Clouds 21 1020 46 10000 4.6 110 16:23 20.08.2019
3337 Clouds 21 1020 46 10000 4.6 110 15:41 20.08.2019
3338 Clouds 21 1020 46 10000 4.6 110 15:19 20.08.2019
3339 Clouds 21 1021 44 10000 2.1 0 14:56 20.08.2019
3340 Clouds 20 1022 53 10000 2.6 80 14:38 20.08.2019
3341 Clouds 20 1022 53 10000 2.6 80 14:19 20.08.2019
3342 Clouds 20 1022 53 10000 2.1 0 13:55 20.08.2019
3343 Clouds 20 1021 52 10000 3.5 186.508 13:37 20.08.2019
3344 Clouds 21 1023 49 10000 3.1 140 13:18 20.08.2019
3345 Clouds 21 1023 56 10000 3.57 195.811 12:48 20.08.2019
3346 Clouds 19 1023 56 10000 3.38 188.24 12:24 20.08.2019
3347 Clouds 19 1024 52 10000 2.6 130 11:56 20.08.2019
3348 Clouds 18 1023 59 10000 2.6 120 11:38 20.08.2019
3349 Clouds 18 1025 56 10000 2.6 0 11:18 20.08.2019
3350 Clouds 19 1025 56 10000 2.6 0 10:56 20.08.2019
3351 Clouds 19 1025 59 10000 3.1 170 10:37 20.08.2019
3352 Clouds 17 1025 63 10000 2.1 150 10:18 20.08.2019
3353 Clouds 18 1024 67 10000 3.6 201.521 09:41 20.08.2019
3354 Clouds 16 1024 67 10000 1.85 180.588 09:22 20.08.2019
3355 Clouds 15 1025 77 10000 1.85 180.588 08:43 20.08.2019
3356 Clouds 15 1025 77 10000 1.85 180.588 08:24 20.08.2019
3357 Clouds 14 1025 77 10000 3.1 200 07:58 20.08.2019
3358 Clouds 14 1024 82 10000 3.1 180 07:40 20.08.2019
3359 Clouds 13 1024 82 10000 3.1 180 07:22 20.08.2019
3360 Clouds 13 1025 87 10000 2.1 220 06:55 20.08.2019
3361 Clouds 12 1023 87 10000 1.38 78.585 06:22 20.08.2019
3362 Clouds 12 1024 87 10000 2.6 230 05:48 20.08.2019
3363 Clouds 12 1023 87 10000 3.1 230 04:56 20.08.2019
3364 Clouds 13 1021 82 10000 2.92 84.356 03:28 20.08.2019
3365 Clouds 14 1022 77 10000 0.5 0 02:32 20.08.2019
3366 Clouds 13 1022 77 10000 2.6 250 01:22 20.08.2019
3367 Clouds 13 1023 77 10000 1.5 0 00:48 20.08.2019
3368 Clouds 13 1023 77 10000 1.5 0 00:30 20.08.2019
3369 Clouds 14 1023 72 10000 2.6 70 23:52 19.08.2019
3370 Clouds 15 1024 72 10000 2.6 50 23:19 19.08.2019
3371 Clouds 15 1023 82 10000 1.5 10 22:59 19.08.2019
3372 Clouds 15 1023 82 10000 1.56 75.928 22:41 19.08.2019
3373 Clouds 15 1023 82 10000 1.56 75.928 22:21 19.08.2019
3374 Clouds 15 1024 77 10000 2.1 360 21:58 19.08.2019
3375 Clouds 15 1023 72 10000 2.68 93.423 21:39 19.08.2019
3376 Clouds 15 1023 72 10000 4.25 96.648 21:20 19.08.2019
3377 Clouds 15 1023 72 10000 4.25 96.648 21:20 19.08.2019
3378 Clouds 15 1023 77 10000 1.5 40 20:59 19.08.2019
3379 Clouds 15 1022 72 10000 2.1 30 20:38 19.08.2019
3380 Clouds 15 1022 72 10000 2.1 30 20:20 19.08.2019
3381 Clouds 16 1023 72 10000 2.1 50 19:55 19.08.2019
3382 Clouds 16 1023 72 10000 2.1 50 19:55 19.08.2019
3383 -273 0 0 0 0 0 19:55 19.08.2019
3384 Clouds 16 1021 68 10000 2.6 60 19:37 19.08.2019
3385 Clouds 16 1022 72 10000 2.1 60 19:18 19.08.2019
3386 Clouds 16 1022 72 10000 2.1 60 19:18 19.08.2019
3387 Clouds 16 1021 68 10000 2.6 60 19:18 19.08.2019
3388 Clouds 16 1021 68 10000 2.6 80 18:44 19.08.2019
3389 Clouds 16 1021 68 10000 2.6 80 18:26 19.08.2019
3390 Clouds 17 1022 68 10000 3.1 80 17:58 19.08.2019
3391 Clouds 17 1021 63 10000 4.1 90 17:40 19.08.2019
3392 Clouds 17 1021 63 10000 4.1 90 17:19 19.08.2019
3393 Clouds 18 1021 63 10000 3.6 100 16:58 19.08.2019
3394 Clouds 18 1021 68 10000 4.1 70 16:37 19.08.2019
3395 Clouds 18 1021 64 10000 3.1 60 16:18 19.08.2019
3396 Clouds 18 1021 64 10000 3.1 60 16:18 19.08.2019
3397 Clouds 19 1021 60 10000 3.1 90 15:45 19.08.2019
3398 Clouds 18 1022 63 10000 2.6 100 15:20 19.08.2019
3399 Clouds 19 1022 63 10000 2.6 100 14:58 19.08.2019
3400 Clouds 19 1021 63 10000 2.95 156.83 14:38 19.08.2019
3401 Clouds 18 1022 68 10000 1 0 14:20 19.08.2019
3402 Clouds 18 1022 68 10000 1 0 13:57 19.08.2019
3403 Clouds 18 1022 68 10000 1 0 13:57 19.08.2019
3404 Clouds 19 1023 68 10000 4.1 160 13:37 19.08.2019
3405 Clouds 18 1023 63 10000 2.6 70 13:19 19.08.2019
3406 Clouds 18 1023 68 10000 3.22 137.037 12:44 19.08.2019
3407 Clouds 16 1024 77 10000 1.5 120 12:24 19.08.2019
3408 Clouds 16 1024 77 10000 1.5 120 11:59 19.08.2019
3409 Clouds 16 1024 72 9000 1.88 248.805 11:37 19.08.2019
3410 Clouds 16 1025 77 10000 1 0 11:19 19.08.2019
3411 Clouds 16 1024 72 10000 1.88 248.805 10:55 19.08.2019
3412 Clouds 16 1024 72 10000 1.88 248.805 10:36 19.08.2019
3413 Clouds 15 1025 77 10000 1.5 100 10:18 19.08.2019
3414 Clouds 15 1025 77 10000 2.1 80 09:41 19.08.2019
3415 Clouds 15 1025 77 10000 2.1 60 09:22 19.08.2019
3416 Clouds 15 1024 82 10000 2.1 100 08:55 19.08.2019
3417 Clouds 14 1024 82 10000 2.1 100 08:36 19.08.2019
3418 Clouds 15 1024 82 10000 2.6 130 08:18 19.08.2019
3419 Clouds 15 1024 77 10000 1.5 170 07:42 19.08.2019
3420 Clouds 15 1024 77 10000 1.5 170 07:24 19.08.2019
3421 Clouds 14 1023 82 10000 1.5 180 06:43 19.08.2019
3422 Clouds 14 1022 82 10000 2.6 0 06:18 19.08.2019
3423 Clouds 14 1022 82 10000 2.6 190 04:54 19.08.2019
3424 Clouds 14 1022 77 10000 5.1 190 04:22 19.08.2019
3425 Clouds 15 1021 82 10000 2.1 170 03:20 19.08.2019
3426 Clouds 15 1022 72 10000 2.1 30 01:48 19.08.2019
3427 Clouds 15 1022 72 10000 2.1 110 01:21 19.08.2019
3428 Clouds 15 1023 72 10000 2.6 130 00:43 19.08.2019
3429 Clouds 15 1023 68 10000 3.6 160 00:20 19.08.2019
3430 Clouds 15 1023 68 10000 3.1 180 23:41 18.08.2019
3431 Clouds 16 1023 63 10000 1 0 23:21 18.08.2019
3432 Clouds 16 1023 63 10000 3.1 70 22:40 18.08.2019
3433 Clouds 16 1023 63 10000 2.1 90 22:22 18.08.2019
3434 Clouds 19 1023 63 10000 2.1 90 21:58 18.08.2019
3435 Clouds 20 1023 60 10000 2.1 80 21:40 18.08.2019
3436 Clouds 19 1021 60 10000 3.1 0 21:21 18.08.2019
3437 Clouds 19 1023 60 10000 2.1 80 21:21 18.08.2019
3438 Clouds 20 1021 60 10000 3.6 140 20:59 18.08.2019
3439 Clouds 20 1021 60 10000 3.6 140 20:41 18.08.2019
3440 Clouds 21 1021 56 10000 4.1 150 20:23 18.08.2019
3441 Clouds 21 1021 56 10000 4.1 150 19:54 18.08.2019
3442 Rain 21 1021 56 10000 3.6 140 19:36 18.08.2019
3443 Clouds 21 1021 56 10000 4.6 140 19:18 18.08.2019
3444 Clouds 22 1021 49 10000 4.6 150 18:41 18.08.2019
3445 Clouds 22 1020 49 10000 3.1 160 18:23 18.08.2019
3446 Clouds 19 1020 49 10000 3.1 160 17:56 18.08.2019
3447 Clouds 17 1020 46 10000 4.6 150 17:38 18.08.2019
3448 Clouds 20 1020 49 10000 4.1 150 17:19 18.08.2019
3449 Clouds 20 1020 49 10000 4.1 150 16:55 18.08.2019
3450 Clouds 20 1020 46 10000 7.2 140 16:37 18.08.2019
3451 Clouds 21 1020 44 10000 3.1 140 16:18 18.08.2019
3452 Clouds 21 1020 43 10000 5.1 170 15:40 18.08.2019
3453 Clouds 22 1020 47 10000 5.1 130 15:20 18.08.2019
3454 Clouds 24 1020 47 10000 5.7 150 14:59 18.08.2019
3455 Clouds 24 1020 47 10000 5.1 130 14:59 18.08.2019
3456 Clouds 24 1020 47 10000 5.7 150 14:40 18.08.2019
3457 Clouds 23 1021 46 10000 3.1 170 14:20 18.08.2019
3458 Clouds 23 1021 46 10000 3.1 170 13:58 18.08.2019
3459 Clouds 23 1021 49 10000 4.1 150 13:40 18.08.2019
3460 Clouds 23 1022 49 10000 4.6 180 13:21 18.08.2019
3461 Clouds 23 1022 49 10000 3.6 180 12:54 18.08.2019
3462 Clouds 22 1022 49 10000 3.6 180 12:36 18.08.2019
3463 Clouds 21 1023 53 10000 3.6 150 12:18 18.08.2019
3464 Clouds 20 1023 56 10000 3.1 180 11:41 18.08.2019
3465 Clouds 19 1024 60 10000 3.1 190 11:22 18.08.2019
3466 Clouds 19 1024 60 10000 3.1 190 10:56 18.08.2019
3467 Clouds 20 1023 68 10000 3.1 160 10:38 18.08.2019
3468 Clouds 20 1024 60 10000 3.6 190 10:18 18.08.2019
3469 Clouds 19 1024 63 10000 3.6 200 09:42 18.08.2019
3470 Clouds 19 1024 68 10000 2.6 220 09:19 18.08.2019
3471 Clouds 18 1024 72 10000 2.1 200 08:43 18.08.2019
3472 Clouds 18 1024 72 10000 2.1 200 08:25 18.08.2019
3473 Clouds 18 1024 72 10000 1.5 270 07:53 18.08.2019
3474 Clouds 16 1024 82 10000 1 0 07:29 18.08.2019
3475 Clouds 14 1023 87 10000 1 0 06:19 18.08.2019
3476 Clouds 15 1022 77 10000 1 0 05:41 18.08.2019
3477 Clouds 14 1022 82 10000 2.6 230 03:51 18.08.2019
3478 Clouds 14 1022 82 10000 2.6 240 02:52 18.08.2019
3479 Clear 14 1022 82 10000 2.6 240 02:32 18.08.2019
3480 Clear 15 1022 77 10000 1.5 220 01:53 18.08.2019
3481 Clear 16 1022 72 10000 1 0 01:25 18.08.2019
3482 Clouds 17 1023 63 10000 1.5 230 00:40 18.08.2019
3483 Clouds 17 1023 63 10000 2.1 210 00:19 18.08.2019
3484 Clouds 17 1023 63 10000 2.1 210 23:57 17.08.2019
3485 Clouds 18 1023 59 10000 1.5 130 23:37 17.08.2019
3486 Clouds 18 1023 55 10000 2.1 90 23:19 17.08.2019
3487 Clouds 20 1023 45 10000 2.6 150 22:57 17.08.2019
3488 Clouds 20 1023 45 10000 2.6 150 22:38 17.08.2019
3489 Clouds 20 1023 49 10000 3.1 90 22:20 17.08.2019
3490 Clouds 20 1023 49 10000 2.6 150 21:43 17.08.2019
3491 Clouds 20 1023 49 10000 2.6 150 21:43 17.08.2019
3492 Clouds 20 1023 49 10000 3.6 140 21:25 17.08.2019
3493 Clouds 20 1023 49 10000 3.6 140 20:59 17.08.2019
3494 Clouds 18 1022 46 10000 3.6 130 20:37 17.08.2019
3495 Clouds 18 1022 46 10000 4.1 140 20:19 17.08.2019
3496 Clouds 18 1021 55 10000 2.6 150 19:43 17.08.2019
3497 Clouds 19 1021 46 10000 4.1 150 19:24 17.08.2019
3498 Clouds 20 1021 46 10000 4.1 150 18:59 17.08.2019
3499 Clouds 19 1020 52 10000 2.6 130 18:39 17.08.2019
3500 Clouds 20 1021 46 10000 5.7 140 18:18 17.08.2019
3501 Clouds 20 1021 46 10000 5.7 140 18:18 17.08.2019
3502 Clouds 20 1021 46 10000 5.7 140 18:18 17.08.2019
3503 Clouds 20 1019 46 10000 4.6 130 17:43 17.08.2019
3504 Clouds 21 1020 43 10000 4.6 150 17:22 17.08.2019
3505 Clouds 21 1020 43 10000 4.6 150 16:59 17.08.2019
3506 Clouds 21 1019 43 10000 5.7 120 16:40 17.08.2019
3507 Clouds 21 1019 43 10000 5.7 120 16:22 17.08.2019
3508 Clouds 21 1020 40 10000 4.1 150 15:54 17.08.2019
3509 Clouds 21 1020 40 10000 4.1 150 15:36 17.08.2019
3510 Clouds 21 1020 40 10000 4.1 150 15:36 17.08.2019
3511 Clouds 21 1021 43 10000 3.6 150 15:18 17.08.2019
3512 Clouds 21 1020 43 10000 4.23 146.941 14:40 17.08.2019
3513 Clouds 21 1021 46 10000 2.6 200 14:22 17.08.2019
3514 Clouds 21 1021 46 10000 3.6 140 13:46 17.08.2019
3515 Clouds 20 1022 49 10000 3.1 150 13:21 17.08.2019
3516 Clouds 20 1022 52 10000 3.1 150 12:55 17.08.2019
3517 Clouds 20 1022 52 10000 3.1 150 12:37 17.08.2019
3518 Clouds 19 1023 52 10000 2.6 150 12:18 17.08.2019
3519 Clouds 19 1023 56 10000 3.6 210 11:43 17.08.2019
3520 Clouds 19 1024 52 10000 3.1 150 11:20 17.08.2019
3521 Clouds 18 1023 55 10000 4.1 160 10:55 17.08.2019
3522 Clouds 20 1023 55 10000 4.1 160 10:37 17.08.2019
3523 Clouds 19 1025 56 10000 3.1 180 10:18 17.08.2019
3524 Clouds 18 1024 68 10000 3.57 190.523 09:43 17.08.2019
3525 Clouds 16 1023 77 10000 2.6 170 09:25 17.08.2019
3526 Clouds 15 1023 77 10000 2.6 170 08:53 17.08.2019
3527 Clouds 15 1023 77 10000 2.6 170 08:25 17.08.2019
3528 Clouds 15 1023 77 10000 2.6 210 07:46 17.08.2019
3529 Clouds 13 1023 87 10000 2.6 220 07:21 17.08.2019
3530 Clouds 13 1023 87 10000 1.4 169.479 06:41 17.08.2019
3531 Clouds 12 1022 87 10000 3.1 280 05:30 17.08.2019
3532 Clouds 10 1022 87 10000 2.6 270 04:28 17.08.2019
3533 Clouds 11 1022 82 10000 2.1 220 02:53 17.08.2019
3534 Clear 12 1022 76 10000 1 0 01:41 17.08.2019
3535 Clouds 14 1023 72 10000 1 0 01:22 17.08.2019
3536 Clouds 13 1023 72 10000 1 0 00:54 17.08.2019
3537 Clouds 13 1023 72 10000 1 0 00:27 17.08.2019
3538 Clouds 14 1023 72 10000 2.6 140 23:48 16.08.2019
3539 Clouds 15 1023 72 10000 2.6 140 23:26 16.08.2019
3540 Clouds 16 1023 63 10000 2.49 79.2 22:55 16.08.2019
3541 Clouds 16 1023 63 10000 2.49 79.2 22:36 16.08.2019
3542 Clouds 16 1024 55 10000 3.6 130 22:18 16.08.2019
3543 Clouds 16 1024 55 10000 3.6 130 22:18 16.08.2019
3544 Clouds 16 1023 63 10000 2.37 68.522 21:39 16.08.2019
3545 Clouds 17 1023 55 10000 3.6 140 21:19 16.08.2019
3546 Clouds 17 1023 55 10000 3.6 140 20:55 16.08.2019
3547 Clouds 16 1022 55 10000 2.6 0 20:37 16.08.2019
3548 Clouds 17 1022 52 10000 3.1 110 20:18 16.08.2019
3549 Clouds 17 1022 55 10000 2.6 120 19:40 16.08.2019
3550 Clouds 17 1022 52 10000 3.6 90 19:22 16.08.2019
3551 Clouds 17 1021 55 10000 4.87 96.249 18:43 16.08.2019
3552 Clouds 20 1022 52 10000 3.6 100 18:25 16.08.2019
3553 Clouds 20 1022 52 10000 3.6 100 17:56 16.08.2019
3554 Clouds 20 1021 52 10000 2.6 90 17:37 16.08.2019
3555 Clouds 17 1021 49 10000 2.1 90 17:18 16.08.2019
3556 Clouds 18 1021 49 10000 2.1 90 16:41 16.08.2019
3557 Clouds 18 1022 52 10000 3.6 90 16:21 16.08.2019
3558 Clouds 18 1022 52 10000 3.6 90 15:57 16.08.2019
3559 Clouds 19 1022 52 10000 2.6 100 15:39 16.08.2019
3560 Clouds 18 1023 52 10000 4.1 70 15:21 16.08.2019
3561 Clouds 18 1023 52 10000 4.1 70 14:57 16.08.2019
3562 Clouds 18 1022 52 10000 3.6 90 14:38 16.08.2019
3563 Clouds 19 1023 49 10000 3.6 40 14:19 16.08.2019
3564 Clouds 21 1023 52 10000 6.2 80 13:41 16.08.2019
3565 Clouds 21 1023 52 10000 6.2 80 13:41 16.08.2019
3566 Clouds 25 1015 38 0 4.08 131.152 13:23 16.08.2019
3567 Clouds 20 1026 52 10000 3.6 100 12:56 16.08.2019
3568 Clouds 17 1026 52 10000 3.6 100 12:37 16.08.2019
3569 Clouds 17 1026 52 10000 3.6 100 12:19 16.08.2019
3570 Clouds 17 1025 55 10000 2.6 120 11:42 16.08.2019
3571 Clouds 17 1026 55 10000 2.6 0 11:23 16.08.2019
3572 Clouds 17 1025 55 10000 2.6 120 11:23 16.08.2019
3573 Clouds 18 1026 63 10000 4.6 120 10:43 16.08.2019
3574 Clouds 16 1027 67 10000 2.1 0 10:25 16.08.2019
3575 Clouds 16 1027 67 10000 2.1 0 09:56 16.08.2019
3576 Clouds 17 1026 72 10000 3.1 70 09:37 16.08.2019
3577 Clouds 17 1026 72 10000 3.1 70 09:37 16.08.2019
3578 Clouds 17 1026 72 10000 3.1 70 09:37 16.08.2019
3579 Clouds 15 1027 72 10000 2.6 20 09:18 16.08.2019
3580 Clouds 14 1026 72 10000 6.2 130 08:41 16.08.2019
3581 Clouds 13 1025 82 10000 3.6 130 08:21 16.08.2019
3582 Clouds 15 1025 82 10000 3.6 130 07:54 16.08.2019
3583 Clouds 15 1025 82 10000 3.6 130 07:33 16.08.2019
3584 Clouds 15 1024 82 10000 3.1 120 06:59 16.08.2019
3585 Clouds 13 1024 82 10000 3.1 120 06:31 16.08.2019
3586 Clouds 12 1025 72 10000 3.6 130 05:42 16.08.2019
3587 Clouds 13 1024 72 10000 4.6 160 04:31 16.08.2019
3588 Clouds 12 1024 76 10000 2.1 180 02:46 16.08.2019
3589 Clouds 13 1025 63 10000 2.1 150 01:34 16.08.2019
3590 Clouds 13 1025 59 10000 1 0 00:59 16.08.2019
3591 Clouds 14 1025 59 10000 1.5 80 00:40 16.08.2019
3592 Clouds 15 1025 52 10000 2.6 140 00:21 16.08.2019
3593 Clouds 15 1025 55 10000 4.1 120 23:45 15.08.2019
3594 Clouds 16 1026 55 10000 4.1 140 23:22 15.08.2019
3595 Clouds 16 1026 55 10000 4.1 140 22:58 15.08.2019
3596 Clouds 16 1026 52 10000 4.6 150 22:39 15.08.2019
3597 Clouds 16 1026 52 10000 4.6 150 22:39 15.08.2019
3598 Clouds 16 1026 52 10000 4.6 150 22:39 15.08.2019
3599 Clouds 15 1026 52 10000 4.1 140 22:20 15.08.2019
3600 Clouds 16 1025 52 10000 6.2 140 21:54 15.08.2019
3601 Clouds 17 1025 52 10000 6.2 140 21:36 15.08.2019
3602 Clouds 17 1025 49 10000 3.6 140 21:18 15.08.2019
3603 Clouds 16 1024 49 10000 4.1 140 20:42 15.08.2019
3604 Clouds 16 1024 49 10000 4.1 140 20:42 15.08.2019
3605 Clouds 18 1024 45 10000 5.7 130 20:21 15.08.2019
3606 Clouds 18 1024 45 10000 5.7 130 19:57 15.08.2019
3607 Clouds 18 1023 49 10000 2.1 60 19:38 15.08.2019
3608 Clouds 18 1024 46 10000 5.1 90 19:20 15.08.2019
3609 Clouds 18 1022 49 10000 2.6 110 18:47 15.08.2019
3610 Clouds 18 1023 46 10000 3.1 110 18:23 15.08.2019
3611 Clouds 18 1023 46 10000 3.1 110 17:57 15.08.2019
3612 Clouds 18 1022 46 10000 4.6 100 17:38 15.08.2019
3613 Clouds 18 1022 46 10000 4.6 100 17:38 15.08.2019
3614 Clouds 19 1023 46 10000 4.1 150 17:19 15.08.2019
3615 Clouds 19 1023 46 10000 4.1 150 16:56 15.08.2019
3616 Clouds 19 1022 46 10000 4.6 130 16:38 15.08.2019
3617 Clouds 18 1023 43 10000 4.1 160 16:20 15.08.2019
3618 Clouds 17 1023 46 10000 3.1 130 15:38 15.08.2019
3619 Clouds 19 1023 43 10000 4.6 150 15:19 15.08.2019
3620 Clouds 19 1024 52 10000 4.6 100 14:55 15.08.2019
3621 Clouds 19 1024 52 10000 4.6 100 14:36 15.08.2019
3622 Clouds 19 1024 46 10000 3.6 180 14:18 15.08.2019
3623 Clouds 18 1024 49 10000 4.1 150 13:55 15.08.2019
3624 Clouds 19 1024 49 10000 4.1 150 13:36 15.08.2019
3625 Clouds 18 1025 52 10000 4.6 130 13:18 15.08.2019
3626 Clouds 18 1025 55 10000 5.7 160 12:40 15.08.2019
3627 Clouds 17 1026 55 10000 3.6 180 12:20 15.08.2019
3628 Clouds 18 1026 55 10000 3.6 180 11:57 15.08.2019
3629 Clouds 18 1026 55 10000 3.6 180 11:57 15.08.2019
3630 Clouds 17 1026 59 10000 3.69 193.49 11:38 15.08.2019
3631 Clouds 17 1027 59 10000 2.6 150 11:18 15.08.2019
3632 Clouds 17 1027 59 10000 2.6 150 10:58 15.08.2019
3633 Clouds 18 1026 63 10000 3.69 193.49 10:37 15.08.2019
3634 Clouds 16 1027 63 10000 3.6 150 10:18 15.08.2019
3635 Clouds 16 1027 59 10000 5.1 160 09:43 15.08.2019
3636 Clouds 14 1027 67 10000 3.6 150 09:22 15.08.2019
3637 Clouds 13 1027 72 10000 4.1 170 08:39 15.08.2019
3638 Clouds 13 1027 72 10000 2.6 160 08:21 15.08.2019
3639 Clouds 15 1026 72 10000 3.6 190 07:56 15.08.2019
3640 Clouds 15 1026 72 10000 3.6 190 07:38 15.08.2019
3641 Clouds 12 1026 82 10000 3.6 200 07:20 15.08.2019
3642 Clouds 11 1025 87 10000 3.1 200 06:47 15.08.2019
3643 Clouds 11 1025 87 10000 2.6 220 06:25 15.08.2019
3644 Clouds 11 1024 82 10000 1.92 74.493 05:30 15.08.2019
3645 Clouds 10 1025 87 10000 2.6 240 04:57 15.08.2019
3646 Clouds 11 1024 81 10000 3.6 250 03:57 15.08.2019
3647 Clouds 11 1024 81 10000 2.6 260 03:19 15.08.2019
3648 Clouds 12 1024 81 10000 3.1 270 02:26 15.08.2019
3649 Clouds 12 1024 76 10000 3.6 190 01:41 15.08.2019
3650 Clouds 13 1024 71 10000 3.1 210 00:56 15.08.2019
3651 Clouds 13 1025 71 10000 2.1 220 00:36 15.08.2019
3652 Clouds 13 1025 72 10000 1.5 10 00:18 15.08.2019
3653 Clouds 13 1025 72 10000 1.5 10 23:55 14.08.2019
3654 Clouds 14 1025 63 10000 3.6 100 23:36 14.08.2019
3655 Clouds 15 1026 55 10000 4.6 80 23:18 14.08.2019
3656 Clouds 15 1026 52 10000 6.7 80 22:41 14.08.2019
3657 Clouds 16 1025 48 10000 5.7 80 22:22 14.08.2019
3658 Clouds 16 1025 48 10000 5.7 80 21:57 14.08.2019
3659 Clouds 16 1025 48 10000 6.2 70 21:39 14.08.2019
3660 Clouds 18 1025 56 10000 3.6 60 21:21 14.08.2019
3661 Clouds 17 1025 56 10000 3.6 60 20:56 14.08.2019
3662 Clouds 17 1023 59 10000 4.1 20 20:38 14.08.2019
3663 Clouds 18 1024 52 10000 3.6 70 20:18 14.08.2019
3664 Clouds 18 1023 52 10000 3.6 50 19:54 14.08.2019
3665 Clouds 20 1023 52 10000 3.6 50 19:36 14.08.2019
3666 Clouds 20 1024 52 10000 3.6 80 19:18 14.08.2019
3667 Clouds 20 1024 52 10000 3.6 80 19:18 14.08.2019
3668 Clouds 22 1024 49 10000 3.6 130 18:43 14.08.2019
3669 Clouds 22 1023 49 10000 4.6 130 18:24 14.08.2019
3670 Clouds 22 1023 49 10000 4.6 130 17:59 14.08.2019
3671 Clouds 21 1021 46 10000 7.7 120 17:40 14.08.2019
3672 Clouds 22 1023 52 10000 5.1 130 17:22 14.08.2019
3673 Clouds 22 1023 52 10000 5.1 130 16:57 14.08.2019
3674 Clouds 22 1022 49 10000 4.1 150 16:39 14.08.2019
3675 Clouds 22 1022 46 10000 3.6 160 16:19 14.08.2019
3676 Clouds 23 1022 49 10000 3.6 180 15:43 14.08.2019
3677 Clouds 22 1023 46 10000 3.6 130 15:19 14.08.2019
3678 Clouds 22 1023 46 10000 3.6 130 15:19 14.08.2019
3679 Clouds 22 1023 46 10000 3.6 130 14:57 14.08.2019
3680 Clouds 22 1023 49 10000 3.6 120 14:39 14.08.2019
3681 Clouds 23 1023 46 10000 2.6 0 14:19 14.08.2019
3682 Clouds 21 1024 52 10000 3.1 170 13:44 14.08.2019
3683 Clouds 20 1024 52 10000 2.1 0 13:25 14.08.2019
3684 Clouds 21 1024 56 10000 4.1 150 12:59 14.08.2019
3685 Clouds 21 1024 56 10000 4.1 150 12:40 14.08.2019
3686 Clouds 19 1025 56 10000 3.1 160 12:22 14.08.2019
3687 Clouds 19 1025 56 10000 3.1 160 12:22 14.08.2019
3688 Clouds 19 1025 56 10000 3.1 160 11:58 14.08.2019
3689 Clouds 19 1024 68 10000 3.2 181.111 11:40 14.08.2019
3690 Clouds 17 1026 68 10000 2.6 180 11:21 14.08.2019
3691 Clouds 17 1024 93 10000 3.2 181.111 10:45 14.08.2019
3692 Clouds 17 1024 93 10000 3.2 181.111 10:25 14.08.2019
3693 Clouds 16 1026 77 10000 1 0 09:59 14.08.2019
3694 Clouds 17 1025 82 10000 3.2 181.111 09:41 14.08.2019
3695 Clouds 16 1026 82 10000 0.5 0 09:20 14.08.2019
3696 Clouds 16 1025 82 10000 2.21 148.003 08:41 14.08.2019
3697 Clouds 16 1025 82 10000 2.21 148.003 08:23 14.08.2019
3698 Clouds 16 1025 82 10000 2.1 20 07:54 14.08.2019
3699 Clouds 15 1025 82 10000 2.1 20 07:34 14.08.2019
3700 Clouds 15 1024 82 10000 2.21 148.003 06:49 14.08.2019
3701 Clouds 15 1024 87 10000 1 0 06:18 14.08.2019
3702 Clouds 15 1024 93 10000 2.6 10 05:28 14.08.2019
3703 Clouds 15 1024 93 10000 2.6 10 05:28 14.08.2019
3704 Clouds 15 1023 87 10000 1.5 10 03:38 14.08.2019
3705 Clouds 14 1024 87 10000 1.5 360 02:36 14.08.2019
3706 Clouds 14 1024 87 10000 1 0 01:55 14.08.2019
3707 Clear 15 1024 77 10000 2.1 330 01:21 14.08.2019
3708 Clear 15 1024 72 10000 2.1 290 00:23 14.08.2019
3709 Clouds 16 1024 72 10000 3.9 86.188 23:40 13.08.2019
3710 Clouds 17 1024 67 10000 2.6 70 23:19 13.08.2019
3711 Clouds 15 1025 59 10000 3.1 70 22:43 13.08.2019
3712 Clouds 17 1024 59 10000 4.6 80 22:24 13.08.2019
3713 Clouds 17 1024 59 10000 4.6 80 21:59 13.08.2019
3714 Clouds 16 1024 55 10000 4.1 70 21:39 13.08.2019
3715 Clouds 16 1024 52 10000 5.1 80 21:20 13.08.2019
3716 Clouds 16 1024 52 10000 5.1 80 20:59 13.08.2019
3717 Clouds 19 1024 46 10000 5.1 80 20:40 13.08.2019
3718 Clouds 18 1024 49 10000 4.6 80 20:19 13.08.2019
3719 Clouds 18 1024 49 10000 4.6 80 19:56 13.08.2019
3720 Clouds 19 1022 49 10000 5.1 70 19:37 13.08.2019
3721 Clouds 19 1023 49 10000 5.7 80 19:19 13.08.2019
3722 Clouds 20 1021 43 10000 6.7 80 18:41 13.08.2019
3723 Clouds 22 1021 36 10000 4.6 130 18:22 13.08.2019
3724 Clouds 21 1021 36 10000 4.6 130 17:54 13.08.2019
3725 Clouds 22 1021 36 10000 4.6 130 17:36 13.08.2019
3726 Clouds 22 1021 36 10000 4.1 140 17:18 13.08.2019
3727 Clouds 22 1021 36 10000 4.1 140 16:54 13.08.2019
3728 Clouds 22 1021 36 10000 4.1 140 16:54 13.08.2019
3729 Clouds 22 1021 36 10000 5.1 150 16:36 13.08.2019
3730 Clouds 23 1022 31 10000 5.7 170 16:18 13.08.2019
3731 Clouds 23 1021 33 10000 5.7 120 15:38 13.08.2019
3732 Clouds 23 1022 31 10000 4.6 150 15:20 13.08.2019
3733 Clouds 23 1021 36 10000 3.1 120 14:48 13.08.2019
3734 Clouds 22 1023 41 10000 3.1 170 14:21 13.08.2019
3735 Clouds 22 1023 41 10000 3.1 170 13:59 13.08.2019
3736 Clouds 22 1022 43 10000 3.1 210 13:41 13.08.2019
3737 Clouds 22 1024 43 10000 3.6 130 13:21 13.08.2019
3738 Clouds 22 1023 49 10000 3.93 147.119 12:57 13.08.2019
3739 Clouds 21 1023 49 10000 3.93 147.119 12:39 13.08.2019
3740 Clouds 21 1025 49 10000 3.1 0 12:21 13.08.2019
3741 Clouds 20 1024 52 10000 2.6 200 11:43 13.08.2019
3742 Clouds 20 1024 52 10000 2.6 200 11:23 13.08.2019
3743 Clouds 18 1025 63 10000 3.64 178.977 10:59 13.08.2019
3744 Clouds 18 1025 63 10000 3.64 178.977 10:39 13.08.2019
3745 Clouds 18 1026 68 10000 1 0 10:20 13.08.2019
3746 Clouds 17 1026 68 10000 1 0 09:59 13.08.2019
3747 Clouds 16 1027 72 10000 2.1 150 09:40 13.08.2019
3748 Clouds 16 1027 72 10000 2.6 170 09:22 13.08.2019
3749 Clouds 16 1026 72 10000 1.5 170 08:42 13.08.2019
3750 Clouds 15 1026 77 10000 2.6 170 08:22 13.08.2019
3751 Clouds 15 1026 82 10000 2.1 170 07:51 13.08.2019
3752 Clouds 14 1026 82 10000 2.1 170 07:31 13.08.2019
3753 Clouds 15 1025 82 10000 2.1 70 06:46 13.08.2019
3754 Clouds 13 1025 82 10000 1.16 74.447 06:23 13.08.2019
3755 Clouds 13 1024 77 10000 1.16 74.447 05:33 13.08.2019
3756 Clouds 13 1023 82 10000 1.5 340 02:37 13.08.2019
3757 Clouds 12 1024 87 10000 1.5 350 01:55 13.08.2019
3758 Clear 13 1024 82 10000 2.6 350 00:55 13.08.2019
3759 Clear 13 1024 72 10000 2.68 88.072 00:36 13.08.2019
3760 Clouds 14 1024 67 10000 1.5 30 23:49 12.08.2019
3761 Clouds 16 1024 63 10000 2.1 60 23:24 12.08.2019
3762 Clouds 16 1024 63 10000 3.26 81.306 22:57 12.08.2019
3763 Clouds 16 1024 63 10000 3.26 81.306 22:38 12.08.2019
3764 Clouds 16 1024 63 10000 3.1 50 22:19 12.08.2019
3765 Clouds 16 1024 63 10000 3.1 50 21:55 12.08.2019
3766 Clouds 16 1024 63 10000 3.1 50 21:55 12.08.2019
3767 Clouds 16 1023 63 10000 3.26 81.306 21:36 12.08.2019
3768 Clouds 16 1024 63 10000 3.1 20 21:18 12.08.2019
3769 Clouds 16 1024 63 10000 3.1 20 20:55 12.08.2019
3770 Clouds 17 1023 59 10000 5.57 91.132 20:36 12.08.2019
3771 Clouds 18 1023 52 10000 3.1 110 20:18 12.08.2019
3772 Clouds 18 1022 56 10000 5.1 90 19:54 12.08.2019
3773 Clouds 18 1022 56 10000 5.1 90 19:54 12.08.2019
3774 Clouds 18 1022 56 10000 5.1 90 19:36 12.08.2019
3775 Clouds 19 1022 49 10000 5.7 80 19:18 12.08.2019
3776 Clouds 19 1022 52 10000 4.1 80 18:41 12.08.2019
3777 Clouds 19 1022 49 10000 3.1 120 18:21 12.08.2019
3778 Clouds 19 1022 49 10000 3.1 120 17:58 12.08.2019
3779 Clouds 20 1021 46 10000 6.2 90 17:40 12.08.2019
3780 Clouds 21 1022 46 10000 4.1 80 17:21 12.08.2019
3781 Clouds 21 1022 46 10000 4.1 80 16:56 12.08.2019
3782 Clouds 21 1021 46 10000 5.1 90 16:37 12.08.2019
3783 Clouds 22 1021 41 10000 4.6 120 16:19 12.08.2019
3784 Clouds 22 1020 44 10000 5.1 150 15:54 12.08.2019
3785 -273 0 0 0 0 0 15:36 12.08.2019
3786 Clouds 22 1022 41 10000 2.6 160 15:18 12.08.2019
3787 Clouds 21 1021 46 10000 2.6 180 14:42 12.08.2019
3788 -273 0 0 0 0 0 14:23 12.08.2019
3789 Clouds 21 1022 46 10000 3.1 120 13:58 12.08.2019
3790 Clouds 21 1022 46 10000 3.1 120 13:58 12.08.2019
3791 Clouds 21 1022 52 10000 5.1 110 13:40 12.08.2019
3792 Clouds 20 1023 52 10000 2.6 170 13:21 12.08.2019
3793 Clouds 20 1023 56 10000 3.1 170 12:43 12.08.2019
3794 Clouds 20 1023 56 10000 3.1 170 12:43 12.08.2019
3795 Clouds 19 1024 56 10000 3.1 130 12:22 12.08.2019
3796 Clouds 19 1024 59 10000 2.67 182.769 11:47 12.08.2019
3797 Clouds 19 1024 59 10000 2.67 182.769 11:47 12.08.2019
3798 Clouds 19 1024 59 10000 2.67 182.769 11:29 12.08.2019
3799 Clouds 18 1025 59 10000 2.6 150 10:59 12.08.2019
3800 Clouds 18 1025 59 10000 2.67 182.769 10:40 12.08.2019
3801 Clouds 18 1025 59 10000 2.67 182.769 10:22 12.08.2019
3802 Clouds 17 1026 63 10000 2.1 180 10:22 12.08.2019
3803 Clouds 17 1026 63 10000 2.1 180 09:56 12.08.2019
3804 Clouds 17 1026 63 10000 2.1 180 09:56 12.08.2019
3805 Clouds 17 1025 67 10000 2.6 180 09:37 12.08.2019
3806 Clouds 16 1026 67 10000 2.6 160 09:18 12.08.2019
3807 Clouds 15 1025 72 10000 1.45 152.815 08:41 12.08.2019
3808 Clouds 14 1026 77 10000 2.1 210 08:23 12.08.2019
3809 Clouds 14 1024 82 10000 1.45 152.815 07:56 12.08.2019
3810 Clouds 14 1024 82 10000 1.45 152.815 07:36 12.08.2019
3811 Clouds 14 1025 82 10000 1.5 200 06:58 12.08.2019
3812 Clouds 12 1025 82 10000 1 0 06:22 12.08.2019
3813 Clouds 13 1024 82 10000 2.1 200 04:31 12.08.2019
3814 Clouds 13 1023 82 10000 3.13 93.131 02:43 12.08.2019
3815 Clouds 14 1023 82 10000 3.13 93.131 01:48 12.08.2019
3816 Clear 14 1024 77 10000 2.1 250 01:19 12.08.2019
3817 Clear 14 1024 77 10000 2.1 250 00:55 12.08.2019
3818 Clouds 14 1023 72 10000 3.13 93.131 00:37 12.08.2019
3819 Clouds 14 1024 67 10000 2.6 140 00:18 12.08.2019
3820 Clouds 15 1023 72 10000 2.1 170 23:40 11.08.2019
3821 Clouds 15 1024 67 10000 2.6 220 23:20 11.08.2019
3822 Clouds 15 1024 72 10000 2.13 72.542 22:57 11.08.2019
3823 Clouds 15 1024 72 10000 2.13 72.542 22:38 11.08.2019
3824 Clear 15 1025 67 10000 2.1 200 22:18 11.08.2019
3825 Clouds 15 1024 67 10000 2.13 72.542 21:56 11.08.2019
3826 Clouds 15 1024 67 10000 2.13 72.542 21:38 11.08.2019
3827 Clear 16 1024 63 10000 2.1 170 21:19 11.08.2019
3828 Clouds 16 1023 63 10000 2.62 73.492 20:44 11.08.2019
3829 Clouds 16 1023 63 10000 2.62 73.492 20:23 11.08.2019
3830 Clouds 17 1022 59 10000 2.6 120 19:56 11.08.2019
3831 Clouds 17 1022 59 10000 2.6 120 19:37 11.08.2019
3832 Clouds 18 1023 56 10000 3.6 130 19:18 11.08.2019
3833 Clouds 17 1021 59 10000 3.6 120 18:40 11.08.2019
3834 Clouds 18 1022 56 10000 5.1 130 18:20 11.08.2019
3835 Clouds 18 1022 56 10000 5.1 130 17:56 11.08.2019
3836 Clouds 19 1021 49 10000 5.1 120 17:38 11.08.2019
3837 Clouds 20 1022 46 10000 3.1 120 17:19 11.08.2019
3838 Clouds 20 1022 46 10000 3.1 120 16:55 11.08.2019
3839 Clouds 20 1021 46 10000 3.1 60 16:37 11.08.2019
3840 Clouds 20 1022 60 10000 2.6 130 16:18 11.08.2019
3841 Clouds 19 1021 52 10000 3.6 80 15:42 11.08.2019
3842 Clouds 19 1022 52 10000 2.6 150 15:22 11.08.2019
3843 Clouds 20 1022 52 10000 2.6 150 14:56 11.08.2019
3844 Clouds 19 1022 56 10000 3.1 80 14:38 11.08.2019
3845 Clouds 19 1023 56 10000 3.6 90 14:19 11.08.2019
3846 Clouds 20 1023 59 10000 2.6 80 13:43 11.08.2019
3847 Clouds 19 1024 56 10000 2.6 100 13:24 11.08.2019
3848 Clouds 19 1024 59 10000 2.6 70 12:48 11.08.2019
3849 Clouds 19 1024 59 10000 2.6 70 12:23 11.08.2019
3850 Clouds 18 1025 63 10000 3.61 178.331 11:54 11.08.2019
3851 Clouds 18 1025 63 10000 3.61 178.331 11:36 11.08.2019
3852 Clouds 17 1026 63 10000 1.5 150 11:18 11.08.2019
3853 Clouds 17 1025 67 10000 3.61 178.331 10:41 11.08.2019
3854 Clouds 16 1026 72 10000 3.6 150 10:22 11.08.2019
3855 Clouds 16 1026 72 10000 3.6 150 09:58 11.08.2019
3856 Clouds 17 1026 77 10000 3.1 150 09:38 11.08.2019
3857 Clouds 15 1026 72 10000 2.6 140 09:19 11.08.2019
3858 Clouds 15 1026 77 10000 3.6 160 08:44 11.08.2019
3859 Clouds 15 1026 77 10000 3.6 160 08:26 11.08.2019
3860 Clouds 14 1026 77 10000 2.6 160 07:54 11.08.2019
3861 Clouds 14 1025 82 10000 2.6 160 07:23 11.08.2019
3862 Clouds 13 1025 82 10000 2.1 170 06:44 11.08.2019
3863 Clouds 13 1024 82 10000 2.1 170 05:35 11.08.2019
3864 Clouds 13 1024 82 10000 2.6 200 03:41 11.08.2019
3865 Clouds 12 1015 88 0 0.45 101 02:48 11.08.2019
3866 Clouds 13 1025 87 10000 2.6 280 01:38 11.08.2019
3867 Clear 13 1025 87 10000 2.6 280 01:19 11.08.2019
3868 Clear 13 1025 87 10000 2.6 280 00:43 11.08.2019
3869 Clear 14 1025 82 10000 4.1 210 00:23 11.08.2019
3870 Clouds 15 1025 82 10000 3.6 180 23:43 10.08.2019
3871 Clouds 15 1025 82 10000 3.6 180 23:24 10.08.2019
3872 Clouds 15 1025 77 10000 3.16 92.844 22:43 10.08.2019
3873 Clouds 15 1025 77 10000 3.16 92.844 22:25 10.08.2019
3874 Clouds 16 1025 77 10000 5.1 160 21:58 10.08.2019
3875 Clouds 16 1025 77 10000 5.1 160 21:58 10.08.2019
3876 Clouds 17 1024 55 10000 4.1 160 21:38 10.08.2019
3877 Clouds 18 1025 59 10000 4.6 150 21:19 10.08.2019
3878 Clouds 18 1025 59 10000 4.6 150 20:56 10.08.2019
3879 Clouds 18 1023 52 10000 3.1 100 20:37 10.08.2019
3880 Clouds 18 1024 49 10000 3.6 110 20:18 10.08.2019
3881 Clouds 18 1023 52 10000 3.1 110 19:39 10.08.2019
3882 Clouds 20 1023 46 10000 6.2 140 19:21 10.08.2019
3883 Clouds 20 1023 46 10000 3.1 130 18:41 10.08.2019
3884 Clouds 20 1023 43 10000 3.6 140 18:22 10.08.2019
3885 Clouds 21 1022 40 10000 5.1 130 17:46 10.08.2019
3886 Clouds 21 1022 40 10000 6.2 120 17:25 10.08.2019
3887 Clouds 22 1021 41 10000 6.25 110.488 16:47 10.08.2019
3888 Clouds 22 1021 41 10000 6.25 110.488 16:29 10.08.2019
3889 Clouds 22 1022 41 10000 4.1 160 15:58 10.08.2019
3890 Clouds 22 1022 38 10000 5.1 120 15:40 10.08.2019
3891 Clouds 22 1022 38 10000 3.45 164.534 15:21 10.08.2019
3892 Clouds 22 1022 38 10000 3.45 164.534 14:43 10.08.2019
3893 Clouds 22 1023 40 10000 9.3 160 14:18 10.08.2019
3894 Clouds 22 1023 40 10000 9.3 160 13:39 10.08.2019
3895 Clouds 21 1024 43 10000 3.06 171.045 13:18 10.08.2019
3896 Clouds 21 1024 43 10000 3.06 171.045 12:42 10.08.2019
3897 Clouds 21 1026 49 10000 4.6 90 12:22 10.08.2019
3898 Clouds 21 1026 49 10000 4.6 90 11:57 10.08.2019
3899 Clouds 21 1026 49 10000 4.6 90 11:39 10.08.2019
3900 Clouds 20 1026 52 10000 4.1 130 11:20 10.08.2019
3901 Clouds 20 1026 52 10000 4.1 130 10:39 10.08.2019
3902 Clouds 18 1027 56 10000 2.6 30 10:20 10.08.2019
3903 Clouds 18 1027 56 10000 2.6 30 09:59 10.08.2019
3904 Clouds 18 1027 56 10000 2.6 30 09:38 10.08.2019
3905 Clouds 17 1027 63 10000 1.21 146.834 09:20 10.08.2019
3906 Clouds 16 1027 67 10000 2.6 240 08:39 10.08.2019
3907 Clouds 15 1027 67 10000 2.6 240 08:19 10.08.2019
3908 Clouds 14 1027 67 10000 2.6 240 07:52 10.08.2019
3909 Clouds 14 1027 67 10000 2.6 240 07:27 10.08.2019
3910 Clouds 13 1026 67 10000 2.6 230 06:48 10.08.2019
3911 Clouds 12 1017 84 0 1.79 90 06:21 10.08.2019
3912 Clouds 13 1025 72 10000 2.6 210 05:24 10.08.2019
3913 Clouds 13 1024 72 10000 3.1 210 04:21 10.08.2019
3914 Clouds 13 1024 72 10000 2.1 240 02:54 10.08.2019
3915 Clouds 14 1024 63 10000 2.6 190 01:59 10.08.2019
3916 Clouds 13 1024 63 10000 2.6 190 01:40 10.08.2019
3917 Clear 13 1025 71 10000 1.5 220 01:20 10.08.2019
3918 Clear 13 1025 71 10000 1.5 220 00:44 10.08.2019
3919 Clear 14 1025 67 10000 1 90 00:22 10.08.2019
3920 Clear 14 1025 67 10000 1 90 23:43 09.08.2019
3921 Clouds 15 1026 63 10000 2.1 80 23:23 09.08.2019
3922 Clouds 15 1026 63 10000 2.1 80 22:57 09.08.2019
3923 Clouds 15 1026 63 10000 2.1 80 22:38 09.08.2019
3924 Clouds 13 1016 85 0 4.47 103 22:20 09.08.2019
3925 Clouds 13 1016 86 0 3.58 84 21:43 09.08.2019
3926 Clear 13 1016 86 0 4.02 101 21:23 09.08.2019
3927 Clear 14 1016 85 0 4.02 87 20:59 09.08.2019
3928 Clouds 17 1023 59 10000 3.6 110 20:40 09.08.2019
3929 Clouds 16 1023 59 10000 3.6 110 20:21 09.08.2019
3930 Clouds 16 1023 59 10000 3.6 110 19:56 09.08.2019
3931 Clouds 16 1023 59 10000 3.6 110 19:38 09.08.2019
3932 Clouds 18 1023 56 10000 3.1 110 19:18 09.08.2019
3933 Clouds 18 1023 56 10000 3.1 110 18:41 09.08.2019
3934 Clouds 21 1023 56 10000 3.1 110 18:22 09.08.2019
3935 Clouds 22 1023 52 10000 3.6 140 17:57 09.08.2019
3936 Clouds 20 1022 49 10000 3.6 130 17:39 09.08.2019
3937 Clouds 19 1022 53 10000 6.7 80 17:20 09.08.2019
3938 Clouds 20 1022 53 10000 7.2 80 16:41 09.08.2019
3939 Clouds 21 1021 50 10000 7.2 80 16:23 09.08.2019
3940 Clouds 21 1021 50 10000 7.2 80 15:57 09.08.2019
3941 Clouds 22 1021 41 10000 2.6 130 15:57 09.08.2019
3942 Clouds 22 1021 41 10000 2.6 130 15:38 09.08.2019
3943 Clouds 24 1021 41 10000 5.1 70 15:19 09.08.2019
3944 Clouds 23 1022 41 10000 3.1 120 14:44 09.08.2019
3945 Clouds 22 1022 39 10000 1.5 270 14:23 09.08.2019
3946 Clouds 23 1022 39 10000 1.5 270 13:59 09.08.2019
3947 Clouds 23 1022 39 10000 1.5 270 13:59 09.08.2019
3948 Clouds 23 1023 60 10000 4.1 20 13:40 09.08.2019
3949 Clouds 22 1024 41 10000 4.1 110 13:20 09.08.2019
3950 Clouds 22 1023 56 10000 4.48 171.629 12:46 09.08.2019
3951 Clouds 22 1025 53 10000 2.1 90 12:24 09.08.2019
3952 Clouds 21 1025 53 10000 2.1 90 11:58 09.08.2019
3953 Clouds 21 1025 68 10000 1.5 40 11:37 09.08.2019
3954 Clouds 21 1026 56 10000 2.1 30 11:18 09.08.2019
3955 Clouds 20 1026 60 10000 2.6 90 10:40 09.08.2019
3956 Clouds 19 1026 68 10000 2.1 70 10:21 09.08.2019
3957 Clouds 18 1027 77 10000 1.5 50 09:46 09.08.2019
3958 Fog 17 1027 77 10000 2.6 20 09:20 09.08.2019
3959 Fog 16 1027 77 10000 2.6 20 08:57 09.08.2019
3960 Clouds 16 1026 82 10000 1.5 310 08:39 09.08.2019
3961 Clouds 16 1026 87 10000 0.5 0 08:19 09.08.2019
3962 Clouds 15 1026 93 10000 1 0 07:43 09.08.2019
3963 Clouds 15 1026 93 10000 1 0 07:43 09.08.2019
3964 Clouds 13 1026 93 10000 0.5 0 07:23 09.08.2019
3965 Clouds 13 1026 93 10000 0.5 0 06:56 09.08.2019
3966 Mist 12 1025 93 5000 1.5 230 06:29 09.08.2019
3967 Mist 12 1024 93 7000 0.5 0 05:55 09.08.2019
3968 Clear 12 1024 87 10000 1 0 03:19 09.08.2019
3969 Clear 13 1024 82 10000 2.6 20 01:45 09.08.2019
3970 Clear 13 1024 82 10000 2.1 10 00:45 09.08.2019
3971 Clear 15 1024 82 10000 2.1 10 00:26 09.08.2019
3972 Clear 15 1024 77 10000 2.1 320 23:59 08.08.2019
3973 Clear 15 1024 63 10000 2.04 82.272 23:38 08.08.2019
3974 Clear 15 1025 82 10000 2.1 30 23:19 08.08.2019
3975 Clear 15 1025 82 10000 2.1 30 22:57 08.08.2019
3976 Clear 14 1025 72 10000 3.1 50 22:37 08.08.2019
3977 Clear 15 1025 63 10000 3.6 80 22:18 08.08.2019
3978 Clear 15 1025 63 10000 3.6 80 21:57 08.08.2019
3979 Clear 17 1024 59 10000 3.1 80 21:38 08.08.2019
3980 Clear 17 1024 59 10000 3.6 80 21:20 08.08.2019
3981 Clear 16 1024 55 10000 3.6 80 20:42 08.08.2019
3982 Clear 17 1023 56 10000 4.1 90 20:22 08.08.2019
3983 Clear 16 1023 56 10000 4.1 90 19:59 08.08.2019
3984 Clear 17 1023 52 10000 5.1 100 19:40 08.08.2019
3985 Clouds 19 1023 52 10000 6.2 90 19:20 08.08.2019
3986 Clouds 19 1021 46 10000 7.7 70 18:43 08.08.2019
3987 Clouds 20 1022 40 10000 5.7 100 18:22 08.08.2019
3988 Clouds 20 1022 40 10000 5.7 100 17:55 08.08.2019
3989 Clouds 21 1021 40 10000 5.7 100 17:37 08.08.2019
3990 Clouds 21 1022 38 10000 5.1 90 17:18 08.08.2019
3991 Clouds 22 1020 41 10000 3.6 100 16:42 08.08.2019
3992 Clouds 22 1021 38 10000 5.7 100 16:24 08.08.2019
3993 Clouds 23 1021 36 10000 4.1 50 15:58 08.08.2019
3994 Clouds 23 1021 36 10000 4.1 50 15:58 08.08.2019
3995 Clouds 23 1021 36 10000 4.1 50 15:39 08.08.2019
3996 Clouds 22 1022 36 10000 4.1 90 15:21 08.08.2019
3997 Clouds 22 1021 41 10000 5.1 90 14:41 08.08.2019
3998 Clouds 22 1022 38 10000 2.6 100 14:23 08.08.2019
3999 Clouds 22 1022 38 10000 2.6 100 13:58 08.08.2019
4000 Clouds 22 1022 47 10000 5.1 80 13:38 08.08.2019
4001 Clouds 22 1023 47 10000 3.6 110 13:18 08.08.2019
4002 Clouds 22 1023 47 10000 3.6 110 13:18 08.08.2019
4003 Clouds 21 1023 53 10000 5.7 90 12:40 08.08.2019
4004 Clouds 21 1024 53 10000 4.6 90 12:20 08.08.2019
4005 Clouds 20 1024 56 10000 4.1 110 11:56 08.08.2019
4006 Clouds 20 1024 56 10000 4.1 110 11:37 08.08.2019
4007 Clouds 21 1025 56 10000 3.6 120 11:18 08.08.2019
4008 Clouds 21 1024 56 10000 4.1 150 10:41 08.08.2019
4009 Clouds 21 1024 56 10000 4.1 150 10:41 08.08.2019
4010 Clouds 20 1026 60 10000 3.6 110 10:21 08.08.2019
4011 Clouds 20 1026 64 10000 3.6 130 09:45 08.08.2019
4012 Clouds 19 1026 64 10000 3.6 130 09:27 08.08.2019
4013 Clouds 19 1024 72 10000 2.14 126.11 08:56 08.08.2019
4014 Clouds 18 1024 72 10000 2.14 126.11 08:36 08.08.2019
4015 Clouds 16 1025 77 10000 1.5 0 08:18 08.08.2019
4016 Clouds 15 1025 82 10000 1.5 260 07:40 08.08.2019
4017 Clouds 14 1025 93 10000 2.6 260 07:19 08.08.2019
4018 Clouds 14 1024 93 10000 2.6 230 06:47 08.08.2019
4019 Clouds 14 1024 87 10000 2.1 190 06:23 08.08.2019
4020 Clouds 14 1024 87 10000 3.1 200 05:51 08.08.2019
4021 Clouds 14 1023 87 10000 3.1 190 04:48 08.08.2019
4022 Clouds 15 1023 82 10000 3.1 150 03:52 08.08.2019
4023 Clouds 15 1023 82 10000 1 50 02:21 08.08.2019
4024 Clouds 16 1023 82 10000 1.19 58.229 01:35 08.08.2019
4025 Clouds 16 1024 77 10000 3.1 0 00:26 08.08.2019
4026 Clouds 17 1024 77 10000 3.1 0 23:46 07.08.2019
4027 Clouds 17 1024 68 10000 3.6 180 23:19 07.08.2019
4028 Clouds 17 1024 68 10000 3.6 180 22:56 07.08.2019
4029 Clear 17 1023 77 10000 2.47 74.042 22:38 07.08.2019
4030 Clouds 16 1024 68 10000 3.1 150 22:19 07.08.2019
4031 Clouds 16 1024 68 10000 3.1 150 21:55 07.08.2019
4032 Clouds 18 1024 64 10000 3.1 150 21:36 07.08.2019
4033 Clouds 18 1024 68 10000 4.1 140 21:18 07.08.2019
4034 Clouds 18 1023 60 10000 5.1 120 20:42 07.08.2019
4035 Clouds 19 1023 60 10000 5.1 120 20:23 07.08.2019
4036 Clouds 19 1023 60 10000 5.1 120 19:57 07.08.2019
4037 Clouds 19 1022 56 10000 4.1 110 19:38 07.08.2019
4038 Clouds 20 1022 53 10000 5.7 100 19:20 07.08.2019
4039 Clouds 20 1021 46 10000 5.1 110 18:43 07.08.2019
4040 Clouds 21 1022 49 10000 6.2 110 18:21 07.08.2019
4041 Clouds 21 1022 49 10000 6.2 110 17:58 07.08.2019
4042 Clouds 21 1021 47 10000 6.2 90 17:39 07.08.2019
4043 Clouds 22 1021 47 10000 4.6 90 17:21 07.08.2019
4044 Clouds 22 1021 44 10000 4.6 70 16:57 07.08.2019
4045 Clouds 22 1021 44 10000 4.6 70 16:39 07.08.2019
4046 Clouds 22 1021 47 10000 3.6 80 16:20 07.08.2019
4047 Clouds 22 1021 47 10000 3.6 80 15:56 07.08.2019
4048 Clouds 23 1021 41 10000 7.2 120 15:37 07.08.2019
4049 Clouds 23 1022 44 10000 1.5 0 15:19 07.08.2019
4050 Clouds 23 1022 47 10000 2.6 160 14:45 07.08.2019
4051 Clouds 22 1023 47 10000 3.1 110 14:27 07.08.2019
4052 Clouds 22 1023 47 10000 3.1 110 13:54 07.08.2019
4053 Clouds 22 1023 56 10000 2.6 180 13:36 07.08.2019
4054 Clouds 22 1024 53 10000 2.6 20 13:18 07.08.2019
4055 Clouds 21 1023 60 10000 4.35 113.586 12:55 07.08.2019
4056 Clouds 21 1023 60 10000 4.35 113.586 12:36 07.08.2019
4057 Clouds 20 1024 60 10000 1.5 0 12:18 07.08.2019
4058 Clouds 20 1024 72 10000 2.6 70 11:41 07.08.2019
4059 Clouds 19 1026 68 10000 2.1 80 11:20 07.08.2019
4060 Clouds 19 1025 72 10000 3.44 114.931 10:56 07.08.2019
4061 Clouds 19 1025 72 10000 3.44 114.931 10:38 07.08.2019
4062 Clouds 18 1026 77 10000 3.1 10 10:18 07.08.2019
4063 Clouds 19 1025 77 10000 2.1 130 09:44 07.08.2019
4064 Clouds 17 1026 72 10000 2.1 150 09:22 07.08.2019
4065 Clouds 17 1025 88 10000 2.6 180 08:55 07.08.2019
4066 Clouds 17 1025 88 10000 2.6 180 08:37 07.08.2019
4067 Clouds 16 1025 77 10000 3.1 170 08:19 07.08.2019
4068 Clouds 16 1025 93 10000 0.99 119.781 07:39 07.08.2019
4069 Drizzle 16 1025 88 10000 1.5 220 07:20 07.08.2019
4070 Drizzle 15 1024 93 10000 0.99 119.781 06:29 07.08.2019
4071 Drizzle 15 1024 93 10000 1.36 101.749 05:50 07.08.2019
4072 Clouds 15 1023 93 10000 3.6 140 04:53 07.08.2019
4073 Clouds 16 1023 88 10000 2.6 50 03:21 07.08.2019
4074 Clouds 16 1023 88 10000 2.6 50 02:49 07.08.2019
4075 Clouds 16 1023 82 10000 2.6 30 01:58 07.08.2019
4076 Clouds 16 1023 82 10000 2.6 30 01:39 07.08.2019
4077 Clouds 16 1024 77 10000 3.6 40 00:51 07.08.2019
4078 Clouds 17 1024 72 10000 1.5 10 00:22 07.08.2019
4079 Clouds 17 1024 68 10000 4 89.369 23:42 06.08.2019
4080 Clouds 18 1025 64 10000 2.1 30 23:21 06.08.2019
4081 Clouds 18 1025 64 10000 2.1 30 22:57 06.08.2019
4082 Clouds 18 1024 63 10000 4 89.369 22:38 06.08.2019
4083 Clouds 18 1024 56 10000 1 0 22:19 06.08.2019
4084 Clouds 19 1023 60 10000 4 89.369 21:43 06.08.2019
4085 Clouds 19 1023 60 10000 1.85 39.396 21:25 06.08.2019
4086 Clouds 20 1024 53 10000 2.1 200 20:58 06.08.2019
4087 Clouds 20 1023 49 10000 2.27 59.075 20:40 06.08.2019
4088 Clouds 20 1022 49 10000 3.6 130 20:21 06.08.2019
4089 Clouds 20 1022 49 10000 2.27 59.075 19:43 06.08.2019
4090 Clouds 20 1022 49 10000 2.27 59.075 19:25 06.08.2019
4091 Clouds 22 1022 44 10000 6.2 100 18:54 06.08.2019
4092 Clouds 22 1021 44 10000 6.7 60 18:36 06.08.2019
4093 Clouds 23 1021 34 10000 5.7 110 18:18 06.08.2019
4094 Clouds 23 1020 34 10000 6.7 110 17:54 06.08.2019
4095 Clouds 23 1020 34 10000 6.7 110 17:36 06.08.2019
4096 Clouds 24 1021 30 10000 7.2 130 17:18 06.08.2019
4097 Clouds 24 1021 30 10000 7.2 130 17:18 06.08.2019
4098 Clouds 24 1020 30 10000 4.1 120 16:41 06.08.2019
4099 Clouds 24 1021 32 10000 4.1 130 16:21 06.08.2019
4100 Clouds 25 1021 32 10000 4.1 130 15:57 06.08.2019
4101 Clouds 25 1020 34 10000 4.1 90 15:38 06.08.2019
4102 Clouds 25 1022 37 10000 3.1 10 15:19 06.08.2019
4103 Clouds 25 1021 34 10000 3.6 240 14:44 06.08.2019
4104 Clouds 24 1022 36 10000 1.5 0 14:25 06.08.2019
4105 Clouds 25 1022 39 10000 5.1 90 13:58 06.08.2019
4106 Clouds 24 1022 39 10000 5.1 90 13:39 06.08.2019
4107 Clouds 24 1023 39 10000 2.6 150 13:20 06.08.2019
4108 Clouds 24 1023 39 10000 2.6 150 12:57 06.08.2019
4109 Clouds 24 1023 33 10000 3.33 168.195 12:39 06.08.2019
4110 Clouds 23 1024 44 10000 2.6 0 12:21 06.08.2019
4111 Clouds 23 1024 44 10000 3.1 197.209 11:41 06.08.2019
4112 Clouds 22 1025 44 10000 2.6 50 11:19 06.08.2019
4113 Clouds 22 1025 53 10000 3.1 197.209 10:42 06.08.2019
4114 Clouds 22 1025 53 10000 3.1 197.209 10:42 06.08.2019
4115 Clouds 22 1025 53 10000 3.1 197.209 10:42 06.08.2019
4116 Clouds 20 1026 53 10000 2.1 40 10:23 06.08.2019
4117 Clouds 20 1026 53 10000 2.1 40 09:58 06.08.2019
4118 Clouds 19 1025 60 10000 4.1 350 09:38 06.08.2019
4119 Clouds 19 1026 60 10000 2.6 330 09:19 06.08.2019
4120 Clear 17 1025 68 10000 1.17 177.939 08:42 06.08.2019
4121 Clouds 16 1026 67 10000 2.1 330 08:24 06.08.2019
4122 Clear 16 1025 77 10000 1.17 177.939 07:40 06.08.2019
4123 Clear 13 1025 87 10000 1.5 230 07:22 06.08.2019
4124 Clear 11 1025 87 10000 1 210 06:43 06.08.2019
4125 Clear 11 1025 87 10000 1 240 05:55 06.08.2019
4126 Clear 11 1024 87 10000 3.1 230 04:32 06.08.2019
4127 Clear 14 1024 72 10000 2.1 340 01:55 06.08.2019
4128 Clear 13 1024 72 10000 2.1 340 01:24 06.08.2019
4129 Clear 14 1024 77 10000 1.5 330 00:37 06.08.2019
4130 Clear 15 1024 72 10000 1.5 350 23:47 05.08.2019
4131 Clear 16 1024 67 10000 1.5 350 23:19 05.08.2019
4132 Clear 16 1024 67 0 2.56 80.276 22:41 05.08.2019
4133 Clear 17 1024 77 10000 2.56 80.276 22:23 05.08.2019
4134 Clear 16 1024 77 10000 2.56 80.276 21:55 05.08.2019
4135 Clear 16 1023 59 0 2.56 80.276 21:36 05.08.2019
4136 Clouds 17 1024 68 10000 1 0 21:18 05.08.2019
4137 Clouds 17 1024 68 10000 1 0 20:55 05.08.2019
4138 Clouds 18 1023 56 10000 2.6 70 20:37 05.08.2019
4139 Clouds 19 1023 56 10000 3.6 90 20:18 05.08.2019
4140 Clouds 19 1022 52 10000 3.6 80 19:43 05.08.2019
4141 Clouds 19 1022 52 10000 4.6 90 19:23 05.08.2019
4142 Clouds 20 1022 52 10000 4.6 90 18:57 05.08.2019
4143 Clouds 20 1021 49 10000 6.7 90 18:39 05.08.2019
4144 Clouds 21 1022 49 10000 5.1 120 18:18 05.08.2019
4145 Clouds 22 1021 41 10000 5.1 80 17:42 05.08.2019
4146 Clouds 22 1021 41 10000 5.1 80 17:24 05.08.2019
4147 Clouds 24 1020 28 10000 8.2 80 16:46 05.08.2019
4148 Clouds 25 1021 32 10000 5.7 80 16:26 05.08.2019
4149 Clouds 25 1021 32 10000 5.7 80 15:56 05.08.2019
4150 Clouds 25 1020 30 10000 5.1 150 15:37 05.08.2019
4151 Clouds 25 1022 28 10000 3.1 110 15:18 05.08.2019
4152 Clouds 25 1021 30 10000 4.1 90 14:39 05.08.2019
4153 Clouds 25 1022 28 10000 3.1 130 14:19 05.08.2019
4154 Clouds 25 1022 34 10000 2.6 160 13:44 05.08.2019
4155 Clouds 25 1023 31 10000 4.1 160 13:22 05.08.2019
4156 Clouds 24 1023 36 10000 5.1 110 12:48 05.08.2019
4157 Clouds 23 1024 33 10000 4.1 160 12:20 05.08.2019
4158 Clouds 23 1024 38 10000 2.6 160 11:47 05.08.2019
4159 Clouds 22 1024 38 10000 2.6 160 11:28 05.08.2019
4160 Clear 21 1024 56 10000 2.6 270 10:59 05.08.2019
4161 Clear 21 1024 56 10000 2.6 270 10:41 05.08.2019
4162 Clouds 19 1026 60 10000 1.5 0 10:21 05.08.2019
4163 Clear 19 1026 63 10000 1.5 70 09:43 05.08.2019
4164 Clear 18 1026 68 10000 1.5 60 09:24 05.08.2019
4165 Clear 17 1026 72 10000 1 0 08:51 05.08.2019
4166 Clear 16 1026 72 10000 1 0 08:28 05.08.2019
4167 Clear 16 1026 77 10000 1 0 07:59 05.08.2019
4168 Clear 14 1025 87 10000 1.5 240 07:41 05.08.2019
4169 Clouds 12 1025 87 10000 1.5 220 07:20 05.08.2019
4170 Clouds 11 1024 87 10000 1.5 230 06:30 05.08.2019
4171 Clouds 11 1024 81 10000 1.68 69.871 05:51 05.08.2019
4172 Clouds 10 1024 87 10000 1.5 220 05:19 05.08.2019
4173 Clear 12 1024 93 10000 2.1 220 04:24 05.08.2019
4174 Clear 12 1023 82 10000 1.68 69.871 03:30 05.08.2019
4175 Clear 13 1023 82 10000 2.36 72.772 02:35 05.08.2019
4176 Clear 13 1024 76 10000 2.1 350 01:34 05.08.2019
4177 Clear 13 1025 77 10000 1.5 280 00:42 05.08.2019
4178 Clear 13 1025 72 10000 1.5 290 00:21 05.08.2019
4179 Clear 13 1025 72 10000 1.5 290 23:57 04.08.2019
4180 Clear 14 1025 67 10000 2.6 320 23:39 04.08.2019
4181 Clear 15 1025 63 10000 1.5 270 23:19 04.08.2019
4182 Clear 15 1025 63 10000 1.5 270 22:54 04.08.2019
4183 Clear 15 1024 72 0 2.73 70.456 22:54 04.08.2019
4184 Clear 15 1024 72 0 2.73 70.456 22:36 04.08.2019
4185 Clear 16 1024 63 10000 1 0 22:18 04.08.2019
4186 Clear 16 1023 63 0 2.73 70.456 21:42 04.08.2019
4187 Clouds 17 1024 52 10000 3.6 110 21:20 04.08.2019
4188 Clouds 17 1023 59 10000 2.44 75.492 20:45 04.08.2019
4189 Clouds 18 1023 49 10000 3.1 90 20:21 04.08.2019
4190 Clouds 18 1023 49 10000 3.1 90 19:58 04.08.2019
4191 Clouds 19 1022 55 10000 2.6 120 19:38 04.08.2019
4192 Clouds 20 1023 43 10000 3.6 140 19:20 04.08.2019
4193 Clouds 19 1022 40 10000 3.6 150 18:42 04.08.2019
4194 Clouds 21 1022 36 10000 4.1 170 18:21 04.08.2019
4195 Clouds 22 1021 33 10000 4.1 140 17:45 04.08.2019
4196 Clouds 22 1021 33 10000 4.1 140 17:26 04.08.2019
4197 Clouds 23 1022 33 10000 4.6 150 16:59 04.08.2019
4198 Clouds 23 1021 31 10000 6.7 110 16:40 04.08.2019
4199 Clouds 24 1022 29 10000 2.6 150 16:20 04.08.2019
4200 Clouds 23 1021 29 10000 6.2 180 15:44 04.08.2019
4201 Clouds 24 1022 27 10000 4.1 140 15:23 04.08.2019
4202 Clouds 24 1022 26 10000 5.35 129.674 14:45 04.08.2019
4203 Clouds 24 1022 26 10000 5.35 129.674 14:27 04.08.2019
4204 Clouds 24 1023 29 10000 3.6 170 13:56 04.08.2019
4205 Clouds 24 1023 29 10000 3.6 170 13:38 04.08.2019
4206 Clouds 22 1023 31 10000 4.6 140 13:20 04.08.2019
4207 Clouds 22 1024 33 10000 2.6 180 12:44 04.08.2019
4208 Clouds 22 1024 33 10000 2.6 180 12:25 04.08.2019
4209 Clouds 20 1025 46 10000 2.6 220 11:56 04.08.2019
4210 Clouds 20 1025 46 10000 2.6 220 11:37 04.08.2019
4211 Clouds 19 1026 52 10000 3.1 120 11:18 04.08.2019
4212 Clouds 19 1026 59 10000 1.5 150 10:40 04.08.2019
4213 Clouds 18 1027 63 10000 2.1 220 10:19 04.08.2019
4214 Clouds 18 1026 77 10000 3.26 172.312 09:43 04.08.2019
4215 Clouds 16 1027 82 10000 1.5 130 09:22 04.08.2019
4216 Clouds 15 1026 93 5000 1.44 140.711 08:43 04.08.2019
4217 Clouds 14 1026 93 5000 1.44 140.711 08:25 04.08.2019
4218 Fog 13 1025 93 2000 1.44 140.711 07:51 04.08.2019
4219 Mist 11 1024 93 10000 1.44 140.711 06:51 04.08.2019
4220 Clouds 11 1025 93 10000 1 0 06:28 04.08.2019
4221 Clear 11 1024 93 10000 2.1 10 03:46 04.08.2019
4222 Clouds 13 1024 93 10000 2.6 30 02:24 04.08.2019
4223 Clouds 13 1024 87 10000 2.6 350 01:33 04.08.2019
4224 Clouds 13 1024 87 10000 2.6 350 01:33 04.08.2019
4225 Clouds 13 1025 87 10000 1.5 270 00:59 04.08.2019
4226 Clear 13 1025 87 10000 3.1 270 00:40 04.08.2019
4227 Clear 14 1025 87 10000 3.1 270 00:18 04.08.2019
4228 Clouds 14 1024 87 10000 1.98 67.327 23:39 03.08.2019
4229 Clear 14 1025 87 10000 2.6 280 23:18 03.08.2019
4230 Clouds 14 1024 87 10000 1.98 67.327 22:44 03.08.2019
4231 Clear 15 1025 72 10000 1.5 0 22:20 03.08.2019
4232 Clouds 15 1024 87 10000 1.98 67.327 21:41 03.08.2019
4233 Clear 16 1025 68 10000 2.6 120 21:22 03.08.2019
4234 Clear 16 1025 68 10000 2.6 120 20:58 03.08.2019
4235 Clouds 16 1024 87 10000 4.77 80.921 20:40 03.08.2019
4236 Clouds 17 1023 72 10000 3.6 120 20:20 03.08.2019
4237 Clouds 17 1023 72 10000 3.6 120 19:41 03.08.2019
4238 Clouds 17 1023 72 10000 3.6 120 19:23 03.08.2019
4239 Clouds 19 1022 56 10000 3.6 120 18:50 03.08.2019
4240 Clouds 19 1022 56 10000 3.6 120 18:27 03.08.2019
4241 Clouds 20 1021 49 10000 5.1 130 17:49 03.08.2019
4242 Clouds 22 1022 44 10000 5.7 120 17:21 03.08.2019
4243 Clouds 22 1021 41 10000 7.2 120 16:56 03.08.2019
4244 Clouds 22 1021 41 10000 7.2 120 16:37 03.08.2019
4245 Clouds 22 1022 41 10000 5.7 140 16:19 03.08.2019
4246 Clouds 22 1022 41 10000 3.6 110 15:43 03.08.2019
4247 Clouds 22 1023 41 10000 4.1 120 15:22 03.08.2019
4248 Clouds 22 1022 38 10000 3.6 100 14:40 03.08.2019
4249 Clouds 22 1023 33 10000 4.1 90 14:21 03.08.2019
4250 Clouds 22 1023 33 10000 4.1 90 14:21 03.08.2019
4251 Clouds 22 1023 40 10000 3.6 30 13:51 03.08.2019
4252 Clouds 24 1023 40 10000 3.6 30 13:24 03.08.2019
4253 Clouds 22 1024 43 10000 1.5 0 12:57 03.08.2019
4254 Clouds 21 1024 43 10000 5.1 90 12:38 03.08.2019
4255 Clouds 21 1025 43 10000 2.1 0 12:20 03.08.2019
4256 Clouds 20 1024 52 10000 7.7 110 11:47 03.08.2019
4257 Clouds 20 1024 52 10000 7.7 110 11:25 03.08.2019
4258 Clouds 20 1025 68 10000 4.1 110 10:40 03.08.2019
4259 Clouds 20 1025 68 10000 4.1 110 10:22 03.08.2019
4260 Clouds 17 1025 87 10000 3.6 190 09:40 03.08.2019
4261 Clouds 16 1026 82 10000 3.1 190 09:21 03.08.2019
4262 Clouds 15 1025 87 10000 4.1 150 08:46 03.08.2019
4263 Clouds 15 1026 93 10000 5.1 180 07:49 03.08.2019
4264 Rain 14 1026 93 10000 5.1 180 07:30 03.08.2019
4265 Rain 14 1024 100 10000 3.6 80 06:23 03.08.2019
4266 Clouds 14 1023 87 10000 3.1 80 03:58 03.08.2019
4267 Clouds 15 1023 87 10000 1.75 78.838 02:36 03.08.2019
4268 Clouds 16 1023 82 10000 2.51 90.548 01:36 03.08.2019
4269 Clouds 15 1024 88 10000 2.6 80 00:38 03.08.2019
4270 Clouds 15 1024 93 10000 2.6 80 23:58 02.08.2019
4271 Clouds 15 1024 88 10000 2.1 90 23:40 02.08.2019
4272 Clouds 16 1024 88 10000 2.1 50 23:18 02.08.2019
4273 Clouds 16 1024 88 10000 2.1 50 22:56 02.08.2019
4274 Clouds 16 1024 88 10000 1.31 74.476 22:38 02.08.2019
4275 Clear 16 1024 82 10000 1.5 50 22:18 02.08.2019
4276 Clouds 16 1023 77 10000 1.31 74.476 21:42 02.08.2019
4277 Clouds 16 1023 77 10000 4.63 88.651 21:22 02.08.2019
4278 Clouds 17 1023 77 10000 4.64 88.482 20:46 02.08.2019
4279 Clouds 17 1023 77 10000 4.64 88.482 20:28 02.08.2019
4280 Clear 17 1023 68 10000 3.6 130 19:56 02.08.2019
4281 Clouds 18 1022 72 10000 3.1 90 19:35 02.08.2019
4282 Clouds 18 1022 72 10000 3.6 100 18:57 02.08.2019
4283 Clouds 18 1022 72 10000 3.6 100 18:39 02.08.2019
4284 Clouds 19 1022 53 10000 5.1 110 18:20 02.08.2019
4285 Clouds 20 1021 64 10000 2.6 110 17:42 02.08.2019
4286 Clouds 20 1021 64 10000 2.6 110 17:24 02.08.2019
4287 Clouds 20 1022 49 10000 5.1 130 16:56 02.08.2019
4288 Clouds 21 1021 68 10000 4.65 104.162 16:37 02.08.2019
4289 Clouds 20 1022 49 10000 2.6 90 16:18 02.08.2019
4290 Clouds 22 1022 44 10000 5.1 130 15:38 02.08.2019
4291 Clouds 22 1022 49 10000 3.1 200 15:19 02.08.2019
4292 Clouds 21 1023 53 10000 3.6 30 14:45 02.08.2019
4293 Clouds 21 1023 53 10000 3.6 30 14:45 02.08.2019
4294 Clouds 21 1023 53 10000 3.1 90 14:18 02.08.2019
4295 Clouds 21 1023 53 10000 3.1 90 14:18 02.08.2019
4296 Clouds 23 1023 56 10000 5.1 60 13:47 02.08.2019
4297 Clouds 21 1024 56 10000 3.1 70 13:23 02.08.2019
4298 Clouds 20 1024 60 10000 4.1 80 12:44 02.08.2019
4299 Clouds 20 1025 60 10000 3.1 120 12:21 02.08.2019
4300 Clouds 19 1025 64 10000 4.1 110 11:51 02.08.2019
4301 Clouds 19 1025 64 10000 4.1 110 11:32 02.08.2019
4302 Clouds 19 1026 64 10000 3.1 50 10:55 02.08.2019
4303 Clouds 20 1025 63 10000 3.1 60 10:37 02.08.2019
4304 Clouds 19 1026 64 10000 2.1 0 10:19 02.08.2019
4305 Clouds 18 1025 68 10000 5.42 119.324 09:51 02.08.2019
4306 Clouds 18 1025 68 10000 2.13 89.597 09:25 02.08.2019
4307 Clouds 16 1025 77 0 1.93 88.013 08:47 02.08.2019
4308 Clouds 15 1025 87 10000 1.93 88.013 08:21 02.08.2019
4309 Clouds 14 1024 87 10000 1.93 88.013 07:49 02.08.2019
4310 Clouds 14 1024 87 10000 1.93 88.013 07:31 02.08.2019
4311 Clouds 12 1023 93 10000 1.93 88.013 06:44 02.08.2019
4312 Clouds 11 1023 93 10000 1.49 83.596 05:52 02.08.2019
4313 Clouds 13 1023 87 10000 1.49 83.596 05:21 02.08.2019
4314 Clear 13 1024 82 10000 2.1 60 03:27 02.08.2019
4315 Clear 13 1024 82 10000 2.1 60 02:33 02.08.2019
4316 Clouds 15 1024 77 10000 2.1 40 00:38 02.08.2019
4317 Clouds 16 1024 77 10000 3.1 40 23:46 01.08.2019
4318 Clouds 16 1024 82 10000 3.6 40 23:28 01.08.2019
4319 Clouds 16 1023 68 0 1.5 50 22:59 01.08.2019
4320 Clouds 16 1023 68 0 1.5 50 22:39 01.08.2019
4321 Clouds 16 1024 77 10000 2.1 40 22:20 01.08.2019
4322 Clouds 17 1023 63 0 2.6 80 21:43 01.08.2019
4323 Clouds 17 1023 63 0 2.6 80 21:24 01.08.2019
4324 Clouds 17 1024 63 10000 4.6 90 20:55 01.08.2019
4325 Clear 18 1022 63 10000 4.6 90 20:37 01.08.2019
4326 Clouds 19 1022 60 10000 5.1 90 20:19 01.08.2019
4327 Clouds 19 1021 60 10000 4.6 90 19:41 01.08.2019
4328 Clouds 20 1021 53 10000 5.7 90 19:19 01.08.2019
4329 Clouds 20 1021 46 10000 4.6 90 18:44 01.08.2019
4330 Clouds 21 1021 41 10000 7.2 90 18:24 01.08.2019
4331 Clouds 21 1020 43 10000 8.7 80 17:55 01.08.2019
4332 Clouds 21 1020 43 10000 8.7 80 17:36 01.08.2019
4333 Clouds 21 1020 41 10000 7.7 90 17:18 01.08.2019
4334 Clouds 23 1020 44 10000 6.2 80 16:44 01.08.2019
4335 Clouds 23 1020 44 10000 4.1 90 16:21 01.08.2019
4336 Clouds 23 1020 47 10000 6.2 90 15:41 01.08.2019
4337 Clouds 23 1021 44 10000 3.6 110 15:20 01.08.2019
4338 Clouds 22 1021 44 10000 2.6 0 14:43 01.08.2019
4339 Clouds 23 1022 44 10000 3.1 0 14:20 01.08.2019
4340 Clouds 23 1022 44 10000 3.1 0 13:58 01.08.2019
4341 Clouds 23 1022 50 10000 5.1 120 13:40 01.08.2019
4342 Clouds 23 1022 50 10000 2.6 80 13:21 01.08.2019
4343 Clouds 22 1023 50 10000 5.1 70 12:49 01.08.2019
4344 Clouds 21 1024 56 10000 1.5 0 12:28 01.08.2019
4345 Clouds 21 1023 56 10000 3.6 40 11:55 01.08.2019
4346 Clouds 21 1023 56 10000 3.6 40 11:36 01.08.2019
4347 Clouds 20 1024 60 10000 2.6 130 11:18 01.08.2019
4348 Clouds 20 1024 64 10000 2.54 202.604 10:41 01.08.2019
4349 Clouds 20 1024 64 10000 2.54 202.604 10:41 01.08.2019
4350 Clouds 20 1025 64 10000 2.6 140 10:22 01.08.2019
4351 Clouds 18 1025 68 10000 2.1 140 09:48 01.08.2019
4352 Clouds 17 1025 68 10000 2.1 140 09:23 01.08.2019
4353 Clouds 15 1025 77 10000 1 0 08:50 01.08.2019
4354 Clouds 16 1025 77 10000 1.5 200 08:21 01.08.2019
4355 Clouds 15 1023 93 10000 0.19 40.409 07:55 01.08.2019
4356 Clouds 15 1023 93 10000 0.19 40.409 07:29 01.08.2019
4357 Clouds 15 1024 93 10000 1 270 06:58 01.08.2019
4358 Clouds 15 1023 93 10000 0.19 40.409 06:36 01.08.2019
4359 Clouds 15 1022 93 10000 0.84 67.17 05:32 01.08.2019
4360 Clouds 14 1023 88 10000 0.5 0 02:36 01.08.2019
4361 Clouds 14 1023 88 10000 1.5 300 01:33 01.08.2019
4362 Clouds 15 1024 82 10000 1.5 20 00:27 01.08.2019
4363 Clouds 15 1023 88 10000 1.29 175.359 23:59 31.07.2019
4364 Clouds 15 1023 88 10000 1.29 175.359 23:41 31.07.2019
4365 Clouds 16 1024 82 10000 3.1 60 23:20 31.07.2019
4366 Clouds 16 1023 88 10000 1.29 175.359 22:45 31.07.2019
4367 Clouds 16 1023 88 10000 1.29 175.359 22:27 31.07.2019
4368 Clouds 16 1023 88 10000 1.29 175.359 22:27 31.07.2019
4369 Clouds 15 1024 82 10000 2.1 80 21:45 31.07.2019
4370 Rain 16 1023 82 10000 1 0 21:23 31.07.2019
4371 Rain 15 1022 93 10000 3 95.276 20:51 31.07.2019
4372 Rain 15 1022 93 10000 3 95.276 20:25 31.07.2019
4373 Rain 15 1022 93 10000 3.1 260 19:58 31.07.2019
4374 Rain 15 1021 93 10000 3 95.276 19:39 31.07.2019
4375 Rain 16 1022 88 10000 3.6 210 19:20 31.07.2019
4376 Rain 16 1021 88 10000 3 95.276 18:41 31.07.2019
4377 Rain 16 1022 93 10000 2.6 140 18:22 31.07.2019
4378 Rain 17 1020 77 10000 3.6 120 17:55 31.07.2019
4379 Rain 17 1020 77 10000 3.6 120 17:37 31.07.2019
4380 Rain 18 1021 88 10000 6.2 140 17:18 31.07.2019
4381 Clouds 19 1020 60 10000 5.7 130 16:41 31.07.2019
4382 Haze 21 1020 56 10000 6.2 150 16:19 31.07.2019
4383 Haze 21 1019 53 10000 2.6 70 15:44 31.07.2019
4384 Haze 21 1019 53 10000 2.6 70 15:24 31.07.2019
4385 Clouds 21 1020 56 10000 3.22 154.981 14:42 31.07.2019
4386 Clouds 21 1021 53 10000 1 0 14:21 31.07.2019
4387 Clouds 20 1021 56 10000 3.22 154.981 13:57 31.07.2019
4388 Clouds 20 1021 56 10000 3.22 154.981 13:38 31.07.2019
4389 Clouds 20 1022 56 10000 2.1 330 13:19 31.07.2019
4390 Clouds 20 1022 56 10000 2.6 60 12:44 31.07.2019
4391 Clouds 21 1023 60 10000 1.5 0 12:26 31.07.2019
4392 Clouds 21 1023 68 10000 2.2 161.047 11:54 31.07.2019
4393 Clouds 21 1023 68 10000 2.2 161.047 11:36 31.07.2019
4394 Rain 22 1017 62 0 2.2 161.047 11:18 31.07.2019
4395 Rain 22 1017 62 0 2.2 161.047 10:40 31.07.2019
4396 Clouds 17 1024 68 10000 2.6 220 10:20 31.07.2019
4397 Rain 19 1024 68 10000 3.6 210 09:43 31.07.2019
4398 Clouds 16 1024 72 10000 3.1 180 09:24 31.07.2019
4399 Clouds 16 1024 77 10000 2.1 230 08:44 31.07.2019
4400 Clouds 15 1024 77 10000 2.1 230 08:25 31.07.2019
4401 Clouds 15 1023 77 10000 1 0 07:56 31.07.2019
4402 Clouds 15 1023 77 10000 1 0 07:56 31.07.2019
4403 Clouds 17 1023 82 10000 1 10 07:33 31.07.2019
4404 Clouds 14 1022 77 10000 2.1 40 05:54 31.07.2019
4405 Clouds 14 1021 77 10000 2.1 60 04:41 31.07.2019
4406 Clouds 15 1022 72 10000 2.1 0 00:57 31.07.2019
4407 Clouds 15 1022 77 10000 2.6 220 23:56 30.07.2019
4408 Clouds 15 1023 77 10000 2.1 270 23:38 30.07.2019
4409 Clouds 15 1023 72 10000 1.5 240 23:18 30.07.2019
4410 Clouds 15 1023 72 10000 1.5 170 22:42 30.07.2019
4411 Clouds 15 1023 68 10000 2.6 50 22:22 30.07.2019
4412 Clouds 15 1023 68 10000 3.1 50 21:38 30.07.2019
4413 Clouds 15 1022 68 10000 4.6 70 21:20 30.07.2019
4414 Clouds 14 1022 68 10000 4.6 70 20:57 30.07.2019
4415 Clouds 15 1022 63 10000 4.6 80 20:39 30.07.2019
4416 Clouds 16 1022 72 10000 3.1 40 20:19 30.07.2019
4417 Clouds 17 1021 72 10000 4.1 30 19:49 30.07.2019
4418 Clouds 16 1021 64 10000 4.6 70 19:29 30.07.2019
4419 Clouds 17 1020 64 10000 4.1 70 18:48 30.07.2019
4420 Clouds 18 1020 64 10000 4.1 70 18:27 30.07.2019
4421 Clouds 18 1020 64 10000 4.1 60 17:59 30.07.2019
4422 Clouds 18 1020 64 10000 3.6 20 17:40 30.07.2019
4423 Clouds 18 1020 60 10000 4.1 30 17:18 30.07.2019
4424 Clouds 19 1019 60 10000 3.6 40 16:46 30.07.2019
4425 Clouds 19 1020 60 10000 2.6 20 16:19 30.07.2019
4426 Clouds 18 1020 60 10000 3.6 50 15:44 30.07.2019
4427 Clouds 19 1020 60 10000 3.6 50 15:22 30.07.2019
4428 Clouds 18 1020 60 10000 3.1 40 14:46 30.07.2019
4429 Clouds 19 1020 60 10000 3.1 40 14:27 30.07.2019
4430 Clouds 19 1021 60 10000 2.1 60 13:59 30.07.2019
4431 Clouds 19 1021 64 9000 4.1 60 13:39 30.07.2019
4432 Clouds 19 1022 64 10000 1.5 100 13:20 30.07.2019
4433 Clouds 19 1022 56 9000 4.1 60 12:46 30.07.2019
4434 Clouds 19 1022 56 9000 4.1 60 12:28 30.07.2019
4435 Clouds 17 1023 68 10000 1.5 70 11:56 30.07.2019
4436 Clouds 17 1023 72 10000 1 0 11:37 30.07.2019
4437 Clouds 17 1023 68 10000 2.6 90 11:18 30.07.2019
4438 Clouds 17 1023 77 6000 2.77 223.096 10:39 30.07.2019
4439 Fog 16 1024 77 10000 1.5 360 10:20 30.07.2019
4440 Clouds 17 1024 77 10000 1.5 360 09:48 30.07.2019
4441 Fog 15 1024 77 10000 1.5 360 09:29 30.07.2019
4442 Clouds 14 1024 82 10000 2.1 360 08:43 30.07.2019
4443 Clouds 14 1023 82 10000 1.5 360 08:20 30.07.2019
4444 Clouds 15 1023 82 10000 2.1 20 07:46 30.07.2019
4445 Clouds 14 1023 82 10000 1.5 30 07:25 30.07.2019
4446 Clouds 14 1022 87 10000 1.5 60 06:46 30.07.2019
4447 Clouds 13 1021 82 10000 2.6 90 05:52 30.07.2019
4448 Clouds 13 1021 82 10000 2.6 90 05:32 30.07.2019
4449 Clouds 15 1021 87 10000 2.1 10 01:38 30.07.2019
4450 Clouds 15 1021 82 10000 1.58 63.744 00:40 30.07.2019
4451 Clouds 15 1021 82 10000 2.46 82.473 00:20 30.07.2019
4452 Clouds 15 1021 82 10000 2.46 82.473 23:44 29.07.2019
4453 Clouds 16 1022 77 10000 2.6 360 23:25 29.07.2019
4454 Clouds 16 1022 77 10000 2.6 360 22:57 29.07.2019
4455 Clouds 16 1022 82 10000 2.6 360 22:38 29.07.2019
4456 Clouds 16 1022 82 10000 2.6 360 22:38 29.07.2019
4457 Clouds 15 1023 82 10000 3.6 20 22:19 29.07.2019
4458 Clouds 15 1023 82 10000 3.6 20 21:55 29.07.2019
4459 Clouds 16 1022 82 10000 3.1 40 21:37 29.07.2019
4460 Clouds 17 1022 77 10000 5.7 10 21:18 29.07.2019
4461 Clouds 17 1021 68 10000 3.1 50 20:43 29.07.2019
4462 Clouds 17 1021 68 10000 3.1 50 20:22 29.07.2019
4463 Clouds 18 1022 68 10000 5.1 30 19:54 29.07.2019
4464 Clouds 18 1020 68 10000 5.1 20 19:36 29.07.2019
4465 Clouds 17 1021 68 10000 4.6 20 19:18 29.07.2019
4466 Clouds 17 1021 68 10000 4.6 20 19:18 29.07.2019
4467 Clouds 17 1021 64 10000 5.1 60 18:41 29.07.2019
4468 Clouds 18 1020 49 10000 5.1 60 18:21 29.07.2019
4469 Clouds 18 1020 49 10000 5.7 60 17:49 29.07.2019
4470 Clouds 20 1020 49 10000 5.7 60 17:31 29.07.2019
4471 Clouds 20 1020 46 10000 5.7 80 16:57 29.07.2019
4472 Clouds 20 1019 53 10000 5.1 90 16:57 29.07.2019
4473 Clouds 20 1019 53 10000 5.1 90 16:39 29.07.2019
4474 Clouds 21 1020 46 10000 7.2 80 16:20 29.07.2019
4475 Clouds 21 1019 46 10000 5.1 80 15:50 29.07.2019
4476 Clouds 21 1019 46 10000 5.1 80 15:30 29.07.2019
4477 Clouds 20 1019 44 10000 3.1 80 14:45 29.07.2019
4478 Clouds 22 1020 38 10000 2.6 120 14:21 29.07.2019
4479 Clouds 22 1020 41 10000 2.6 140 13:57 29.07.2019
4480 Clouds 22 1020 41 10000 2.6 140 13:36 29.07.2019
4481 Clouds 22 1021 44 10000 3.1 0 13:18 29.07.2019
4482 Clouds 22 1021 44 10000 3.1 110 12:41 29.07.2019
4483 Clouds 21 1022 46 10000 3.6 110 12:21 29.07.2019
4484 Clouds 21 1021 49 10000 5.1 150 11:42 29.07.2019
4485 Clouds 20 1023 53 10000 2.1 0 11:21 29.07.2019
4486 Clouds 20 1023 60 10000 3.35 215.269 10:45 29.07.2019
4487 Clouds 19 1024 60 10000 2.6 130 10:23 29.07.2019
4488 Clouds 19 1023 68 10000 3.35 215.269 09:45 29.07.2019
4489 Clouds 17 1023 68 10000 1.25 233.462 09:25 29.07.2019
4490 Clouds 16 1023 68 10000 3.1 200 08:56 29.07.2019
4491 Clouds 15 1023 77 10000 3.6 220 08:27 29.07.2019
4492 Clouds 15 1022 87 10000 2.2 221.499 07:55 29.07.2019
4493 Clouds 15 1022 87 10000 2.2 221.499 07:32 29.07.2019
4494 Clouds 13 1021 87 10000 2.2 221.499 06:44 29.07.2019
4495 Clouds 13 1021 87 10000 1.71 71.173 05:39 29.07.2019
4496 Clouds 13 1021 76 10000 2.6 220 04:35 29.07.2019
4497 Clouds 15 1021 67 10000 2.6 160 01:55 29.07.2019
4498 Clouds 15 1021 63 10000 2.6 150 01:37 29.07.2019
4499 Clouds 15 1021 59 10000 2.1 100 00:59 29.07.2019
4500 Clouds 16 1022 59 10000 3.1 110 00:38 29.07.2019
4501 Clouds 16 1022 59 10000 3.6 80 00:18 29.07.2019
4502 Clouds 16 1020 72 10000 2.09 76.748 23:38 28.07.2019
4503 Clouds 17 1022 55 10000 4.1 60 23:18 28.07.2019
4504 Clouds 17 1021 68 10000 2.09 76.748 22:37 28.07.2019
4505 Clouds 17 1022 55 10000 3.6 50 22:18 28.07.2019
4506 Clouds 17 1021 63 10000 2.09 76.748 21:43 28.07.2019
4507 Clouds 18 1022 56 10000 2.6 40 21:18 28.07.2019
4508 Clouds 17 1020 63 10000 1.62 65.161 20:44 28.07.2019
4509 Clouds 17 1020 63 10000 1.62 65.161 20:26 28.07.2019
4510 Clouds 18 1020 60 10000 3.1 70 19:42 28.07.2019
4511 Clouds 18 1020 60 10000 3.1 70 19:42 28.07.2019
4512 Clouds 19 1021 49 10000 5.1 80 19:22 28.07.2019
4513 Clouds 19 1020 56 10000 4.1 90 18:51 28.07.2019
4514 Clouds 20 1020 49 10000 5.7 90 18:30 28.07.2019
4515 Clouds 20 1020 49 10000 5.7 90 17:58 28.07.2019
4516 Clouds 20 1019 49 10000 3.6 60 17:40 28.07.2019
4517 Clouds 21 1019 43 10000 6.2 90 17:20 28.07.2019
4518 Clouds 21 1018 46 10000 2.1 90 16:47 28.07.2019
4519 Clouds 22 1018 38 10000 2.1 0 16:28 28.07.2019
4520 Clouds 22 1018 38 10000 2.1 0 15:57 28.07.2019
4521 Clouds 22 1018 38 10000 2.1 0 15:57 28.07.2019
4522 Clouds 22 1018 41 10000 1.9 165.766 15:39 28.07.2019
4523 Clouds 22 1019 44 10000 2.84 222.463 15:21 28.07.2019
4524 Clouds 22 1019 44 10000 2.84 222.463 14:37 28.07.2019
4525 Clouds 22 1019 44 10000 1.5 140 14:18 28.07.2019
4526 Clouds 21 1020 41 10000 2.6 310 13:42 28.07.2019
4527 Clouds 21 1021 43 10000 3.6 190 13:22 28.07.2019
4528 Clouds 21 1021 43 10000 3.6 190 12:59 28.07.2019
4529 Clouds 20 1021 46 10000 3.1 0 12:40 28.07.2019
4530 Clouds 20 1022 49 10000 2.1 0 12:22 28.07.2019
4531 Clouds 18 1022 56 10000 1 0 11:46 28.07.2019
4532 Clouds 18 1022 56 10000 1 0 11:27 28.07.2019
4533 Clouds 17 1023 55 10000 2.6 170 10:40 28.07.2019
4534 Clouds 17 1023 72 10000 2.8 216.083 10:21 28.07.2019
4535 Clouds 16 1023 72 10000 2.8 216.083 09:41 28.07.2019
4536 Clouds 15 1024 72 10000 2.1 0 09:23 28.07.2019
4537 Clouds 14 1023 87 10000 2.38 271.661 08:51 28.07.2019
4538 Clouds 13 1023 82 10000 1 0 08:28 28.07.2019
4539 Clouds 13 1022 93 10000 2.38 271.661 07:53 28.07.2019
4540 Clouds 13 1022 93 10000 2.38 271.661 07:35 28.07.2019
4541 Clouds 12 1022 87 10000 2.38 271.661 06:42 28.07.2019
4542 Clouds 11 1021 87 10000 0.66 85.921 05:27 28.07.2019
4543 Clear 13 1020 77 10000 0.66 85.921 03:30 28.07.2019
4544 Clear 14 1020 77 10000 1.52 74.92 02:24 28.07.2019
4545 Clouds 13 1012 81 0 1.54 93.347 01:19 28.07.2019
4546 Clouds 13 1012 80 0 1.34 78 00:45 28.07.2019
4547 Clear 15 1021 72 10000 1 0 00:19 28.07.2019
4548 Clear 15 1021 72 10000 1 0 23:46 27.07.2019
4549 Clear 16 1022 67 10000 1.5 10 23:22 27.07.2019
4550 Clear 16 1021 68 10000 2.6 30 22:41 27.07.2019
4551 Clouds 16 1022 67 10000 1.5 10 22:22 27.07.2019
4552 Clouds 16 1022 67 10000 1.5 10 22:22 27.07.2019
4553 Clear 16 1021 68 10000 3.1 40 21:41 27.07.2019
4554 Clouds 16 1022 72 10000 2.1 30 21:20 27.07.2019
4555 Clear 17 1020 68 10000 3.6 40 20:52 27.07.2019
4556 Clouds 17 1021 55 10000 4.1 70 20:26 27.07.2019
4557 Clouds 17 1021 55 10000 4.1 70 19:56 27.07.2019
4558 Clear 17 1019 55 10000 5.7 80 19:38 27.07.2019
4559 Clouds 19 1020 52 10000 4.6 70 19:18 27.07.2019
4560 Clouds 19 1019 46 10000 7.2 90 18:42 27.07.2019
4561 Clouds 21 1019 46 10000 6.7 80 18:24 27.07.2019
4562 Clouds 21 1018 38 10000 6.7 150 17:42 27.07.2019
4563 Clouds 22 1018 38 10000 4.6 100 17:23 27.07.2019
4564 Clouds 22 1018 36 10000 6.2 120 16:50 27.07.2019
4565 Clouds 22 1018 36 10000 5.1 130 16:32 27.07.2019
4566 Clouds 21 1019 38 10000 4.1 140 15:54 27.07.2019
4567 Clouds 22 1019 38 10000 4.1 140 15:24 27.07.2019
4568 Clouds 21 1019 43 10000 3.6 140 14:51 27.07.2019
4569 Clouds 21 1019 43 10000 3.6 140 14:32 27.07.2019
4570 Clouds 20 1020 46 10000 2.6 0 13:58 27.07.2019
4571 Clouds 20 1020 46 10000 2.6 0 13:39 27.07.2019
4572 Clouds 21 1021 46 10000 3.1 170 13:19 27.07.2019
4573 Clouds 20 1022 49 10000 2.6 0 12:42 27.07.2019
4574 Clouds 20 1022 49 10000 4.1 160 12:22 27.07.2019
4575 Clouds 18 1022 52 10000 3.1 210 11:44 27.07.2019
4576 Clouds 18 1022 52 10000 3.1 210 11:25 27.07.2019
4577 Clouds 18 1022 52 10000 3.1 210 11:25 27.07.2019
4578 Clouds 17 1023 55 10000 3.1 200 10:56 27.07.2019
4579 Clouds 17 1023 63 10000 4.6 180 10:38 27.07.2019
4580 Clouds 16 1024 63 10000 3.6 190 10:18 27.07.2019
4581 Clouds 15 1023 67 10000 2.1 210 09:39 27.07.2019
4582 Clouds 14 1024 67 10000 2.6 200 09:21 27.07.2019
4583 Clouds 14 1022 76 10000 3.1 160 08:45 27.07.2019
4584 Clear 13 1023 82 10000 2.6 200 08:25 27.07.2019
4585 Clear 13 1022 87 10000 3.1 190 07:45 27.07.2019
4586 Clear 12 1022 87 10000 3.1 190 07:22 27.07.2019
4587 Clear 11 1021 87 10000 1.72 255.107 06:54 27.07.2019
4588 Clear 12 1021 82 10000 1.65 86.454 06:28 27.07.2019
4589 Clear 12 1021 82 10000 1.65 86.454 05:42 27.07.2019
4590 Clear 12 1021 87 10000 1.65 86.454 04:52 27.07.2019
4591 Clear 13 1020 72 10000 1.65 86.454 03:55 27.07.2019
4592 Clear 14 1021 72 10000 2.1 74.891 02:43 27.07.2019
4593 Clear 13 1022 71 10000 2.6 20 02:20 27.07.2019
4594 Clear 13 1022 67 10000 2.6 70 01:41 27.07.2019
4595 Clouds 14 1022 63 10000 3.6 70 00:51 27.07.2019
4596 Clouds 15 1022 63 10000 3.6 70 00:31 27.07.2019
4597 Clear 16 1021 59 10000 2.42 71.632 23:49 26.07.2019
4598 Clear 16 1021 59 10000 2.42 71.632 23:26 26.07.2019
4599 Clear 16 1021 68 10000 2.42 71.632 22:45 26.07.2019
4600 Clear 16 1021 68 10000 2.42 71.632 22:45 26.07.2019
4601 Clear 16 1021 68 10000 2.42 71.632 22:26 26.07.2019
4602 Clouds 16 1021 68 10000 2.42 71.632 21:56 26.07.2019
4603 Clouds 16 1021 68 10000 1.8 91.852 21:37 26.07.2019
4604 Clear 17 1022 68 10000 2.6 40 21:18 26.07.2019
4605 Clouds 17 1021 68 10000 3.1 30 20:40 26.07.2019
4606 Clear 18 1020 60 10000 5.1 30 20:21 26.07.2019
4607 Clear 18 1020 60 10000 5.1 30 19:41 26.07.2019
4608 Clouds 19 1021 56 10000 5.1 50 19:22 26.07.2019
4609 Clouds 19 1020 56 10000 5.1 30 18:46 26.07.2019
4610 Clouds 21 1020 49 10000 6.7 50 18:22 26.07.2019
4611 Clouds 21 1020 49 10000 6.7 50 17:58 26.07.2019
4612 Clouds 21 1019 44 10000 7.2 40 17:39 26.07.2019
4613 Clouds 23 1019 44 10000 4.1 140 17:18 26.07.2019
4614 Clouds 23 1019 31 10000 7.2 120 16:55 26.07.2019
4615 Clouds 23 1019 31 10000 7.2 120 16:37 26.07.2019
4616 Clouds 23 1019 41 10000 4.1 120 16:18 26.07.2019
4617 Clouds 23 1019 41 10000 3.6 150 15:45 26.07.2019
4618 Clouds 25 1019 41 10000 4.1 190 15:22 26.07.2019
4619 Clouds 25 1019 41 10000 4.1 190 14:58 26.07.2019
4620 Clouds 24 1019 39 10000 6.2 120 14:40 26.07.2019
4621 Clouds 24 1020 44 10000 3.1 0 14:21 26.07.2019
4622 Clouds 23 1021 44 10000 2.6 160 13:40 26.07.2019
4623 Clouds 22 1021 49 10000 2.6 0 13:21 26.07.2019
4624 Clouds 22 1021 49 10000 5.7 160 12:45 26.07.2019
4625 Clouds 21 1022 46 10000 3.6 180 12:20 26.07.2019
4626 Clouds 20 1022 60 10000 2.18 224.666 11:39 26.07.2019
4627 Clouds 19 1023 60 10000 3.1 180 11:19 26.07.2019
4628 Clouds 19 1023 60 10000 3.1 180 10:55 26.07.2019
4629 Clouds 18 1024 68 10000 3.6 110 10:36 26.07.2019
4630 Clouds 16 1023 72 10000 2.18 224.666 09:55 26.07.2019
4631 Clouds 16 1023 72 10000 2.18 224.666 09:36 26.07.2019
4632 Clouds 15 1023 77 10000 1.84 264.469 08:44 26.07.2019
4633 Clouds 14 1024 77 10000 1.5 50 08:22 26.07.2019
4634 Clouds 14 1024 77 10000 1.5 50 07:59 26.07.2019
4635 Clouds 13 1023 82 10000 1 70 07:29 26.07.2019
4636 Clouds 13 1023 82 10000 1 0 06:53 26.07.2019
4637 Clear 14 1022 82 10000 2.1 50 05:23 26.07.2019
4638 Clear 14 1021 77 10000 1.47 75.139 04:28 26.07.2019
4639 Clear 13 1021 76 10000 1 0 03:18 26.07.2019
4640 Clear 13 1022 76 10000 1.5 40 01:43 26.07.2019
4641 Clear 14 1022 72 10000 2.1 60 00:45 26.07.2019
4642 Clear 15 1022 67 10000 3.6 50 23:59 25.07.2019
4643 Clear 16 1021 63 10000 2.41 73.13 23:25 25.07.2019
4644 Clear 16 1022 59 10000 2.6 70 22:58 25.07.2019
4645 Clear 16 1022 59 10000 2.6 70 22:39 25.07.2019
4646 Clear 17 1022 59 10000 4.1 70 22:20 25.07.2019
4647 Clear 17 1022 59 10000 4.1 70 21:45 25.07.2019
4648 Clear 18 1022 59 10000 3.6 50 21:22 25.07.2019
4649 Clear 17 1022 68 10000 4.1 60 20:48 25.07.2019
4650 Clouds 18 1022 56 10000 4.6 40 20:23 25.07.2019
4651 Clouds 18 1021 60 10000 3.1 30 19:54 25.07.2019
4652 Clouds 19 1021 60 10000 3.1 30 19:36 25.07.2019
4653 Clouds 20 1020 53 10000 5.7 350 19:18 25.07.2019
4654 Clouds 20 1020 53 10000 5.7 350 18:39 25.07.2019
4655 Clouds 22 1020 47 10000 5.7 40 18:20 25.07.2019
4656 Clouds 22 1019 33 10000 5.7 30 17:44 25.07.2019
4657 Clouds 21 1019 67 10000 3.6 140 17:24 25.07.2019
4658 Clouds 24 1019 28 10000 5.1 220 16:45 25.07.2019
4659 Clouds 24 1019 28 10000 5.1 220 16:26 25.07.2019
4660 Clouds 23 1019 36 10000 4.1 170 15:56 25.07.2019
4661 Clouds 23 1019 36 10000 4.6 150 15:36 25.07.2019
4662 Clouds 23 1019 39 10000 3.1 150 15:18 25.07.2019
4663 Clouds 23 1019 36 10000 5.1 140 14:41 25.07.2019
4664 Clouds 24 1020 36 10000 4.6 150 14:22 25.07.2019
4665 Clouds 23 1020 39 10000 3.6 170 13:44 25.07.2019
4666 Clouds 23 1020 39 10000 3.6 170 13:25 25.07.2019
4667 Clouds 23 1021 41 10000 4.1 160 12:46 25.07.2019
4668 Clouds 23 1021 41 10000 4.1 160 12:27 25.07.2019
4669 Clouds 22 1021 46 10000 5.7 180 11:43 25.07.2019
4670 Clear 21 1023 46 10000 2.6 170 11:23 25.07.2019
4671 Clouds 20 1022 52 10000 3.03 217.593 10:46 25.07.2019
4672 Clouds 20 1022 52 10000 3.03 217.593 10:26 25.07.2019
4673 Clear 19 1023 56 10000 2.1 90 09:59 25.07.2019
4674 Clear 19 1023 59 10000 3.1 60 09:40 25.07.2019
4675 Clear 16 1024 77 10000 3.6 160 08:55 25.07.2019
4676 Clear 16 1024 77 10000 3.6 160 08:37 25.07.2019
4677 Clear 14 1022 82 10000 2.29 265.311 07:51 25.07.2019
4678 Clear 13 1022 82 10000 2.29 265.311 07:27 25.07.2019
4679 Clear 12 1021 87 10000 2.29 265.311 06:41 25.07.2019
4680 Clear 13 1021 87 10000 1.53 69.207 05:37 25.07.2019
4681 Clear 13 1021 82 10000 1.53 69.207 04:56 25.07.2019
4682 Clouds 13 1021 82 10000 1 70 04:19 25.07.2019
4683 Clear 14 1022 82 10000 2.6 350 01:31 25.07.2019
4684 Clear 15 1022 82 10000 3.1 10 00:45 25.07.2019
4685 Clear 15 1022 82 10000 3.1 10 00:19 25.07.2019
4686 Clear 15 1021 72 10000 2.6 30 23:44 24.07.2019
4687 Clear 15 1021 72 10000 2.6 30 23:25 24.07.2019
4688 Clear 16 1021 68 10000 2.6 30 22:47 24.07.2019
4689 Clear 16 1021 68 10000 2.6 30 22:25 24.07.2019
4690 Clouds 17 1023 72 10000 3.1 30 21:59 24.07.2019
4691 Clear 17 1021 63 10000 2.56 70.279 21:41 24.07.2019
4692 Clear 16 1022 68 10000 3.1 20 21:20 24.07.2019
4693 Clear 16 1021 72 10000 2.6 10 20:48 24.07.2019
4694 Clear 18 1021 68 10000 3.1 10 20:29 24.07.2019
4695 Clear 18 1020 60 10000 3.1 20 19:59 24.07.2019
4696 Clear 18 1020 60 10000 3.1 20 19:41 24.07.2019
4697 Clouds 19 1019 56 10000 5.1 30 19:21 24.07.2019
4698 Clouds 19 1019 56 10000 5.1 30 18:45 24.07.2019
4699 Clouds 21 1020 53 10000 5.1 50 18:25 24.07.2019
4700 Clouds 21 1019 46 10000 5.1 50 17:49 24.07.2019
4701 Clouds 21 1019 46 10000 5.1 50 17:25 24.07.2019
4702 Clouds 22 1018 44 10000 5.1 30 16:59 24.07.2019
4703 Clouds 23 1018 44 10000 5.1 30 16:39 24.07.2019
4704 Clouds 23 1019 47 10000 6.2 70 16:21 24.07.2019
4705 Clouds 23 1018 36 10000 2.19 134.704 15:38 24.07.2019
4706 Clouds 24 1019 41 10000 3.6 80 15:20 24.07.2019
4707 Clouds 23 1018 33 10000 2.6 250 14:47 24.07.2019
4708 Clouds 23 1018 33 10000 2.6 250 14:22 24.07.2019
4709 Clouds 23 1019 41 10000 4.1 50 13:58 24.07.2019
4710 Clouds 23 1019 36 10000 2.29 214.452 13:36 24.07.2019
4711 Clouds 23 1020 38 10000 2.1 0 13:18 24.07.2019
4712 Clouds 23 1019 36 10000 2.6 190 12:45 24.07.2019
4713 Clouds 22 1020 41 10000 2.1 0 12:22 24.07.2019
4714 Clouds 21 1020 49 10000 2.6 210 11:37 24.07.2019
4715 Clear 20 1022 56 10000 1.5 0 11:19 24.07.2019
4716 Clouds 19 1021 52 8000 3.77 245.908 10:43 24.07.2019
4717 Clouds 19 1021 52 8000 3.77 245.908 10:24 24.07.2019
4718 Clouds 18 1022 59 5000 3.1 40 09:44 24.07.2019
4719 Clouds 18 1022 59 5000 3.1 40 09:44 24.07.2019
4720 Fog 17 1023 59 10000 1.5 40 09:24 24.07.2019
4721 Clouds 15 1023 67 10000 2.6 30 08:54 24.07.2019
4722 Fog 15 1023 67 10000 2.6 30 08:27 24.07.2019
4723 Clouds 14 1022 72 10000 2.1 40 07:50 24.07.2019
4724 Clouds 13 1022 82 10000 1.5 350 07:23 24.07.2019
4725 Clouds 14 1021 87 10000 1.39 210.411 06:28 24.07.2019
4726 Clouds 14 1021 82 10000 1 0 05:26 24.07.2019
4727 Clouds 15 1021 72 10000 2.06 52.913 01:58 24.07.2019
4728 Clouds 15 1021 67 10000 0.5 0 01:28 24.07.2019
4729 Clouds 15 1021 67 10000 1 0 00:54 24.07.2019
4730 Clouds 16 1022 67 10000 2.6 120 00:22 24.07.2019
4731 Clouds 16 1022 59 10000 3.1 120 23:41 23.07.2019
4732 Clouds 16 1022 59 10000 3.1 120 23:22 23.07.2019
4733 Clouds 17 1021 82 10000 0.68 348.822 22:39 23.07.2019
4734 Clouds 17 1022 52 10000 4.1 50 22:19 23.07.2019
4735 Clouds 17 1022 52 10000 4.1 50 21:57 23.07.2019
4736 Clouds 17 1022 72 10000 0.68 348.822 21:39 23.07.2019
4737 Clouds 18 1021 68 10000 2.1 20 21:21 23.07.2019
4738 Clouds 17 1021 68 10000 2.6 20 20:44 23.07.2019
4739 Clouds 18 1021 68 10000 3.6 30 20:21 23.07.2019
4740 Clouds 18 1020 64 10000 2.6 20 19:41 23.07.2019
4741 Clouds 20 1020 56 10000 5.7 40 19:19 23.07.2019
4742 Clouds 20 1019 53 10000 4.1 30 18:47 23.07.2019
4743 Clouds 21 1019 53 10000 6.7 80 18:23 23.07.2019
4744 Clouds 21 1019 47 10000 5.1 40 17:44 23.07.2019
4745 Clouds 22 1019 50 10000 5.1 70 17:25 23.07.2019
4746 Clouds 22 1019 50 10000 5.1 70 16:57 23.07.2019
4747 Clouds 23 1019 44 10000 3.6 80 16:39 23.07.2019
4748 Clouds 22 1018 44 10000 3.1 70 16:18 23.07.2019
4749 Clouds 22 1019 41 10000 2.1 80 15:43 23.07.2019
4750 Clouds 23 1019 47 10000 1 0 15:23 23.07.2019
4751 Clouds 23 1019 44 10000 3.09 214.24 14:39 23.07.2019
4752 Clouds 22 1019 41 10000 1.5 0 14:20 23.07.2019
4753 Clouds 22 1019 41 10000 1.5 0 13:57 23.07.2019
4754 Clouds 23 1019 44 10000 2.6 230 13:38 23.07.2019
4755 Clouds 23 1020 41 10000 4.6 200 13:20 23.07.2019
4756 Clouds 22 1021 47 10000 3.6 180 12:47 23.07.2019
4757 Clouds 22 1021 47 10000 3.6 180 12:25 23.07.2019
4758 Clouds 21 1021 53 10000 2.56 222.054 11:47 23.07.2019
4759 Clouds 21 1021 53 10000 2.56 222.054 11:29 23.07.2019
4760 Clouds 18 1021 52 10000 4.1 170 10:57 23.07.2019
4761 Clouds 19 1021 52 10000 4.1 170 10:38 23.07.2019
4762 Clouds 18 1023 52 10000 2.6 190 10:19 23.07.2019
4763 Clouds 17 1022 63 10000 2.56 222.054 09:40 23.07.2019
4764 Clear 16 1023 59 10000 3.6 170 09:18 23.07.2019
4765 Clouds 15 1022 67 10000 2.01 254.512 08:40 23.07.2019
4766 Clear 14 1023 67 10000 2.1 190 08:19 23.07.2019
4767 Clouds 14 1021 77 10000 2.01 254.512 07:55 23.07.2019
4768 Clouds 14 1021 77 10000 2.01 254.512 07:33 23.07.2019
4769 Clouds 12 1021 87 10000 2.01 254.512 06:38 23.07.2019
4770 Clouds 12 1022 81 10000 2.1 230 05:57 23.07.2019
4771 Clear 12 1021 87 10000 1.5 260 02:44 23.07.2019
4772 Clear 14 1020 82 0 1.74 48.879 01:31 23.07.2019
4773 Clear 15 1021 72 10000 3.1 70 00:30 23.07.2019
4774 Clear 15 1021 77 10000 1.81 45.448 23:43 22.07.2019
4775 Clear 16 1022 77 10000 2.1 350 23:22 22.07.2019
4776 Clear 16 1022 77 0 1.81 45.448 22:59 22.07.2019
4777 Clear 16 1022 77 0 1.81 45.448 22:41 22.07.2019
4778 Clouds 17 1023 72 10000 2.6 10 22:20 22.07.2019
4779 Clouds 17 1021 72 10000 2.1 40 21:42 22.07.2019
4780 Clouds 17 1022 63 10000 3.1 10 21:21 22.07.2019
4781 Clouds 17 1021 68 10000 3.1 30 20:48 22.07.2019
4782 Clouds 17 1021 68 10000 3.1 30 20:30 22.07.2019
4783 Clouds 18 1022 59 10000 4.1 60 19:55 22.07.2019
4784 Clouds 18 1021 60 10000 2.6 70 19:37 22.07.2019
4785 Clouds 19 1021 60 10000 4.6 70 19:18 22.07.2019
4786 Clouds 20 1020 49 10000 3.1 110 18:41 22.07.2019
4787 Clouds 21 1020 46 10000 4.6 140 18:23 22.07.2019
4788 Clouds 22 1019 38 10000 5.1 110 17:43 22.07.2019
4789 Clouds 22 1020 47 10000 4.6 160 17:25 22.07.2019
4790 Clouds 22 1020 47 10000 4.6 160 16:54 22.07.2019
4791 Clouds 22 1019 41 10000 2.6 200 16:36 22.07.2019
4792 Clouds 23 1020 41 10000 5.1 180 16:18 22.07.2019
4793 Clouds 23 1019 44 10000 3.6 190 15:38 22.07.2019
4794 Clouds 22 1020 41 10000 4.6 190 15:19 22.07.2019
4795 Clouds 21 1020 43 10000 5.1 210 14:43 22.07.2019
4796 Clouds 21 1021 46 10000 2.1 0 14:22 22.07.2019
4797 Clouds 21 1021 53 10000 3.6 210 13:50 22.07.2019
4798 Clouds 20 1021 53 10000 3.6 210 13:30 22.07.2019
4799 Clouds 19 1023 60 10000 3.1 240 12:47 22.07.2019
4800 Clouds 18 1024 56 10000 4.1 190 12:29 22.07.2019
4801 Clouds 18 1024 63 10000 3.6 140 11:46 22.07.2019
4802 Clouds 18 1024 63 10000 3.6 140 11:26 22.07.2019
4803 Clouds 17 1024 63 10000 5.1 180 10:59 22.07.2019
4804 Clouds 16 1025 68 10000 4.6 190 10:33 22.07.2019
4805 Clouds 16 1024 72 10000 4.1 190 09:46 22.07.2019
4806 Clouds 16 1024 72 10000 4.1 190 09:26 22.07.2019
4807 Clouds 15 1025 77 10000 4.1 190 08:59 22.07.2019
4808 Clouds 14 1024 87 10000 2.44 241.745 08:37 22.07.2019
4809 Clouds 14 1025 82 10000 3.1 190 08:18 22.07.2019
4810 Clouds 15 1023 87 10000 2.44 241.745 07:46 22.07.2019
4811 Clouds 14 1024 87 10000 1.5 180 07:27 22.07.2019
4812 Clear 14 1021 87 10000 0.66 84.341 04:56 22.07.2019
4813 Clear 14 1022 82 10000 1 0 02:58 22.07.2019
4814 Clear 14 1022 87 10000 1 0 00:58 22.07.2019
4815 Clear 15 1022 72 10000 1 70 00:39 22.07.2019
4816 Clear 15 1022 77 10000 2.1 30 00:20 22.07.2019
4817 Clear 16 1022 72 10000 1 0 23:45 21.07.2019
4818 Clouds 17 1021 60 10000 2.79 58.462 22:57 21.07.2019
4819 Clouds 17 1021 60 10000 2.79 58.462 22:39 21.07.2019
4820 Clouds 19 1022 72 10000 1 0 22:20 21.07.2019
4821 Clouds 19 1021 60 10000 2.6 60 21:49 21.07.2019
4822 Clouds 19 1021 60 10000 2.6 60 21:26 21.07.2019
4823 Clouds 19 1021 64 10000 4.1 30 20:57 21.07.2019
4824 Clouds 19 1021 64 10000 4.1 30 20:39 21.07.2019
4825 Clouds 20 1021 68 10000 3.1 80 20:21 21.07.2019
4826 Clouds 20 1020 60 10000 4.1 40 19:48 21.07.2019
4827 Clouds 21 1021 64 10000 3.6 20 19:28 21.07.2019
4828 Rain 21 1019 53 10000 3.1 30 18:49 21.07.2019
4829 Clouds 21 1020 44 10000 2.6 150 18:26 21.07.2019
4830 Clouds 21 1020 44 10000 2.6 150 17:55 21.07.2019
4831 Clouds 21 1019 47 10000 5.1 180 17:36 21.07.2019
4832 Clouds 20 1018 39 10000 5.1 150 17:18 21.07.2019
4833 Clouds 24 1018 39 10000 5.1 150 16:40 21.07.2019
4834 Clouds 24 1019 39 10000 5.1 170 16:22 21.07.2019
4835 Clouds 24 1019 39 10000 5.1 170 16:22 21.07.2019
4836 Clouds 24 1019 38 10000 3.1 230 15:40 21.07.2019
4837 Clouds 24 1019 39 10000 5.7 190 15:20 21.07.2019
4838 Clouds 24 1019 36 10000 5.1 170 14:44 21.07.2019
4839 Clouds 24 1019 36 10000 5.1 170 14:25 21.07.2019
4840 Clouds 24 1020 39 10000 9.3 180 13:53 21.07.2019
4841 Clouds 24 1020 39 10000 9.3 180 13:34 21.07.2019
4842 Clouds 23 1021 50 10000 1.5 200 12:57 21.07.2019
4843 Clouds 23 1021 50 10000 1.5 200 12:39 21.07.2019
4844 Clouds 23 1022 47 10000 3.6 180 12:20 21.07.2019
4845 Clouds 22 1022 56 10000 2.6 180 11:45 21.07.2019
4846 Clouds 22 1022 56 10000 2.6 180 11:25 21.07.2019
4847 Clouds 21 1023 60 10000 3.03 201.271 10:43 21.07.2019
4848 Clear 20 1024 56 10000 2.1 90 10:24 21.07.2019
4849 Clouds 18 1023 68 10000 3.03 201.271 09:52 21.07.2019
4850 Clouds 18 1023 68 10000 3.03 201.271 09:32 21.07.2019
4851 Clouds 16 1023 77 10000 0.73 225.278 08:49 21.07.2019
4852 Clouds 15 1024 82 10000 1 0 08:28 21.07.2019
4853 Clouds 14 1024 82 10000 1.5 80 07:53 21.07.2019
4854 Clouds 13 1023 82 10000 1 0 07:18 21.07.2019
4855 Clouds 12 1023 87 10000 1.01 55.538 05:56 21.07.2019
4856 Clouds 12 1021 82 10000 2.6 230 02:59 21.07.2019
4857 Clouds 13 1021 82 10000 3.1 240 01:50 21.07.2019
4858 Clouds 13 1022 77 10000 2.1 230 00:44 21.07.2019
4859 Clouds 14 1022 82 10000 2.6 210 00:20 21.07.2019
4860 Clouds 13 1022 82 10000 2.6 210 23:44 20.07.2019
4861 Clouds 14 1022 77 10000 1 320 23:23 20.07.2019
4862 Clouds 15 1022 68 10000 1.74 69.702 22:50 20.07.2019
4863 Clouds 15 1022 72 10000 1 360 22:23 20.07.2019
4864 Clouds 15 1022 72 10000 1 360 21:59 20.07.2019
4865 Clouds 15 1022 68 10000 2.1 30 21:39 20.07.2019
4866 Clouds 15 1022 68 10000 2.6 10 21:21 20.07.2019
4867 Clouds 15 1022 64 10000 2.1 360 20:42 20.07.2019
4868 Clouds 17 1022 64 10000 3.1 10 20:21 20.07.2019
4869 Clouds 18 1021 72 10000 2.7 62.44 19:48 20.07.2019
4870 Clouds 17 1021 72 10000 2.7 62.44 19:26 20.07.2019
4871 Clouds 17 1021 49 10000 1.5 110 18:45 20.07.2019
4872 Clouds 19 1021 53 10000 2.1 90 18:24 20.07.2019
4873 Clouds 19 1020 49 10000 2.1 170 17:56 20.07.2019
4874 Clouds 20 1020 53 10000 1.5 120 17:26 20.07.2019
4875 Clouds 20 1020 53 10000 1.5 80 16:46 20.07.2019
4876 Clouds 21 1020 56 10000 2.6 120 16:28 20.07.2019
4877 Clouds 21 1020 56 10000 2.6 120 15:59 20.07.2019
4878 Clouds 21 1020 56 10000 1.46 95.312 15:41 20.07.2019
4879 Clouds 21 1021 56 10000 1.5 30 15:21 20.07.2019
4880 Clouds 21 1021 53 10000 2.1 140 14:49 20.07.2019
4881 Clouds 20 1021 53 10000 2.1 140 14:29 20.07.2019
4882 Clouds 20 1023 64 10000 2.1 140 13:57 20.07.2019
4883 Clouds 19 1023 64 10000 2.1 140 13:37 20.07.2019
4884 Clouds 19 1023 64 10000 3.1 150 13:19 20.07.2019
4885 Clouds 19 1023 68 10000 2.63 191.681 12:44 20.07.2019
4886 Clouds 18 1024 72 10000 1.5 40 12:18 20.07.2019
4887 Clouds 17 1024 82 10000 2.6 40 11:43 20.07.2019
4888 Clouds 16 1024 87 10000 1.5 30 11:20 20.07.2019
4889 Clouds 16 1024 87 10000 3.35 185.586 10:41 20.07.2019
4890 Fog 16 1024 87 3000 3.1 40 10:22 20.07.2019
4891 Fog 15 1024 87 3000 3.1 40 09:48 20.07.2019
4892 Fog 15 1024 87 3000 3.1 40 09:25 20.07.2019
4893 Clouds 14 1025 87 10000 3.1 20 08:51 20.07.2019
4894 Clouds 14 1025 87 10000 3.1 20 08:24 20.07.2019
4895 Clouds 15 1023 82 10000 1.1 140.853 07:39 20.07.2019
4896 Clouds 15 1022 82 10000 1.1 140.853 06:46 20.07.2019
4897 Clouds 13 1021 82 10000 1.95 69.889 05:49 20.07.2019
4898 Clouds 13 1022 82 10000 1.5 210 04:31 20.07.2019
4899 Clouds 13 1022 82 10000 2.6 210 01:59 20.07.2019
4900 Clouds 14 1022 82 10000 2.6 220 00:59 20.07.2019
4901 Clouds 14 1023 87 10000 2.1 80.672 00:37 20.07.2019
4902 Clouds 14 1023 77 10000 2.6 240 00:18 20.07.2019
4903 Clouds 14 1023 87 10000 3.6 180 23:39 19.07.2019
4904 Clouds 15 1023 77 10000 3.6 230 23:21 19.07.2019
4905 Clouds 15 1023 72 10000 2.26 88.506 22:43 19.07.2019
4906 Clouds 16 1023 68 10000 2.1 150 22:22 19.07.2019
4907 Clouds 16 1023 72 10000 2.26 88.506 21:45 19.07.2019
4908 Clouds 16 1023 72 10000 3.31 87.579 21:26 19.07.2019
4909 Clouds 16 1023 63 10000 4.1 140 20:44 19.07.2019
4910 Clouds 18 1022 56 10000 4.1 100 20:26 19.07.2019
4911 Clouds 18 1021 56 10000 3.6 100 19:48 19.07.2019
4912 Clouds 19 1022 52 10000 4.1 90 19:20 19.07.2019
4913 Clouds 19 1021 49 10000 4.1 90 18:42 19.07.2019
4914 Clouds 19 1022 49 10000 4.1 80 18:21 19.07.2019
4915 Clouds 19 1022 49 10000 4.1 80 18:21 19.07.2019
4916 Clouds 19 1021 46 10000 3.6 100 17:52 19.07.2019
4917 Clouds 20 1021 46 10000 3.6 100 17:27 19.07.2019
4918 Clouds 20 1021 46 10000 3.6 100 17:27 19.07.2019
4919 Clouds 21 1020 43 10000 3.1 90 16:49 19.07.2019
4920 Clouds 20 1021 43 10000 3.1 140 16:26 19.07.2019
4921 Clouds 21 1021 43 10000 3.1 140 15:52 19.07.2019
4922 Clouds 21 1021 43 10000 3.1 140 15:31 19.07.2019
4923 Clouds 22 1022 41 10000 3.1 0 14:58 19.07.2019
4924 Clouds 20 1021 43 10000 2.1 210 14:39 19.07.2019
4925 Clouds 21 1022 43 10000 2.6 100 14:21 19.07.2019
4926 Clouds 20 1022 52 10000 3.6 150 13:44 19.07.2019
4927 Clouds 20 1022 52 10000 3.6 150 13:44 19.07.2019
4928 Clouds 20 1022 52 10000 3.6 150 13:44 19.07.2019
4929 Clouds 20 1022 52 10000 3.6 150 13:44 19.07.2019
4930 Clouds 20 1023 49 10000 4.6 130 13:26 19.07.2019
4931 Clouds 20 1023 49 10000 4.6 130 12:55 19.07.2019
4932 Clouds 19 1024 52 10000 2.1 0 12:31 19.07.2019
4933 Clouds 19 1024 52 10000 2.1 0 12:31 19.07.2019
4934 Clouds 19 1024 59 10000 4.6 150 11:59 19.07.2019
4935 Clouds 18 1024 59 10000 4.6 150 11:41 19.07.2019
4936 Clouds 18 1025 59 10000 3.6 120 11:18 19.07.2019
4937 Clouds 18 1024 63 10000 4.6 150 10:47 19.07.2019
4938 Clouds 18 1025 59 10000 3.1 100 10:22 19.07.2019
4939 Clouds 17 1025 59 10000 3.1 100 09:58 19.07.2019
4940 Clouds 17 1025 63 10000 3.1 70 09:40 19.07.2019
4941 Clouds 16 1025 63 10000 3.1 80 09:21 19.07.2019
4942 Clouds 16 1024 87 10000 2.6 110 08:48 19.07.2019
4943 Clouds 15 1024 87 10000 1.5 90 07:55 19.07.2019
4944 Clouds 14 1024 87 10000 1.5 90 07:29 19.07.2019
4945 Clouds 14 1023 87 10000 2.6 60 05:57 19.07.2019
4946 Clouds 14 1024 82 10000 2.52 59.255 02:23 19.07.2019
4947 Clouds 13 1023 87 10000 2.1 10 02:23 19.07.2019
4948 Clouds 13 1023 87 10000 2.1 20 01:20 19.07.2019
4949 Clear 14 1023 87 10000 1 0 00:42 19.07.2019
4950 Clear 14 1024 77 10000 1.5 0 23:57 18.07.2019
4951 Clouds 14 1025 82 10000 3.1 150 23:39 18.07.2019
4952 Clouds 15 1024 67 10000 4.6 80 23:19 18.07.2019
4953 Clouds 15 1024 67 10000 4.6 80 23:19 18.07.2019
4954 Clouds 15 1025 77 10000 2.6 130 22:40 18.07.2019
4955 Clouds 16 1024 55 10000 4.1 50 22:20 18.07.2019
4956 Clouds 16 1025 77 10000 3.6 110 21:44 18.07.2019
4957 Clouds 17 1023 49 10000 3.6 70 21:26 18.07.2019
4958 Clouds 17 1024 72 10000 3.1 90 20:52 18.07.2019
4959 Clouds 17 1024 72 10000 3.1 90 20:29 18.07.2019
4960 Clouds 18 1023 46 10000 3.6 90 19:59 18.07.2019
4961 Clouds 18 1022 59 10000 5.1 90 19:40 18.07.2019
4962 Clouds 18 1022 46 10000 6.2 90 19:18 18.07.2019
4963 Clouds 19 1022 49 10000 4.1 90 18:42 18.07.2019
4964 Clouds 19 1022 40 10000 5.1 80 18:20 18.07.2019
4965 Clouds 18 1022 38 10000 6.2 80 17:44 18.07.2019
4966 Clouds 21 1022 41 10000 3.1 50 17:24 18.07.2019
4967 Clouds 21 1021 40 10000 2.6 70 16:57 18.07.2019
4968 Clouds 21 1021 40 10000 2.6 70 16:39 18.07.2019
4969 Clouds 21 1022 41 10000 3.1 100 16:18 18.07.2019
4970 Clouds 21 1021 40 10000 7.7 110 15:44 18.07.2019
4971 Clouds 21 1021 40 10000 7.7 110 15:25 18.07.2019
4972 Clouds 21 1022 38 10000 5.1 90 14:50 18.07.2019
4973 Clouds 21 1022 38 10000 5.1 90 14:32 18.07.2019
4974 Clouds 21 1023 40 10000 3.55 130.182 13:50 18.07.2019
4975 Clouds 22 1024 38 10000 3.6 0 13:24 18.07.2019
4976 Clouds 20 1024 46 10000 3.45 112.212 12:53 18.07.2019
4977 Clouds 19 1025 40 10000 2.6 0 12:22 18.07.2019
4978 Clouds 19 1025 52 10000 3.1 160 11:58 18.07.2019
4979 Clouds 19 1025 52 10000 3.1 160 11:39 18.07.2019
4980 Clouds 18 1026 43 10000 4.1 170 11:21 18.07.2019
4981 Clouds 17 1026 72 10000 5.1 110 10:49 18.07.2019
4982 Clouds 17 1025 72 10000 3.6 150 09:50 18.07.2019
4983 Clouds 17 1025 72 10000 3.6 150 09:50 18.07.2019
4984 Clouds 15 1027 72 10000 3.1 150 09:27 18.07.2019
4985 Clouds 15 1025 72 10000 3.6 150 09:27 18.07.2019
4986 Clouds 14 1025 82 10000 3.6 140 08:53 18.07.2019
4987 Clouds 14 1026 82 10000 2.1 190 08:25 18.07.2019
4988 Clouds 14 1026 82 10000 2.1 190 07:57 18.07.2019
4989 Clouds 15 1025 87 10000 2.1 180 07:35 18.07.2019
4990 Clouds 15 1025 87 10000 2.1 180 07:35 18.07.2019
4991 Clouds 13 1025 87 10000 2.6 170 06:51 18.07.2019
4992 Clouds 14 1025 82 10000 3.6 170 06:26 18.07.2019
4993 Clouds 14 1024 87 10000 3.6 150 03:41 18.07.2019
4994 Clouds 14 1024 87 10000 2.6 130 02:50 18.07.2019
4995 Clouds 14 1024 87 10000 2.26 88.378 01:36 18.07.2019
4996 Clouds 14 1026 87 10000 1.5 30 00:22 18.07.2019
4997 Clouds 14 1026 82 10000 1.5 0 23:22 17.07.2019
4998 Clouds 14 1026 82 10000 1.5 0 22:59 17.07.2019
4999 Clouds 14 1025 82 10000 2.6 150 22:41 17.07.2019
5000 Clear 14 1026 82 10000 3.1 140 22:22 17.07.2019
5001 Clear 14 1026 82 10000 3.1 140 21:57 17.07.2019
5002 Clouds 14 1025 77 10000 1.98 83.26 21:37 17.07.2019
5003 Clear 16 1025 72 10000 3.6 150 21:19 17.07.2019
5004 Clouds 15 1024 72 10000 5.1 140 20:55 17.07.2019
5005 Clouds 16 1024 72 10000 5.1 140 20:37 17.07.2019
5006 Clouds 16 1025 63 10000 4.6 140 20:18 17.07.2019
5007 Clouds 16 1025 63 10000 4.6 140 20:18 17.07.2019
5008 Clouds 17 1023 63 10000 4.6 130 19:40 17.07.2019
5009 Clouds 18 1024 56 10000 5.1 130 19:20 17.07.2019
5010 Clouds 17 1023 59 10000 5.1 150 18:44 17.07.2019
5011 Clouds 18 1023 52 10000 5.7 140 18:21 17.07.2019
5012 Clouds 18 1023 52 10000 5.7 140 17:57 17.07.2019
5013 Clouds 19 1023 52 10000 5.1 140 17:39 17.07.2019
5014 Clouds 19 1023 52 10000 5.1 140 17:20 17.07.2019
5015 Clouds 18 1023 49 10000 6.2 170 16:40 17.07.2019
5016 Clouds 19 1023 49 10000 6.2 170 16:19 17.07.2019
5017 Clouds 20 1023 49 10000 3.6 140 15:51 17.07.2019
5018 Clouds 20 1023 46 10000 2.6 120 15:29 17.07.2019
5019 Clouds 16 1024 93 10000 4.6 130 14:56 17.07.2019
5020 Clouds 20 1023 49 10000 4.1 140 14:38 17.07.2019
5021 Clouds 20 1023 49 10000 4.1 140 14:19 17.07.2019
5022 Clouds 18 1024 49 10000 4.6 170 13:48 17.07.2019
5023 Clouds 19 1025 56 10000 5.1 130 13:30 17.07.2019
5024 Clouds 19 1025 56 10000 5.1 130 12:44 17.07.2019
5025 Clouds 19 1025 56 10000 5.1 130 12:24 17.07.2019
5026 Clouds 19 1026 52 10000 3.6 170 11:59 17.07.2019
5027 Clouds 19 1025 56 10000 7.7 150 11:39 17.07.2019
5028 Clouds 19 1025 56 10000 7.7 150 11:19 17.07.2019
5029 Clouds 18 1026 63 10000 6.7 130 10:43 17.07.2019
5030 Clouds 17 1027 68 10000 4.1 140 10:20 17.07.2019
5031 Clouds 16 1027 68 10000 5.1 160 09:44 17.07.2019
5032 Clouds 15 1027 68 10000 5.1 160 09:26 17.07.2019
5033 Clouds 14 1026 87 10000 3.6 140 08:44 17.07.2019
5034 Clouds 14 1026 87 10000 3.6 140 08:22 17.07.2019
5035 Clouds 15 1027 82 10000 2.6 200 07:51 17.07.2019
5036 Clouds 14 1025 93 10000 5.1 150 07:28 17.07.2019
5037 Clouds 14 1026 87 10000 1.5 150 06:59 17.07.2019
5038 Clouds 14 1025 100 10000 2.13 116.397 06:37 17.07.2019
5039 Clouds 14 1025 100 10000 2.04 98.599 06:18 17.07.2019
5040 Clouds 14 1024 93 10000 2.04 98.599 05:32 17.07.2019
5041 Clouds 14 1025 93 10000 2.6 50 04:56 17.07.2019
5042 Clouds 14 1024 87 10000 2.04 98.599 03:50 17.07.2019
5043 Clouds 14 1024 87 10000 2.86 78.682 02:32 17.07.2019
5044 Clouds 13 1025 87 10000 2.6 260 01:41 17.07.2019
5045 Clouds 13 1025 87 10000 2.6 260 01:21 17.07.2019
5046 Clouds 14 1025 77 10000 1 0 00:38 17.07.2019
5047 Clouds 14 1025 77 10000 1 0 00:38 17.07.2019
5048 Clouds 14 1025 77 10000 1 0 00:20 17.07.2019
5049 Clouds 14 1025 72 10000 3.6 140 23:44 16.07.2019
5050 Clouds 15 1026 72 10000 3.6 150 23:22 16.07.2019
5051 Clouds 16 1024 67 10000 2.13 77.708 22:43 16.07.2019
5052 Clouds 16 1024 67 10000 2.13 77.708 22:25 16.07.2019
5053 Clouds 16 1026 63 10000 2.1 0 21:57 16.07.2019
5054 Clouds 16 1025 67 10000 2.13 77.708 21:39 16.07.2019
5055 Clouds 16 1025 67 10000 5.68 81.793 21:19 16.07.2019
5056 Clouds 16 1024 63 10000 3.6 150 20:41 16.07.2019
5057 Clouds 16 1024 63 10000 3.6 150 20:41 16.07.2019
5058 Clouds 17 1024 63 10000 3.6 150 20:23 16.07.2019
5059 Clouds 17 1023 59 10000 4.1 100 19:55 16.07.2019
5060 Clouds 17 1023 59 10000 4.6 100 19:30 16.07.2019
5061 Clouds 18 1023 56 10000 5.1 90 18:59 16.07.2019
5062 Clouds 18 1023 56 10000 4.1 70 18:41 16.07.2019
5063 Clouds 17 1023 56 10000 4.1 70 18:21 16.07.2019
5064 Clouds 18 1023 52 10000 4.1 80 17:54 16.07.2019
5065 Clouds 18 1022 52 10000 6.2 80 17:36 16.07.2019
5066 Clouds 19 1023 52 10000 5.1 80 16:53 16.07.2019
5067 Clouds 19 1022 52 10000 4.6 90 16:28 16.07.2019
5068 Clouds 19 1023 49 10000 2.6 70 15:58 16.07.2019
5069 Clouds 19 1023 52 10000 5.7 100 15:39 16.07.2019
5070 Clouds 19 1023 52 10000 5.7 100 15:20 16.07.2019
5071 Clouds 19 1023 52 10000 2.6 60 14:56 16.07.2019
5072 Clouds 19 1023 56 10000 2.6 90 14:38 16.07.2019
5073 Clouds 18 1024 60 10000 3.1 10 14:19 16.07.2019
5074 Clouds 19 1024 59 10000 3.6 50 13:44 16.07.2019
5075 Clouds 19 1024 59 10000 3.6 50 13:19 16.07.2019
5076 Clouds 19 1025 68 10000 2.6 60 12:44 16.07.2019
5077 Clouds 17 1025 68 10000 2.6 60 12:20 16.07.2019
5078 Clouds 18 1026 63 10000 2.1 60 11:55 16.07.2019
5079 Clouds 17 1025 63 10000 4.1 90 11:37 16.07.2019
5080 Clouds 17 1025 63 10000 4.1 90 11:19 16.07.2019
5081 Clouds 18 1025 72 10000 3.1 100 10:45 16.07.2019
5082 Clouds 17 1025 72 10000 3.1 100 10:22 16.07.2019
5083 Clouds 16 1025 77 10000 3.4 131.132 09:44 16.07.2019
5084 Clouds 15 1025 77 10000 2.7 129.819 09:22 16.07.2019
5085 Clouds 14 1026 77 10000 3.6 160 08:58 16.07.2019
5086 Clouds 14 1026 82 10000 3.1 190 08:40 16.07.2019
5087 Clouds 14 1026 82 10000 3.1 190 08:18 16.07.2019
5088 Clouds 14 1025 82 10000 1.5 360 07:41 16.07.2019
5089 Clouds 14 1025 82 10000 1.5 360 07:23 16.07.2019
5090 Clouds 13 1025 87 10000 1.5 20 06:47 16.07.2019
5091 Clouds 13 1025 87 10000 1 340 06:22 16.07.2019
5092 Clouds 14 1024 87 10000 1.5 80 05:32 16.07.2019
5093 Clouds 14 1024 93 10000 1.5 50 04:57 16.07.2019
5094 Clouds 13 1024 87 10000 1.5 340 03:54 16.07.2019
5095 Clouds 13 1024 87 10000 1.5 340 03:54 16.07.2019
5096 Clouds 13 1024 87 10000 1.5 10 03:18 16.07.2019
5097 Clouds 13 1024 87 10000 2.6 50 02:30 16.07.2019
5098 Clouds 13 1024 87 10000 2.1 30 01:44 16.07.2019
5099 Clouds 13 1024 87 10000 0.5 0 00:47 16.07.2019
5100 Clouds 13 1024 82 10000 2.6 50 00:20 16.07.2019
5101 Clouds 13 1024 82 10000 2.6 50 23:47 15.07.2019
5102 Clouds 14 1024 77 10000 3.1 50 23:29 15.07.2019
5103 Clouds 14 1025 77 10000 2.6 40 22:48 15.07.2019
5104 Clouds 14 1024 77 10000 3.1 40 22:22 15.07.2019
5105 Clouds 14 1024 77 10000 2.6 40 21:59 15.07.2019
5106 Clouds 15 1024 72 10000 3.6 80 21:40 15.07.2019
5107 Clouds 15 1024 72 10000 3.6 80 21:20 15.07.2019
5108 Clouds 15 1024 68 10000 4.1 90 20:57 15.07.2019
5109 Clouds 17 1024 59 10000 4.1 90 20:38 15.07.2019
5110 Clouds 17 1024 59 10000 4.1 90 20:19 15.07.2019
5111 Clouds 17 1021 59 10000 4.1 90 19:40 15.07.2019
5112 Clouds 17 1021 59 10000 4.1 90 19:21 15.07.2019
5113 Clouds 18 1022 56 10000 5.1 90 18:55 15.07.2019
5114 Clouds 17 1022 49 10000 5.1 90 18:36 15.07.2019
5115 Clouds 19 1022 49 10000 5.1 90 18:18 15.07.2019
5116 Clouds 20 1021 46 10000 1.5 80 17:42 15.07.2019
5117 Clouds 20 1021 46 10000 1.5 80 17:23 15.07.2019
5118 Clouds 21 1021 43 10000 3.6 80 16:59 15.07.2019
5119 Clouds 21 1021 43 10000 2.6 80 16:38 15.07.2019
5120 Clouds 21 1021 43 10000 2.6 80 16:20 15.07.2019
5121 Clouds 21 1021 41 10000 3.6 0 15:55 15.07.2019
5122 Clouds 21 1021 43 10000 4.6 70 15:36 15.07.2019
5123 Clouds 21 1021 43 10000 4.6 70 15:18 15.07.2019
5124 Clouds 21 1021 49 10000 3.53 130.594 14:41 15.07.2019
5125 Clouds 21 1021 49 10000 3.53 130.594 14:23 15.07.2019
5126 Clouds 21 1022 46 10000 3.1 130 13:50 15.07.2019
5127 Clouds 21 1022 46 10000 3.1 130 13:50 15.07.2019
5128 Clouds 20 1022 49 10000 4.1 150 13:22 15.07.2019
5129 Clouds 21 1023 46 10000 2.1 110 12:58 15.07.2019
5130 Clouds 20 1023 52 10000 3.41 145.868 12:39 15.07.2019
5131 Clouds 20 1023 52 10000 3.64 135.991 12:20 15.07.2019
5132 Clouds 19 1024 59 10000 5.1 140 11:41 15.07.2019
5133 Clouds 19 1024 59 10000 5.1 140 11:22 15.07.2019
5134 Clouds 19 1025 60 10000 2.1 110 10:45 15.07.2019
5135 Clouds 19 1024 56 10000 3.64 135.991 10:26 15.07.2019
5136 Clouds 17 1025 67 10000 2.6 110 09:48 15.07.2019
5137 Clouds 17 1025 67 10000 2.6 110 09:26 15.07.2019
5138 Clouds 15 1025 72 10000 3.6 160 08:58 15.07.2019
5139 Clouds 16 1024 82 10000 5.7 160 08:40 15.07.2019
5140 Clouds 15 1024 82 10000 5.7 160 08:22 15.07.2019
5141 Clouds 14 1023 87 10000 3.6 140 07:37 15.07.2019
5142 Clouds 14 1024 93 10000 0.5 0 06:59 15.07.2019
5143 Clouds 13 1023 87 10000 3.6 140 06:38 15.07.2019
5144 Clouds 14 1023 87 10000 2.1 150 05:44 15.07.2019
5145 Clouds 14 1023 87 10000 2.1 150 05:22 15.07.2019
5146 Clouds 13 1023 82 10000 2.6 80 04:41 15.07.2019
5147 Clouds 14 1022 82 10000 2.1 40 03:39 15.07.2019
5148 Clouds 14 1023 82 10000 2.6 30 02:37 15.07.2019
5149 Clouds 14 1023 72 10000 4.1 140 01:43 15.07.2019
5150 Clouds 14 1023 72 10000 4.1 140 01:24 15.07.2019
5151 Clouds 14 1023 72 10000 5.1 160 00:51 15.07.2019
5152 Clouds 15 1023 72 10000 2.6 150 00:19 15.07.2019
5153 Clouds 15 1024 77 10000 3.1 160 23:55 14.07.2019
5154 Clouds 15 1023 77 10000 2.6 130 23:36 14.07.2019
5155 Clouds 15 1023 77 10000 2.6 130 23:18 14.07.2019
5156 Clouds 15 1024 72 10000 1.46 60.884 22:40 14.07.2019
5157 Clouds 15 1024 72 10000 1.46 60.884 22:22 14.07.2019
5158 Clouds 16 1024 72 10000 3.1 60 21:58 14.07.2019
5159 Clouds 17 1023 68 10000 2.6 80 21:40 14.07.2019
5160 Clouds 16 1023 68 10000 2.6 100 21:18 14.07.2019
5161 Clouds 17 1023 68 10000 2.6 100 20:54 14.07.2019
5162 Clouds 17 1023 68 10000 2.6 100 20:36 14.07.2019
5163 Clouds 18 1023 56 10000 4.6 100 20:18 14.07.2019
5164 Clouds 18 1021 60 10000 5.1 130 19:42 14.07.2019
5165 Clouds 18 1021 60 10000 5.1 130 19:24 14.07.2019
5166 Clouds 19 1022 56 10000 5.1 90 18:56 14.07.2019
5167 Clouds 19 1021 52 10000 7.7 120 18:37 14.07.2019
5168 Clouds 19 1021 52 10000 7.7 120 18:18 14.07.2019
5169 Clouds 20 1021 49 10000 5.1 130 17:42 14.07.2019
5170 Clouds 20 1021 49 10000 5.1 130 17:19 14.07.2019
5171 Clouds 21 1021 41 10000 4.6 110 16:46 14.07.2019
5172 Clouds 21 1020 46 10000 5.1 110 16:24 14.07.2019
5173 Clouds 21 1021 41 10000 4.1 110 15:50 14.07.2019
5174 Clouds 22 1021 41 10000 3.1 150 15:27 14.07.2019
5175 Clouds 22 1022 41 10000 3.6 130 14:48 14.07.2019
5176 Clouds 22 1022 41 10000 3.6 130 14:21 14.07.2019
5177 Clouds 21 1022 41 10000 3.1 120 13:49 14.07.2019
5178 Clouds 21 1023 44 10000 3.1 0 13:26 14.07.2019
5179 Clouds 21 1023 44 10000 3.1 0 12:59 14.07.2019
5180 Clouds 20 1024 53 10000 2.1 0 12:40 14.07.2019
5181 Clouds 20 1024 53 10000 2.1 0 12:21 14.07.2019
5182 Clouds 20 1024 56 10000 2.6 0 11:52 14.07.2019
5183 Clouds 19 1025 56 10000 2.6 110 11:24 14.07.2019
5184 Clouds 19 1025 56 10000 2.1 80 10:50 14.07.2019
5185 Clouds 20 1025 56 10000 3.6 90 10:25 14.07.2019
5186 -273 0 0 0 0 0 09:56 14.07.2019
5187 Clouds 18 1026 63 10000 2.6 0 09:37 14.07.2019
5188 Clouds 17 1026 63 10000 2.6 0 09:19 14.07.2019
5189 Clouds 16 1026 77 10000 2.1 170 08:41 14.07.2019
5190 Clouds 15 1026 77 10000 1 170 07:57 14.07.2019
5191 Clouds 14 1025 87 10000 1.92 144.947 07:35 14.07.2019
5192 Clouds 13 1024 87 10000 2.1 180 06:40 14.07.2019
5193 Clouds 13 1024 87 10000 2.1 200 05:44 14.07.2019
5194 Clouds 14 1024 82 10000 1.5 230 03:46 14.07.2019
5195 Clouds 13 1024 82 10000 1 230 03:28 14.07.2019
5196 Clouds 13 1024 87 10000 2.1 290 02:41 14.07.2019
5197 Clouds 13 1024 87 10000 2.1 290 02:21 14.07.2019
5198 Clear 13 1024 87 10000 2.6 250 01:32 14.07.2019
5199 Clear 13 1025 87 10000 1.5 240 00:56 14.07.2019
5200 Clear 14 1025 87 10000 3.1 210 00:37 14.07.2019
5201 Clear 14 1025 87 10000 3.1 210 00:19 14.07.2019
5202 Clear 14 1025 82 10000 2.1 230 23:43 13.07.2019
5203 Clear 14 1025 82 10000 2.1 230 23:23 13.07.2019
5204 Clouds 14 1026 77 10000 2.6 230 22:47 13.07.2019
5205 Clouds 15 1026 77 10000 2.6 230 22:23 13.07.2019
5206 Clouds 16 1025 63 10000 2.6 170 21:55 13.07.2019
5207 Clouds 16 1025 68 10000 2.6 140 21:23 13.07.2019
5208 Clouds 16 1025 63 10000 3.1 160 20:59 13.07.2019
5209 Clouds 16 1024 72 10000 2.1 150 20:40 13.07.2019
5210 Clouds 17 1024 72 10000 2.1 150 20:21 13.07.2019
5211 Clouds 18 1023 63 10000 3.1 140 19:43 13.07.2019
5212 Clouds 18 1023 63 10000 3.1 140 19:23 13.07.2019
5213 Clouds 19 1022 56 10000 3.1 140 18:41 13.07.2019
5214 Clouds 19 1022 56 10000 3.1 140 18:20 13.07.2019
5215 Clouds 20 1022 49 10000 5.7 120 17:38 13.07.2019
5216 Clouds 20 1022 49 10000 5.7 120 17:38 13.07.2019
5217 Clouds 20 1022 49 10000 5.7 120 17:19 13.07.2019
5218 Clouds 21 1022 46 10000 5.1 100 16:46 13.07.2019
5219 Clouds 21 1021 46 10000 3.6 110 16:26 13.07.2019
5220 Clouds 22 1022 44 10000 4.1 120 15:54 13.07.2019
5221 Clouds 22 1021 44 10000 6.7 140 15:36 13.07.2019
5222 Clouds 22 1021 44 10000 6.7 140 15:18 13.07.2019
5223 Clouds 21 1022 46 10000 3.6 110 14:41 13.07.2019
5224 Clouds 21 1022 46 10000 3.6 110 14:20 13.07.2019
5225 Clouds 21 1023 53 10000 2.6 150 13:44 13.07.2019
5226 Clouds 21 1023 53 10000 2.6 150 13:23 13.07.2019
5227 Clouds 22 1024 56 10000 6.14 119.996 12:42 13.07.2019
5228 Clouds 20 1024 56 10000 2.53 185.702 12:23 13.07.2019
5229 Clouds 20 1025 49 10000 3.1 140 11:59 13.07.2019
5230 Clouds 19 1025 60 10000 3.1 40 11:38 13.07.2019
5231 Clouds 19 1025 60 10000 3.1 40 11:19 13.07.2019
5232 Clouds 20 1025 68 10000 2.53 185.702 10:42 13.07.2019
5233 Clouds 18 1025 68 10000 2.53 185.702 10:23 13.07.2019
5234 Clouds 18 1025 77 10000 2.53 185.702 09:50 13.07.2019
5235 Clouds 17 1025 77 10000 0.35 295.47 09:30 13.07.2019
5236 Clouds 16 1026 77 10000 1 90 08:57 13.07.2019
5237 Clouds 16 1025 82 10000 0.74 297.913 08:28 13.07.2019
5238 Clouds 15 1026 82 10000 2.1 10 07:55 13.07.2019
5239 Clouds 16 1024 87 10000 0.74 297.913 07:29 13.07.2019
5240 Clouds 13 1024 87 10000 0.74 297.913 06:32 13.07.2019
5241 Clouds 13 1023 87 10000 1.64 91.4 05:51 13.07.2019
5242 Clouds 12 1024 87 10000 1.5 230 04:42 13.07.2019
5243 Clouds 13 1024 87 10000 1.5 230 04:21 13.07.2019
5244 Clouds 14 1022 82 10000 1.64 91.4 03:43 13.07.2019
5245 Clouds 14 1022 82 10000 2.18 81.494 03:25 13.07.2019
5246 Clear 13 1023 87 10000 2.6 260 01:54 13.07.2019
5247 Clear 13 1024 82 10000 1.5 300 01:36 13.07.2019
5248 Clear 13 1024 82 10000 1.5 300 01:18 13.07.2019
5249 Clear 14 1024 82 10000 2.1 350 00:46 13.07.2019
5250 Clear 14 1024 87 10000 1 0 00:18 13.07.2019
5251 Clear 14 1024 72 10000 1.5 340 23:42 12.07.2019
5252 Clear 14 1024 72 10000 1.5 340 23:23 12.07.2019
5253 Clear 16 1024 63 10000 2.1 20 22:42 12.07.2019
5254 Clear 16 1024 63 10000 2.1 20 22:22 12.07.2019
5255 Clouds 17 1024 52 10000 3.1 110 21:42 12.07.2019
5256 Clouds 18 1024 52 10000 3.1 110 21:21 12.07.2019
5257 Clouds 18 1023 52 10000 4.1 110 20:53 12.07.2019
5258 Clouds 19 1022 52 10000 5.1 100 20:24 12.07.2019
5259 Clouds 19 1022 49 10000 5.1 90 19:45 12.07.2019
5260 Clouds 19 1022 49 10000 5.1 90 19:27 12.07.2019
5261 Clouds 20 1022 43 10000 6.2 100 18:59 12.07.2019
5262 Clouds 20 1021 43 10000 5.1 80 18:38 12.07.2019
5263 Clouds 20 1021 43 10000 5.1 80 18:19 12.07.2019
5264 Clouds 22 1021 36 10000 5.1 90 17:47 12.07.2019
5265 Clouds 22 1021 36 10000 5.1 90 17:27 12.07.2019
5266 Clouds 22 1020 36 10000 4.1 70 16:43 12.07.2019
5267 Clouds 22 1020 36 10000 4.1 70 16:20 12.07.2019
5268 Clouds 22 1021 33 10000 3.1 0 15:41 12.07.2019
5269 Clouds 22 1021 33 10000 3.1 0 15:21 12.07.2019
5270 -273 0 0 0 0 0 14:56 12.07.2019
5271 Clouds 23 1021 38 10000 5.06 138.848 14:38 12.07.2019
5272 Clouds 23 1021 38 10000 5.06 138.848 14:20 12.07.2019
5273 Clouds 23 1021 38 10000 4.9 140.816 13:39 12.07.2019
5274 Clouds 22 1023 44 10000 2.1 130 12:59 12.07.2019
5275 Clouds 22 1023 44 10000 3.6 100 12:40 12.07.2019
5276 Clouds 22 1023 44 10000 3.6 100 12:20 12.07.2019
5277 Clouds 21 1024 53 10000 4.1 60 11:44 12.07.2019
5278 Clouds 21 1024 53 10000 4.1 60 11:22 12.07.2019
5279 Clouds 20 1024 60 10000 4.1 80 10:44 12.07.2019
5280 Clouds 20 1024 60 10000 4.1 80 10:24 12.07.2019
5281 Clouds 20 1024 64 10000 2.1 0 09:54 12.07.2019
5282 Clouds 18 1025 68 10000 2.1 0 09:31 12.07.2019
5283 Clouds 18 1025 77 10000 2.6 30 08:59 12.07.2019
5284 Clouds 17 1025 72 10000 2.6 30 08:41 12.07.2019
5285 Fog 16 1024 88 10000 2.6 90 08:19 12.07.2019
5286 Clouds 16 1024 87 10000 2.1 90 07:46 12.07.2019
5287 Clouds 15 1024 87 10000 2.1 90 07:26 12.07.2019
5288 Clouds 14 1024 93 10000 1.5 70 06:29 12.07.2019
5289 Clouds 14 1023 87 10000 1.5 40 05:48 12.07.2019
5290 Clouds 13 1013 85 0 3.58 82 03:23 12.07.2019
5291 Clouds 13 1012 86 0 4.02 113 01:45 12.07.2019
5292 Clouds 13 1012 86 0 3.58 73 01:26 12.07.2019
5293 Clouds 13 1013 86 0 3.58 78 00:30 12.07.2019
5294 Clouds 15 1023 77 10000 1 310 23:50 11.07.2019
5295 Clouds 16 1023 77 10000 1 310 23:26 11.07.2019
5296 Clouds 16 1023 77 10000 1 310 22:59 11.07.2019
5297 Clouds 16 1023 77 10000 2.2 58.88 22:39 11.07.2019
5298 Clouds 16 1023 77 10000 2.2 58.88 22:21 11.07.2019
5299 Clouds 16 1023 77 10000 2.2 58.88 21:42 11.07.2019
5300 Clouds 16 1023 77 10000 2.2 58.88 21:42 11.07.2019
5301 Clouds 16 1023 77 10000 2.93 81.165 21:19 11.07.2019
5302 Clouds 17 1023 68 10000 3.1 140 20:55 11.07.2019
5303 Clouds 17 1023 68 10000 4.1 140 20:37 11.07.2019
5304 Clouds 17 1023 68 10000 4.1 140 20:18 11.07.2019
5305 Clouds 19 1022 56 10000 4.1 120 19:44 11.07.2019
5306 Clouds 19 1022 56 10000 4.1 120 19:24 11.07.2019
5307 Clouds 19 1021 56 10000 4.6 120 18:53 11.07.2019
5308 Clouds 19 1020 52 10000 4.6 140 18:33 11.07.2019
5309 Clouds 20 1021 46 10000 5.1 100 17:58 11.07.2019
5310 Clouds 20 1021 46 10000 5.1 100 17:58 11.07.2019
5311 Clouds 21 1020 43 10000 8.2 130 17:40 11.07.2019
5312 Clouds 21 1020 43 10000 8.2 130 17:22 11.07.2019
5313 Clouds 21 1020 36 10000 3.1 120 16:45 11.07.2019
5314 Clouds 23 1020 38 10000 4.1 110 16:23 11.07.2019
5315 Clouds 23 1020 41 10000 4.1 140 15:44 11.07.2019
5316 Clouds 23 1020 41 10000 4.1 140 15:25 11.07.2019
5317 Clouds 22 1020 41 10000 2.6 130 14:59 11.07.2019
5318 Clouds 22 1020 44 10000 7.7 110 14:40 11.07.2019
5319 Clouds 22 1020 44 10000 7.7 110 14:20 11.07.2019
5320 Clouds 23 1022 44 10000 5.7 110 13:45 11.07.2019
5321 Clouds 23 1022 44 10000 5.7 110 13:26 11.07.2019
5322 Clouds 22 1022 46 10000 2.6 150 12:45 11.07.2019
5323 Clouds 22 1022 46 10000 2.6 150 12:26 11.07.2019
5324 Clouds 21 1023 47 10000 5.1 140 11:53 11.07.2019
5325 Clouds 21 1023 64 10000 4.1 120 11:31 11.07.2019
5326 Clouds 20 1024 60 10000 3.6 140 10:59 11.07.2019
5327 Clouds 20 1024 60 10000 4.1 120 10:41 11.07.2019
5328 Clouds 20 1025 56 10000 3.6 140 10:18 11.07.2019
5329 Clouds 19 1024 68 10000 4.6 140 09:44 11.07.2019
5330 Clouds 19 1024 68 10000 4.6 140 09:24 11.07.2019
5331 Clouds 18 1025 68 10000 1.5 0 08:51 11.07.2019
5332 Clouds 16 1024 77 10000 1.96 119.843 08:24 11.07.2019
5333 Clouds 16 1024 77 10000 1.96 119.843 07:52 11.07.2019
5334 Clouds 15 1024 82 10000 1 0 07:32 11.07.2019
5335 Clouds 14 1024 82 10000 1.64 80.848 06:30 11.07.2019
5336 Clouds 14 1023 82 10000 1.64 80.848 05:48 11.07.2019
5337 Clouds 14 1023 82 10000 1 190 05:28 11.07.2019
5338 Clouds 14 1023 82 10000 1.5 210 04:53 11.07.2019
5339 Clouds 14 1022 82 10000 1.5 240 02:38 11.07.2019
5340 Clouds 14 1022 77 10000 2.6 240 01:27 11.07.2019
5341 Clouds 15 1022 72 10000 4.1 170 00:26 11.07.2019
5342 Clouds 16 1023 68 10000 4.6 160 23:37 10.07.2019
5343 Clouds 16 1023 68 10000 4.6 160 23:18 10.07.2019
5344 Clouds 16 1023 60 10000 4.6 160 22:42 10.07.2019
5345 Clouds 16 1023 60 10000 4.6 160 22:19 10.07.2019
5346 Clouds 17 1023 60 10000 3.6 140 21:44 10.07.2019
5347 Clouds 17 1023 60 10000 3.6 140 21:26 10.07.2019
5348 Clouds 17 1022 60 10000 2.1 130 20:56 10.07.2019
5349 Clouds 19 1022 56 10000 3.1 130 20:37 10.07.2019
5350 Clouds 19 1022 56 10000 3.1 130 20:37 10.07.2019
5351 Clouds 19 1022 56 10000 3.1 130 20:18 10.07.2019
5352 Clouds 18 1021 52 10000 4.6 100 19:42 10.07.2019
5353 Clouds 19 1021 52 10000 4.6 100 19:21 10.07.2019
5354 Clouds 19 1021 49 10000 5.1 90 18:48 10.07.2019
5355 Clouds 20 1021 49 10000 5.1 90 18:25 10.07.2019
5356 Clouds 21 1020 49 10000 5.7 90 17:59 10.07.2019
5357 Clouds 21 1020 49 10000 5.7 90 17:59 10.07.2019
5358 Clouds 21 1020 46 10000 6.2 110 17:40 10.07.2019
5359 Clouds 21 1020 46 10000 6.2 110 17:19 10.07.2019
5360 Clouds 23 1020 41 10000 6.2 110 16:22 10.07.2019
5361 Clouds 23 1020 39 10000 2.6 150 15:59 10.07.2019
5362 Clouds 23 1019 41 10000 2.6 130 15:40 10.07.2019
5363 Clouds 22 1019 41 10000 2.6 130 15:18 10.07.2019
5364 Clouds 23 1020 44 10000 6.2 180 14:39 10.07.2019
5365 Clouds 23 1020 44 10000 6.2 180 14:21 10.07.2019
5366 Clouds 22 1021 49 10000 2.6 150 13:44 10.07.2019
5367 Clouds 22 1021 49 10000 2.6 150 13:19 10.07.2019
5368 Clouds 22 1021 49 10000 2.6 150 13:19 10.07.2019
5369 Clouds 22 1021 49 10000 2.6 150 13:19 10.07.2019
5370 Clouds 21 1023 47 10000 3.1 180 12:55 10.07.2019
5371 Clouds 21 1023 56 10000 2.88 187.15 12:36 10.07.2019
5372 Clouds 21 1023 56 10000 2.88 187.15 12:18 10.07.2019
5373 Clouds 22 1024 56 10000 2.6 210 11:40 10.07.2019
5374 Clouds 21 1024 56 10000 2.6 210 11:20 10.07.2019
5375 Clouds 21 1024 60 10000 4.1 110 10:41 10.07.2019
5376 Clouds 19 1025 64 10000 4.1 170 10:19 10.07.2019
5377 Clouds 19 1024 72 10000 5.1 170 09:44 10.07.2019
5378 Clouds 18 1024 72 10000 5.1 170 09:21 10.07.2019
5379 Clouds 18 1025 64 10000 3.1 150 08:50 10.07.2019
5380 Clouds 17 1024 77 10000 1.48 185.981 08:29 10.07.2019
5381 Clouds 16 1025 82 10000 2.6 200 07:54 10.07.2019
5382 Clouds 15 1023 87 10000 2.1 190 07:31 10.07.2019
5383 Clouds 14 1023 87 10000 2.1 200 06:44 10.07.2019
5384 Clouds 13 1024 93 10000 3.1 210 05:59 10.07.2019
5385 Clouds 14 1022 87 10000 3.6 210 04:36 10.07.2019
5386 Clouds 13 1022 93 10000 2.6 260 03:38 10.07.2019
5387 Clear 14 1024 82 10000 2.1 250 00:45 10.07.2019
5388 Clear 15 1024 82 10000 2.6 230 23:59 09.07.2019
5389 Clear 15 1024 77 10000 3.1 170 23:41 09.07.2019
5390 Clear 16 1024 77 10000 3.1 0 23:21 09.07.2019
5391 Clear 16 1024 72 10000 2.1 180 22:40 09.07.2019
5392 Clear 17 1024 63 10000 3.6 160 22:22 09.07.2019
5393 Clear 17 1024 63 10000 3.6 160 21:56 09.07.2019
5394 Clear 18 1024 63 10000 2.6 160 21:37 09.07.2019
5395 Clear 18 1024 63 10000 2.6 160 21:19 09.07.2019
5396 Clouds 18 1023 63 10000 3.23 73.248 20:43 09.07.2019
5397 Clouds 18 1023 63 10000 3.23 73.248 20:24 09.07.2019
5398 Clouds 20 1022 46 10000 2.6 120 19:40 09.07.2019
5399 Clouds 20 1022 46 10000 2.6 120 19:21 09.07.2019
5400 Clouds 19 1022 40 10000 5.1 90 18:45 09.07.2019
5401 Clouds 21 1022 40 10000 5.1 90 18:23 09.07.2019
5402 Clouds 21 1022 40 10000 5.7 80 17:55 09.07.2019
5403 Clouds 22 1021 38 10000 5.1 70 17:37 09.07.2019
5404 Clouds 22 1021 38 10000 5.1 70 17:18 09.07.2019
5405 Clouds 23 1020 33 10000 3.1 80 16:46 09.07.2019
5406 Clouds 23 1020 33 10000 3.1 80 16:24 09.07.2019
5407 Clouds 23 1021 31 10000 5.1 80 15:49 09.07.2019
5408 Clouds 23 1020 38 10000 5.1 80 15:29 09.07.2019
5409 Clouds 23 1021 36 10000 2.6 0 14:47 09.07.2019
5410 Clouds 23 1021 36 10000 2.6 0 14:47 09.07.2019
5411 Clouds 23 1021 36 10000 4.35 119.725 14:25 09.07.2019
5412 Clouds 23 1022 39 10000 3.6 70 13:59 09.07.2019
5413 Clouds 23 1022 41 10000 3.1 40 13:40 09.07.2019
5414 Clouds 23 1022 41 10000 3.1 40 13:21 09.07.2019
5415 Clouds 21 1024 53 10000 2.1 0 12:40 09.07.2019
5416 Clouds 21 1024 49 10000 3.1 110 12:19 09.07.2019
5417 Clouds 21 1024 49 10000 3.1 110 11:57 09.07.2019
5418 Clouds 21 1024 56 10000 5.1 60 11:38 09.07.2019
5419 Clouds 21 1024 56 10000 5.1 60 11:20 09.07.2019
5420 Clouds 20 1025 60 10000 1.5 90 10:49 09.07.2019
5421 Clouds 19 1024 68 10000 2.1 100 10:27 09.07.2019
5422 Clouds 17 1026 77 10000 1 0 09:41 09.07.2019
5423 Clouds 17 1026 77 10000 1 0 09:21 09.07.2019
5424 Clouds 17 1026 77 10000 1 0 09:21 09.07.2019
5425 Clouds 16 1025 72 10000 1.5 20 08:45 09.07.2019
5426 Clouds 16 1025 72 10000 1.5 20 08:23 09.07.2019
5427 Clouds 15 1022 82 10000 2.6 30 03:57 05.07.2019
5428 Clouds 14 1022 82 10000 2.1 10 03:37 05.07.2019
5429 Clouds 15 1022 82 10000 2.1 10 03:18 05.07.2019
5430 Clouds 14 1023 67 10000 2.1 300 02:37 05.07.2019
5431 Clouds 14 1023 77 10000 1 0 01:38 05.07.2019
5432 Clouds 14 1023 77 10000 1 0 01:18 05.07.2019
5433 Clouds 15 1023 68 10000 1 0 00:40 05.07.2019
5434 Clouds 15 1023 63 10000 3.1 140 23:53 04.07.2019
5435 Clouds 17 1024 59 10000 3.1 160 23:21 04.07.2019
5436 Clouds 17 1023 55 10000 5.1 160 22:45 04.07.2019
5437 Clouds 17 1023 55 10000 5.1 160 22:25 04.07.2019
5438 Clouds 17 1023 52 10000 4.6 150 21:57 04.07.2019
5439 Clouds 17 1022 59 10000 2.18 45.631 21:39 04.07.2019
5440 Clouds 18 1022 59 10000 2.78 48.901 21:21 04.07.2019
5441 Clouds 17 1022 49 10000 4.1 130 20:40 04.07.2019
5442 Clouds 18 1022 49 10000 4.1 130 20:22 04.07.2019
5443 Clouds 18 1022 52 10000 4.1 120 19:57 04.07.2019
5444 Clouds 18 1021 56 10000 3.1 120 19:38 04.07.2019
5445 Clouds 18 1021 56 10000 3.1 120 19:20 04.07.2019
5446 Clouds 19 1021 52 10000 2.6 140 18:43 04.07.2019
5447 Clouds 19 1021 52 10000 2.6 140 18:25 04.07.2019
5448 Clouds 20 1021 46 10000 5.1 130 17:46 04.07.2019
5449 Clouds 20 1020 43 10000 4.6 130 17:19 04.07.2019
5450 Clouds 21 1021 41 10000 4.6 150 15:59 04.07.2019
5451 Clouds 21 1019 44 10000 3.6 120 15:40 04.07.2019
5452 Clouds 21 1019 44 10000 3.6 120 15:22 04.07.2019
5453 Clouds 21 1021 44 10000 2.6 190 14:56 04.07.2019
5454 Clouds 21 1021 44 10000 3.6 150 14:37 04.07.2019
5455 Clouds 22 1022 44 10000 4.1 180 14:18 04.07.2019
5456 Clouds 22 1022 44 10000 4.1 180 14:18 04.07.2019
5457 Clouds 22 1022 44 10000 4.1 180 14:18 04.07.2019
5458 Clouds 22 1022 44 10000 4.1 180 13:54 04.07.2019
5459 Clouds 22 1022 44 10000 4.1 180 13:54 04.07.2019
5460 Clouds 22 1022 44 10000 3.6 190 13:36 04.07.2019
5461 Clouds 21 1022 49 10000 3.1 170 13:18 04.07.2019
5462 Clouds 21 1022 43 10000 4.6 210 12:37 04.07.2019
5463 Clouds 20 1023 46 10000 3.1 0 12:19 04.07.2019
5464 Clouds 19 1023 60 10000 4.6 210 11:39 04.07.2019
5465 Clouds 19 1023 60 10000 4.6 210 11:19 04.07.2019
5466 Clouds 19 1023 60 10000 4.6 210 11:19 04.07.2019
5467 Clouds 21 1023 56 10000 6.7 260 10:41 04.07.2019
5468 Clouds 20 1024 56 10000 3.6 200 10:23 04.07.2019
5469 Clouds 20 1024 56 10000 3.6 200 09:45 04.07.2019
5470 Clouds 17 1024 63 10000 4.6 150 09:26 04.07.2019
5471 Clouds 15 1024 68 10000 3.6 180 08:57 04.07.2019
5472 Clouds 14 1024 72 10000 2.6 210 08:28 04.07.2019
5473 Clouds 15 1024 82 10000 1.5 220 07:46 04.07.2019
5474 Clouds 13 1024 82 10000 1.5 220 07:23 04.07.2019
5475 Clouds 13 1023 87 10000 1.5 220 06:55 04.07.2019
5476 Clouds 14 1023 87 10000 2.1 230 05:55 04.07.2019
5477 Clouds 14 1021 87 10000 1.82 82.918 05:36 04.07.2019
5478 Clouds 14 1021 82 10000 1.82 82.918 03:30 04.07.2019
5479 Clouds 15 1022 72 10000 1.5 200 01:45 04.07.2019
5480 Clouds 15 1022 72 10000 1.5 200 01:23 04.07.2019
5481 Clouds 16 1023 68 10000 1 0 00:28 04.07.2019
5482 Clouds 17 1021 77 10000 1.57 71.611 23:47 03.07.2019
5483 Clouds 17 1021 77 10000 1.57 71.611 23:20 03.07.2019
5484 Clouds 17 1023 68 10000 2.1 240 22:55 03.07.2019
5485 Clouds 17 1022 77 10000 1.57 71.611 22:36 03.07.2019
5486 Clouds 17 1022 77 10000 2.02 83.318 22:18 03.07.2019
5487 Clouds 17 1021 77 10000 2.02 83.318 21:46 03.07.2019
5488 Clouds 17 1021 77 10000 2.8 59.254 21:28 03.07.2019
5489 Clouds 18 1022 63 10000 1.5 140 20:46 03.07.2019
5490 Clouds 18 1022 60 10000 4.1 150 20:27 03.07.2019
5491 Clouds 18 1022 60 10000 4.1 150 19:54 03.07.2019
5492 Clouds 18 1021 68 10000 3.1 140 19:36 03.07.2019
5493 Clouds 18 1021 68 10000 4.1 160 18:55 03.07.2019
5494 Clouds 18 1021 68 10000 2.6 130 18:37 03.07.2019
5495 Clouds 18 1021 68 10000 2.6 130 18:18 03.07.2019
5496 Clouds 19 1021 64 10000 3.6 150 17:45 03.07.2019
5497 Clouds 19 1021 64 10000 3.6 150 17:19 03.07.2019
5498 Clouds 19 1020 53 10000 3.6 160 16:44 03.07.2019
5499 Clouds 18 1020 53 10000 3.6 160 16:24 03.07.2019
5500 Clouds 18 1020 56 10000 4.1 150 15:54 03.07.2019
5501 Clouds 20 1020 53 10000 4.1 150 15:36 03.07.2019
5502 Clouds 20 1020 53 10000 4.1 150 15:18 03.07.2019
5503 Clouds 21 1022 56 10000 4.1 150 14:42 03.07.2019
5504 Clouds 21 1022 56 10000 4.1 150 14:19 03.07.2019
5505 Clouds 21 1022 53 10000 2.1 190 13:43 03.07.2019
5506 Clouds 21 1022 53 10000 2.1 190 13:24 03.07.2019
5507 Clouds 20 1022 56 10000 2.1 110 12:51 03.07.2019
5508 Clouds 19 1024 72 10000 2.54 135.831 12:19 03.07.2019
5509 Clouds 19 1024 72 10000 2.54 135.831 11:43 03.07.2019
5510 Clouds 19 1024 72 10000 2.54 135.831 11:23 03.07.2019
5511 Clouds 18 1024 82 10000 2.54 135.831 10:57 03.07.2019
5512 Clouds 18 1024 82 10000 2.54 135.831 10:37 03.07.2019
5513 Clouds 17 1024 82 10000 2.54 135.831 10:18 03.07.2019
5514 Rain 17 1024 82 10000 2.54 135.831 09:40 03.07.2019
5515 Rain 16 1024 82 10000 1.53 132.296 09:20 03.07.2019
5516 Rain 17 1024 82 10000 3.1 150 08:50 03.07.2019
5517 Clouds 16 1023 82 10000 1.79 132.302 08:28 03.07.2019
5518 Clouds 15 1022 87 10000 1.79 132.302 07:45 03.07.2019
5519 Clouds 15 1022 87 10000 1.79 132.302 07:27 03.07.2019
5520 Clouds 14 1022 93 10000 1 360 06:27 03.07.2019
5521 Clouds 14 1021 87 10000 1.28 92.378 05:34 03.07.2019
5522 Clear 13 1022 93 10000 1.5 360 04:44 03.07.2019
5523 Clear 14 1022 87 10000 2.1 350 03:25 03.07.2019
5524 Clouds 14 1021 77 0 2.54 60.538 02:23 03.07.2019
5525 Clear 14 1022 77 10000 2.6 270 01:21 03.07.2019
5526 Clear 14 1022 77 10000 2.6 270 00:52 03.07.2019
5527 Clear 14 1022 77 10000 2.6 270 00:32 03.07.2019
5528 Clear 14 1022 82 10000 3.1 240 23:38 02.07.2019
5529 Clear 16 1022 72 10000 2.1 260 23:20 02.07.2019
5530 Clear 16 1022 72 10000 2.1 260 22:57 02.07.2019
5531 Clear 16 1022 68 10000 1 0 22:38 02.07.2019
5532 Clear 16 1022 68 10000 1 0 22:20 02.07.2019
5533 Clear 17 1022 56 10000 3.6 70 21:46 02.07.2019
5534 Clear 17 1022 56 10000 3.6 70 21:46 02.07.2019
5535 Clear 19 1022 56 10000 2.6 30 21:24 02.07.2019
5536 Clear 19 1022 56 10000 2.6 30 20:58 02.07.2019
5537 Clouds 19 1020 64 10000 4.01 74.435 20:40 02.07.2019
5538 Clear 20 1020 49 10000 3.1 110 20:21 02.07.2019
5539 Clouds 20 1020 64 10000 3.1 30 19:44 02.07.2019
5540 Clouds 20 1020 53 10000 3.6 90 19:24 02.07.2019
5541 Clouds 20 1020 53 10000 3.6 90 18:58 02.07.2019
5542 Clouds 21 1019 46 10000 4.6 100 18:19 02.07.2019
5543 Clouds 21 1019 46 10000 4.6 100 17:58 02.07.2019
5544 Clouds 21 1019 47 10000 3.1 70 17:37 02.07.2019
5545 Clouds 22 1019 47 10000 3.1 80 17:19 02.07.2019
5546 Clouds 22 1019 44 10000 3.1 60 16:43 02.07.2019
5547 Clouds 22 1019 44 10000 3.1 60 16:25 02.07.2019
5548 Clouds 20 1020 47 10000 2.6 80 15:40 02.07.2019
5549 Clouds 21 1020 50 10000 2.97 139.727 15:22 02.07.2019
5550 Clear 18 1011 71 0 2.24 103 14:47 02.07.2019
5551 Clouds 21 1021 47 10000 3.1 100 14:27 02.07.2019
5552 Clouds 22 1021 47 10000 3.1 100 13:44 02.07.2019
5553 Clouds 21 1021 47 10000 3.1 100 13:20 02.07.2019
5554 Clouds 21 1022 53 10000 2.6 130 12:45 02.07.2019
5555 Clouds 21 1022 53 10000 2.6 130 12:24 02.07.2019
5556 Clouds 21 1023 60 10000 2.6 60 11:55 02.07.2019
5557 Clouds 20 1023 56 10000 2.6 0 11:37 02.07.2019
5558 Clouds 20 1023 68 10000 1.5 70 11:18 02.07.2019
5559 Clouds 20 1023 68 10000 2.69 187.617 10:42 02.07.2019
5560 Clouds 20 1023 68 10000 2.69 187.617 10:23 02.07.2019
5561 Clouds 20 1023 68 10000 2.69 187.617 10:23 02.07.2019
5562 Clouds 19 1024 72 10000 2.69 187.617 09:44 02.07.2019
5563 Clouds 18 1024 72 10000 1.1 204.301 09:21 02.07.2019
5564 Clouds 18 1023 77 10000 1.15 195.233 08:42 02.07.2019
5565 Clouds 17 1023 77 10000 1.15 195.233 08:20 02.07.2019
5566 Clouds 16 1024 82 10000 1.5 210 07:53 02.07.2019
5567 Clouds 15 1023 93 10000 2.6 220 07:21 02.07.2019
5568 Clouds 15 1023 93 10000 2.6 220 07:21 02.07.2019
5569 Clouds 14 1022 93 10000 2.1 170 06:47 02.07.2019
5570 Clouds 14 1022 93 10000 2.1 170 06:25 02.07.2019
5571 Clouds 15 1022 87 10000 3.1 210 04:39 02.07.2019
5572 Clouds 15 1022 77 10000 2.32 74.721 01:37 02.07.2019
5573 Clear 16 1023 77 10000 1.5 330 23:49 01.07.2019
5574 Clear 16 1023 67 10000 1 0 23:22 01.07.2019
5575 Clear 16 1022 68 10000 2.27 76.221 22:46 01.07.2019
5576 Clear 16 1022 68 10000 2.27 76.221 22:27 01.07.2019
5577 Clouds 18 1023 60 10000 1.5 300 21:47 01.07.2019
5578 Clear 18 1022 59 10000 3.53 68.903 21:26 01.07.2019
5579 Clouds 19 1022 52 10000 3.1 110 20:51 01.07.2019
5580 Clouds 20 1022 49 10000 3.1 110 20:22 01.07.2019
5581 Clouds 20 1022 49 10000 3.1 110 20:22 01.07.2019
5582 Clouds 20 1021 49 10000 3.6 100 19:59 01.07.2019
5583 Clouds 20 1021 49 10000 3.1 80 19:40 01.07.2019
5584 Clouds 20 1020 49 10000 3.1 130 19:22 01.07.2019
5585 Clouds 20 1020 49 10000 3.1 130 18:53 01.07.2019
5586 Clouds 20 1020 49 10000 3.1 130 18:31 01.07.2019
5587 Clouds 21 1020 44 10000 4.6 100 17:59 01.07.2019
5588 Clouds 21 1020 47 10000 3.6 100 17:41 01.07.2019
5589 Clouds 21 1020 47 10000 3.6 100 17:21 01.07.2019
5590 Clouds 22 1020 38 10000 2.6 80 16:47 01.07.2019
5591 Clouds 22 1020 44 10000 1.5 180 16:25 01.07.2019
5592 Clouds 23 1020 38 10000 4.1 160 15:54 01.07.2019
5593 Clouds 23 1020 38 10000 4.1 160 15:36 01.07.2019
5594 Clouds 23 1021 44 10000 1.5 0 15:18 01.07.2019
5595 Clouds 23 1021 44 10000 5.1 130 14:42 01.07.2019
5596 Clouds 23 1021 44 10000 2.6 0 14:19 01.07.2019
5597 Clouds 22 1022 46 10000 2.6 80 13:40 01.07.2019
5598 Clouds 22 1023 47 10000 2.6 0 13:22 01.07.2019
5599 Clouds 21 1023 49 10000 2.06 152.132 12:46 01.07.2019
5600 Clouds 21 1024 41 10000 2.1 0 12:27 01.07.2019
5601 Clouds 21 1024 41 10000 2.1 0 11:58 01.07.2019
5602 Clouds 20 1024 53 10000 5.7 210 11:39 01.07.2019
5603 Clouds 19 1025 60 10000 2.6 180 11:19 01.07.2019
5604 Clouds 17 1025 64 10000 2.6 210 10:46 01.07.2019
5605 Clouds 18 1025 64 10000 2.1 0 10:22 01.07.2019
5606 Clouds 18 1024 72 10000 3.1 180 09:45 01.07.2019
5607 Clouds 18 1024 72 10000 3.1 180 09:27 01.07.2019
5608 Clouds 17 1025 68 10000 3.6 170 08:59 01.07.2019
5609 Clouds 16 1024 82 10000 3.6 180 08:35 01.07.2019
5610 Clouds 16 1024 87 10000 5.1 180 07:39 01.07.2019
5611 Clouds 16 1024 87 10000 3.6 210 06:52 01.07.2019
5612 Clouds 13 1023 87 10000 3.6 200 05:34 01.07.2019
5613 Clouds 14 1024 77 10000 2.1 260 01:27 01.07.2019
5614 Clouds 14 1024 77 10000 2.1 260 00:44 01.07.2019
5615 Clear 14 1024 77 10000 3.1 250 00:22 01.07.2019
5616 Clear 14 1024 72 10000 3.1 210 23:39 30.06.2019
5617 Clouds 16 1024 63 10000 3.6 0 23:19 30.06.2019
5618 Clouds 16 1024 59 10000 4.6 180 22:43 30.06.2019
5619 Clouds 17 1025 60 10000 2.1 140 22:20 30.06.2019
5620 Clouds 17 1025 64 10000 2.35 74.617 21:41 30.06.2019
5621 Clouds 18 1024 56 10000 1 10 21:19 30.06.2019
5622 Clouds 17 1024 56 10000 1 10 20:55 30.06.2019
5623 Clouds 18 1024 52 10000 3.42 81.106 20:36 30.06.2019
5624 Clouds 18 1024 49 10000 2.1 50 20:18 30.06.2019
5625 Clouds 18 1023 46 10000 2.6 120 19:43 30.06.2019
5626 Clouds 21 1023 46 10000 3.6 140 19:24 30.06.2019
5627 Clouds 20 1022 49 10000 3.6 140 18:26 30.06.2019
5628 Clouds 21 1022 38 10000 3.6 140 17:59 30.06.2019
5629 Clouds 20 1022 41 10000 5.1 120 17:38 30.06.2019
5630 Clouds 22 1022 41 10000 4.6 140 17:18 30.06.2019
5631 Clouds 22 1021 41 10000 5.1 130 16:46 30.06.2019
5632 Clouds 21 1022 41 10000 4.6 160 16:26 30.06.2019
5633 Clouds 21 1022 41 10000 5.1 0 15:38 30.06.2019
5634 Clouds 23 1022 39 10000 5.1 120 15:19 30.06.2019
5635 Clouds 22 1023 39 10000 2.6 0 14:50 30.06.2019
5636 Clouds 22 1023 39 10000 2.6 0 14:50 30.06.2019
5637 Clouds 22 1023 39 10000 2.6 0 14:30 30.06.2019
5638 Clouds 21 1024 47 10000 2.6 180 13:48 30.06.2019
5639 Clouds 22 1024 47 10000 2.6 180 13:29 30.06.2019
5640 Clouds 22 1024 53 10000 2.42 189.412 12:53 30.06.2019
5641 Clouds 21 1024 53 10000 3.1 200.705 12:29 30.06.2019
5642 Clouds 20 1025 56 10000 3.1 160 11:58 30.06.2019
5643 Clouds 19 1026 53 10000 2.6 0 11:39 30.06.2019
5644 Clouds 19 1026 60 10000 2.1 0 11:20 30.06.2019
5645 Clouds 19 1026 60 10000 2.1 0 11:20 30.06.2019
5646 Clouds 19 1026 68 10000 2.1 210 10:54 30.06.2019
5647 Clouds 18 1026 68 10000 2.1 210 10:36 30.06.2019
5648 Clouds 17 1027 68 10000 1.5 0 10:18 30.06.2019
5649 Clouds 16 1026 72 10000 2.1 190 09:41 30.06.2019
5650 Clouds 16 1027 77 10000 1 0 09:19 30.06.2019
5651 Clouds 15 1025 77 10000 1.56 226.692 08:40 30.06.2019
5652 Clouds 15 1026 77 10000 1.5 290 08:21 30.06.2019
5653 Clouds 15 1025 82 10000 1.56 226.692 07:47 30.06.2019
5654 Clouds 14 1025 87 10000 1 0 07:24 30.06.2019
5655 Clouds 14 1024 87 10000 1.56 226.692 06:37 30.06.2019
5656 Clouds 14 1023 93 10000 3.6 200 03:32 30.06.2019
5657 Clear 13 1023 77 0 1.84 63.002 01:53 30.06.2019
5658 Clear 13 1023 82 10000 2.1 240 00:48 30.06.2019
5659 Clouds 15 1023 77 10000 2.1 260 00:24 30.06.2019
5660 Clouds 15 1023 77 10000 1 0 23:53 29.06.2019
5661 Clouds 17 1023 63 10000 2.6 210 23:23 29.06.2019
5662 Clouds 17 1023 68 10000 2.32 74.106 22:48 29.06.2019
5663 Clouds 18 1023 63 10000 1 0 22:25 29.06.2019
5664 Clouds 17 1023 63 10000 2.1 50 21:56 29.06.2019
5665 Clouds 18 1023 60 10000 2.6 50 21:25 29.06.2019
5666 Clouds 18 1023 60 10000 2.6 50 21:25 29.06.2019
5667 Clouds 18 1023 60 10000 2.6 50 21:25 29.06.2019
5668 Clouds 18 1022 60 10000 3.6 70 20:57 29.06.2019
5669 Clouds 18 1022 60 10000 3.6 70 20:36 29.06.2019
5670 Clouds 19 1022 52 10000 4.1 80 20:18 29.06.2019
5671 Clouds 19 1021 56 10000 5.1 80 19:42 29.06.2019
5672 Clouds 20 1022 53 10000 5.7 80 19:21 29.06.2019
5673 Clouds 20 1021 53 10000 4.6 80 18:47 29.06.2019
5674 Clouds 21 1021 50 10000 6.2 80 18:24 29.06.2019
5675 Clouds 21 1020 53 10000 3.1 130 17:39 29.06.2019
5676 Clouds 22 1020 44 10000 3.6 160 17:20 29.06.2019
5677 Clouds 22 1019 44 10000 4.1 140 16:44 29.06.2019
5678 Clouds 23 1020 47 10000 3.6 160 16:25 29.06.2019
5679 Clouds 23 1020 41 10000 3.1 0 15:34 29.06.2019
5680 Clouds 24 1020 41 10000 3.1 0 14:59 29.06.2019
5681 Clouds 24 1020 47 10000 7.2 110 14:41 29.06.2019
5682 Clouds 23 1021 44 10000 3.6 180 14:22 29.06.2019
5683 Clouds 23 1021 53 10000 4.1 120 13:44 29.06.2019
5684 Clouds 22 1022 50 10000 2.6 150 13:25 29.06.2019
5685 Clouds 22 1022 60 10000 6.2 150 12:43 29.06.2019
5686 Clouds 21 1023 56 10000 3.1 0 12:24 29.06.2019
5687 Clouds 21 1023 60 10000 4.1 140 11:48 29.06.2019
5688 Clouds 21 1023 60 10000 4.1 140 11:29 29.06.2019
5689 Clouds 20 1023 68 10000 4.1 150 10:52 29.06.2019
5690 Clouds 20 1023 68 10000 4.1 150 10:29 29.06.2019
5691 Clouds 18 1024 68 10000 3.6 190 09:58 29.06.2019
5692 Clouds 17 1024 77 10000 2.6 160 09:29 29.06.2019
5693 Clouds 15 1024 93 10000 1.81 245.768 08:41 29.06.2019
5694 Clouds 14 1023 93 10000 1.81 245.768 07:46 29.06.2019
5695 Clouds 13 1024 93 10000 3.6 230 07:19 29.06.2019
5696 Clouds 12 1024 93 10000 2.6 240 06:42 29.06.2019
5697 Clouds 13 1023 93 10000 3.1 230 06:20 29.06.2019
5698 Clouds 13 1022 87 10000 1.5 230 02:26 29.06.2019
5699 Clouds 14 1023 87 10000 2.1 220 00:57 29.06.2019
5700 Clouds 14 1023 87 10000 2.6 250 00:00 29.06.2019
5701 Clouds 16 1023 77 10000 1 240 23:24 28.06.2019
5702 Clouds 15 1023 77 10000 2.6 260 22:53 28.06.2019
5703 Clouds 16 1023 77 10000 2.6 260 22:33 28.06.2019
5704 Clouds 16 1022 82 10000 2.1 140 21:47 28.06.2019
5705 Clouds 17 1023 77 10000 1.5 30 21:21 28.06.2019
5706 Clouds 17 1022 82 10000 2.6 130 20:46 28.06.2019
5707 Clouds 18 1023 68 10000 2.6 60 20:26 28.06.2019
5708 Clouds 18 1021 77 10000 2.6 120 19:53 28.06.2019
5709 Clouds 18 1021 77 10000 2.6 120 19:28 28.06.2019
5710 -273 0 0 0 0 0 18:56 28.06.2019
5711 Clouds 19 1021 72 10000 3.6 130 18:38 28.06.2019
5712 Clouds 19 1021 56 10000 4.1 140 18:20 28.06.2019
5713 Clouds 19 1020 72 10000 3.1 140 17:30 28.06.2019
5714 Clouds 20 1021 56 10000 3.1 150 16:51 28.06.2019
5715 Clouds 21 1021 56 10000 3.1 150 16:27 28.06.2019
5716 Clouds 20 1021 60 10000 3.1 190 15:48 28.06.2019
5717 Clouds 20 1021 60 10000 3.6 160 15:24 28.06.2019
5718 Clouds 20 1021 60 10000 3.6 160 14:56 28.06.2019
5719 Clouds 20 1023 68 10000 5.1 160 14:37 28.06.2019
5720 Clouds 20 1022 60 10000 5.1 180 14:18 28.06.2019
5721 Clouds 20 1023 64 10000 5.1 180 13:42 28.06.2019
5722 Clouds 19 1023 64 10000 3.1 170 13:20 28.06.2019
5723 Clouds 19 1023 68 10000 3.6 100 12:47 28.06.2019
5724 Clouds 19 1024 68 10000 2.6 170 11:56 28.06.2019
5725 Clouds 18 1024 68 10000 3.1 170 11:26 28.06.2019
5726 Clouds 19 1025 77 10000 2.5 184.619 10:46 28.06.2019
5727 Clouds 17 1025 77 10000 3.1 190 10:22 28.06.2019
5728 Clouds 18 1024 82 10000 3.1 130 09:49 28.06.2019
5729 Clouds 16 1024 82 10000 3.1 130 09:30 28.06.2019
5730 Clouds 16 1023 87 10000 3.1 170 08:48 28.06.2019
5731 Clouds 15 1023 87 10000 3.1 170 08:26 28.06.2019
5732 Clouds 15 1023 87 10000 3.6 200 07:49 28.06.2019
5733 Clouds 15 1023 87 10000 3.6 200 07:31 28.06.2019
5734 Clouds 14 1023 82 10000 3.1 200 06:33 28.06.2019
5735 Clouds 15 1023 82 10000 2.6 210 01:42 28.06.2019
5736 Clouds 15 1023 82 10000 3.1 200 00:44 28.06.2019
5737 Clouds 16 1023 82 10000 1.79 53.958 23:55 27.06.2019
5738 Clouds 16 1023 82 10000 1.79 53.958 23:37 27.06.2019
5739 Clouds 16 1024 82 10000 2.6 230 23:18 27.06.2019
5740 Clouds 16 1023 88 10000 3.1 220 22:41 27.06.2019
5741 Clear 16 1023 82 10000 3.1 200 22:22 27.06.2019
5742 Clouds 17 1023 77 10000 2.1 160 21:49 27.06.2019
5743 Clouds 17 1023 77 10000 2.1 160 21:31 27.06.2019
5744 Clouds 17 1023 77 10000 1.5 0 20:58 27.06.2019
5745 Clouds 18 1023 82 10000 3.03 83.222 20:40 27.06.2019
5746 Clouds 18 1023 68 10000 3.1 160 20:21 27.06.2019
5747 Clouds 18 1022 77 10000 3.03 83.222 19:46 27.06.2019
5748 Clouds 18 1022 77 10000 3.03 83.222 19:25 27.06.2019
5749 Clouds 19 1021 68 10000 3.1 150 18:44 27.06.2019
5750 Clouds 19 1021 68 10000 3.1 150 18:25 27.06.2019
5751 Clouds 20 1021 60 10000 3.6 130 17:46 27.06.2019
5752 Clouds 21 1021 56 10000 4.6 140 17:23 27.06.2019
5753 Clouds 21 1020 56 10000 4.6 160 16:55 27.06.2019
5754 Clouds 21 1020 56 10000 4.6 160 16:36 27.06.2019
5755 Clouds 21 1021 56 10000 5.1 150 16:18 27.06.2019
5756 Clouds 22 1020 56 10000 5.1 150 15:44 27.06.2019
5757 Clouds 22 1021 60 10000 3.1 150 15:18 27.06.2019
5758 Clouds 22 1021 60 10000 4.6 150 14:42 27.06.2019
5759 Clouds 21 1021 60 10000 2.6 150 14:24 27.06.2019
5760 Clouds 21 1021 64 10000 3.6 120 13:46 27.06.2019
5761 Clouds 20 1023 60 10000 2.1 0 13:27 27.06.2019
5762 Clouds 21 1023 68 10000 3.1 170 12:52 27.06.2019
5763 Clouds 20 1023 68 10000 3.1 170 12:33 27.06.2019
5764 Clouds 19 1023 72 10000 4.1 210 11:56 27.06.2019
5765 Clouds 19 1023 72 10000 4.1 210 11:38 27.06.2019
5766 Clouds 18 1024 77 7000 2.36 183.526 11:20 27.06.2019
5767 Clouds 19 1024 77 7000 2.36 183.526 10:42 27.06.2019
5768 Clouds 17 1025 77 10000 1.5 80 10:20 27.06.2019
5769 Clouds 17 1024 87 5000 2.36 183.526 09:50 27.06.2019
5770 Clouds 16 1025 82 10000 1.5 120 09:22 27.06.2019
5771 Clouds 16 1024 87 10000 0.92 147.577 08:52 27.06.2019
5772 Clouds 16 1024 87 10000 0.92 147.577 08:30 27.06.2019
5773 Clouds 15 1023 87 10000 0.92 147.577 07:53 27.06.2019
5774 Clouds 15 1023 87 10000 0.92 147.577 07:29 27.06.2019
5775 Clouds 14 1023 87 10000 2.6 240 06:43 27.06.2019
5776 Clouds 15 1022 87 10000 3.1 190 04:24 27.06.2019
5777 Clouds 13 1022 87 10000 3.1 190 02:44 27.06.2019
5778 Clouds 14 1023 82 10000 3.1 220 01:48 27.06.2019
5779 Clouds 14 1023 87 10000 2.6 230 00:57 27.06.2019
5780 Clouds 15 1023 87 10000 2.6 230 00:38 27.06.2019
5781 Clouds 16 1024 77 10000 2.6 210 00:18 27.06.2019
5782 Clouds 15 1024 77 10000 2.6 190 23:38 26.06.2019
5783 Clouds 16 1023 77 10000 4.1 190 23:19 26.06.2019
5784 Clouds 16 1023 77 10000 1.71 64.036 22:41 26.06.2019
5785 Clouds 16 1024 72 10000 2.1 220 22:23 26.06.2019
5786 Clouds 17 1024 68 10000 2.6 0 21:55 26.06.2019
5787 Clouds 17 1024 68 10000 2.6 0 21:37 26.06.2019
5788 Clouds 18 1023 68 10000 3.1 160 21:19 26.06.2019
5789 Clouds 18 1022 77 10000 2.6 170 20:43 26.06.2019
5790 Clouds 19 1023 60 10000 4.6 150 20:25 26.06.2019
5791 Clouds 19 1022 64 10000 2.6 140 19:48 26.06.2019
5792 Clouds 18 1022 64 10000 2.6 140 19:30 26.06.2019
5793 Clouds 19 1021 56 10000 2.6 150 18:54 26.06.2019
5794 Clouds 19 1021 56 10000 2.6 150 18:36 26.06.2019
5795 Clouds 19 1022 60 10000 2.1 70 18:18 26.06.2019
5796 Clouds 19 1021 53 10000 2.6 90 17:41 26.06.2019
5797 Clouds 20 1021 53 10000 2.6 80 17:23 26.06.2019
5798 Clouds 20 1021 56 10000 2.6 120 16:50 26.06.2019
5799 Clouds 20 1021 56 10000 2.6 120 16:28 26.06.2019
5800 Clouds 20 1021 60 10000 2.99 134.892 15:48 26.06.2019
5801 Clouds 20 1021 60 10000 2.99 134.892 15:27 26.06.2019
5802 Clouds 20 1023 56 10000 3.4 135.215 14:39 26.06.2019
5803 Clouds 20 1022 53 10000 2.1 0 14:20 26.06.2019
5804 Clouds 19 1023 64 10000 2.6 140 13:45 26.06.2019
5805 Clouds 19 1023 64 10000 1.5 0 13:21 26.06.2019
5806 Clouds 19 1023 77 10000 1.5 130 12:45 26.06.2019
5807 Clouds 18 1023 77 10000 1.5 130 12:27 26.06.2019
5808 Clouds 17 1024 77 10000 1 0 11:55 26.06.2019
5809 Clouds 17 1025 82 10000 2.6 140 11:24 26.06.2019
5810 Rain 15 1016 89 0 0.89 107 10:49 26.06.2019
5811 Rain 17 1024 93 10000 2.62 194.44 10:31 26.06.2019
5812 Rain 17 1024 93 10000 2.62 194.44 10:31 26.06.2019
5813 Rain 17 1024 93 10000 2.62 194.44 09:51 26.06.2019
5814 Rain 16 1024 82 10000 2.6 130 09:27 26.06.2019
5815 Clouds 15 1024 88 10000 2.6 160 08:52 26.06.2019
5816 Clouds 15 1024 88 10000 2.1 180 08:22 26.06.2019
5817 Clouds 17 1024 88 10000 2.1 180 07:57 26.06.2019
5818 Clouds 14 1024 93 10000 1.5 180 07:37 26.06.2019
5819 Clouds 14 1022 93 10000 2.1 230 06:33 26.06.2019
5820 Clouds 15 1022 88 10000 2.1 30 01:36 26.06.2019
5821 Clouds 15 1023 88 10000 1.5 350 00:35 26.06.2019
5822 Clouds 15 1023 88 10000 2.6 80 23:52 25.06.2019
5823 Clouds 15 1023 88 10000 2.6 80 23:32 25.06.2019
5824 Clouds 15 1023 88 10000 3.6 80 22:59 25.06.2019
5825 Clouds 16 1023 88 10000 4.1 70 22:41 25.06.2019
5826 Clouds 16 1023 77 10000 3.6 80 22:22 25.06.2019
5827 Clouds 16 1023 77 10000 4.1 70 21:46 25.06.2019
5828 Clouds 16 1022 77 10000 3.6 70 21:25 25.06.2019
5829 Clouds 16 1022 77 10000 3.6 70 20:48 25.06.2019
5830 Clouds 16 1022 77 10000 3.6 70 20:48 25.06.2019
5831 Clouds 15 1022 77 10000 3.6 70 20:24 25.06.2019
5832 Clouds 16 1022 82 10000 5.1 70 20:24 25.06.2019
5833 Clouds 16 1022 77 10000 4.6 70 19:56 25.06.2019
5834 Clouds 16 1022 77 10000 4.6 70 19:56 25.06.2019
5835 Clouds 16 1022 77 10000 4.6 70 19:56 25.06.2019
5836 Clouds 17 1022 77 10000 4.6 70 19:37 25.06.2019
5837 Clouds 17 1022 77 10000 3.6 30 19:19 25.06.2019
5838 Clouds 17 1020 77 10000 5.1 10 18:42 25.06.2019
5839 Clouds 17 1021 77 10000 4.1 20 18:23 25.06.2019
5840 -273 0 0 0 0 0 17:45 25.06.2019
5841 -273 0 0 0 0 0 17:45 25.06.2019
5842 Clouds 18 1021 68 10000 4.6 40 17:24 25.06.2019
5843 Clouds 18 1021 68 10000 4.6 40 17:24 25.06.2019
5844 Clouds 18 1021 68 10000 4.6 40 17:23 25.06.2019
5845 Clouds 18 1020 72 10000 3.6 30 16:44 25.06.2019
5846 Clouds 18 1020 72 10000 3.6 30 16:25 25.06.2019
5847 Clouds 18 1020 72 10000 3.1 40 15:54 25.06.2019
5848 Clouds 18 1020 72 10000 3.1 40 15:36 25.06.2019
5849 Clouds 19 1020 68 10000 4.1 40 15:18 25.06.2019
5850 Clouds 19 1020 72 10000 5.1 40 14:42 25.06.2019
5851 Clouds 19 1021 72 10000 4.6 40 14:23 25.06.2019
5852 Clouds 19 1021 72 6000 3.37 95.509 13:42 25.06.2019
5853 Clouds 19 1022 72 10000 3.1 60 13:21 25.06.2019
5854 Clouds 17 1012 83 0 1.79 79 12:42 25.06.2019
5855 Clouds 18 1022 82 5000 3.6 70 12:24 25.06.2019
5856 Clouds 18 1022 82 5000 3.6 70 11:44 25.06.2019
5857 Clouds 18 1023 77 10000 2.1 50 11:23 25.06.2019
5858 Clouds 18 1023 77 10000 2.83 115.569 10:55 25.06.2019
5859 Clouds 16 1024 82 10000 2.6 60 10:36 25.06.2019
5860 Clouds 16 1024 82 10000 2.6 60 10:18 25.06.2019
5861 Clouds 16 1023 88 10000 2.6 200 09:39 25.06.2019
5862 Clouds 16 1023 82 10000 1 0 09:21 25.06.2019
5863 Clouds 16 1023 82 10000 0.5 0 08:51 25.06.2019
5864 Clouds 16 1023 87 10000 1 0 08:30 25.06.2019
5865 Clouds 15 1022 87 10000 1.17 162.646 07:43 25.06.2019
5866 Clouds 15 1022 87 10000 2.1 200 07:24 25.06.2019
5867 Clouds 16 1021 93 10000 1.17 162.646 06:44 25.06.2019
5868 Clouds 15 1021 87 10000 2.6 30 05:47 25.06.2019
5869 Clouds 14 1020 82 10000 1 0 02:37 25.06.2019
5870 Clear 17 1020 72 10000 0.85 93.228 00:38 25.06.2019
5871 Clouds 15 1021 82 10000 3.6 70 00:19 25.06.2019
5872 Clouds 16 1022 82 10000 2.6 40 23:51 24.06.2019
5873 Clouds 18 1022 82 10000 2.6 40 23:32 24.06.2019
5874 Clouds 18 1021 72 10000 1.73 53.844 22:46 24.06.2019
5875 Clouds 18 1022 88 10000 2.6 20 22:20 24.06.2019
5876 Clouds 17 1022 82 10000 3.6 20 21:54 24.06.2019
5877 Clouds 17 1022 82 10000 3.6 20 21:36 24.06.2019
5878 Clouds 17 1022 82 10000 2.6 20 21:18 24.06.2019
5879 Clouds 17 1022 82 10000 2.1 350 20:42 24.06.2019
5880 Clouds 18 1021 82 10000 2.1 10 20:22 24.06.2019
5881 Clouds 18 1020 77 10000 2.21 62.995 19:48 24.06.2019
5882 Clouds 19 1021 73 10000 3.6 30 19:26 24.06.2019
5883 Clouds 19 1021 73 10000 3.6 30 18:56 24.06.2019
5884 Clouds 19 1020 73 10000 3.6 20 18:37 24.06.2019
5885 Clouds 20 1020 64 10000 3.1 50 18:18 24.06.2019
5886 Clouds 20 1019 68 10000 4.1 30 17:37 24.06.2019
5887 Clouds 20 1019 64 10000 3.6 60 16:57 24.06.2019
5888 Clouds 21 1019 64 10000 3.6 40 16:39 24.06.2019
5889 Clouds 21 1019 64 10000 3.6 50 16:19 24.06.2019
5890 Clouds 21 1019 73 8000 3.1 40 15:40 24.06.2019
5891 Clouds 21 1020 64 10000 3.6 40 15:22 24.06.2019
5892 Clouds 21 1019 64 8000 2.6 40 14:35 24.06.2019
5893 Clouds 20 1020 64 10000 4.1 40 13:58 24.06.2019
5894 Clouds 21 1021 64 10000 3.1 40 13:32 24.06.2019
5895 Clouds 20 1021 64 10000 2.17 256.873 12:54 24.06.2019
5896 Clouds 20 1021 64 10000 2.17 256.873 12:36 24.06.2019
5897 Clouds 19 1022 64 10000 2.1 80 12:18 24.06.2019
5898 Clouds 20 1021 72 10000 0.22 134.085 11:43 24.06.2019
5899 Clouds 19 1022 72 10000 1.5 0 11:23 24.06.2019
5900 Clouds 19 1022 77 9000 0.22 134.085 10:51 24.06.2019
5901 Fog 18 1023 77 10000 1 0 10:28 24.06.2019
5902 Fog 18 1023 88 8000 0.22 134.085 09:49 24.06.2019
5903 Fog 17 1023 88 10000 0.96 40.795 09:23 24.06.2019
5904 Fog 17 1023 93 7000 0.96 40.795 08:55 24.06.2019
5905 Fog 16 1023 93 7000 1.31 48.084 08:32 24.06.2019
5906 Clouds 16 1022 93 10000 2.6 70 07:47 24.06.2019
5907 Clouds 15 1021 93 10000 2.6 70 07:27 24.06.2019
5908 Clouds 15 1021 93 10000 2.6 70 06:56 24.06.2019
5909 Clouds 15 1021 93 10000 1.33 35.708 06:23 24.06.2019
5910 Clouds 15 1021 93 10000 1.33 35.708 05:29 24.06.2019
5911 Clouds 15 1020 88 10000 1.33 35.708 04:31 24.06.2019
5912 Clouds 16 1020 88 10000 1.33 35.708 03:32 24.06.2019
5913 Clouds 15 1021 88 10000 1.5 330 02:33 24.06.2019
5914 Clouds 15 1021 88 10000 1 350 01:54 24.06.2019
5915 Clouds 16 1022 82 10000 2.6 330 01:28 24.06.2019
5916 Clouds 16 1022 82 10000 2.6 330 00:45 24.06.2019
5917 Clouds 15 1022 93 10000 2.6 320 00:20 24.06.2019
5918 Clouds 15 1022 93 10000 1.5 50 23:47 23.06.2019
5919 Clouds 16 1022 93 10000 1.5 50 23:27 23.06.2019
5920 Clouds 16 1023 77 10000 2.89 86.526 22:55 23.06.2019
5921 Clouds 16 1023 77 10000 2.89 86.526 22:37 23.06.2019
5922 Clouds 16 1022 88 10000 2.1 30 22:19 23.06.2019
5923 Clouds 17 1022 77 10000 2.89 86.526 21:40 23.06.2019
5924 Clouds 17 1022 88 10000 6.2 20 21:21 23.06.2019
5925 Clouds 17 1021 72 10000 2.43 65.817 20:45 23.06.2019
5926 Clouds 18 1021 72 10000 2.6 50 20:26 23.06.2019
5927 Clouds 19 1020 68 10000 2.1 170 19:46 23.06.2019
5928 Clouds 19 1019 68 10000 2.6 160 19:21 23.06.2019
5929 Clouds 19 1019 68 10000 2.6 160 18:54 23.06.2019
5930 Clouds 19 1020 60 10000 1.5 70 18:25 23.06.2019
5931 Clouds 19 1019 60 10000 2.1 300 17:54 23.06.2019
5932 Clouds 19 1019 60 10000 2.1 300 17:28 23.06.2019
5933 Clouds 19 1019 60 10000 2.6 300 16:59 23.06.2019
5934 Clouds 19 1019 56 10000 1.97 106.867 16:41 23.06.2019
5935 Clouds 20 1019 60 10000 4.6 300 16:22 23.06.2019
5936 Clouds 20 1019 64 10000 4.1 280 15:41 23.06.2019
5937 Clouds 24 1020 60 10000 2.52 179.387 15:22 23.06.2019
5938 Clouds 21 1020 60 10000 2.52 179.387 14:42 23.06.2019
5939 Clouds 21 1020 60 10000 2.52 179.387 14:24 23.06.2019
5940 Clouds 21 1020 57 10000 1.5 0 13:59 23.06.2019
5941 Clouds 21 1020 64 10000 2.52 179.387 13:40 23.06.2019
5942 Clouds 21 1021 53 10000 3.1 110 13:19 23.06.2019
5943 Clouds 21 1021 53 10000 3.1 110 13:19 23.06.2019
5944 Clouds 21 1021 60 10000 3.1 100 12:46 23.06.2019
5945 Clouds 21 1022 60 10000 2.6 130 12:23 23.06.2019
5946 Clouds 21 1022 60 10000 2.6 130 11:58 23.06.2019
5947 Clouds 20 1022 64 10000 2.76 194.672 11:40 23.06.2019
5948 Clouds 20 1022 64 10000 1.5 0 11:21 23.06.2019
5949 Clouds 19 1023 68 10000 1 0 10:46 23.06.2019
5950 Clouds 19 1023 68 10000 1 0 10:20 23.06.2019
5951 Clouds 18 1023 82 10000 2.76 194.672 09:44 23.06.2019
5952 Clouds 17 1023 77 10000 2.6 10 09:21 23.06.2019
5953 Clouds 17 1023 82 10000 1 332.515 08:45 23.06.2019
5954 Clouds 17 1023 77 10000 3.6 10 08:27 23.06.2019
5955 Clouds 16 1022 82 10000 3.6 360 07:54 23.06.2019
5956 Clouds 14 1022 87 10000 2.6 350 07:24 23.06.2019
5957 Clouds 14 1022 87 10000 2.1 360 06:54 23.06.2019
5958 Clouds 14 1021 82 10000 1.91 14.146 05:55 23.06.2019
5959 Clouds 14 1020 87 10000 1.5 60 04:38 23.06.2019
5960 Clouds 15 1021 88 10000 1.5 280 02:19 23.06.2019
5961 Clouds 15 1021 82 10000 1.27 28.517 01:37 23.06.2019
5962 Clouds 14 1022 82 10000 1.5 350 00:37 23.06.2019
5963 Clouds 14 1022 88 10000 1.5 360 23:57 22.06.2019
5964 Clouds 16 1022 88 10000 1.5 360 23:38 22.06.2019
5965 Clouds 16 1022 82 10000 1.5 10 23:20 22.06.2019
5966 Clouds 17 1021 82 10000 1.51 123.711 22:44 22.06.2019
5967 Clouds 17 1023 77 10000 1 350 22:22 22.06.2019
5968 Clouds 17 1022 82 10000 1.51 123.711 21:39 22.06.2019
5969 Clouds 17 1022 77 10000 2.1 10 21:20 22.06.2019
5970 Clouds 17 1021 82 10000 2 72.733 20:51 22.06.2019
5971 Clouds 17 1021 82 10000 2 72.733 20:25 22.06.2019
5972 Clouds 18 1021 77 10000 2.6 10 19:50 22.06.2019
5973 Clouds 18 1021 77 10000 2.6 10 19:28 22.06.2019
5974 Clouds 19 1020 73 10000 5.1 30 18:56 22.06.2019
5975 Clouds 19 1020 73 10000 5.1 30 18:36 22.06.2019
5976 Clouds 19 1021 68 10000 4.1 30 18:18 22.06.2019
5977 Clouds 19 1020 64 10000 3.1 60 17:38 22.06.2019
5978 Clouds 20 1020 60 10000 3.1 30 17:18 22.06.2019
5979 Clouds 20 1019 60 10000 2.6 90 16:39 22.06.2019
5980 Clouds 21 1019 60 10000 3.6 140 16:20 22.06.2019
5981 Clouds 20 1019 60 10000 3.6 140 15:41 22.06.2019
5982 Clouds 21 1019 60 10000 4.6 100 15:23 22.06.2019
5983 Clouds 21 1019 60 10000 4.6 100 14:46 22.06.2019
5984 Clouds 20 1019 60 10000 4.6 100 14:28 22.06.2019
5985 Clouds 21 1020 57 10000 3.1 170 13:44 22.06.2019
5986 Clouds 21 1021 57 10000 2.1 0 13:25 22.06.2019
5987 Clouds 21 1021 57 10000 2.1 0 13:25 22.06.2019
5988 Clouds 21 1021 57 10000 2.1 200 12:54 22.06.2019
5989 Clouds 21 1021 57 10000 2.1 200 12:36 22.06.2019
5990 Clouds 21 1021 68 10000 2.84 202.262 11:59 22.06.2019
5991 Clouds 21 1021 68 10000 2.84 202.262 11:36 22.06.2019
5992 Clouds 20 1022 77 10000 3.1 170 10:54 22.06.2019
5993 Clouds 18 1023 72 10000 1.5 0 10:22 22.06.2019
5994 Clouds 18 1023 82 10000 2.84 202.262 09:56 22.06.2019
5995 Clouds 18 1023 82 10000 0.91 212.883 09:28 22.06.2019
5996 Clouds 16 1023 87 10000 0.91 212.883 08:45 22.06.2019
5997 Clouds 16 1022 87 10000 2.1 200 08:26 22.06.2019
5998 Clouds 15 1022 93 10000 0.85 221.135 07:43 22.06.2019
5999 Clouds 14 1022 82 10000 1.5 220 06:58 22.06.2019
6000 Clouds 13 1022 93 10000 0.85 221.135 06:33 22.06.2019
6001 Clouds 14 1022 93 10000 2.1 250 03:21 22.06.2019
6002 Clouds 15 1022 87 10000 1.5 230 02:18 22.06.2019
6003 Clouds 15 1022 93 10000 1.87 64.794 00:48 22.06.2019
6004 Clouds 16 1023 82 10000 1.5 200 00:24 22.06.2019
6005 Clouds 16 1022 82 10000 1.93 55.825 23:49 21.06.2019
6006 Clouds 16 1023 88 10000 2.6 210 23:23 21.06.2019
6007 Clouds 16 1023 88 10000 1.93 55.825 22:54 21.06.2019
6008 Clouds 16 1023 88 10000 1.93 55.825 22:27 21.06.2019
6009 Clouds 16 1023 88 10000 1.5 350 21:58 21.06.2019
6010 Clouds 16 1022 88 10000 1.93 55.825 21:38 21.06.2019
6011 Clouds 16 1022 88 10000 2.45 89.766 21:38 21.06.2019
6012 Clouds 16 1022 88 10000 2.45 89.766 21:38 21.06.2019
6013 Clouds 16 1023 88 10000 2.6 40 21:19 21.06.2019
6014 Clouds 16 1022 88 10000 2.6 70 20:47 21.06.2019
6015 Clouds 16 1022 88 10000 2.6 70 20:24 21.06.2019
6016 Clouds 17 1021 82 10000 3.1 70 19:45 21.06.2019
6017 Clouds 17 1021 82 10000 4.1 30 18:59 21.06.2019
6018 Clouds 17 1021 82 10000 4.1 30 18:35 21.06.2019
6019 Clouds 17 1021 82 10000 3.6 80 17:58 21.06.2019
6020 Clouds 17 1021 77 10000 4.1 120 17:30 21.06.2019
6021 Clouds 18 1021 77 10000 4.1 120 16:43 21.06.2019
6022 Clouds 19 1021 72 10000 3.6 100 16:23 21.06.2019
6023 Clouds 18 1021 72 10000 3.6 100 15:58 21.06.2019
6024 Clouds 19 1021 82 10000 2.99 85.823 15:36 21.06.2019
6025 Clouds 19 1022 82 10000 3.1 100 14:56 21.06.2019
6026 Clouds 19 1022 82 10000 3.1 100 14:37 21.06.2019
6027 Clouds 18 1022 72 10000 3.1 50 14:19 21.06.2019
6028 Clouds 18 1023 72 10000 2.1 80 13:39 21.06.2019
6029 Clouds 18 1023 72 10000 2.1 110 13:21 21.06.2019
6030 Clouds 17 1024 88 10000 2.43 153.857 12:49 21.06.2019
6031 Clouds 17 1024 72 10000 1.5 170 12:22 21.06.2019
6032 Clouds 17 1024 72 10000 1.5 170 12:22 21.06.2019
6033 Clouds 17 1024 82 10000 2.6 150 11:49 21.06.2019
6034 Clouds 17 1024 82 10000 2.6 150 11:28 21.06.2019
6035 Clouds 17 1024 77 10000 2.6 180 10:59 21.06.2019
6036 Clouds 17 1025 88 10000 3.1 150 10:40 21.06.2019
6037 Clouds 17 1025 77 10000 2.1 0 10:20 21.06.2019
6038 Clouds 17 1025 77 10000 1 0 09:42 21.06.2019
6039 Clouds 17 1025 77 10000 1 0 09:22 21.06.2019
6040 Clouds 16 1025 82 10000 2.1 180 08:55 21.06.2019
6041 Clouds 15 1025 82 10000 2.1 180 08:37 21.06.2019
6042 Clouds 16 1025 82 10000 1.5 180 08:18 21.06.2019
6043 Clouds 15 1025 87 10000 2.1 200 07:40 21.06.2019
6044 Clouds 14 1024 87 10000 2.1 190 06:59 21.06.2019
6045 Clouds 14 1024 87 10000 2.6 210 06:25 21.06.2019
6046 Clouds 14 1023 82 10000 3.1 200 05:33 21.06.2019
6047 Clouds 14 1023 87 10000 3.1 0 04:36 21.06.2019
6048 Clouds 14 1022 82 10000 2.6 210 03:41 21.06.2019
6049 Clouds 15 1022 82 10000 3.1 200 03:23 21.06.2019
6050 Clouds 15 1022 87 10000 2.6 220 02:21 21.06.2019
6051 Clouds 15 1022 82 10000 2.1 220 01:27 21.06.2019
6052 Clouds 15 1023 77 10000 1 0 00:29 21.06.2019
6053 Clouds 16 1023 72 10000 3.6 100 23:55 20.06.2019
6054 Clouds 16 1023 72 10000 3.6 100 23:37 20.06.2019
6055 Clouds 16 1023 72 10000 3.6 100 23:37 20.06.2019
6056 Clouds 16 1023 82 10000 3.1 70 23:18 20.06.2019
6057 Clouds 16 1023 72 10000 2.6 40 22:41 20.06.2019
6058 Clouds 17 1023 68 10000 3.6 40 22:22 20.06.2019
6059 Clouds 17 1023 64 10000 3.6 70 21:54 20.06.2019
6060 Clouds 17 1023 64 10000 3.6 70 21:36 20.06.2019
6061 Clouds 17 1023 68 10000 3.6 60 21:18 20.06.2019
6062 Clouds 18 1023 68 10000 3.6 50 20:41 20.06.2019
6063 Clouds 19 1022 64 10000 4.1 50 20:22 20.06.2019
6064 Clouds 19 1021 72 10000 4.6 30 19:45 20.06.2019
6065 Clouds 19 1022 64 10000 4.6 70 19:19 20.06.2019
6066 Clouds 19 1022 64 10000 4.6 70 18:57 20.06.2019
6067 Clouds 19 1021 64 10000 5.1 40 18:38 20.06.2019
6068 Clouds 20 1021 64 10000 4.1 70 18:20 20.06.2019
6069 Clouds 20 1021 64 10000 3.1 140 17:46 20.06.2019
6070 -273 0 0 0 0 0 17:27 20.06.2019
6071 Clouds 21 1020 56 10000 4.1 140 16:42 20.06.2019
6072 Clouds 21 1020 50 10000 4.1 140 16:19 20.06.2019
6073 Clouds 21 1020 56 10000 3.1 140 15:56 20.06.2019
6074 Clouds 21 1020 56 10000 3.1 140 15:37 20.06.2019
6075 Clouds 22 1021 50 10000 3.1 190 15:18 20.06.2019
6076 Clouds 22 1021 53 10000 3.1 170 14:42 20.06.2019
6077 Clouds 22 1021 53 10000 3.1 170 14:21 20.06.2019
6078 Clouds 22 1021 47 10000 2.91 158.07 13:40 20.06.2019
6079 Clouds 21 1022 53 10000 3.1 210 13:19 20.06.2019
6080 Clouds 20 1023 64 10000 3.1 160 12:44 20.06.2019
6081 Clouds 20 1023 56 10000 3.1 200 12:22 20.06.2019
6082 Clouds 20 1023 64 10000 2.6 150 11:45 20.06.2019
6083 Clouds 20 1023 64 10000 2.6 150 11:23 20.06.2019
6084 Clouds 20 1024 72 10000 2.76 198.192 10:47 20.06.2019
6085 Clouds 20 1024 72 10000 2.76 198.192 10:47 20.06.2019
6086 Clouds 19 1025 68 10000 4.1 190 10:25 20.06.2019
6087 Clouds 18 1025 68 10000 4.1 190 09:59 20.06.2019
6088 Clouds 17 1024 82 10000 2.76 198.192 09:40 20.06.2019
6089 Clouds 16 1025 77 10000 3.1 200 09:21 20.06.2019
6090 Clouds 16 1024 87 10000 1.42 213.265 08:45 20.06.2019
6091 Clouds 16 1025 82 10000 2.6 190 08:27 20.06.2019
6092 Clouds 15 1024 93 10000 1.42 213.265 07:53 20.06.2019
6093 Clouds 14 1024 93 10000 1.42 213.265 07:28 20.06.2019
6094 Clouds 13 1024 93 10000 2.1 200 06:27 20.06.2019
6095 Clouds 13 1023 93 10000 1.5 260 04:54 20.06.2019
6096 Clouds 14 1023 82 10000 0.5 260 02:29 20.06.2019
6097 Clouds 17 1024 72 10000 2.1 220 00:34 20.06.2019
6098 Clouds 17 1023 68 10000 1.95 60.004 23:56 19.06.2019
6099 Clouds 17 1023 68 10000 1.95 60.004 23:37 19.06.2019
6100 Clouds 17 1024 77 10000 1 0 23:19 19.06.2019
6101 Clouds 17 1023 82 10000 1.95 60.004 22:40 19.06.2019
6102 Clouds 18 1024 68 10000 2.1 360 22:18 19.06.2019
6103 Clouds 18 1024 68 10000 2.1 360 22:18 19.06.2019
6104 Clouds 18 1023 77 10000 1.95 60.004 21:42 19.06.2019
6105 Clouds 18 1023 72 10000 2.22 64.876 21:23 19.06.2019
6106 Clouds 19 1023 68 10000 2.22 64.876 20:42 19.06.2019
6107 Clouds 19 1023 60 10000 3.6 90 20:22 19.06.2019
6108 Clouds 20 1022 64 10000 2.6 80 19:55 19.06.2019
6109 Clouds 19 1022 64 10000 2.6 80 19:36 19.06.2019
6110 Clouds 20 1022 60 10000 3.6 90 19:18 19.06.2019
6111 Clouds 22 1021 64 10000 2.22 64.876 18:43 19.06.2019
6112 Clouds 21 1021 47 10000 2.6 120 18:20 19.06.2019
6113 Clouds 21 1021 56 10000 3.1 130 17:35 19.06.2019
6114 Clouds 22 1021 53 10000 2.6 130 16:57 19.06.2019
6115 Clouds 22 1021 53 10000 2.6 130 16:38 19.06.2019
6116 Clouds 23 1021 47 10000 3.1 120 16:20 19.06.2019
6117 Clouds 23 1021 50 10000 4.1 100 15:48 19.06.2019
6118 Clouds 23 1021 50 10000 4.1 100 15:26 19.06.2019
6119 Clouds 22 1021 47 10000 6.7 180 14:50 19.06.2019
6120 Clouds 22 1021 47 10000 6.7 180 14:30 19.06.2019
6121 Clouds 22 1023 50 10000 1.5 0 13:59 19.06.2019
6122 Clouds 23 1023 57 10000 2.6 130 13:40 19.06.2019
6123 Clouds 21 1024 53 10000 2.6 0 13:21 19.06.2019
6124 Clouds 21 1024 53 10000 2.6 200 12:44 19.06.2019
6125 Clouds 21 1025 56 10000 3.6 230 12:21 19.06.2019
6126 Clouds 20 1025 60 10000 3.1 160 11:45 19.06.2019
6127 Clouds 20 1025 60 10000 3.1 160 11:26 19.06.2019
6128 Clouds 20 1025 60 10000 2.1 0 10:58 19.06.2019
6129 Clouds 20 1025 64 10000 1.91 206.457 10:40 19.06.2019
6130 Clouds 20 1025 64 10000 1.91 206.457 10:40 19.06.2019
6131 Clouds 19 1025 72 10000 1.91 206.457 10:22 19.06.2019
6132 Clouds 18 1025 72 10000 1.91 206.457 09:39 19.06.2019
6133 Clouds 17 1026 82 10000 1.33 185.561 09:20 19.06.2019
6134 Clouds 16 1026 82 10000 1.39 236.115 08:50 19.06.2019
6135 Clouds 15 1026 87 10000 3.1 200 08:28 19.06.2019
6136 Clouds 15 1025 87 10000 1.39 236.115 07:47 19.06.2019
6137 Clouds 15 1025 87 10000 1.39 236.115 07:25 19.06.2019
6138 Clouds 14 1024 93 10000 1.39 236.115 06:52 19.06.2019
6139 Clouds 14 1025 93 10000 2.6 220 06:28 19.06.2019
6140 Clouds 14 1023 93 10000 1.11 68.046 05:49 19.06.2019
6141 Clouds 13 1024 93 10000 2.6 240 04:41 19.06.2019
6142 Clouds 14 1024 88 10000 1.11 68.046 03:33 19.06.2019
6143 Clouds 14 1025 82 10000 2.6 220 02:26 19.06.2019
6144 Clouds 14 1025 87 10000 2.6 30 01:27 19.06.2019
6145 Clouds 14 1025 82 10000 2.6 50 00:43 19.06.2019
6146 Clouds 16 1025 72 10000 2.6 50 00:20 19.06.2019
6147 Clouds 16 1026 82 10000 1.08 53.471 23:53 18.06.2019
6148 Clouds 16 1026 82 10000 1.08 53.471 23:28 18.06.2019
6149 Clouds 17 1025 82 10000 3.1 70 22:49 18.06.2019
6150 Clouds 17 1026 68 10000 1.5 10 22:25 18.06.2019
6151 Clouds 17 1026 68 10000 1.5 10 21:58 18.06.2019
6152 Clouds 16 1025 82 10000 3.1 60 21:39 18.06.2019
6153 Clouds 17 1025 72 10000 1.5 30 21:21 18.06.2019
6154 Clouds 16 1025 68 10000 2.1 60 20:44 18.06.2019
6155 Clouds 18 1024 60 10000 3.1 70 20:25 18.06.2019
6156 Clouds 17 1023 68 10000 1.5 70 19:47 18.06.2019
6157 Clouds 19 1023 64 10000 2.1 60 19:25 18.06.2019
6158 Clouds 18 1023 64 10000 2.1 60 18:59 18.06.2019
6159 Clouds 18 1023 64 10000 2.1 60 18:39 18.06.2019
6160 Clouds 18 1024 56 10000 2.6 80 18:21 18.06.2019
6161 Clouds 18 1023 64 10000 2.6 100 17:40 18.06.2019
6162 Clouds 17 1024 56 10000 3.1 70 17:20 18.06.2019
6163 Clouds 18 1024 53 10000 3.1 60 16:47 18.06.2019
6164 Clouds 19 1024 53 10000 3.1 60 16:27 18.06.2019
6165 Clouds 20 1023 53 10000 2.6 110 15:55 18.06.2019
6166 Clouds 20 1023 53 10000 2.6 110 15:36 18.06.2019
6167 Clouds 19 1024 56 10000 1.5 90 15:18 18.06.2019
6168 Clouds 20 1023 60 10000 3.1 360 14:42 18.06.2019
6169 Clouds 18 1025 60 10000 1.5 180 14:22 18.06.2019
6170 Clouds 18 1026 68 10000 2.1 180 13:53 18.06.2019
6171 Clouds 18 1026 68 10000 2.1 180 13:32 18.06.2019
6172 Clouds 18 1026 68 10000 2.1 180 12:59 18.06.2019
6173 Clouds 18 1025 68 10000 3.1 150 12:41 18.06.2019
6174 Clouds 18 1026 68 10000 1.5 260 12:23 18.06.2019
6175 Clouds 17 1026 72 10000 2.57 194.783 11:42 18.06.2019
6176 Clouds 18 1027 72 10000 1.5 110 11:21 18.06.2019
6177 Clouds 18 1026 82 10000 2.57 194.783 10:57 18.06.2019
6178 Clouds 18 1026 82 10000 2.57 194.783 10:37 18.06.2019
6179 Clouds 16 1027 77 10000 1.5 110 10:18 18.06.2019
6180 Clouds 17 1026 87 10000 2.57 194.783 09:39 18.06.2019
6181 Clouds 15 1026 93 10000 1.45 198.899 09:18 18.06.2019
6182 Clouds 15 1026 93 10000 1.45 198.899 08:43 18.06.2019
6183 Clouds 15 1026 93 10000 1.45 198.899 08:43 18.06.2019
6184 Clouds 15 1027 82 10000 1.5 150 08:21 18.06.2019
6185 Clouds 15 1025 87 10000 1.45 177.068 07:40 18.06.2019
6186 Clouds 15 1026 82 10000 1.5 120 07:19 18.06.2019
6187 Clouds 13 1025 87 10000 1.5 180 05:39 18.06.2019
6188 Clouds 13 1025 93 10000 2.1 10 04:24 18.06.2019
6189 Clouds 13 1025 87 10000 1 0 02:52 18.06.2019
6190 Clouds 14 1025 82 10000 1.5 290 01:54 18.06.2019
6191 Clouds 14 1026 82 10000 1 0 01:24 18.06.2019
6192 Clouds 14 1026 82 10000 1 0 00:54 18.06.2019
6193 Clouds 16 1026 77 10000 2.6 100 00:26 18.06.2019
6194 Clouds 15 1026 77 10000 3.1 90 23:41 17.06.2019
6195 Clouds 17 1026 68 10000 3.6 80 23:20 17.06.2019
6196 Clouds 17 1026 56 10000 3.1 50 22:55 17.06.2019
6197 Clouds 18 1026 56 10000 3.1 50 22:36 17.06.2019
6198 Clouds 18 1026 56 10000 3.1 50 22:18 17.06.2019
6199 Clouds 19 1025 56 10000 3.6 60 21:41 17.06.2019
6200 Clouds 19 1025 64 10000 3.6 80 21:21 17.06.2019
6201 Clouds 19 1025 60 10000 3.6 80 20:37 17.06.2019
6202 Clouds 19 1024 56 10000 3.1 80 20:18 17.06.2019
6203 Clouds 19 1023 56 10000 2.6 80 19:42 17.06.2019
6204 Clouds 20 1024 53 10000 4.1 90 19:23 17.06.2019
6205 Clouds 20 1023 53 10000 4.1 100 18:58 17.06.2019
6206 Clouds 20 1023 53 10000 4.1 100 18:37 17.06.2019
6207 Clouds 20 1023 49 10000 3.6 80 18:18 17.06.2019
6208 Clouds 19 1023 49 10000 2.6 60 17:46 17.06.2019
6209 Clouds 20 1023 49 10000 2.6 60 17:28 17.06.2019
6210 Clouds 21 1023 47 10000 2.1 60 16:48 17.06.2019
6211 Clouds 21 1022 47 10000 1.5 0 16:29 17.06.2019
6212 Clouds 21 1023 50 10000 1.5 90 15:58 17.06.2019
6213 Clouds 21 1022 53 10000 3.6 160 15:39 17.06.2019
6214 Clouds 21 1023 49 10000 2.6 0 15:19 17.06.2019
6215 Clouds 21 1023 49 10000 2.6 0 14:52 17.06.2019
6216 Clouds 21 1023 56 10000 2.1 188.142 14:32 17.06.2019
6217 Clouds 21 1024 53 10000 2.1 160 13:56 17.06.2019
6218 Clouds 20 1024 53 10000 2.58 191.689 13:38 17.06.2019
6219 Clouds 20 1025 53 10000 3.1 160 13:19 17.06.2019
6220 Clouds 16 1018 79 0 2.58 191.689 12:33 17.06.2019
6221 Clouds 16 1019 81 0 0.45 67 11:58 17.06.2019
6222 Clouds 17 1027 56 10000 5.7 150 11:39 17.06.2019
6223 Clouds 17 1027 56 10000 5.7 150 11:18 17.06.2019
6224 Clouds 20 1027 56 10000 5.7 150 10:46 17.06.2019
6225 -273 0 0 0 0 0 10:28 17.06.2019
6226 Clouds 18 1027 59 10000 5.7 160 09:55 17.06.2019
6227 Clouds 18 1026 68 10000 2.6 120 09:32 17.06.2019
6228 Clouds 13 1020 90 0 0.45 67 08:45 17.06.2019
6229 Clouds 13 1019 91 0 0.92 186.078 08:24 17.06.2019
6230 Clouds 13 1019 90 0 0.92 186.078 07:52 17.06.2019
6231 Clouds 14 1019 89 0 0.92 186.078 07:32 17.06.2019
6232 Clouds 12 1019 94 0 0.92 186.078 06:50 17.06.2019
6233 Clouds 12 1018 93 0 1.98 73.768 06:18 17.06.2019
6234 Clouds 14 1026 77 10000 2.6 230 05:20 17.06.2019
6235 Clouds 13 1025 77 10000 3.1 210 04:23 17.06.2019
6236 Clouds 13 1025 72 10000 2.1 190 03:31 17.06.2019
6237 Clouds 14 1025 67 10000 2.6 220 02:43 17.06.2019
6238 Clouds 14 1025 67 10000 2.6 220 02:25 17.06.2019
6239 Clouds 14 1025 67 10000 2.1 210 01:35 17.06.2019
6240 Clouds 14 1025 77 10000 1.5 170 00:57 17.06.2019
6241 Clouds 14 1025 77 10000 2.6 250 00:36 17.06.2019
6242 Clouds 14 1025 72 10000 2.6 250 00:18 17.06.2019
6243 Clouds 13 1017 90 0 3.58 81 23:39 16.06.2019
6244 Clouds 13 1017 91 0 3.13 105 23:19 16.06.2019
6245 Clouds 13 1018 93 0 4.47 110 22:44 16.06.2019
6246 Clouds 17 1024 77 10000 2.16 71.456 22:20 16.06.2019
6247 Clouds 17 1024 77 10000 2.16 71.456 21:57 16.06.2019
6248 Clouds 17 1024 77 10000 2.16 71.456 21:39 16.06.2019
6249 Clouds 17 1024 64 10000 3.1 70 21:20 16.06.2019
6250 Rain 13 1017 93 0 3.58 106 20:39 16.06.2019
6251 Clouds 19 1023 64 10000 3.6 90 20:19 16.06.2019
6252 Clouds 19 1023 64 10000 3.6 90 19:58 16.06.2019
6253 Clouds 17 1023 64 10000 3.6 90 19:39 16.06.2019
6254 Clouds 18 1023 64 10000 3.6 90 19:21 16.06.2019
6255 Rain 18 1021 60 10000 5.1 70 18:42 16.06.2019
6256 Rain 20 1021 60 10000 5.1 70 18:21 16.06.2019
6257 Rain 20 1021 60 10000 5.1 70 18:21 16.06.2019
6258 Clouds 20 1021 56 10000 4.1 130 17:57 16.06.2019
6259 Clouds 18 1021 53 10000 3.6 150 17:38 16.06.2019
6260 Clouds 18 1021 53 10000 3.6 150 17:20 16.06.2019
6261 Clouds 20 1021 53 10000 2.1 140 16:55 16.06.2019
6262 Clouds 20 1021 53 10000 2.1 140 16:36 16.06.2019
6263 Clouds 20 1021 53 10000 3.1 170 16:18 16.06.2019
6264 Rain 17 1015 87 0 0.45 110 15:39 16.06.2019
6265 Clouds 20 1022 53 10000 3.1 200 15:20 16.06.2019
6266 Clouds 19 1022 53 10000 3.1 200 14:40 16.06.2019
6267 Clouds 20 1022 53 10000 3.1 200 14:21 16.06.2019
6268 Clouds 20 1022 64 10000 2.1 180 13:50 16.06.2019
6269 Clouds 19 1022 60 10000 3.1 180 13:25 16.06.2019
6270 Clouds 17 1023 64 10000 5.7 210 12:47 16.06.2019
6271 Clouds 19 1023 64 10000 5.7 210 12:23 16.06.2019
6272 Clouds 19 1023 64 10000 5.7 210 12:23 16.06.2019
6273 Clouds 19 1024 60 10000 3.6 240 11:59 16.06.2019
6274 Clouds 16 1024 64 10000 4.1 230 11:38 16.06.2019
6275 Clouds 16 1024 64 10000 4.1 230 11:19 16.06.2019
6276 Clouds 19 1025 72 10000 2.6 220 10:45 16.06.2019
6277 Clouds 18 1025 77 10000 1.5 160 10:20 16.06.2019
6278 Clouds 16 1025 82 10000 1.5 210 09:46 16.06.2019
6279 Clouds 15 1025 82 10000 1.5 210 09:25 16.06.2019
6280 Clouds 14 1025 82 10000 2.6 240 08:50 16.06.2019
6281 Clouds 14 1026 82 10000 3.6 200 08:22 16.06.2019
6282 Clouds 14 1025 82 10000 2.6 180 07:50 16.06.2019
6283 Clouds 14 1025 87 10000 2.1 190 07:32 16.06.2019
6284 Clouds 14 1025 87 10000 3.1 170 06:57 16.06.2019
6285 Clouds 14 1024 87 10000 2.1 180 06:21 16.06.2019
6286 Clouds 14 1023 87 10000 3.6 190 05:28 16.06.2019
6287 Clouds 13 1023 93 10000 2.1 240 04:33 16.06.2019
6288 Clouds 13 1022 93 10000 3.1 200 03:51 16.06.2019
6289 Clouds 13 1023 93 10000 3.1 220 03:30 16.06.2019
6290 Clouds 13 1023 93 10000 3.1 230 01:57 16.06.2019
6291 Clouds 13 1015 96 0 1.66 57.529 01:37 16.06.2019
6292 Clouds 13 1015 96 0 1.21 60.973 01:18 16.06.2019
6293 Clouds 13 1016 96 0 1.21 60.973 00:39 16.06.2019
6294 Clouds 13 1016 96 0 2.01 66.446 00:19 16.06.2019
6295 Clouds 13 1017 95 0 2.01 66.446 23:40 15.06.2019
6296 Clouds 13 1017 95 0 2.01 66.446 23:21 15.06.2019
6297 Clouds 13 1017 94 0 2.01 66.446 22:49 15.06.2019
6298 Clouds 13 1017 93 0 2.01 66.446 22:26 15.06.2019
6299 Clouds 14 1017 91 0 2.01 66.446 21:45 15.06.2019
6300 Clouds 14 1017 92 0 2.51 65.928 21:27 15.06.2019
6301 Clouds 17 1023 68 10000 3.6 180 20:46 15.06.2019
6302 Clouds 16 1023 68 10000 3.6 180 20:27 15.06.2019
6303 Clouds 16 1023 68 10000 3.6 180 19:57 15.06.2019
6304 Clouds 16 1022 72 10000 4.6 160 19:38 15.06.2019
6305 Clouds 16 1022 72 10000 4.6 160 19:20 15.06.2019
6306 Clouds 16 1022 68 10000 3.1 160 18:37 15.06.2019
6307 Clouds 17 1022 68 10000 3.1 160 18:19 15.06.2019
6308 Rain 14 1014 91 0 1.94 100.562 17:43 15.06.2019
6309 Rain 14 1014 91 0 1.94 100.562 17:43 15.06.2019
6310 Rain 15 1014 91 0 1.94 100.562 17:21 15.06.2019
6311 Rain 15 1014 89 0 1.94 100.562 16:46 15.06.2019
6312 Rain 16 1014 88 0 1.94 100.562 16:19 15.06.2019
6313 Clouds 19 1021 60 10000 4.6 170 15:43 15.06.2019
6314 Clouds 18 1021 60 10000 4.6 170 15:23 15.06.2019
6315 Clouds 18 1022 60 10000 3.6 180 14:42 15.06.2019
6316 Clouds 17 1022 60 10000 3.6 180 14:19 15.06.2019
6317 Clouds 17 1022 60 10000 3.6 190 13:56 15.06.2019
6318 Clouds 21 1023 60 10000 3.6 210 13:38 15.06.2019
6319 Clouds 21 1023 60 10000 3.6 210 13:18 15.06.2019
6320 Clouds 21 1023 64 10000 2.6 210 12:47 15.06.2019
6321 Clouds 18 1023 56 10000 4.6 190 12:23 15.06.2019
6322 Clouds 17 1024 64 10000 3.6 220 11:51 15.06.2019
6323 Clouds 17 1025 68 10000 3.1 180 11:32 15.06.2019
6324 Clouds 15 1025 68 10000 1 0 10:47 15.06.2019
6325 Clouds 15 1025 68 10000 1 0 10:26 15.06.2019
6326 Clouds 15 1026 72 10000 2.1 180 09:56 15.06.2019
6327 Clouds 15 1026 77 10000 2.1 190 09:38 15.06.2019
6328 Clouds 15 1025 77 10000 3.1 180 09:18 15.06.2019
6329 Clouds 15 1025 87 10000 3.6 170 08:43 15.06.2019
6330 Clouds 15 1025 87 10000 3.6 170 08:24 15.06.2019
6331 Clouds 14 1024 82 10000 3.1 200 07:27 15.06.2019
6332 Clouds 14 1024 87 10000 2.6 200 06:49 15.06.2019
6333 Clouds 14 1023 93 10000 0.93 78.98 06:30 15.06.2019
6334 Clouds 13 1023 87 10000 2.1 200 05:41 15.06.2019
6335 Clouds 14 1023 87 10000 3.1 190 04:59 15.06.2019
6336 Clouds 15 1023 82 10000 3.1 190 04:30 15.06.2019
6337 Clouds 15 1023 93 10000 0.93 78.98 03:33 15.06.2019
6338 Clouds 15 1023 93 10000 0.93 78.98 03:33 15.06.2019
6339 Clouds 15 1022 82 10000 3.6 180 02:37 15.06.2019
6340 Clouds 15 1023 88 10000 0.85 78.81 01:58 15.06.2019
6341 Clouds 15 1023 88 10000 0.85 78.81 01:25 15.06.2019
6342 Clouds 14 1024 82 10000 3.6 220 00:43 15.06.2019
6343 Clouds 16 1024 82 10000 3.6 220 00:25 15.06.2019
6344 Clouds 16 1024 87 10000 4.1 200 23:51 14.06.2019
6345 Clouds 16 1023 77 10000 1.48 81.509 23:23 14.06.2019
6346 Clouds 15 1024 72 10000 4.1 180 22:42 14.06.2019
6347 Clouds 17 1024 72 10000 4.1 180 22:22 14.06.2019
6348 Clouds 17 1024 77 10000 2.6 170 21:49 14.06.2019
6349 Clouds 17 1024 77 10000 2.6 170 21:30 14.06.2019
6350 Clouds 17 1024 72 10000 2.6 190 20:58 14.06.2019
6351 Clouds 18 1024 72 10000 2.6 150 20:39 14.06.2019
6352 Clouds 17 1024 77 10000 3.6 130 20:18 14.06.2019
6353 Clouds 17 1023 77 10000 2.6 140 19:43 14.06.2019
6354 Clouds 18 1023 77 10000 2.6 140 19:23 14.06.2019
6355 Clouds 17 1022 72 10000 4.6 80 18:56 14.06.2019
6356 Clouds 17 1022 72 10000 4.6 80 18:37 14.06.2019
6357 Clouds 18 1022 68 10000 3.6 80 18:19 14.06.2019
6358 Clouds 18 1022 56 10000 4.1 170 17:46 14.06.2019
6359 Clouds 18 1022 56 10000 4.1 170 17:25 14.06.2019
6360 Clouds 18 1022 56 10000 4.1 150 16:55 14.06.2019
6361 Clouds 19 1022 56 10000 3.1 170 16:37 14.06.2019
6362 Clouds 19 1022 56 10000 3.1 170 16:18 14.06.2019
6363 Clouds 19 1022 60 10000 2.6 200 15:39 14.06.2019
6364 Clouds 19 1022 60 10000 2.6 200 15:20 14.06.2019
6365 Clouds 20 1022 53 10000 3.1 170 14:52 14.06.2019
6366 Clouds 20 1022 56 10000 3.6 160 14:32 14.06.2019
6367 Clouds 20 1022 56 10000 3.6 160 14:32 14.06.2019
6368 Clouds 20 1023 56 10000 3.1 0 13:54 14.06.2019
6369 Clouds 19 1023 56 10000 3.6 160 13:36 14.06.2019
6370 Clouds 19 1024 60 10000 3.6 180 13:18 14.06.2019
6371 Clouds 19 1024 56 10000 4.1 200 12:40 14.06.2019
6372 Clouds 19 1024 56 10000 4.1 200 12:22 14.06.2019
6373 Clouds 18 1024 60 10000 4.1 190 11:44 14.06.2019
6374 Clouds 18 1024 60 10000 4.1 190 11:24 14.06.2019
6375 Clouds 17 1025 68 10000 2.1 0 10:50 14.06.2019
6376 Clouds 16 1025 68 10000 2.1 0 10:23 14.06.2019
6377 Clouds 20 1025 68 10000 2.1 0 09:58 14.06.2019
6378 Clouds 19 1025 72 10000 2.6 200 09:39 14.06.2019
6379 Clouds 16 1025 72 10000 2.6 200 09:20 14.06.2019
6380 Clouds 15 1025 88 10000 2.1 230 08:41 14.06.2019
6381 Clouds 15 1025 88 10000 2.1 230 08:18 14.06.2019
6382 Clouds 14 1025 87 10000 2.6 200 07:46 14.06.2019
6383 Clouds 15 1024 87 10000 2.6 190 07:19 14.06.2019
6384 Clouds 14 1023 93 10000 0.97 95.834 06:27 14.06.2019
6385 Clouds 14 1024 87 10000 3.1 220 05:55 14.06.2019
6386 -273 0 0 0 0 0 05:55 14.06.2019
6387 Clouds 15 1023 87 10000 4.1 200 04:57 14.06.2019
6388 Clouds 15 1023 88 10000 2.6 170 04:36 14.06.2019
6389 Clouds 15 1023 88 10000 4.1 190 03:51 14.06.2019
6390 Clouds 14 1023 88 10000 4.1 190 03:24 14.06.2019
6391 Clouds 14 1023 88 10000 3.6 210 02:47 14.06.2019
6392 Clouds 16 1023 88 10000 2.6 180 01:58 14.06.2019
6393 Clouds 16 1024 82 10000 4.1 180 00:49 14.06.2019
6394 Clouds 17 1024 77 10000 3.6 220 00:22 14.06.2019
6395 Clouds 17 1024 77 10000 3.6 220 23:53 13.06.2019
6396 Clouds 17 1024 77 10000 3.6 210 23:27 13.06.2019
6397 Clouds 16 1025 77 10000 2.6 210 22:59 13.06.2019
6398 Clouds 17 1025 77 10000 2.6 170 22:39 13.06.2019
6399 Clouds 17 1025 77 10000 2.6 170 22:20 13.06.2019
6400 Clouds 17 1024 68 10000 2.6 170 21:39 13.06.2019
6401 Clouds 17 1024 68 10000 2.6 170 21:20 13.06.2019
6402 Clouds 18 1023 68 10000 3.6 160 20:45 13.06.2019
6403 Clouds 18 1023 68 10000 3.6 160 20:22 13.06.2019
6404 Clouds 17 1023 68 10000 3.6 160 19:59 13.06.2019
6405 Clouds 17 1023 68 10000 4.6 150 19:40 13.06.2019
6406 Clouds 18 1023 68 10000 4.6 150 19:21 13.06.2019
6407 Clouds 19 1023 64 10000 5.1 130 18:54 13.06.2019
6408 Clouds 19 1021 72 10000 3.1 140 18:36 13.06.2019
6409 Clouds 20 1022 60 10000 4.1 150 18:18 13.06.2019
6410 Clouds 20 1022 56 10000 3.6 140 17:41 13.06.2019
6411 Clouds 20 1022 56 10000 3.6 140 17:20 13.06.2019
6412 Clouds 21 1021 53 10000 4.1 170 16:46 13.06.2019
6413 Clouds 21 1021 53 10000 3.1 110 16:21 13.06.2019
6414 Clouds 21 1021 53 10000 3.1 110 15:57 13.06.2019
6415 Clouds 20 1021 53 10000 3.1 150 15:38 13.06.2019
6416 Clouds 17 1014 83 0 4.05 186.904 15:18 13.06.2019
6417 Clouds 22 1023 53 10000 2.6 0 14:44 13.06.2019
6418 Clouds 21 1023 53 10000 2.6 0 14:25 13.06.2019
6419 Clouds 19 1023 60 10000 2.6 130 13:46 13.06.2019
6420 Clouds 21 1023 60 10000 2.6 130 13:21 13.06.2019
6421 Clouds 19 1024 64 10000 2.6 160 12:44 13.06.2019
6422 Clouds 19 1024 64 10000 2.6 160 12:24 13.06.2019
6423 Clouds 19 1025 64 10000 2.6 190 11:59 13.06.2019
6424 Clouds 19 1026 64 10000 2.6 210 11:41 13.06.2019
6425 Clouds 19 1026 64 10000 2.6 210 11:21 13.06.2019
6426 Clouds 18 1026 68 10000 3.1 170 10:46 13.06.2019
6427 Clouds 19 1026 68 10000 3.1 170 10:27 13.06.2019
6428 -273 0 0 0 0 0 10:27 13.06.2019
6429 Clouds 16 1027 77 10000 2.91 188.773 09:45 13.06.2019
6430 Clouds 16 1027 77 10000 0.5 179.543 09:25 13.06.2019
6431 Clouds 16 1026 77 10000 2.6 130 08:50 13.06.2019
6432 Clouds 16 1026 77 10000 3.1 170 08:29 13.06.2019
6433 Clouds 15 1026 82 10000 2.6 190 07:59 13.06.2019
6434 Clouds 15 1025 87 10000 2.1 200 07:31 13.06.2019
6435 Clouds 14 1025 93 10000 3.1 190 06:52 13.06.2019
6436 Clouds 14 1025 93 10000 3.1 180 06:24 13.06.2019
6437 Clouds 14 1025 93 10000 3.1 180 05:57 13.06.2019
6438 Clouds 14 1024 93 10000 3.1 170 05:37 13.06.2019
6439 Clouds 14 1024 93 10000 3.1 210 05:18 13.06.2019
6440 Clouds 14 1023 93 10000 1.5 240 03:36 13.06.2019
6441 Clouds 15 1024 88 10000 2.1 70 01:43 13.06.2019
6442 Clouds 15 1024 82 10000 3.6 80 00:29 13.06.2019
6443 Rain 15 1024 77 10000 2.6 80 23:26 12.06.2019
6444 Clear 16 1024 77 10000 2.6 50 22:47 12.06.2019
6445 Clear 17 1024 77 10000 2.6 50 22:28 12.06.2019
6446 Clear 17 1024 82 10000 2.1 40 21:59 12.06.2019
6447 Clear 16 1025 77 10000 2.1 60 21:40 12.06.2019
6448 Clear 16 1025 77 10000 2.1 60 21:40 12.06.2019
6449 Clear 17 1025 77 10000 2.1 60 21:22 12.06.2019
6450 Clear 16 1024 77 10000 1.5 60 20:48 12.06.2019
6451 Clear 16 1024 77 10000 1.5 60 20:29 12.06.2019
6452 Clear 17 1024 64 10000 2.6 90 19:57 12.06.2019
6453 Clear 16 1024 72 10000 2.1 0 19:37 12.06.2019
6454 Clear 16 1024 72 10000 2.1 0 19:19 12.06.2019
6455 Clouds 16 1023 64 10000 2.1 140 18:42 12.06.2019
6456 Clouds 16 1023 64 10000 2.1 140 18:23 12.06.2019
6457 Clouds 17 1023 68 10000 2.66 190.318 17:45 12.06.2019
6458 Clouds 18 1023 64 10000 2.66 190.318 17:21 12.06.2019
6459 Clouds 18 1022 68 10000 2.66 190.318 16:43 12.06.2019
6460 Clouds 18 1022 68 10000 2.66 190.318 16:25 12.06.2019
6461 Clouds 19 1022 64 10000 4.1 160 15:58 12.06.2019
6462 Clouds 19 1021 64 10000 2.66 190.318 15:33 12.06.2019
6463 Clouds 19 1021 64 10000 4.1 180 14:55 12.06.2019
6464 Clouds 19 1021 64 10000 4.1 180 14:32 12.06.2019
6465 Clouds 18 1023 64 10000 3.1 190 13:57 12.06.2019
6466 -273 0 0 0 0 0 13:38 12.06.2019
6467 Clouds 18 1023 68 10000 2.6 180 13:19 12.06.2019
6468 Clouds 18 1023 68 10000 2.6 180 13:19 12.06.2019
6469 Clouds 18 1023 68 10000 3.1 182.534 12:40 12.06.2019
6470 Clouds 20 1023 68 10000 1.65 127.044 12:21 12.06.2019
6471 Clouds 19 1024 77 10000 1.65 127.044 11:48 12.06.2019
6472 Clouds 19 1024 77 10000 1.65 127.044 11:30 12.06.2019
6473 Clouds 18 1025 82 10000 2.1 210 10:58 12.06.2019
6474 -273 0 0 0 0 0 10:39 12.06.2019
6475 Clouds 16 1026 82 10000 2.1 240 10:18 12.06.2019
6476 Clouds 15 1025 87 10000 2.1 180 09:41 12.06.2019
6477 Clouds 15 1025 87 10000 2.1 180 09:21 12.06.2019
6478 Clouds 14 1026 93 10000 2.6 160 08:29 12.06.2019
6479 Clouds 14 1026 93 10000 2.6 190 07:58 12.06.2019
6480 Clouds 14 1025 93 10000 2.1 220 07:18 12.06.2019
6481 Rain 14 1024 93 10000 2.1 240 06:39 12.06.2019
6482 Rain 15 1023 87 10000 1.77 59.858 05:25 12.06.2019
6483 Clear 14 1023 82 10000 1 0 02:22 12.06.2019
6484 Clear 14 1024 82 10000 3.1 80 00:47 12.06.2019
6485 Clouds 16 1023 77 10000 3.3 68.853 00:19 12.06.2019
6486 Clear 16 1024 77 10000 2.1 40 23:42 11.06.2019
6487 Clear 16 1024 77 10000 2.1 40 23:23 11.06.2019
6488 Clear 17 1024 72 10000 2.1 120 22:42 11.06.2019
6489 Clear 17 1024 68 10000 2.1 140 22:18 11.06.2019
6490 Clear 17 1024 68 10000 2.1 140 21:56 11.06.2019
6491 Clear 17 1024 68 10000 2.1 90 21:37 11.06.2019
6492 Clear 17 1024 68 10000 2.1 90 21:19 11.06.2019
6493 Clear 16 1024 68 10000 2.6 80 20:46 11.06.2019
6494 Clear 16 1023 64 10000 3.1 70 20:22 11.06.2019
6495 Clear 16 1023 64 10000 3.1 70 19:51 11.06.2019
6496 Clouds 16 1023 68 10000 2.1 70 19:29 11.06.2019
6497 Clouds 16 1023 68 10000 2.1 70 19:29 11.06.2019
6498 Clouds 16 1023 68 10000 2.1 70 18:53 11.06.2019
6499 Clouds 18 1023 64 10000 2.6 70 18:20 11.06.2019
6500 Clouds 18 1021 64 10000 3.2 93.298 17:42 11.06.2019
6501 Clouds 18 1021 64 10000 3.2 93.298 17:22 11.06.2019
6502 Clouds 18 1022 60 10000 3.6 80 16:46 11.06.2019
6503 Clouds 19 1021 60 10000 3.2 93.298 16:24 11.06.2019
6504 Clouds 19 1022 56 10000 3.6 120 15:59 11.06.2019
6505 Clouds 17 1022 56 10000 3.1 130 15:41 11.06.2019
6506 Clouds 21 1022 56 10000 3.1 130 15:20 11.06.2019
6507 Clouds 21 1022 60 10000 3.87 95.856 14:44 11.06.2019
6508 Clouds 21 1023 60 10000 2.1 150 14:21 11.06.2019
6509 Clouds 21 1023 60 10000 2.1 150 13:50 11.06.2019
6510 Clouds 21 1023 60 10000 4.1 140 13:23 11.06.2019
6511 Clouds 20 1024 64 10000 2.6 200 12:43 11.06.2019
6512 Clouds 17 1024 64 10000 2.6 200 12:22 11.06.2019
6513 Clouds 17 1024 64 10000 2.6 200 11:58 11.06.2019
6514 Clouds 16 1025 68 10000 2.6 180 11:36 11.06.2019
6515 Clouds 16 1025 68 10000 2.1 160 11:18 11.06.2019
6516 Clouds 18 1026 72 10000 2.1 190 10:43 11.06.2019
6517 Clouds 17 1026 72 10000 3.1 190 10:24 11.06.2019
6518 Clouds 18 1026 72 10000 2.1 210 09:46 11.06.2019
6519 Clouds 16 1026 72 10000 2.1 210 09:23 11.06.2019
6520 Clouds 15 1025 77 10000 1.5 0 08:42 11.06.2019
6521 Clouds 15 1025 77 10000 1.5 0 08:23 11.06.2019
6522 Clouds 14 1025 77 10000 3.6 170 07:37 11.06.2019
6523 Clouds 13 1024 82 10000 2.1 180 06:55 11.06.2019
6524 Clouds 13 1024 82 10000 3.1 190 06:24 11.06.2019
6525 Clouds 13 1024 82 10000 2.6 190 04:52 11.06.2019
6526 Clouds 13 1023 87 10000 3.6 180 02:49 11.06.2019
6527 Clouds 14 1023 87 10000 3.1 190 01:23 11.06.2019
6528 Clouds 14 1024 87 10000 3.6 200 00:45 11.06.2019
6529 Clouds 14 1024 87 10000 3.1 200 23:47 10.06.2019
6530 Clouds 14 1024 87 10000 3.1 200 23:21 10.06.2019
6531 Clouds 14 1024 87 10000 3.1 210 22:49 10.06.2019
6532 Clouds 14 1024 87 10000 3.1 200 22:31 10.06.2019
6533 Clouds 14 1024 87 10000 2.1 200 21:59 10.06.2019
6534 Clouds 14 1024 87 10000 2.1 140 21:39 10.06.2019
6535 Clouds 14 1024 87 10000 2.1 140 21:21 10.06.2019
6536 Clouds 14 1023 82 10000 3.1 170 20:45 10.06.2019
6537 Clouds 14 1023 82 10000 3.1 170 20:23 10.06.2019
6538 Clouds 14 1023 77 10000 2.6 180 19:53 10.06.2019
6539 Clouds 14 1023 77 10000 2.6 140 19:27 10.06.2019
6540 Clouds 14 1022 72 10000 3.1 140 18:59 10.06.2019
6541 Clouds 14 1022 77 10000 3.1 150 18:41 10.06.2019
6542 Clouds 18 1022 77 10000 3.1 150 18:20 10.06.2019
6543 Clouds 19 1022 68 10000 4.1 140 17:58 10.06.2019
6544 Clouds 19 1022 72 10000 2.6 140 17:37 10.06.2019
6545 Clouds 17 1022 72 10000 2.6 140 17:19 10.06.2019
6546 Clouds 15 1022 72 10000 2.6 0 16:42 10.06.2019
6547 Clouds 15 1021 72 10000 3.6 170 16:23 10.06.2019
6548 Clouds 15 1022 72 10000 2.1 160 15:42 10.06.2019
6549 Clouds 18 1022 72 10000 2.1 160 15:24 10.06.2019
6550 Clouds 18 1023 77 10000 2.6 150 14:49 10.06.2019
6551 Clouds 17 1023 77 10000 2.6 150 14:31 10.06.2019
6552 Clouds 17 1023 72 10000 4.1 170 13:59 10.06.2019
6553 Clouds 18 1023 77 10000 4.6 150 13:40 10.06.2019
6554 Clouds 18 1023 77 10000 4.6 150 13:21 10.06.2019
6555 Clouds 18 1024 72 10000 3.1 150 12:42 10.06.2019
6556 Clouds 16 1024 72 10000 3.1 160 12:23 10.06.2019
6557 Clouds 16 1024 72 10000 2.6 150 11:44 10.06.2019
6558 Clouds 16 1024 72 10000 2.6 150 11:24 10.06.2019
6559 Clouds 14 1024 77 10000 4.1 140 10:42 10.06.2019
6560 Clouds 15 1024 77 10000 4.1 140 10:21 10.06.2019
6561 Clouds 15 1024 87 10000 3.1 180 09:57 10.06.2019
6562 Clouds 15 1025 77 10000 3.6 180 09:38 10.06.2019
6563 Clouds 15 1025 77 10000 3.6 180 09:19 10.06.2019
6564 Clouds 14 1025 82 10000 3.1 140 08:44 10.06.2019
6565 Clouds 15 1025 82 10000 3.1 140 08:23 10.06.2019
6566 Clouds 15 1023 87 10000 3.1 150 07:20 10.06.2019
6567 Clouds 15 1022 93 10000 1.72 352.615 04:29 10.06.2019
6568 Clouds 14 1023 88 10000 2.6 200 01:59 10.06.2019
6569 Clouds 15 1023 88 10000 2.6 200 01:26 10.06.2019
6570 Clouds 14 1022 93 10000 1.91 353.693 00:56 10.06.2019
6571 Clouds 14 1024 93 10000 2.24 352.264 00:19 10.06.2019
6572 Clouds 12 1016 98 0 2.24 352.264 23:42 09.06.2019
6573 Clouds 14 1024 93 10000 2.24 352.264 23:19 09.06.2019
6574 Clouds 12 1017 97 0 2.24 352.264 22:44 09.06.2019
6575 Clouds 15 1023 93 10000 2.24 352.264 22:25 09.06.2019
6576 Rain 15 1023 93 10000 3.1 150 21:45 09.06.2019
6577 Rain 15 1023 93 10000 3.1 150 21:26 09.06.2019
6578 Rain 15 1023 93 10000 3.1 150 20:45 09.06.2019
6579 Rain 15 1023 88 10000 3.1 190 20:23 09.06.2019
6580 Clouds 16 1023 88 10000 1.5 319.199 19:56 09.06.2019
6581 Clouds 16 1023 88 10000 1.5 319.199 19:36 09.06.2019
6582 Clouds 12 1017 97 0 1.31 160.596 19:18 09.06.2019
6583 Clouds 13 1016 97 0 1.31 160.596 18:41 09.06.2019
6584 Clouds 13 1016 97 0 1.31 160.596 18:41 09.06.2019
6585 Clouds 15 1022 82 10000 2.6 100 18:23 09.06.2019
6586 Clouds 15 1022 82 10000 2.6 100 17:48 09.06.2019
6587 Clouds 15 1022 82 10000 2.6 210 17:27 09.06.2019
6588 Clouds 15 1022 82 10000 2.6 210 16:55 09.06.2019
6589 Clouds 13 1016 97 0 3.18 199.244 16:37 09.06.2019
6590 Clouds 17 1022 82 10000 3.1 200 16:19 09.06.2019
6591 Clouds 16 1022 82 10000 4.1 220 15:47 09.06.2019
6592 Clouds 16 1023 93 10000 4.22 191.709 15:27 09.06.2019
6593 Clouds 16 1023 93 10000 4.22 191.709 14:46 09.06.2019
6594 Clouds 16 1023 93 10000 4.22 191.709 14:26 09.06.2019
6595 Rain 16 1023 93 10000 4.22 191.709 13:56 09.06.2019
6596 Rain 16 1024 88 10000 3.1 230 13:35 09.06.2019
6597 Clouds 15 1024 77 10000 5.1 220 12:44 09.06.2019
6598 Rain 16 1024 77 10000 5.1 220 12:26 09.06.2019
6599 Clouds 15 1025 77 10000 5.1 200 11:48 09.06.2019
6600 Clouds 15 1025 77 10000 5.1 200 11:29 09.06.2019
6601 Rain 13 1017 97 0 1.81 242.485 10:47 09.06.2019
6602 Clouds 15 1026 77 10000 4.6 190 10:24 09.06.2019
6603 Rain 13 1018 97 0 1.81 242.485 09:42 09.06.2019
6604 Clouds 15 1026 93 10000 4.6 170 09:24 09.06.2019
6605 Clouds 15 1026 93 10000 4.6 170 08:58 09.06.2019
6606 Clouds 15 1026 93 10000 4.6 170 08:40 09.06.2019
6607 Clouds 15 1025 82 10000 3.6 180 07:50 09.06.2019
6608 Clouds 15 1023 93 10000 2.6 180 06:30 09.06.2019
6609 Clouds 15 1022 93 10000 0.43 182.669 05:46 09.06.2019
6610 Clouds 15 1023 93 10000 1.38 36.895 02:52 09.06.2019
6611 Clouds 15 1024 93 10000 2.6 10 01:36 09.06.2019
6612 Clouds 15 1024 93 10000 2.6 10 01:18 09.06.2019
6613 Clouds 15 1024 93 10000 2.6 10 01:18 09.06.2019
6614 Clouds 15 1024 93 10000 2.1 80 00:22 09.06.2019
6615 Clouds 16 1024 88 10000 2.1 60 23:40 08.06.2019
6616 Rain 16 1024 88 10000 2.1 60 23:22 08.06.2019
6617 Rain 16 1023 93 10000 1.97 35.43 22:44 08.06.2019
6618 Rain 16 1023 93 10000 1.97 35.43 22:25 08.06.2019
6619 Rain 17 1023 93 10000 1.97 35.43 21:56 08.06.2019
6620 Rain 17 1023 93 10000 1.97 35.43 21:38 08.06.2019
6621 Rain 17 1023 93 10000 1.97 35.43 21:38 08.06.2019
6622 Rain 17 1023 93 10000 1.34 106.626 21:19 08.06.2019
6623 Clouds 17 1024 68 10000 2.6 180 20:42 08.06.2019
6624 Clouds 18 1024 68 10000 2.6 180 20:24 08.06.2019
6625 Clouds 18 1022 88 10000 4.1 160 19:43 08.06.2019
6626 Clouds 18 1022 82 10000 3.6 190 19:23 08.06.2019
6627 Clouds 18 1022 82 10000 3.6 190 18:59 08.06.2019
6628 Clouds 17 1022 68 10000 3.6 220 18:40 08.06.2019
6629 Clouds 19 1022 68 10000 3.6 220 18:20 08.06.2019
6630 Clouds 20 1022 64 10000 4.6 220 17:42 08.06.2019
6631 Clouds 20 1021 64 10000 4.1 160 17:19 08.06.2019
6632 Clouds 20 1021 64 10000 4.1 160 16:47 08.06.2019
6633 Clouds 20 1021 64 10000 4.1 160 16:28 08.06.2019
6634 Clouds 20 1021 60 10000 4.6 170 15:49 08.06.2019
6635 Clouds 21 1021 60 10000 3.1 150 15:30 08.06.2019
6636 Clouds 19 1022 57 10000 3.1 200 14:47 08.06.2019
6637 Clouds 21 1022 57 10000 3.1 200 14:28 08.06.2019
6638 Clouds 16 1015 89 0 4.41 194.175 13:44 08.06.2019
6639 Clouds 19 1023 68 10000 3.6 140 12:52 08.06.2019
6640 Clouds 18 1024 64 10000 2.6 170 12:32 08.06.2019
6641 Clouds 20 1025 72 10000 2.1 210 11:44 08.06.2019
6642 Clouds 20 1025 72 10000 2.1 210 11:26 08.06.2019
6643 Clouds 20 1025 72 10000 2.6 200 10:47 08.06.2019
6644 Clouds 19 1025 72 10000 2.6 200 10:24 08.06.2019
6645 Clouds 19 1025 82 10000 3.6 220 09:52 08.06.2019
6646 Clouds 16 1025<